<?xml version="1.0" encoding="UTF-8" standalone="no" ?>
<gpx xmlns="http://www.topografix.com/GPX/1/1" xmlns:xsi="http://www.w3.org/2001/XMLSchema-instance" xsi:schemaLocation="http://www.topografix.com/GPX/1/1 http://www.topografix.com/GPX/1/1/gpx.xsd" version="1.1" creator="VisuGPX - https://www.visugpx.com">
  <metadata>
    <name>70 CCC La petite Sart d'Avette 2019</name>
    <desc><![CDATA[Randonnée au départ de l'école de Mons-Lez-Liège.
Mons - Awirs - Stockay - Bodegnée - Villers-le-Bouillet - Warnant-Dreye - Vaux-et-Borset - Vieux-Waleffes - Les Waleffes - Borlez - Haneffe - Horion - Cahottes - Mons.]]></desc>
  </metadata>
  <trk>
    <name><![CDATA[69 CCC]]></name>
    <extensions>
      <line xmlns="http://www.topografix.com/GPX/gpx_style/0/2">
        <color>0000FF</color>
        <width>4</width>
      </line>
    </extensions>
    <trkseg>
      <trkpt lat="50.62075" lon="5.45149">
        <ele>179.80000305176</ele>
        <time>2019-08-30T07:24:46.000Z</time>
      </trkpt>
      <trkpt lat="50.62082" lon="5.45162">
        <ele>179.80000305176</ele>
        <time>2019-08-30T07:24:49.000Z</time>
      </trkpt>
      <trkpt lat="50.62088" lon="5.45171">
        <ele>179.80000305176</ele>
        <time>2019-08-30T07:24:50.000Z</time>
      </trkpt>
      <trkpt lat="50.62088" lon="5.45171">
        <ele>179.80000305176</ele>
        <time>2019-08-30T07:24:51.000Z</time>
      </trkpt>
      <trkpt lat="50.62111" lon="5.45212">
        <ele>179.80000305176</ele>
        <time>2019-08-30T07:24:59.000Z</time>
      </trkpt>
      <trkpt lat="50.62118" lon="5.45225">
        <ele>179.80000305176</ele>
        <time>2019-08-30T07:25:01.000Z</time>
      </trkpt>
      <trkpt lat="50.62137" lon="5.45257">
        <ele>179.80000305176</ele>
        <time>2019-08-30T07:25:07.000Z</time>
      </trkpt>
      <trkpt lat="50.62161" lon="5.45302">
        <ele>179.80000305176</ele>
        <time>2019-08-30T07:25:15.000Z</time>
      </trkpt>
      <trkpt lat="50.62167" lon="5.45313">
        <ele>179.39999389648</ele>
        <time>2019-08-30T07:25:17.000Z</time>
      </trkpt>
      <trkpt lat="50.6217" lon="5.45318">
        <ele>178.39999389648</ele>
        <time>2019-08-30T07:25:18.000Z</time>
      </trkpt>
      <trkpt lat="50.62173" lon="5.45323">
        <ele>178</ele>
        <time>2019-08-30T07:25:19.000Z</time>
      </trkpt>
      <trkpt lat="50.62176" lon="5.45328">
        <ele>177.60000610352</ele>
        <time>2019-08-30T07:25:20.000Z</time>
      </trkpt>
      <trkpt lat="50.62182" lon="5.45337">
        <ele>177.60000610352</ele>
        <time>2019-08-30T07:25:22.000Z</time>
      </trkpt>
      <trkpt lat="50.62202" lon="5.45374">
        <ele>177.60000610352</ele>
        <time>2019-08-30T07:25:30.000Z</time>
      </trkpt>
      <trkpt lat="50.62224" lon="5.45409">
        <ele>177.60000610352</ele>
        <time>2019-08-30T07:25:38.000Z</time>
      </trkpt>
      <trkpt lat="50.62242" lon="5.45438">
        <ele>177.60000610352</ele>
        <time>2019-08-30T07:25:45.000Z</time>
      </trkpt>
      <trkpt lat="50.62261" lon="5.45472">
        <ele>177.60000610352</ele>
        <time>2019-08-30T07:25:54.000Z</time>
      </trkpt>
      <trkpt lat="50.62276" lon="5.45498">
        <ele>178</ele>
        <time>2019-08-30T07:26:00.000Z</time>
      </trkpt>
      <trkpt lat="50.62279" lon="5.45502">
        <ele>178.39999389648</ele>
        <time>2019-08-30T07:26:01.000Z</time>
      </trkpt>
      <trkpt lat="50.62282" lon="5.45507">
        <ele>178.80000305176</ele>
        <time>2019-08-30T07:26:02.000Z</time>
      </trkpt>
      <trkpt lat="50.62284" lon="5.4551">
        <ele>179.39999389648</ele>
        <time>2019-08-30T07:26:03.000Z</time>
      </trkpt>
      <trkpt lat="50.62286" lon="5.45514">
        <ele>179.80000305176</ele>
        <time>2019-08-30T07:26:04.000Z</time>
      </trkpt>
      <trkpt lat="50.62297" lon="5.45533">
        <ele>179.80000305176</ele>
        <time>2019-08-30T07:26:09.000Z</time>
      </trkpt>
      <trkpt lat="50.62305" lon="5.45546">
        <ele>179.80000305176</ele>
        <time>2019-08-30T07:26:13.000Z</time>
      </trkpt>
      <trkpt lat="50.62307" lon="5.45549">
        <ele>179.80000305176</ele>
        <time>2019-08-30T07:26:14.000Z</time>
      </trkpt>
      <trkpt lat="50.62313" lon="5.45559">
        <ele>179.80000305176</ele>
        <time>2019-08-30T07:26:20.000Z</time>
      </trkpt>
      <trkpt lat="50.62313" lon="5.45559">
        <ele>179.80000305176</ele>
        <time>2019-08-30T07:26:21.000Z</time>
      </trkpt>
      <trkpt lat="50.62315" lon="5.45562">
        <ele>179.80000305176</ele>
        <time>2019-08-30T07:26:28.000Z</time>
      </trkpt>
      <trkpt lat="50.62318" lon="5.45568">
        <ele>179.80000305176</ele>
        <time>2019-08-30T07:26:31.000Z</time>
      </trkpt>
      <trkpt lat="50.62323" lon="5.45574">
        <ele>179.80000305176</ele>
        <time>2019-08-30T07:26:36.000Z</time>
      </trkpt>
      <trkpt lat="50.62323" lon="5.45574">
        <ele>179.80000305176</ele>
        <time>2019-08-30T07:26:37.000Z</time>
      </trkpt>
      <trkpt lat="50.62327" lon="5.45571">
        <ele>179.80000305176</ele>
        <time>2019-08-30T07:26:57.000Z</time>
      </trkpt>
      <trkpt lat="50.62331" lon="5.45569">
        <ele>179.80000305176</ele>
        <time>2019-08-30T07:26:59.000Z</time>
      </trkpt>
      <trkpt lat="50.62336" lon="5.45559">
        <ele>179.80000305176</ele>
        <time>2019-08-30T07:27:03.000Z</time>
      </trkpt>
      <trkpt lat="50.62336" lon="5.45557">
        <ele>179.80000305176</ele>
        <time>2019-08-30T07:27:04.000Z</time>
      </trkpt>
      <trkpt lat="50.62336" lon="5.45556">
        <ele>179.80000305176</ele>
        <time>2019-08-30T07:27:05.000Z</time>
      </trkpt>
      <trkpt lat="50.62336" lon="5.45546">
        <ele>179.80000305176</ele>
        <time>2019-08-30T07:27:25.000Z</time>
      </trkpt>
      <trkpt lat="50.62336" lon="5.45542">
        <ele>179.80000305176</ele>
        <time>2019-08-30T07:27:26.000Z</time>
      </trkpt>
      <trkpt lat="50.62337" lon="5.45539">
        <ele>180.19999694824</ele>
        <time>2019-08-30T07:27:27.000Z</time>
      </trkpt>
      <trkpt lat="50.62336" lon="5.45536">
        <ele>180.60000610352</ele>
        <time>2019-08-30T07:27:28.000Z</time>
      </trkpt>
      <trkpt lat="50.62336" lon="5.45534">
        <ele>181</ele>
        <time>2019-08-30T07:27:29.000Z</time>
      </trkpt>
      <trkpt lat="50.62336" lon="5.45529">
        <ele>181.39999389648</ele>
        <time>2019-08-30T07:27:30.000Z</time>
      </trkpt>
      <trkpt lat="50.62336" lon="5.45525">
        <ele>181.80000305176</ele>
        <time>2019-08-30T07:27:31.000Z</time>
      </trkpt>
      <trkpt lat="50.62336" lon="5.45519">
        <ele>181.80000305176</ele>
        <time>2019-08-30T07:27:32.000Z</time>
      </trkpt>
      <trkpt lat="50.62333" lon="5.45473">
        <ele>181.80000305176</ele>
        <time>2019-08-30T07:27:41.000Z</time>
      </trkpt>
      <trkpt lat="50.62334" lon="5.45445">
        <ele>181.80000305176</ele>
        <time>2019-08-30T07:27:46.000Z</time>
      </trkpt>
      <trkpt lat="50.62333" lon="5.45399">
        <ele>181.80000305176</ele>
        <time>2019-08-30T07:27:54.000Z</time>
      </trkpt>
      <trkpt lat="50.62332" lon="5.45361">
        <ele>181.80000305176</ele>
        <time>2019-08-30T07:28:01.000Z</time>
      </trkpt>
      <trkpt lat="50.6233" lon="5.45311">
        <ele>181.80000305176</ele>
        <time>2019-08-30T07:28:10.000Z</time>
      </trkpt>
      <trkpt lat="50.6233" lon="5.453">
        <ele>181.80000305176</ele>
        <time>2019-08-30T07:28:12.000Z</time>
      </trkpt>
      <trkpt lat="50.62328" lon="5.45269">
        <ele>181.80000305176</ele>
        <time>2019-08-30T07:28:18.000Z</time>
      </trkpt>
      <trkpt lat="50.62327" lon="5.45235">
        <ele>181.80000305176</ele>
        <time>2019-08-30T07:28:24.000Z</time>
      </trkpt>
      <trkpt lat="50.62327" lon="5.4523">
        <ele>182.19999694824</ele>
        <time>2019-08-30T07:28:25.000Z</time>
      </trkpt>
      <trkpt lat="50.62326" lon="5.45224">
        <ele>182.60000610352</ele>
        <time>2019-08-30T07:28:26.000Z</time>
      </trkpt>
      <trkpt lat="50.62327" lon="5.45219">
        <ele>183</ele>
        <time>2019-08-30T07:28:27.000Z</time>
      </trkpt>
      <trkpt lat="50.62326" lon="5.45213">
        <ele>183.39999389648</ele>
        <time>2019-08-30T07:28:28.000Z</time>
      </trkpt>
      <trkpt lat="50.62326" lon="5.45208">
        <ele>183.80000305176</ele>
        <time>2019-08-30T07:28:29.000Z</time>
      </trkpt>
      <trkpt lat="50.62327" lon="5.45191">
        <ele>183.80000305176</ele>
        <time>2019-08-30T07:28:32.000Z</time>
      </trkpt>
      <trkpt lat="50.62326" lon="5.45158">
        <ele>183.80000305176</ele>
        <time>2019-08-30T07:28:38.000Z</time>
      </trkpt>
      <trkpt lat="50.62324" lon="5.45112">
        <ele>183.80000305176</ele>
        <time>2019-08-30T07:28:46.000Z</time>
      </trkpt>
      <trkpt lat="50.62322" lon="5.45074">
        <ele>183.80000305176</ele>
        <time>2019-08-30T07:28:53.000Z</time>
      </trkpt>
      <trkpt lat="50.62324" lon="5.45036">
        <ele>183.80000305176</ele>
        <time>2019-08-30T07:29:00.000Z</time>
      </trkpt>
      <trkpt lat="50.62325" lon="5.44991">
        <ele>183.80000305176</ele>
        <time>2019-08-30T07:29:08.000Z</time>
      </trkpt>
      <trkpt lat="50.62325" lon="5.44952">
        <ele>183.80000305176</ele>
        <time>2019-08-30T07:29:15.000Z</time>
      </trkpt>
      <trkpt lat="50.62326" lon="5.44918">
        <ele>184.19999694824</ele>
        <time>2019-08-30T07:29:21.000Z</time>
      </trkpt>
      <trkpt lat="50.62326" lon="5.44913">
        <ele>184.60000610352</ele>
        <time>2019-08-30T07:29:22.000Z</time>
      </trkpt>
      <trkpt lat="50.62326" lon="5.44907">
        <ele>185</ele>
        <time>2019-08-30T07:29:23.000Z</time>
      </trkpt>
      <trkpt lat="50.62326" lon="5.44902">
        <ele>185.80000305176</ele>
        <time>2019-08-30T07:29:24.000Z</time>
      </trkpt>
      <trkpt lat="50.62327" lon="5.44873">
        <ele>185.80000305176</ele>
        <time>2019-08-30T07:29:29.000Z</time>
      </trkpt>
      <trkpt lat="50.62329" lon="5.44834">
        <ele>185.80000305176</ele>
        <time>2019-08-30T07:29:36.000Z</time>
      </trkpt>
      <trkpt lat="50.62333" lon="5.44798">
        <ele>185.80000305176</ele>
        <time>2019-08-30T07:29:43.000Z</time>
      </trkpt>
      <trkpt lat="50.62335" lon="5.44784">
        <ele>185.80000305176</ele>
        <time>2019-08-30T07:29:48.000Z</time>
      </trkpt>
      <trkpt lat="50.62336" lon="5.44779">
        <ele>185.80000305176</ele>
        <time>2019-08-30T07:29:58.000Z</time>
      </trkpt>
      <trkpt lat="50.62337" lon="5.44774">
        <ele>185.80000305176</ele>
        <time>2019-08-30T07:30:00.000Z</time>
      </trkpt>
      <trkpt lat="50.62337" lon="5.44771">
        <ele>186.19999694824</ele>
        <time>2019-08-30T07:30:01.000Z</time>
      </trkpt>
      <trkpt lat="50.62337" lon="5.44767">
        <ele>186.80000305176</ele>
        <time>2019-08-30T07:30:02.000Z</time>
      </trkpt>
      <trkpt lat="50.62337" lon="5.44762">
        <ele>187.19999694824</ele>
        <time>2019-08-30T07:30:03.000Z</time>
      </trkpt>
      <trkpt lat="50.62338" lon="5.44759">
        <ele>187.60000610352</ele>
        <time>2019-08-30T07:30:04.000Z</time>
      </trkpt>
      <trkpt lat="50.62338" lon="5.44754">
        <ele>188</ele>
        <time>2019-08-30T07:30:05.000Z</time>
      </trkpt>
      <trkpt lat="50.6234" lon="5.44742">
        <ele>188</ele>
        <time>2019-08-30T07:30:09.000Z</time>
      </trkpt>
      <trkpt lat="50.6234" lon="5.44742">
        <ele>188</ele>
        <time>2019-08-30T07:30:10.000Z</time>
      </trkpt>
      <trkpt lat="50.6234" lon="5.44741">
        <ele>188</ele>
        <time>2019-08-30T07:30:32.000Z</time>
      </trkpt>
      <trkpt lat="50.6234" lon="5.44735">
        <ele>188</ele>
        <time>2019-08-30T07:30:34.000Z</time>
      </trkpt>
      <trkpt lat="50.62343" lon="5.44711">
        <ele>188</ele>
        <time>2019-08-30T07:30:40.000Z</time>
      </trkpt>
      <trkpt lat="50.62347" lon="5.44675">
        <ele>188</ele>
        <time>2019-08-30T07:30:47.000Z</time>
      </trkpt>
      <trkpt lat="50.62351" lon="5.44632">
        <ele>188</ele>
        <time>2019-08-30T07:30:55.000Z</time>
      </trkpt>
      <trkpt lat="50.62354" lon="5.44592">
        <ele>188</ele>
        <time>2019-08-30T07:31:02.000Z</time>
      </trkpt>
      <trkpt lat="50.62355" lon="5.44561">
        <ele>188</ele>
        <time>2019-08-30T07:31:07.000Z</time>
      </trkpt>
      <trkpt lat="50.62356" lon="5.44505">
        <ele>188</ele>
        <time>2019-08-30T07:31:16.000Z</time>
      </trkpt>
      <trkpt lat="50.62353" lon="5.44454">
        <ele>188</ele>
        <time>2019-08-30T07:31:24.000Z</time>
      </trkpt>
      <trkpt lat="50.62351" lon="5.44428">
        <ele>188</ele>
        <time>2019-08-30T07:31:28.000Z</time>
      </trkpt>
      <trkpt lat="50.6235" lon="5.44415">
        <ele>188</ele>
        <time>2019-08-30T07:31:30.000Z</time>
      </trkpt>
      <trkpt lat="50.62347" lon="5.44395">
        <ele>188</ele>
        <time>2019-08-30T07:31:33.000Z</time>
      </trkpt>
      <trkpt lat="50.62342" lon="5.44368">
        <ele>188</ele>
        <time>2019-08-30T07:31:37.000Z</time>
      </trkpt>
      <trkpt lat="50.62341" lon="5.44362">
        <ele>188</ele>
        <time>2019-08-30T07:31:38.000Z</time>
      </trkpt>
      <trkpt lat="50.62336" lon="5.44322">
        <ele>188</ele>
        <time>2019-08-30T07:31:44.000Z</time>
      </trkpt>
      <trkpt lat="50.62334" lon="5.44315">
        <ele>187.60000610352</ele>
        <time>2019-08-30T07:31:45.000Z</time>
      </trkpt>
      <trkpt lat="50.62333" lon="5.44309">
        <ele>187.19999694824</ele>
        <time>2019-08-30T07:31:46.000Z</time>
      </trkpt>
      <trkpt lat="50.62333" lon="5.44302">
        <ele>186.80000305176</ele>
        <time>2019-08-30T07:31:47.000Z</time>
      </trkpt>
      <trkpt lat="50.62331" lon="5.44295">
        <ele>186.39999389648</ele>
        <time>2019-08-30T07:31:48.000Z</time>
      </trkpt>
      <trkpt lat="50.6233" lon="5.44288">
        <ele>186</ele>
        <time>2019-08-30T07:31:49.000Z</time>
      </trkpt>
      <trkpt lat="50.62328" lon="5.44281">
        <ele>186</ele>
        <time>2019-08-30T07:31:50.000Z</time>
      </trkpt>
      <trkpt lat="50.62318" lon="5.44236">
        <ele>186</ele>
        <time>2019-08-30T07:31:57.000Z</time>
      </trkpt>
      <trkpt lat="50.62317" lon="5.4423">
        <ele>186</ele>
        <time>2019-08-30T07:32:00.000Z</time>
      </trkpt>
      <trkpt lat="50.62315" lon="5.44226">
        <ele>186</ele>
        <time>2019-08-30T07:32:13.000Z</time>
      </trkpt>
      <trkpt lat="50.62314" lon="5.44216">
        <ele>186</ele>
        <time>2019-08-30T07:32:16.000Z</time>
      </trkpt>
      <trkpt lat="50.62309" lon="5.44191">
        <ele>186</ele>
        <time>2019-08-30T07:32:21.000Z</time>
      </trkpt>
      <trkpt lat="50.62307" lon="5.44169">
        <ele>185.39999389648</ele>
        <time>2019-08-30T07:32:26.000Z</time>
      </trkpt>
      <trkpt lat="50.62306" lon="5.44166">
        <ele>183.80000305176</ele>
        <time>2019-08-30T07:33:11.000Z</time>
      </trkpt>
      <trkpt lat="50.62306" lon="5.44157">
        <ele>183.80000305176</ele>
        <time>2019-08-30T07:33:14.000Z</time>
      </trkpt>
      <trkpt lat="50.62311" lon="5.44127">
        <ele>183.80000305176</ele>
        <time>2019-08-30T07:33:20.000Z</time>
      </trkpt>
      <trkpt lat="50.62326" lon="5.4409">
        <ele>183.80000305176</ele>
        <time>2019-08-30T07:33:27.000Z</time>
      </trkpt>
      <trkpt lat="50.62341" lon="5.44062">
        <ele>183.80000305176</ele>
        <time>2019-08-30T07:33:33.000Z</time>
      </trkpt>
      <trkpt lat="50.62351" lon="5.44047">
        <ele>183.80000305176</ele>
        <time>2019-08-30T07:33:38.000Z</time>
      </trkpt>
      <trkpt lat="50.62352" lon="5.44047">
        <ele>183.80000305176</ele>
        <time>2019-08-30T07:33:51.000Z</time>
      </trkpt>
      <trkpt lat="50.62355" lon="5.44041">
        <ele>183.80000305176</ele>
        <time>2019-08-30T07:33:54.000Z</time>
      </trkpt>
      <trkpt lat="50.62366" lon="5.44019">
        <ele>183.80000305176</ele>
        <time>2019-08-30T07:34:00.000Z</time>
      </trkpt>
      <trkpt lat="50.62372" lon="5.43995">
        <ele>183.80000305176</ele>
        <time>2019-08-30T07:34:05.000Z</time>
      </trkpt>
      <trkpt lat="50.62372" lon="5.43986">
        <ele>183.80000305176</ele>
        <time>2019-08-30T07:34:08.000Z</time>
      </trkpt>
      <trkpt lat="50.62372" lon="5.43983">
        <ele>183.80000305176</ele>
        <time>2019-08-30T07:34:14.000Z</time>
      </trkpt>
      <trkpt lat="50.62372" lon="5.43975">
        <ele>183.80000305176</ele>
        <time>2019-08-30T07:34:16.000Z</time>
      </trkpt>
      <trkpt lat="50.62369" lon="5.43954">
        <ele>183.80000305176</ele>
        <time>2019-08-30T07:34:20.000Z</time>
      </trkpt>
      <trkpt lat="50.62365" lon="5.43936">
        <ele>183.80000305176</ele>
        <time>2019-08-30T07:34:23.000Z</time>
      </trkpt>
      <trkpt lat="50.62362" lon="5.43918">
        <ele>183.80000305176</ele>
        <time>2019-08-30T07:34:26.000Z</time>
      </trkpt>
      <trkpt lat="50.62351" lon="5.43864">
        <ele>183.80000305176</ele>
        <time>2019-08-30T07:34:34.000Z</time>
      </trkpt>
      <trkpt lat="50.62348" lon="5.4385">
        <ele>183.39999389648</ele>
        <time>2019-08-30T07:34:36.000Z</time>
      </trkpt>
      <trkpt lat="50.62347" lon="5.43843">
        <ele>182.80000305176</ele>
        <time>2019-08-30T07:34:37.000Z</time>
      </trkpt>
      <trkpt lat="50.62346" lon="5.43835">
        <ele>182.39999389648</ele>
        <time>2019-08-30T07:34:38.000Z</time>
      </trkpt>
      <trkpt lat="50.62344" lon="5.43828">
        <ele>182</ele>
        <time>2019-08-30T07:34:39.000Z</time>
      </trkpt>
      <trkpt lat="50.62343" lon="5.4382">
        <ele>181.60000610352</ele>
        <time>2019-08-30T07:34:40.000Z</time>
      </trkpt>
      <trkpt lat="50.62341" lon="5.43813">
        <ele>181.60000610352</ele>
        <time>2019-08-30T07:34:41.000Z</time>
      </trkpt>
      <trkpt lat="50.62335" lon="5.43791">
        <ele>181.60000610352</ele>
        <time>2019-08-30T07:34:44.000Z</time>
      </trkpt>
      <trkpt lat="50.62329" lon="5.4377">
        <ele>181.60000610352</ele>
        <time>2019-08-30T07:34:47.000Z</time>
      </trkpt>
      <trkpt lat="50.62316" lon="5.43735">
        <ele>181.60000610352</ele>
        <time>2019-08-30T07:34:53.000Z</time>
      </trkpt>
      <trkpt lat="50.62304" lon="5.43701">
        <ele>181.60000610352</ele>
        <time>2019-08-30T07:35:00.000Z</time>
      </trkpt>
      <trkpt lat="50.62287" lon="5.43658">
        <ele>181.60000610352</ele>
        <time>2019-08-30T07:35:09.000Z</time>
      </trkpt>
      <trkpt lat="50.62276" lon="5.4363">
        <ele>182</ele>
        <time>2019-08-30T07:35:15.000Z</time>
      </trkpt>
      <trkpt lat="50.62274" lon="5.43626">
        <ele>182.39999389648</ele>
        <time>2019-08-30T07:35:16.000Z</time>
      </trkpt>
      <trkpt lat="50.62272" lon="5.43621">
        <ele>182.80000305176</ele>
        <time>2019-08-30T07:35:17.000Z</time>
      </trkpt>
      <trkpt lat="50.6227" lon="5.43617">
        <ele>183.19999694824</ele>
        <time>2019-08-30T07:35:18.000Z</time>
      </trkpt>
      <trkpt lat="50.62268" lon="5.43613">
        <ele>183.60000610352</ele>
        <time>2019-08-30T07:35:19.000Z</time>
      </trkpt>
      <trkpt lat="50.62258" lon="5.43588">
        <ele>183.60000610352</ele>
        <time>2019-08-30T07:35:25.000Z</time>
      </trkpt>
      <trkpt lat="50.62246" lon="5.43559">
        <ele>184.19999694824</ele>
        <time>2019-08-30T07:35:32.000Z</time>
      </trkpt>
      <trkpt lat="50.62245" lon="5.43555">
        <ele>184.60000610352</ele>
        <time>2019-08-30T07:35:33.000Z</time>
      </trkpt>
      <trkpt lat="50.62245" lon="5.43551">
        <ele>185</ele>
        <time>2019-08-30T07:35:34.000Z</time>
      </trkpt>
      <trkpt lat="50.62244" lon="5.43547">
        <ele>185.80000305176</ele>
        <time>2019-08-30T07:35:35.000Z</time>
      </trkpt>
      <trkpt lat="50.62243" lon="5.43541">
        <ele>185.80000305176</ele>
        <time>2019-08-30T07:35:38.000Z</time>
      </trkpt>
      <trkpt lat="50.62243" lon="5.43541">
        <ele>185.80000305176</ele>
        <time>2019-08-30T07:35:39.000Z</time>
      </trkpt>
      <trkpt lat="50.62242" lon="5.43534">
        <ele>185.80000305176</ele>
        <time>2019-08-30T07:36:58.000Z</time>
      </trkpt>
      <trkpt lat="50.62241" lon="5.43528">
        <ele>185.80000305176</ele>
        <time>2019-08-30T07:37:00.000Z</time>
      </trkpt>
      <trkpt lat="50.62236" lon="5.43509">
        <ele>185.80000305176</ele>
        <time>2019-08-30T07:37:05.000Z</time>
      </trkpt>
      <trkpt lat="50.62235" lon="5.43484">
        <ele>185.80000305176</ele>
        <time>2019-08-30T07:37:10.000Z</time>
      </trkpt>
      <trkpt lat="50.62234" lon="5.4348">
        <ele>186.19999694824</ele>
        <time>2019-08-30T07:37:11.000Z</time>
      </trkpt>
      <trkpt lat="50.62233" lon="5.43475">
        <ele>186.60000610352</ele>
        <time>2019-08-30T07:37:12.000Z</time>
      </trkpt>
      <trkpt lat="50.62232" lon="5.43472">
        <ele>187</ele>
        <time>2019-08-30T07:37:13.000Z</time>
      </trkpt>
      <trkpt lat="50.62231" lon="5.43469">
        <ele>187.80000305176</ele>
        <time>2019-08-30T07:37:14.000Z</time>
      </trkpt>
      <trkpt lat="50.6223" lon="5.43468">
        <ele>187.80000305176</ele>
        <time>2019-08-30T07:37:15.000Z</time>
      </trkpt>
      <trkpt lat="50.62229" lon="5.43466">
        <ele>187.80000305176</ele>
        <time>2019-08-30T07:37:21.000Z</time>
      </trkpt>
      <trkpt lat="50.62222" lon="5.43463">
        <ele>187.80000305176</ele>
        <time>2019-08-30T07:37:24.000Z</time>
      </trkpt>
      <trkpt lat="50.62212" lon="5.43458">
        <ele>187.80000305176</ele>
        <time>2019-08-30T07:37:27.000Z</time>
      </trkpt>
      <trkpt lat="50.62209" lon="5.43454">
        <ele>187.80000305176</ele>
        <time>2019-08-30T07:37:28.000Z</time>
      </trkpt>
      <trkpt lat="50.62199" lon="5.43424">
        <ele>187.80000305176</ele>
        <time>2019-08-30T07:37:34.000Z</time>
      </trkpt>
      <trkpt lat="50.62198" lon="5.43422">
        <ele>187.80000305176</ele>
        <time>2019-08-30T07:37:35.000Z</time>
      </trkpt>
      <trkpt lat="50.62198" lon="5.43422">
        <ele>187.80000305176</ele>
        <time>2019-08-30T07:37:36.000Z</time>
      </trkpt>
      <trkpt lat="50.62197" lon="5.43419">
        <ele>187.80000305176</ele>
        <time>2019-08-30T07:39:19.000Z</time>
      </trkpt>
      <trkpt lat="50.62196" lon="5.43415">
        <ele>187.80000305176</ele>
        <time>2019-08-30T07:39:21.000Z</time>
      </trkpt>
      <trkpt lat="50.62194" lon="5.43408">
        <ele>187.80000305176</ele>
        <time>2019-08-30T07:39:23.000Z</time>
      </trkpt>
      <trkpt lat="50.62191" lon="5.43401">
        <ele>187.80000305176</ele>
        <time>2019-08-30T07:39:25.000Z</time>
      </trkpt>
      <trkpt lat="50.62185" lon="5.43382">
        <ele>187.80000305176</ele>
        <time>2019-08-30T07:39:30.000Z</time>
      </trkpt>
      <trkpt lat="50.62171" lon="5.43344">
        <ele>187.80000305176</ele>
        <time>2019-08-30T07:39:39.000Z</time>
      </trkpt>
      <trkpt lat="50.62166" lon="5.43331">
        <ele>188.19999694824</ele>
        <time>2019-08-30T07:39:42.000Z</time>
      </trkpt>
      <trkpt lat="50.62164" lon="5.43327">
        <ele>189.19999694824</ele>
        <time>2019-08-30T07:39:43.000Z</time>
      </trkpt>
      <trkpt lat="50.62162" lon="5.43323">
        <ele>189.60000610352</ele>
        <time>2019-08-30T07:39:44.000Z</time>
      </trkpt>
      <trkpt lat="50.6216" lon="5.43319">
        <ele>190</ele>
        <time>2019-08-30T07:39:45.000Z</time>
      </trkpt>
      <trkpt lat="50.62158" lon="5.43316">
        <ele>190</ele>
        <time>2019-08-30T07:39:46.000Z</time>
      </trkpt>
      <trkpt lat="50.62142" lon="5.4329">
        <ele>190</ele>
        <time>2019-08-30T07:39:53.000Z</time>
      </trkpt>
      <trkpt lat="50.62119" lon="5.43267">
        <ele>190</ele>
        <time>2019-08-30T07:40:01.000Z</time>
      </trkpt>
      <trkpt lat="50.62097" lon="5.43245">
        <ele>190</ele>
        <time>2019-08-30T07:40:08.000Z</time>
      </trkpt>
      <trkpt lat="50.62082" lon="5.43229">
        <ele>190</ele>
        <time>2019-08-30T07:40:12.000Z</time>
      </trkpt>
      <trkpt lat="50.62074" lon="5.43219">
        <ele>190</ele>
        <time>2019-08-30T07:40:14.000Z</time>
      </trkpt>
      <trkpt lat="50.62045" lon="5.43188">
        <ele>190</ele>
        <time>2019-08-30T07:40:21.000Z</time>
      </trkpt>
      <trkpt lat="50.62024" lon="5.43169">
        <ele>190</ele>
        <time>2019-08-30T07:40:27.000Z</time>
      </trkpt>
      <trkpt lat="50.61999" lon="5.43156">
        <ele>190</ele>
        <time>2019-08-30T07:40:34.000Z</time>
      </trkpt>
      <trkpt lat="50.61972" lon="5.43137">
        <ele>190</ele>
        <time>2019-08-30T07:40:42.000Z</time>
      </trkpt>
      <trkpt lat="50.61948" lon="5.43106">
        <ele>190</ele>
        <time>2019-08-30T07:40:50.000Z</time>
      </trkpt>
      <trkpt lat="50.61925" lon="5.43073">
        <ele>190</ele>
        <time>2019-08-30T07:40:57.000Z</time>
      </trkpt>
      <trkpt lat="50.61922" lon="5.43068">
        <ele>190</ele>
        <time>2019-08-30T07:40:58.000Z</time>
      </trkpt>
      <trkpt lat="50.6191" lon="5.43051">
        <ele>190</ele>
        <time>2019-08-30T07:41:02.000Z</time>
      </trkpt>
      <trkpt lat="50.61907" lon="5.43046">
        <ele>190</ele>
        <time>2019-08-30T07:41:03.000Z</time>
      </trkpt>
      <trkpt lat="50.61891" lon="5.43024">
        <ele>190</ele>
        <time>2019-08-30T07:41:08.000Z</time>
      </trkpt>
      <trkpt lat="50.6187" lon="5.42995">
        <ele>190</ele>
        <time>2019-08-30T07:41:15.000Z</time>
      </trkpt>
      <trkpt lat="50.61849" lon="5.42965">
        <ele>190</ele>
        <time>2019-08-30T07:41:23.000Z</time>
      </trkpt>
      <trkpt lat="50.6183" lon="5.42945">
        <ele>190</ele>
        <time>2019-08-30T07:41:29.000Z</time>
      </trkpt>
      <trkpt lat="50.61799" lon="5.42917">
        <ele>190</ele>
        <time>2019-08-30T07:41:37.000Z</time>
      </trkpt>
      <trkpt lat="50.61792" lon="5.42911">
        <ele>189.60000610352</ele>
        <time>2019-08-30T07:41:40.000Z</time>
      </trkpt>
      <trkpt lat="50.61791" lon="5.4291">
        <ele>189.19999694824</ele>
        <time>2019-08-30T07:41:41.000Z</time>
      </trkpt>
      <trkpt lat="50.6179" lon="5.4291">
        <ele>188.80000305176</ele>
        <time>2019-08-30T07:41:42.000Z</time>
      </trkpt>
      <trkpt lat="50.6179" lon="5.4291">
        <ele>188.19999694824</ele>
        <time>2019-08-30T07:41:43.000Z</time>
      </trkpt>
      <trkpt lat="50.61789" lon="5.42908">
        <ele>187.80000305176</ele>
        <time>2019-08-30T07:41:50.000Z</time>
      </trkpt>
      <trkpt lat="50.61787" lon="5.42906">
        <ele>187.80000305176</ele>
        <time>2019-08-30T07:41:51.000Z</time>
      </trkpt>
      <trkpt lat="50.61776" lon="5.42884">
        <ele>187.80000305176</ele>
        <time>2019-08-30T07:41:56.000Z</time>
      </trkpt>
      <trkpt lat="50.61771" lon="5.42861">
        <ele>187.80000305176</ele>
        <time>2019-08-30T07:42:01.000Z</time>
      </trkpt>
      <trkpt lat="50.61772" lon="5.42856">
        <ele>187.39999389648</ele>
        <time>2019-08-30T07:42:04.000Z</time>
      </trkpt>
      <trkpt lat="50.61773" lon="5.42855">
        <ele>187</ele>
        <time>2019-08-30T07:42:05.000Z</time>
      </trkpt>
      <trkpt lat="50.61773" lon="5.42855">
        <ele>186.60000610352</ele>
        <time>2019-08-30T07:42:06.000Z</time>
      </trkpt>
      <trkpt lat="50.61772" lon="5.42849">
        <ele>185.80000305176</ele>
        <time>2019-08-30T07:42:30.000Z</time>
      </trkpt>
      <trkpt lat="50.61772" lon="5.42845">
        <ele>185.80000305176</ele>
        <time>2019-08-30T07:42:31.000Z</time>
      </trkpt>
      <trkpt lat="50.61778" lon="5.42825">
        <ele>185.80000305176</ele>
        <time>2019-08-30T07:42:35.000Z</time>
      </trkpt>
      <trkpt lat="50.6179" lon="5.42793">
        <ele>185.80000305176</ele>
        <time>2019-08-30T07:42:40.000Z</time>
      </trkpt>
      <trkpt lat="50.61804" lon="5.42753">
        <ele>185.80000305176</ele>
        <time>2019-08-30T07:42:46.000Z</time>
      </trkpt>
      <trkpt lat="50.61807" lon="5.4274">
        <ele>185.39999389648</ele>
        <time>2019-08-30T07:42:48.000Z</time>
      </trkpt>
      <trkpt lat="50.61807" lon="5.42736">
        <ele>184.80000305176</ele>
        <time>2019-08-30T07:42:49.000Z</time>
      </trkpt>
      <trkpt lat="50.61807" lon="5.42735">
        <ele>184.39999389648</ele>
        <time>2019-08-30T07:42:50.000Z</time>
      </trkpt>
      <trkpt lat="50.61807" lon="5.42735">
        <ele>184</ele>
        <time>2019-08-30T07:42:51.000Z</time>
      </trkpt>
      <trkpt lat="50.61807" lon="5.42729">
        <ele>183.60000610352</ele>
        <time>2019-08-30T07:43:01.000Z</time>
      </trkpt>
      <trkpt lat="50.61808" lon="5.42725">
        <ele>183.60000610352</ele>
        <time>2019-08-30T07:43:02.000Z</time>
      </trkpt>
      <trkpt lat="50.61809" lon="5.42711">
        <ele>183.60000610352</ele>
        <time>2019-08-30T07:43:06.000Z</time>
      </trkpt>
      <trkpt lat="50.61808" lon="5.42711">
        <ele>183.60000610352</ele>
        <time>2019-08-30T07:43:07.000Z</time>
      </trkpt>
      <trkpt lat="50.61809" lon="5.4271">
        <ele>183.60000610352</ele>
        <time>2019-08-30T07:43:09.000Z</time>
      </trkpt>
      <trkpt lat="50.61809" lon="5.42708">
        <ele>183.60000610352</ele>
        <time>2019-08-30T07:43:18.000Z</time>
      </trkpt>
      <trkpt lat="50.6181" lon="5.42706">
        <ele>183.60000610352</ele>
        <time>2019-08-30T07:43:19.000Z</time>
      </trkpt>
      <trkpt lat="50.61815" lon="5.42694">
        <ele>183.60000610352</ele>
        <time>2019-08-30T07:43:24.000Z</time>
      </trkpt>
      <trkpt lat="50.61817" lon="5.42687">
        <ele>183.60000610352</ele>
        <time>2019-08-30T07:43:26.000Z</time>
      </trkpt>
      <trkpt lat="50.61819" lon="5.42672">
        <ele>183.60000610352</ele>
        <time>2019-08-30T07:43:30.000Z</time>
      </trkpt>
      <trkpt lat="50.6182" lon="5.42645">
        <ele>183.60000610352</ele>
        <time>2019-08-30T07:43:37.000Z</time>
      </trkpt>
      <trkpt lat="50.6182" lon="5.4263">
        <ele>184</ele>
        <time>2019-08-30T07:43:41.000Z</time>
      </trkpt>
      <trkpt lat="50.61819" lon="5.42628">
        <ele>184.39999389648</ele>
        <time>2019-08-30T07:43:42.000Z</time>
      </trkpt>
      <trkpt lat="50.61819" lon="5.42628">
        <ele>184.80000305176</ele>
        <time>2019-08-30T07:43:43.000Z</time>
      </trkpt>
      <trkpt lat="50.61818" lon="5.42625">
        <ele>185.60000610352</ele>
        <time>2019-08-30T07:43:53.000Z</time>
      </trkpt>
      <trkpt lat="50.61817" lon="5.42618">
        <ele>185.60000610352</ele>
        <time>2019-08-30T07:43:55.000Z</time>
      </trkpt>
      <trkpt lat="50.61813" lon="5.4259">
        <ele>185.60000610352</ele>
        <time>2019-08-30T07:44:02.000Z</time>
      </trkpt>
      <trkpt lat="50.6181" lon="5.42567">
        <ele>185.60000610352</ele>
        <time>2019-08-30T07:44:08.000Z</time>
      </trkpt>
      <trkpt lat="50.6181" lon="5.42565">
        <ele>185.60000610352</ele>
        <time>2019-08-30T07:44:10.000Z</time>
      </trkpt>
      <trkpt lat="50.61809" lon="5.42561">
        <ele>185.60000610352</ele>
        <time>2019-08-30T07:44:39.000Z</time>
      </trkpt>
      <trkpt lat="50.61809" lon="5.42558">
        <ele>185.60000610352</ele>
        <time>2019-08-30T07:44:40.000Z</time>
      </trkpt>
      <trkpt lat="50.61809" lon="5.42555">
        <ele>186</ele>
        <time>2019-08-30T07:44:41.000Z</time>
      </trkpt>
      <trkpt lat="50.6181" lon="5.42552">
        <ele>186.39999389648</ele>
        <time>2019-08-30T07:44:42.000Z</time>
      </trkpt>
      <trkpt lat="50.6181" lon="5.42549">
        <ele>186.80000305176</ele>
        <time>2019-08-30T07:44:43.000Z</time>
      </trkpt>
      <trkpt lat="50.6181" lon="5.42545">
        <ele>187.19999694824</ele>
        <time>2019-08-30T07:44:44.000Z</time>
      </trkpt>
      <trkpt lat="50.61811" lon="5.42541">
        <ele>187.60000610352</ele>
        <time>2019-08-30T07:44:45.000Z</time>
      </trkpt>
      <trkpt lat="50.61811" lon="5.42536">
        <ele>187.60000610352</ele>
        <time>2019-08-30T07:44:46.000Z</time>
      </trkpt>
      <trkpt lat="50.61816" lon="5.42498">
        <ele>187.60000610352</ele>
        <time>2019-08-30T07:44:55.000Z</time>
      </trkpt>
      <trkpt lat="50.6182" lon="5.42475">
        <ele>188</ele>
        <time>2019-08-30T07:45:01.000Z</time>
      </trkpt>
      <trkpt lat="50.61822" lon="5.42471">
        <ele>188.39999389648</ele>
        <time>2019-08-30T07:45:02.000Z</time>
      </trkpt>
      <trkpt lat="50.61823" lon="5.42468">
        <ele>188.80000305176</ele>
        <time>2019-08-30T07:45:03.000Z</time>
      </trkpt>
      <trkpt lat="50.61823" lon="5.42466">
        <ele>189.60000610352</ele>
        <time>2019-08-30T07:45:04.000Z</time>
      </trkpt>
      <trkpt lat="50.61823" lon="5.42465">
        <ele>189.60000610352</ele>
        <time>2019-08-30T07:45:06.000Z</time>
      </trkpt>
      <trkpt lat="50.61825" lon="5.42462">
        <ele>189.60000610352</ele>
        <time>2019-08-30T07:45:11.000Z</time>
      </trkpt>
      <trkpt lat="50.61827" lon="5.42457">
        <ele>189.60000610352</ele>
        <time>2019-08-30T07:45:13.000Z</time>
      </trkpt>
      <trkpt lat="50.61836" lon="5.42435">
        <ele>189.60000610352</ele>
        <time>2019-08-30T07:45:19.000Z</time>
      </trkpt>
      <trkpt lat="50.6184" lon="5.42419">
        <ele>189.60000610352</ele>
        <time>2019-08-30T07:45:24.000Z</time>
      </trkpt>
      <trkpt lat="50.6184" lon="5.42415">
        <ele>189.60000610352</ele>
        <time>2019-08-30T07:45:31.000Z</time>
      </trkpt>
      <trkpt lat="50.6184" lon="5.42412">
        <ele>189.60000610352</ele>
        <time>2019-08-30T07:45:34.000Z</time>
      </trkpt>
      <trkpt lat="50.61842" lon="5.4241">
        <ele>189.60000610352</ele>
        <time>2019-08-30T07:45:43.000Z</time>
      </trkpt>
      <trkpt lat="50.61845" lon="5.42405">
        <ele>189.60000610352</ele>
        <time>2019-08-30T07:45:45.000Z</time>
      </trkpt>
      <trkpt lat="50.61855" lon="5.42392">
        <ele>189.60000610352</ele>
        <time>2019-08-30T07:45:49.000Z</time>
      </trkpt>
      <trkpt lat="50.61857" lon="5.42387">
        <ele>189.60000610352</ele>
        <time>2019-08-30T07:45:50.000Z</time>
      </trkpt>
      <trkpt lat="50.61866" lon="5.42364">
        <ele>189.60000610352</ele>
        <time>2019-08-30T07:45:54.000Z</time>
      </trkpt>
      <trkpt lat="50.61868" lon="5.42358">
        <ele>189.60000610352</ele>
        <time>2019-08-30T07:45:55.000Z</time>
      </trkpt>
      <trkpt lat="50.61876" lon="5.42339">
        <ele>189.60000610352</ele>
        <time>2019-08-30T07:45:58.000Z</time>
      </trkpt>
      <trkpt lat="50.61882" lon="5.42326">
        <ele>189.60000610352</ele>
        <time>2019-08-30T07:46:00.000Z</time>
      </trkpt>
      <trkpt lat="50.61885" lon="5.42319">
        <ele>189.60000610352</ele>
        <time>2019-08-30T07:46:01.000Z</time>
      </trkpt>
      <trkpt lat="50.61904" lon="5.4227">
        <ele>189.60000610352</ele>
        <time>2019-08-30T07:46:08.000Z</time>
      </trkpt>
      <trkpt lat="50.61905" lon="5.42262">
        <ele>189.19999694824</ele>
        <time>2019-08-30T07:46:09.000Z</time>
      </trkpt>
      <trkpt lat="50.61906" lon="5.42254">
        <ele>188.80000305176</ele>
        <time>2019-08-30T07:46:10.000Z</time>
      </trkpt>
      <trkpt lat="50.61906" lon="5.42245">
        <ele>188.39999389648</ele>
        <time>2019-08-30T07:46:11.000Z</time>
      </trkpt>
      <trkpt lat="50.61906" lon="5.42236">
        <ele>188</ele>
        <time>2019-08-30T07:46:12.000Z</time>
      </trkpt>
      <trkpt lat="50.61905" lon="5.42228">
        <ele>187.60000610352</ele>
        <time>2019-08-30T07:46:13.000Z</time>
      </trkpt>
      <trkpt lat="50.61906" lon="5.42219">
        <ele>187.60000610352</ele>
        <time>2019-08-30T07:46:14.000Z</time>
      </trkpt>
      <trkpt lat="50.61904" lon="5.42201">
        <ele>187.60000610352</ele>
        <time>2019-08-30T07:46:16.000Z</time>
      </trkpt>
      <trkpt lat="50.61904" lon="5.42183">
        <ele>187.60000610352</ele>
        <time>2019-08-30T07:46:18.000Z</time>
      </trkpt>
      <trkpt lat="50.61904" lon="5.42141">
        <ele>187.19999694824</ele>
        <time>2019-08-30T07:46:23.000Z</time>
      </trkpt>
      <trkpt lat="50.61904" lon="5.42133">
        <ele>186.80000305176</ele>
        <time>2019-08-30T07:46:24.000Z</time>
      </trkpt>
      <trkpt lat="50.61903" lon="5.42125">
        <ele>186.39999389648</ele>
        <time>2019-08-30T07:46:25.000Z</time>
      </trkpt>
      <trkpt lat="50.61902" lon="5.42117">
        <ele>186</ele>
        <time>2019-08-30T07:46:26.000Z</time>
      </trkpt>
      <trkpt lat="50.61902" lon="5.4211">
        <ele>185.60000610352</ele>
        <time>2019-08-30T07:46:27.000Z</time>
      </trkpt>
      <trkpt lat="50.61899" lon="5.42058">
        <ele>185.60000610352</ele>
        <time>2019-08-30T07:46:34.000Z</time>
      </trkpt>
      <trkpt lat="50.61893" lon="5.41996">
        <ele>185.60000610352</ele>
        <time>2019-08-30T07:46:43.000Z</time>
      </trkpt>
      <trkpt lat="50.61893" lon="5.41989">
        <ele>185.60000610352</ele>
        <time>2019-08-30T07:46:44.000Z</time>
      </trkpt>
      <trkpt lat="50.61892" lon="5.41961">
        <ele>185.60000610352</ele>
        <time>2019-08-30T07:46:48.000Z</time>
      </trkpt>
      <trkpt lat="50.61892" lon="5.41922">
        <ele>185.60000610352</ele>
        <time>2019-08-30T07:46:54.000Z</time>
      </trkpt>
      <trkpt lat="50.61892" lon="5.41916">
        <ele>185.60000610352</ele>
        <time>2019-08-30T07:46:55.000Z</time>
      </trkpt>
      <trkpt lat="50.61895" lon="5.41876">
        <ele>185.60000610352</ele>
        <time>2019-08-30T07:47:01.000Z</time>
      </trkpt>
      <trkpt lat="50.61899" lon="5.41815">
        <ele>185.60000610352</ele>
        <time>2019-08-30T07:47:10.000Z</time>
      </trkpt>
      <trkpt lat="50.61903" lon="5.41771">
        <ele>185.60000610352</ele>
        <time>2019-08-30T07:47:17.000Z</time>
      </trkpt>
      <trkpt lat="50.61902" lon="5.41765">
        <ele>185.60000610352</ele>
        <time>2019-08-30T07:47:20.000Z</time>
      </trkpt>
      <trkpt lat="50.61903" lon="5.41761">
        <ele>185.60000610352</ele>
        <time>2019-08-30T07:47:26.000Z</time>
      </trkpt>
      <trkpt lat="50.61904" lon="5.41754">
        <ele>185.60000610352</ele>
        <time>2019-08-30T07:47:28.000Z</time>
      </trkpt>
      <trkpt lat="50.61907" lon="5.41735">
        <ele>185.60000610352</ele>
        <time>2019-08-30T07:47:32.000Z</time>
      </trkpt>
      <trkpt lat="50.61907" lon="5.4173">
        <ele>185.60000610352</ele>
        <time>2019-08-30T07:47:33.000Z</time>
      </trkpt>
      <trkpt lat="50.61915" lon="5.41706">
        <ele>185.60000610352</ele>
        <time>2019-08-30T07:47:38.000Z</time>
      </trkpt>
      <trkpt lat="50.61915" lon="5.41704">
        <ele>185.60000610352</ele>
        <time>2019-08-30T07:47:39.000Z</time>
      </trkpt>
      <trkpt lat="50.61915" lon="5.41703">
        <ele>185.60000610352</ele>
        <time>2019-08-30T07:47:41.000Z</time>
      </trkpt>
      <trkpt lat="50.61915" lon="5.417">
        <ele>185.60000610352</ele>
        <time>2019-08-30T07:47:45.000Z</time>
      </trkpt>
      <trkpt lat="50.61918" lon="5.41691">
        <ele>185.60000610352</ele>
        <time>2019-08-30T07:47:48.000Z</time>
      </trkpt>
      <trkpt lat="50.61917" lon="5.41672">
        <ele>185.60000610352</ele>
        <time>2019-08-30T07:47:52.000Z</time>
      </trkpt>
      <trkpt lat="50.61914" lon="5.41658">
        <ele>185.60000610352</ele>
        <time>2019-08-30T07:47:57.000Z</time>
      </trkpt>
      <trkpt lat="50.61914" lon="5.41658">
        <ele>185.60000610352</ele>
        <time>2019-08-30T07:47:59.000Z</time>
      </trkpt>
      <trkpt lat="50.61914" lon="5.41656">
        <ele>185.60000610352</ele>
        <time>2019-08-30T07:48:03.000Z</time>
      </trkpt>
      <trkpt lat="50.61911" lon="5.4165">
        <ele>185.60000610352</ele>
        <time>2019-08-30T07:48:05.000Z</time>
      </trkpt>
      <trkpt lat="50.61904" lon="5.41629">
        <ele>185.60000610352</ele>
        <time>2019-08-30T07:48:10.000Z</time>
      </trkpt>
      <trkpt lat="50.61893" lon="5.41602">
        <ele>185.60000610352</ele>
        <time>2019-08-30T07:48:16.000Z</time>
      </trkpt>
      <trkpt lat="50.61883" lon="5.41575">
        <ele>185.60000610352</ele>
        <time>2019-08-30T07:48:23.000Z</time>
      </trkpt>
      <trkpt lat="50.61883" lon="5.41574">
        <ele>185.60000610352</ele>
        <time>2019-08-30T07:48:25.000Z</time>
      </trkpt>
      <trkpt lat="50.61882" lon="5.41571">
        <ele>185.60000610352</ele>
        <time>2019-08-30T07:48:31.000Z</time>
      </trkpt>
      <trkpt lat="50.61881" lon="5.41567">
        <ele>185.60000610352</ele>
        <time>2019-08-30T07:48:32.000Z</time>
      </trkpt>
      <trkpt lat="50.61873" lon="5.41552">
        <ele>185.60000610352</ele>
        <time>2019-08-30T07:48:36.000Z</time>
      </trkpt>
      <trkpt lat="50.61871" lon="5.41548">
        <ele>185.60000610352</ele>
        <time>2019-08-30T07:48:37.000Z</time>
      </trkpt>
      <trkpt lat="50.61853" lon="5.41533">
        <ele>185.60000610352</ele>
        <time>2019-08-30T07:48:43.000Z</time>
      </trkpt>
      <trkpt lat="50.61851" lon="5.41532">
        <ele>185.60000610352</ele>
        <time>2019-08-30T07:48:46.000Z</time>
      </trkpt>
      <trkpt lat="50.61848" lon="5.41531">
        <ele>185.60000610352</ele>
        <time>2019-08-30T07:48:51.000Z</time>
      </trkpt>
      <trkpt lat="50.61844" lon="5.41528">
        <ele>185.60000610352</ele>
        <time>2019-08-30T07:48:53.000Z</time>
      </trkpt>
      <trkpt lat="50.6183" lon="5.41523">
        <ele>185.60000610352</ele>
        <time>2019-08-30T07:48:57.000Z</time>
      </trkpt>
      <trkpt lat="50.61814" lon="5.41511">
        <ele>185.60000610352</ele>
        <time>2019-08-30T07:49:02.000Z</time>
      </trkpt>
      <trkpt lat="50.61793" lon="5.41496">
        <ele>185.60000610352</ele>
        <time>2019-08-30T07:49:08.000Z</time>
      </trkpt>
      <trkpt lat="50.61772" lon="5.41477">
        <ele>185.60000610352</ele>
        <time>2019-08-30T07:49:14.000Z</time>
      </trkpt>
      <trkpt lat="50.61768" lon="5.41474">
        <ele>185.60000610352</ele>
        <time>2019-08-30T07:49:15.000Z</time>
      </trkpt>
      <trkpt lat="50.61748" lon="5.41457">
        <ele>185.60000610352</ele>
        <time>2019-08-30T07:49:20.000Z</time>
      </trkpt>
      <trkpt lat="50.61708" lon="5.41428">
        <ele>185.60000610352</ele>
        <time>2019-08-30T07:49:30.000Z</time>
      </trkpt>
      <trkpt lat="50.6168" lon="5.41411">
        <ele>185.60000610352</ele>
        <time>2019-08-30T07:49:37.000Z</time>
      </trkpt>
      <trkpt lat="50.61647" lon="5.41392">
        <ele>185.60000610352</ele>
        <time>2019-08-30T07:49:45.000Z</time>
      </trkpt>
      <trkpt lat="50.61638" lon="5.41389">
        <ele>185.60000610352</ele>
        <time>2019-08-30T07:49:47.000Z</time>
      </trkpt>
      <trkpt lat="50.61617" lon="5.41377">
        <ele>185.60000610352</ele>
        <time>2019-08-30T07:49:52.000Z</time>
      </trkpt>
      <trkpt lat="50.61577" lon="5.41356">
        <ele>185.60000610352</ele>
        <time>2019-08-30T07:50:02.000Z</time>
      </trkpt>
      <trkpt lat="50.61551" lon="5.41342">
        <ele>185.60000610352</ele>
        <time>2019-08-30T07:50:09.000Z</time>
      </trkpt>
      <trkpt lat="50.61525" lon="5.41328">
        <ele>185.60000610352</ele>
        <time>2019-08-30T07:50:16.000Z</time>
      </trkpt>
      <trkpt lat="50.61496" lon="5.41322">
        <ele>185.60000610352</ele>
        <time>2019-08-30T07:50:23.000Z</time>
      </trkpt>
      <trkpt lat="50.61473" lon="5.41322">
        <ele>185.60000610352</ele>
        <time>2019-08-30T07:50:28.000Z</time>
      </trkpt>
      <trkpt lat="50.61464" lon="5.41319">
        <ele>185.60000610352</ele>
        <time>2019-08-30T07:50:30.000Z</time>
      </trkpt>
      <trkpt lat="50.6146" lon="5.41317">
        <ele>185.60000610352</ele>
        <time>2019-08-30T07:50:31.000Z</time>
      </trkpt>
      <trkpt lat="50.61439" lon="5.41303">
        <ele>185.60000610352</ele>
        <time>2019-08-30T07:50:36.000Z</time>
      </trkpt>
      <trkpt lat="50.61435" lon="5.413">
        <ele>185.60000610352</ele>
        <time>2019-08-30T07:50:37.000Z</time>
      </trkpt>
      <trkpt lat="50.61415" lon="5.41283">
        <ele>185.60000610352</ele>
        <time>2019-08-30T07:50:42.000Z</time>
      </trkpt>
      <trkpt lat="50.61395" lon="5.41267">
        <ele>185.60000610352</ele>
        <time>2019-08-30T07:50:47.000Z</time>
      </trkpt>
      <trkpt lat="50.61391" lon="5.41263">
        <ele>185.60000610352</ele>
        <time>2019-08-30T07:50:48.000Z</time>
      </trkpt>
      <trkpt lat="50.61381" lon="5.4125">
        <ele>185</ele>
        <time>2019-08-30T07:50:51.000Z</time>
      </trkpt>
      <trkpt lat="50.61377" lon="5.41246">
        <ele>184.60000610352</ele>
        <time>2019-08-30T07:50:52.000Z</time>
      </trkpt>
      <trkpt lat="50.61373" lon="5.41243">
        <ele>184.19999694824</ele>
        <time>2019-08-30T07:50:53.000Z</time>
      </trkpt>
      <trkpt lat="50.61369" lon="5.41239">
        <ele>183.80000305176</ele>
        <time>2019-08-30T07:50:54.000Z</time>
      </trkpt>
      <trkpt lat="50.61364" lon="5.41237">
        <ele>183.39999389648</ele>
        <time>2019-08-30T07:50:55.000Z</time>
      </trkpt>
      <trkpt lat="50.61351" lon="5.41235">
        <ele>183.39999389648</ele>
        <time>2019-08-30T07:50:58.000Z</time>
      </trkpt>
      <trkpt lat="50.61338" lon="5.41242">
        <ele>183.39999389648</ele>
        <time>2019-08-30T07:51:01.000Z</time>
      </trkpt>
      <trkpt lat="50.61329" lon="5.41247">
        <ele>183.39999389648</ele>
        <time>2019-08-30T07:51:03.000Z</time>
      </trkpt>
      <trkpt lat="50.61295" lon="5.41275">
        <ele>183.39999389648</ele>
        <time>2019-08-30T07:51:11.000Z</time>
      </trkpt>
      <trkpt lat="50.61291" lon="5.41279">
        <ele>183.39999389648</ele>
        <time>2019-08-30T07:51:12.000Z</time>
      </trkpt>
      <trkpt lat="50.61288" lon="5.41285">
        <ele>183</ele>
        <time>2019-08-30T07:51:13.000Z</time>
      </trkpt>
      <trkpt lat="50.61284" lon="5.4129">
        <ele>182.60000610352</ele>
        <time>2019-08-30T07:51:14.000Z</time>
      </trkpt>
      <trkpt lat="50.6128" lon="5.41295">
        <ele>182.19999694824</ele>
        <time>2019-08-30T07:51:15.000Z</time>
      </trkpt>
      <trkpt lat="50.61276" lon="5.413">
        <ele>181.39999389648</ele>
        <time>2019-08-30T07:51:16.000Z</time>
      </trkpt>
      <trkpt lat="50.61258" lon="5.41328">
        <ele>181.39999389648</ele>
        <time>2019-08-30T07:51:21.000Z</time>
      </trkpt>
      <trkpt lat="50.61253" lon="5.41332">
        <ele>181.39999389648</ele>
        <time>2019-08-30T07:51:22.000Z</time>
      </trkpt>
      <trkpt lat="50.61243" lon="5.41333">
        <ele>181.39999389648</ele>
        <time>2019-08-30T07:51:24.000Z</time>
      </trkpt>
      <trkpt lat="50.61233" lon="5.41329">
        <ele>181.39999389648</ele>
        <time>2019-08-30T07:51:26.000Z</time>
      </trkpt>
      <trkpt lat="50.61222" lon="5.41326">
        <ele>181.39999389648</ele>
        <time>2019-08-30T07:51:28.000Z</time>
      </trkpt>
      <trkpt lat="50.61205" lon="5.41319">
        <ele>181</ele>
        <time>2019-08-30T07:51:31.000Z</time>
      </trkpt>
      <trkpt lat="50.61198" lon="5.41316">
        <ele>180.39999389648</ele>
        <time>2019-08-30T07:51:32.000Z</time>
      </trkpt>
      <trkpt lat="50.61192" lon="5.41314">
        <ele>180</ele>
        <time>2019-08-30T07:51:33.000Z</time>
      </trkpt>
      <trkpt lat="50.61186" lon="5.41312">
        <ele>179.60000610352</ele>
        <time>2019-08-30T07:51:34.000Z</time>
      </trkpt>
      <trkpt lat="50.61179" lon="5.41309">
        <ele>179.19999694824</ele>
        <time>2019-08-30T07:51:35.000Z</time>
      </trkpt>
      <trkpt lat="50.61139" lon="5.41294">
        <ele>179.19999694824</ele>
        <time>2019-08-30T07:51:40.000Z</time>
      </trkpt>
      <trkpt lat="50.61131" lon="5.41291">
        <ele>178.19999694824</ele>
        <time>2019-08-30T07:51:41.000Z</time>
      </trkpt>
      <trkpt lat="50.61122" lon="5.41289">
        <ele>177.60000610352</ele>
        <time>2019-08-30T07:51:42.000Z</time>
      </trkpt>
      <trkpt lat="50.61112" lon="5.41287">
        <ele>177</ele>
        <time>2019-08-30T07:51:43.000Z</time>
      </trkpt>
      <trkpt lat="50.61103" lon="5.41287">
        <ele>176.19999694824</ele>
        <time>2019-08-30T07:51:44.000Z</time>
      </trkpt>
      <trkpt lat="50.61092" lon="5.41289">
        <ele>175.60000610352</ele>
        <time>2019-08-30T07:51:45.000Z</time>
      </trkpt>
      <trkpt lat="50.61081" lon="5.41291">
        <ele>174.80000305176</ele>
        <time>2019-08-30T07:51:46.000Z</time>
      </trkpt>
      <trkpt lat="50.6107" lon="5.41294">
        <ele>174</ele>
        <time>2019-08-30T07:51:47.000Z</time>
      </trkpt>
      <trkpt lat="50.61059" lon="5.41297">
        <ele>173.39999389648</ele>
        <time>2019-08-30T07:51:48.000Z</time>
      </trkpt>
      <trkpt lat="50.61048" lon="5.41299">
        <ele>173</ele>
        <time>2019-08-30T07:51:49.000Z</time>
      </trkpt>
      <trkpt lat="50.61038" lon="5.41301">
        <ele>172.39999389648</ele>
        <time>2019-08-30T07:51:50.000Z</time>
      </trkpt>
      <trkpt lat="50.61028" lon="5.41305">
        <ele>171.80000305176</ele>
        <time>2019-08-30T07:51:51.000Z</time>
      </trkpt>
      <trkpt lat="50.61019" lon="5.41308">
        <ele>171.19999694824</ele>
        <time>2019-08-30T07:51:52.000Z</time>
      </trkpt>
      <trkpt lat="50.61002" lon="5.41312">
        <ele>170.80000305176</ele>
        <time>2019-08-30T07:51:54.000Z</time>
      </trkpt>
      <trkpt lat="50.60995" lon="5.41313">
        <ele>170.39999389648</ele>
        <time>2019-08-30T07:51:55.000Z</time>
      </trkpt>
      <trkpt lat="50.60988" lon="5.41315">
        <ele>170</ele>
        <time>2019-08-30T07:51:56.000Z</time>
      </trkpt>
      <trkpt lat="50.60982" lon="5.41315">
        <ele>169.39999389648</ele>
        <time>2019-08-30T07:51:57.000Z</time>
      </trkpt>
      <trkpt lat="50.60976" lon="5.41317">
        <ele>169</ele>
        <time>2019-08-30T07:51:58.000Z</time>
      </trkpt>
      <trkpt lat="50.6097" lon="5.41317">
        <ele>169</ele>
        <time>2019-08-30T07:51:59.000Z</time>
      </trkpt>
      <trkpt lat="50.60964" lon="5.41317">
        <ele>169</ele>
        <time>2019-08-30T07:52:00.000Z</time>
      </trkpt>
      <trkpt lat="50.60938" lon="5.41321">
        <ele>169</ele>
        <time>2019-08-30T07:52:04.000Z</time>
      </trkpt>
      <trkpt lat="50.60924" lon="5.41322">
        <ele>168.19999694824</ele>
        <time>2019-08-30T07:52:06.000Z</time>
      </trkpt>
      <trkpt lat="50.60917" lon="5.41323">
        <ele>167.80000305176</ele>
        <time>2019-08-30T07:52:07.000Z</time>
      </trkpt>
      <trkpt lat="50.60909" lon="5.41323">
        <ele>167.39999389648</ele>
        <time>2019-08-30T07:52:08.000Z</time>
      </trkpt>
      <trkpt lat="50.60901" lon="5.41323">
        <ele>167</ele>
        <time>2019-08-30T07:52:09.000Z</time>
      </trkpt>
      <trkpt lat="50.60892" lon="5.41322">
        <ele>167</ele>
        <time>2019-08-30T07:52:10.000Z</time>
      </trkpt>
      <trkpt lat="50.60874" lon="5.41317">
        <ele>166.60000610352</ele>
        <time>2019-08-30T07:52:12.000Z</time>
      </trkpt>
      <trkpt lat="50.60865" lon="5.41314">
        <ele>166.19999694824</ele>
        <time>2019-08-30T07:52:13.000Z</time>
      </trkpt>
      <trkpt lat="50.60856" lon="5.41312">
        <ele>165.80000305176</ele>
        <time>2019-08-30T07:52:14.000Z</time>
      </trkpt>
      <trkpt lat="50.60847" lon="5.4131">
        <ele>165.39999389648</ele>
        <time>2019-08-30T07:52:15.000Z</time>
      </trkpt>
      <trkpt lat="50.60837" lon="5.41307">
        <ele>164.80000305176</ele>
        <time>2019-08-30T07:52:16.000Z</time>
      </trkpt>
      <trkpt lat="50.60827" lon="5.41305">
        <ele>164.39999389648</ele>
        <time>2019-08-30T07:52:17.000Z</time>
      </trkpt>
      <trkpt lat="50.60818" lon="5.41303">
        <ele>163.80000305176</ele>
        <time>2019-08-30T07:52:18.000Z</time>
      </trkpt>
      <trkpt lat="50.60808" lon="5.41301">
        <ele>163.39999389648</ele>
        <time>2019-08-30T07:52:19.000Z</time>
      </trkpt>
      <trkpt lat="50.60799" lon="5.413">
        <ele>162.80000305176</ele>
        <time>2019-08-30T07:52:20.000Z</time>
      </trkpt>
      <trkpt lat="50.60789" lon="5.413">
        <ele>162.39999389648</ele>
        <time>2019-08-30T07:52:21.000Z</time>
      </trkpt>
      <trkpt lat="50.6078" lon="5.41298">
        <ele>161.80000305176</ele>
        <time>2019-08-30T07:52:22.000Z</time>
      </trkpt>
      <trkpt lat="50.6077" lon="5.41296">
        <ele>161.39999389648</ele>
        <time>2019-08-30T07:52:23.000Z</time>
      </trkpt>
      <trkpt lat="50.6076" lon="5.41294">
        <ele>160.80000305176</ele>
        <time>2019-08-30T07:52:24.000Z</time>
      </trkpt>
      <trkpt lat="50.60749" lon="5.41292">
        <ele>160.19999694824</ele>
        <time>2019-08-30T07:52:25.000Z</time>
      </trkpt>
      <trkpt lat="50.60739" lon="5.41289">
        <ele>159.60000610352</ele>
        <time>2019-08-30T07:52:26.000Z</time>
      </trkpt>
      <trkpt lat="50.60729" lon="5.41287">
        <ele>158.80000305176</ele>
        <time>2019-08-30T07:52:27.000Z</time>
      </trkpt>
      <trkpt lat="50.6072" lon="5.41284">
        <ele>158</ele>
        <time>2019-08-30T07:52:28.000Z</time>
      </trkpt>
      <trkpt lat="50.60711" lon="5.41282">
        <ele>157</ele>
        <time>2019-08-30T07:52:29.000Z</time>
      </trkpt>
      <trkpt lat="50.60701" lon="5.41279">
        <ele>155</ele>
        <time>2019-08-30T07:52:30.000Z</time>
      </trkpt>
      <trkpt lat="50.60691" lon="5.41276">
        <ele>154.19999694824</ele>
        <time>2019-08-30T07:52:31.000Z</time>
      </trkpt>
      <trkpt lat="50.6068" lon="5.41274">
        <ele>153.39999389648</ele>
        <time>2019-08-30T07:52:32.000Z</time>
      </trkpt>
      <trkpt lat="50.6067" lon="5.41271">
        <ele>152.60000610352</ele>
        <time>2019-08-30T07:52:33.000Z</time>
      </trkpt>
      <trkpt lat="50.60659" lon="5.41268">
        <ele>151.80000305176</ele>
        <time>2019-08-30T07:52:34.000Z</time>
      </trkpt>
      <trkpt lat="50.60649" lon="5.41265">
        <ele>151</ele>
        <time>2019-08-30T07:52:35.000Z</time>
      </trkpt>
      <trkpt lat="50.60638" lon="5.41263">
        <ele>150.19999694824</ele>
        <time>2019-08-30T07:52:36.000Z</time>
      </trkpt>
      <trkpt lat="50.60627" lon="5.4126">
        <ele>149.60000610352</ele>
        <time>2019-08-30T07:52:37.000Z</time>
      </trkpt>
      <trkpt lat="50.60616" lon="5.41257">
        <ele>148.80000305176</ele>
        <time>2019-08-30T07:52:38.000Z</time>
      </trkpt>
      <trkpt lat="50.60605" lon="5.41253">
        <ele>148.19999694824</ele>
        <time>2019-08-30T07:52:39.000Z</time>
      </trkpt>
      <trkpt lat="50.60593" lon="5.4125">
        <ele>147.60000610352</ele>
        <time>2019-08-30T07:52:40.000Z</time>
      </trkpt>
      <trkpt lat="50.60581" lon="5.41247">
        <ele>146.80000305176</ele>
        <time>2019-08-30T07:52:41.000Z</time>
      </trkpt>
      <trkpt lat="50.6057" lon="5.41243">
        <ele>146.19999694824</ele>
        <time>2019-08-30T07:52:42.000Z</time>
      </trkpt>
      <trkpt lat="50.60559" lon="5.41239">
        <ele>145.39999389648</ele>
        <time>2019-08-30T07:52:43.000Z</time>
      </trkpt>
      <trkpt lat="50.60549" lon="5.41236">
        <ele>144.80000305176</ele>
        <time>2019-08-30T07:52:44.000Z</time>
      </trkpt>
      <trkpt lat="50.60538" lon="5.41232">
        <ele>144</ele>
        <time>2019-08-30T07:52:45.000Z</time>
      </trkpt>
      <trkpt lat="50.60528" lon="5.41227">
        <ele>143.39999389648</ele>
        <time>2019-08-30T07:52:46.000Z</time>
      </trkpt>
      <trkpt lat="50.60517" lon="5.41223">
        <ele>142.60000610352</ele>
        <time>2019-08-30T07:52:47.000Z</time>
      </trkpt>
      <trkpt lat="50.60507" lon="5.41218">
        <ele>142</ele>
        <time>2019-08-30T07:52:48.000Z</time>
      </trkpt>
      <trkpt lat="50.60497" lon="5.41214">
        <ele>141.39999389648</ele>
        <time>2019-08-30T07:52:49.000Z</time>
      </trkpt>
      <trkpt lat="50.60488" lon="5.4121">
        <ele>140.60000610352</ele>
        <time>2019-08-30T07:52:50.000Z</time>
      </trkpt>
      <trkpt lat="50.60478" lon="5.41205">
        <ele>140</ele>
        <time>2019-08-30T07:52:51.000Z</time>
      </trkpt>
      <trkpt lat="50.60469" lon="5.412">
        <ele>139.60000610352</ele>
        <time>2019-08-30T07:52:52.000Z</time>
      </trkpt>
      <trkpt lat="50.60459" lon="5.41196">
        <ele>139</ele>
        <time>2019-08-30T07:52:53.000Z</time>
      </trkpt>
      <trkpt lat="50.6045" lon="5.41192">
        <ele>138.60000610352</ele>
        <time>2019-08-30T07:52:54.000Z</time>
      </trkpt>
      <trkpt lat="50.6044" lon="5.41187">
        <ele>137.60000610352</ele>
        <time>2019-08-30T07:52:55.000Z</time>
      </trkpt>
      <trkpt lat="50.60431" lon="5.41183">
        <ele>137.19999694824</ele>
        <time>2019-08-30T07:52:56.000Z</time>
      </trkpt>
      <trkpt lat="50.60422" lon="5.41179">
        <ele>136.60000610352</ele>
        <time>2019-08-30T07:52:57.000Z</time>
      </trkpt>
      <trkpt lat="50.60413" lon="5.41175">
        <ele>136</ele>
        <time>2019-08-30T07:52:58.000Z</time>
      </trkpt>
      <trkpt lat="50.60403" lon="5.41171">
        <ele>135.39999389648</ele>
        <time>2019-08-30T07:52:59.000Z</time>
      </trkpt>
      <trkpt lat="50.60394" lon="5.41168">
        <ele>135</ele>
        <time>2019-08-30T07:53:00.000Z</time>
      </trkpt>
      <trkpt lat="50.60384" lon="5.41165">
        <ele>134.60000610352</ele>
        <time>2019-08-30T07:53:01.000Z</time>
      </trkpt>
      <trkpt lat="50.60373" lon="5.41161">
        <ele>134.19999694824</ele>
        <time>2019-08-30T07:53:02.000Z</time>
      </trkpt>
      <trkpt lat="50.60364" lon="5.41158">
        <ele>133.60000610352</ele>
        <time>2019-08-30T07:53:03.000Z</time>
      </trkpt>
      <trkpt lat="50.60354" lon="5.41155">
        <ele>133.19999694824</ele>
        <time>2019-08-30T07:53:04.000Z</time>
      </trkpt>
      <trkpt lat="50.60344" lon="5.41152">
        <ele>132.80000305176</ele>
        <time>2019-08-30T07:53:05.000Z</time>
      </trkpt>
      <trkpt lat="50.60334" lon="5.41148">
        <ele>132.39999389648</ele>
        <time>2019-08-30T07:53:06.000Z</time>
      </trkpt>
      <trkpt lat="50.60324" lon="5.41145">
        <ele>131.80000305176</ele>
        <time>2019-08-30T07:53:07.000Z</time>
      </trkpt>
      <trkpt lat="50.60314" lon="5.41142">
        <ele>131.39999389648</ele>
        <time>2019-08-30T07:53:08.000Z</time>
      </trkpt>
      <trkpt lat="50.60304" lon="5.41139">
        <ele>131</ele>
        <time>2019-08-30T07:53:09.000Z</time>
      </trkpt>
      <trkpt lat="50.60294" lon="5.41139">
        <ele>130.39999389648</ele>
        <time>2019-08-30T07:53:10.000Z</time>
      </trkpt>
      <trkpt lat="50.60284" lon="5.41137">
        <ele>130</ele>
        <time>2019-08-30T07:53:11.000Z</time>
      </trkpt>
      <trkpt lat="50.60274" lon="5.41135">
        <ele>129.39999389648</ele>
        <time>2019-08-30T07:53:12.000Z</time>
      </trkpt>
      <trkpt lat="50.60265" lon="5.41133">
        <ele>129</ele>
        <time>2019-08-30T07:53:13.000Z</time>
      </trkpt>
      <trkpt lat="50.60256" lon="5.41131">
        <ele>128.39999389648</ele>
        <time>2019-08-30T07:53:14.000Z</time>
      </trkpt>
      <trkpt lat="50.60246" lon="5.41129">
        <ele>128</ele>
        <time>2019-08-30T07:53:15.000Z</time>
      </trkpt>
      <trkpt lat="50.60235" lon="5.41127">
        <ele>127.40000152588</ele>
        <time>2019-08-30T07:53:16.000Z</time>
      </trkpt>
      <trkpt lat="50.60226" lon="5.41125">
        <ele>126.80000305176</ele>
        <time>2019-08-30T07:53:17.000Z</time>
      </trkpt>
      <trkpt lat="50.60217" lon="5.41124">
        <ele>126</ele>
        <time>2019-08-30T07:53:18.000Z</time>
      </trkpt>
      <trkpt lat="50.60207" lon="5.41122">
        <ele>125.19999694824</ele>
        <time>2019-08-30T07:53:19.000Z</time>
      </trkpt>
      <trkpt lat="50.60198" lon="5.41119">
        <ele>123.59999847412</ele>
        <time>2019-08-30T07:53:20.000Z</time>
      </trkpt>
      <trkpt lat="50.60189" lon="5.41115">
        <ele>122.59999847412</ele>
        <time>2019-08-30T07:53:21.000Z</time>
      </trkpt>
      <trkpt lat="50.6018" lon="5.41108">
        <ele>121.80000305176</ele>
        <time>2019-08-30T07:53:22.000Z</time>
      </trkpt>
      <trkpt lat="50.60171" lon="5.41101">
        <ele>120.40000152588</ele>
        <time>2019-08-30T07:53:23.000Z</time>
      </trkpt>
      <trkpt lat="50.60162" lon="5.41092">
        <ele>119.19999694824</ele>
        <time>2019-08-30T07:53:24.000Z</time>
      </trkpt>
      <trkpt lat="50.60155" lon="5.41085">
        <ele>117.80000305176</ele>
        <time>2019-08-30T07:53:25.000Z</time>
      </trkpt>
      <trkpt lat="50.60149" lon="5.41078">
        <ele>116.59999847412</ele>
        <time>2019-08-30T07:53:26.000Z</time>
      </trkpt>
      <trkpt lat="50.60142" lon="5.41072">
        <ele>115.19999694824</ele>
        <time>2019-08-30T07:53:27.000Z</time>
      </trkpt>
      <trkpt lat="50.60135" lon="5.41065">
        <ele>113.80000305176</ele>
        <time>2019-08-30T07:53:28.000Z</time>
      </trkpt>
      <trkpt lat="50.60129" lon="5.4106">
        <ele>112.59999847412</ele>
        <time>2019-08-30T07:53:29.000Z</time>
      </trkpt>
      <trkpt lat="50.60123" lon="5.41055">
        <ele>111.40000152588</ele>
        <time>2019-08-30T07:53:30.000Z</time>
      </trkpt>
      <trkpt lat="50.60118" lon="5.4105">
        <ele>110</ele>
        <time>2019-08-30T07:53:31.000Z</time>
      </trkpt>
      <trkpt lat="50.60115" lon="5.41048">
        <ele>108.59999847412</ele>
        <time>2019-08-30T07:53:32.000Z</time>
      </trkpt>
      <trkpt lat="50.60113" lon="5.41046">
        <ele>107.40000152588</ele>
        <time>2019-08-30T07:53:33.000Z</time>
      </trkpt>
      <trkpt lat="50.60112" lon="5.41047">
        <ele>106</ele>
        <time>2019-08-30T07:53:34.000Z</time>
      </trkpt>
      <trkpt lat="50.60112" lon="5.41047">
        <ele>104.80000305176</ele>
        <time>2019-08-30T07:53:35.000Z</time>
      </trkpt>
      <trkpt lat="50.6011" lon="5.41045">
        <ele>102.19999694824</ele>
        <time>2019-08-30T07:53:43.000Z</time>
      </trkpt>
      <trkpt lat="50.60108" lon="5.41044">
        <ele>102.19999694824</ele>
        <time>2019-08-30T07:53:44.000Z</time>
      </trkpt>
      <trkpt lat="50.60093" lon="5.41038">
        <ele>102.19999694824</ele>
        <time>2019-08-30T07:53:48.000Z</time>
      </trkpt>
      <trkpt lat="50.60089" lon="5.41038">
        <ele>101.59999847412</ele>
        <time>2019-08-30T07:53:49.000Z</time>
      </trkpt>
      <trkpt lat="50.60085" lon="5.41043">
        <ele>101.19999694824</ele>
        <time>2019-08-30T07:53:50.000Z</time>
      </trkpt>
      <trkpt lat="50.60084" lon="5.4105">
        <ele>100.80000305176</ele>
        <time>2019-08-30T07:53:51.000Z</time>
      </trkpt>
      <trkpt lat="50.60085" lon="5.41056">
        <ele>100.40000152588</ele>
        <time>2019-08-30T07:53:52.000Z</time>
      </trkpt>
      <trkpt lat="50.60085" lon="5.41061">
        <ele>100</ele>
        <time>2019-08-30T07:53:53.000Z</time>
      </trkpt>
      <trkpt lat="50.60087" lon="5.41066">
        <ele>100</ele>
        <time>2019-08-30T07:53:54.000Z</time>
      </trkpt>
      <trkpt lat="50.60087" lon="5.4107">
        <ele>99.599998474121</ele>
        <time>2019-08-30T07:53:55.000Z</time>
      </trkpt>
      <trkpt lat="50.60089" lon="5.41076">
        <ele>99.199996948242</ele>
        <time>2019-08-30T07:53:56.000Z</time>
      </trkpt>
      <trkpt lat="50.60091" lon="5.41082">
        <ele>98.599998474121</ele>
        <time>2019-08-30T07:53:57.000Z</time>
      </trkpt>
      <trkpt lat="50.60094" lon="5.41089">
        <ele>98.199996948242</ele>
        <time>2019-08-30T07:53:58.000Z</time>
      </trkpt>
      <trkpt lat="50.60096" lon="5.41098">
        <ele>97.800003051758</ele>
        <time>2019-08-30T07:53:59.000Z</time>
      </trkpt>
      <trkpt lat="50.601" lon="5.41107">
        <ele>97.800003051758</ele>
        <time>2019-08-30T07:54:00.000Z</time>
      </trkpt>
      <trkpt lat="50.60108" lon="5.41125">
        <ele>97.199996948242</ele>
        <time>2019-08-30T07:54:02.000Z</time>
      </trkpt>
      <trkpt lat="50.60112" lon="5.41134">
        <ele>96.599998474121</ele>
        <time>2019-08-30T07:54:03.000Z</time>
      </trkpt>
      <trkpt lat="50.60115" lon="5.41142">
        <ele>96.199996948242</ele>
        <time>2019-08-30T07:54:04.000Z</time>
      </trkpt>
      <trkpt lat="50.60118" lon="5.41149">
        <ele>95.599998474121</ele>
        <time>2019-08-30T07:54:05.000Z</time>
      </trkpt>
      <trkpt lat="50.6012" lon="5.41155">
        <ele>95</ele>
        <time>2019-08-30T07:54:06.000Z</time>
      </trkpt>
      <trkpt lat="50.60122" lon="5.41159">
        <ele>94.400001525879</ele>
        <time>2019-08-30T07:54:07.000Z</time>
      </trkpt>
      <trkpt lat="50.60124" lon="5.41162">
        <ele>93.800003051758</ele>
        <time>2019-08-30T07:54:08.000Z</time>
      </trkpt>
      <trkpt lat="50.60124" lon="5.41165">
        <ele>93</ele>
        <time>2019-08-30T07:54:09.000Z</time>
      </trkpt>
      <trkpt lat="50.60125" lon="5.41166">
        <ele>92.599998474121</ele>
        <time>2019-08-30T07:54:10.000Z</time>
      </trkpt>
      <trkpt lat="50.60125" lon="5.41165">
        <ele>92.199996948242</ele>
        <time>2019-08-30T07:54:11.000Z</time>
      </trkpt>
      <trkpt lat="50.60126" lon="5.41168">
        <ele>91</ele>
        <time>2019-08-30T07:54:19.000Z</time>
      </trkpt>
      <trkpt lat="50.60129" lon="5.41176">
        <ele>91</ele>
        <time>2019-08-30T07:54:22.000Z</time>
      </trkpt>
      <trkpt lat="50.60132" lon="5.41191">
        <ele>91</ele>
        <time>2019-08-30T07:54:26.000Z</time>
      </trkpt>
      <trkpt lat="50.60131" lon="5.41193">
        <ele>91</ele>
        <time>2019-08-30T07:54:27.000Z</time>
      </trkpt>
      <trkpt lat="50.60131" lon="5.41194">
        <ele>91</ele>
        <time>2019-08-30T07:54:29.000Z</time>
      </trkpt>
      <trkpt lat="50.60129" lon="5.41198">
        <ele>91</ele>
        <time>2019-08-30T07:54:34.000Z</time>
      </trkpt>
      <trkpt lat="50.60128" lon="5.41199">
        <ele>91</ele>
        <time>2019-08-30T07:54:35.000Z</time>
      </trkpt>
      <trkpt lat="50.6012" lon="5.41198">
        <ele>91</ele>
        <time>2019-08-30T07:54:38.000Z</time>
      </trkpt>
      <trkpt lat="50.60117" lon="5.41198">
        <ele>91</ele>
        <time>2019-08-30T07:54:39.000Z</time>
      </trkpt>
      <trkpt lat="50.60108" lon="5.41194">
        <ele>91</ele>
        <time>2019-08-30T07:54:43.000Z</time>
      </trkpt>
      <trkpt lat="50.60107" lon="5.41193">
        <ele>91</ele>
        <time>2019-08-30T07:54:45.000Z</time>
      </trkpt>
      <trkpt lat="50.60104" lon="5.41193">
        <ele>91</ele>
        <time>2019-08-30T07:54:53.000Z</time>
      </trkpt>
      <trkpt lat="50.60092" lon="5.41183">
        <ele>91</ele>
        <time>2019-08-30T07:54:58.000Z</time>
      </trkpt>
      <trkpt lat="50.6008" lon="5.41168">
        <ele>91</ele>
        <time>2019-08-30T07:55:02.000Z</time>
      </trkpt>
      <trkpt lat="50.60068" lon="5.41142">
        <ele>91</ele>
        <time>2019-08-30T07:55:07.000Z</time>
      </trkpt>
      <trkpt lat="50.60063" lon="5.41131">
        <ele>90.599998474121</ele>
        <time>2019-08-30T07:55:09.000Z</time>
      </trkpt>
      <trkpt lat="50.6006" lon="5.41126">
        <ele>90.199996948242</ele>
        <time>2019-08-30T07:55:10.000Z</time>
      </trkpt>
      <trkpt lat="50.60056" lon="5.41122">
        <ele>89.800003051758</ele>
        <time>2019-08-30T07:55:11.000Z</time>
      </trkpt>
      <trkpt lat="50.60053" lon="5.41118">
        <ele>89.400001525879</ele>
        <time>2019-08-30T07:55:12.000Z</time>
      </trkpt>
      <trkpt lat="50.60049" lon="5.41113">
        <ele>88.800003051758</ele>
        <time>2019-08-30T07:55:13.000Z</time>
      </trkpt>
      <trkpt lat="50.60028" lon="5.41093">
        <ele>88.800003051758</ele>
        <time>2019-08-30T07:55:19.000Z</time>
      </trkpt>
      <trkpt lat="50.60025" lon="5.4109">
        <ele>88.800003051758</ele>
        <time>2019-08-30T07:55:23.000Z</time>
      </trkpt>
      <trkpt lat="50.60023" lon="5.41088">
        <ele>88.800003051758</ele>
        <time>2019-08-30T07:55:30.000Z</time>
      </trkpt>
      <trkpt lat="50.60017" lon="5.41084">
        <ele>88.800003051758</ele>
        <time>2019-08-30T07:55:33.000Z</time>
      </trkpt>
      <trkpt lat="50.59999" lon="5.41066">
        <ele>88.800003051758</ele>
        <time>2019-08-30T07:55:40.000Z</time>
      </trkpt>
      <trkpt lat="50.59987" lon="5.41054">
        <ele>88.400001525879</ele>
        <time>2019-08-30T07:55:44.000Z</time>
      </trkpt>
      <trkpt lat="50.59984" lon="5.41051">
        <ele>88</ele>
        <time>2019-08-30T07:55:45.000Z</time>
      </trkpt>
      <trkpt lat="50.59981" lon="5.41048">
        <ele>87.599998474121</ele>
        <time>2019-08-30T07:55:46.000Z</time>
      </trkpt>
      <trkpt lat="50.59978" lon="5.41045">
        <ele>87.199996948242</ele>
        <time>2019-08-30T07:55:47.000Z</time>
      </trkpt>
      <trkpt lat="50.59976" lon="5.41042">
        <ele>86.800003051758</ele>
        <time>2019-08-30T07:55:48.000Z</time>
      </trkpt>
      <trkpt lat="50.59973" lon="5.41038">
        <ele>86.800003051758</ele>
        <time>2019-08-30T07:55:51.000Z</time>
      </trkpt>
      <trkpt lat="50.59973" lon="5.41036">
        <ele>86.800003051758</ele>
        <time>2019-08-30T07:56:00.000Z</time>
      </trkpt>
      <trkpt lat="50.59971" lon="5.41028">
        <ele>86.800003051758</ele>
        <time>2019-08-30T07:56:03.000Z</time>
      </trkpt>
      <trkpt lat="50.59974" lon="5.41018">
        <ele>86.800003051758</ele>
        <time>2019-08-30T07:56:07.000Z</time>
      </trkpt>
      <trkpt lat="50.59973" lon="5.41018">
        <ele>86.800003051758</ele>
        <time>2019-08-30T07:56:08.000Z</time>
      </trkpt>
      <trkpt lat="50.59975" lon="5.41015">
        <ele>86.800003051758</ele>
        <time>2019-08-30T07:56:13.000Z</time>
      </trkpt>
      <trkpt lat="50.59976" lon="5.41014">
        <ele>86.800003051758</ele>
        <time>2019-08-30T07:56:14.000Z</time>
      </trkpt>
      <trkpt lat="50.59982" lon="5.41">
        <ele>86.800003051758</ele>
        <time>2019-08-30T07:56:18.000Z</time>
      </trkpt>
      <trkpt lat="50.59988" lon="5.40979">
        <ele>86.800003051758</ele>
        <time>2019-08-30T07:56:23.000Z</time>
      </trkpt>
      <trkpt lat="50.59995" lon="5.40955">
        <ele>86.800003051758</ele>
        <time>2019-08-30T07:56:28.000Z</time>
      </trkpt>
      <trkpt lat="50.60004" lon="5.40926">
        <ele>86.800003051758</ele>
        <time>2019-08-30T07:56:34.000Z</time>
      </trkpt>
      <trkpt lat="50.60014" lon="5.40897">
        <ele>86.800003051758</ele>
        <time>2019-08-30T07:56:41.000Z</time>
      </trkpt>
      <trkpt lat="50.60014" lon="5.40898">
        <ele>86.800003051758</ele>
        <time>2019-08-30T07:56:42.000Z</time>
      </trkpt>
      <trkpt lat="50.60015" lon="5.40895">
        <ele>86.800003051758</ele>
        <time>2019-08-30T07:56:49.000Z</time>
      </trkpt>
      <trkpt lat="50.60017" lon="5.40892">
        <ele>86.800003051758</ele>
        <time>2019-08-30T07:56:50.000Z</time>
      </trkpt>
      <trkpt lat="50.60022" lon="5.40876">
        <ele>86.800003051758</ele>
        <time>2019-08-30T07:56:55.000Z</time>
      </trkpt>
      <trkpt lat="50.6003" lon="5.4085">
        <ele>86.800003051758</ele>
        <time>2019-08-30T07:57:01.000Z</time>
      </trkpt>
      <trkpt lat="50.6003" lon="5.40843">
        <ele>86.800003051758</ele>
        <time>2019-08-30T07:57:05.000Z</time>
      </trkpt>
      <trkpt lat="50.6003" lon="5.40838">
        <ele>86.800003051758</ele>
        <time>2019-08-30T07:57:12.000Z</time>
      </trkpt>
      <trkpt lat="50.60031" lon="5.40828">
        <ele>86.800003051758</ele>
        <time>2019-08-30T07:57:14.000Z</time>
      </trkpt>
      <trkpt lat="50.60029" lon="5.40798">
        <ele>86.800003051758</ele>
        <time>2019-08-30T07:57:19.000Z</time>
      </trkpt>
      <trkpt lat="50.60027" lon="5.40753">
        <ele>86.800003051758</ele>
        <time>2019-08-30T07:57:27.000Z</time>
      </trkpt>
      <trkpt lat="50.60026" lon="5.40713">
        <ele>86.800003051758</ele>
        <time>2019-08-30T07:57:34.000Z</time>
      </trkpt>
      <trkpt lat="50.6002" lon="5.40669">
        <ele>86.800003051758</ele>
        <time>2019-08-30T07:57:42.000Z</time>
      </trkpt>
      <trkpt lat="50.60015" lon="5.40645">
        <ele>86.800003051758</ele>
        <time>2019-08-30T07:57:48.000Z</time>
      </trkpt>
      <trkpt lat="50.60015" lon="5.40645">
        <ele>86.800003051758</ele>
        <time>2019-08-30T07:57:49.000Z</time>
      </trkpt>
      <trkpt lat="50.60015" lon="5.40643">
        <ele>86.800003051758</ele>
        <time>2019-08-30T07:57:55.000Z</time>
      </trkpt>
      <trkpt lat="50.60014" lon="5.4064">
        <ele>86.800003051758</ele>
        <time>2019-08-30T07:57:56.000Z</time>
      </trkpt>
      <trkpt lat="50.60007" lon="5.4062">
        <ele>86.800003051758</ele>
        <time>2019-08-30T07:58:01.000Z</time>
      </trkpt>
      <trkpt lat="50.6" lon="5.40612">
        <ele>86.800003051758</ele>
        <time>2019-08-30T07:58:05.000Z</time>
      </trkpt>
      <trkpt lat="50.6" lon="5.40612">
        <ele>86.800003051758</ele>
        <time>2019-08-30T07:58:06.000Z</time>
      </trkpt>
      <trkpt lat="50.59999" lon="5.40608">
        <ele>86.800003051758</ele>
        <time>2019-08-30T07:58:12.000Z</time>
      </trkpt>
      <trkpt lat="50.59998" lon="5.40606">
        <ele>86.800003051758</ele>
        <time>2019-08-30T07:58:13.000Z</time>
      </trkpt>
      <trkpt lat="50.59996" lon="5.40593">
        <ele>86.800003051758</ele>
        <time>2019-08-30T07:58:17.000Z</time>
      </trkpt>
      <trkpt lat="50.59998" lon="5.4059">
        <ele>86.800003051758</ele>
        <time>2019-08-30T07:58:20.000Z</time>
      </trkpt>
      <trkpt lat="50.59999" lon="5.40584">
        <ele>86.800003051758</ele>
        <time>2019-08-30T07:58:29.000Z</time>
      </trkpt>
      <trkpt lat="50.60003" lon="5.40566">
        <ele>86.800003051758</ele>
        <time>2019-08-30T07:58:34.000Z</time>
      </trkpt>
      <trkpt lat="50.60005" lon="5.40564">
        <ele>86.800003051758</ele>
        <time>2019-08-30T07:58:37.000Z</time>
      </trkpt>
      <trkpt lat="50.60007" lon="5.4056">
        <ele>86.800003051758</ele>
        <time>2019-08-30T07:58:42.000Z</time>
      </trkpt>
      <trkpt lat="50.60009" lon="5.40555">
        <ele>86.800003051758</ele>
        <time>2019-08-30T07:58:44.000Z</time>
      </trkpt>
      <trkpt lat="50.60019" lon="5.4054">
        <ele>86.800003051758</ele>
        <time>2019-08-30T07:58:49.000Z</time>
      </trkpt>
      <trkpt lat="50.60039" lon="5.40523">
        <ele>86.800003051758</ele>
        <time>2019-08-30T07:58:56.000Z</time>
      </trkpt>
      <trkpt lat="50.6006" lon="5.40512">
        <ele>86.800003051758</ele>
        <time>2019-08-30T07:59:03.000Z</time>
      </trkpt>
      <trkpt lat="50.60082" lon="5.405">
        <ele>86.800003051758</ele>
        <time>2019-08-30T07:59:10.000Z</time>
      </trkpt>
      <trkpt lat="50.60099" lon="5.40489">
        <ele>86.800003051758</ele>
        <time>2019-08-30T07:59:17.000Z</time>
      </trkpt>
      <trkpt lat="50.60098" lon="5.40489">
        <ele>86.800003051758</ele>
        <time>2019-08-30T07:59:18.000Z</time>
      </trkpt>
      <trkpt lat="50.60102" lon="5.40486">
        <ele>88</ele>
        <time>2019-08-30T07:59:25.000Z</time>
      </trkpt>
      <trkpt lat="50.60104" lon="5.40485">
        <ele>88.599998474121</ele>
        <time>2019-08-30T07:59:26.000Z</time>
      </trkpt>
      <trkpt lat="50.60106" lon="5.40485">
        <ele>89</ele>
        <time>2019-08-30T07:59:27.000Z</time>
      </trkpt>
      <trkpt lat="50.60115" lon="5.4048">
        <ele>89</ele>
        <time>2019-08-30T07:59:30.000Z</time>
      </trkpt>
      <trkpt lat="50.60118" lon="5.40478">
        <ele>89</ele>
        <time>2019-08-30T07:59:31.000Z</time>
      </trkpt>
      <trkpt lat="50.60135" lon="5.40469">
        <ele>89</ele>
        <time>2019-08-30T07:59:38.000Z</time>
      </trkpt>
      <trkpt lat="50.60135" lon="5.40469">
        <ele>89</ele>
        <time>2019-08-30T07:59:40.000Z</time>
      </trkpt>
      <trkpt lat="50.60137" lon="5.40467">
        <ele>89</ele>
        <time>2019-08-30T07:59:45.000Z</time>
      </trkpt>
      <trkpt lat="50.6014" lon="5.40465">
        <ele>89</ele>
        <time>2019-08-30T07:59:47.000Z</time>
      </trkpt>
      <trkpt lat="50.60147" lon="5.40458">
        <ele>89</ele>
        <time>2019-08-30T07:59:50.000Z</time>
      </trkpt>
      <trkpt lat="50.6015" lon="5.4044">
        <ele>89</ele>
        <time>2019-08-30T07:59:54.000Z</time>
      </trkpt>
      <trkpt lat="50.60147" lon="5.40432">
        <ele>89</ele>
        <time>2019-08-30T07:59:58.000Z</time>
      </trkpt>
      <trkpt lat="50.60147" lon="5.40432">
        <ele>89</ele>
        <time>2019-08-30T07:59:59.000Z</time>
      </trkpt>
      <trkpt lat="50.60146" lon="5.4043">
        <ele>89</ele>
        <time>2019-08-30T08:00:05.000Z</time>
      </trkpt>
      <trkpt lat="50.60146" lon="5.40427">
        <ele>89</ele>
        <time>2019-08-30T08:00:07.000Z</time>
      </trkpt>
      <trkpt lat="50.60144" lon="5.40426">
        <ele>89</ele>
        <time>2019-08-30T08:00:08.000Z</time>
      </trkpt>
      <trkpt lat="50.60142" lon="5.4042">
        <ele>89</ele>
        <time>2019-08-30T08:00:11.000Z</time>
      </trkpt>
      <trkpt lat="50.60139" lon="5.40407">
        <ele>89</ele>
        <time>2019-08-30T08:00:16.000Z</time>
      </trkpt>
      <trkpt lat="50.60136" lon="5.40398">
        <ele>89.400001525879</ele>
        <time>2019-08-30T08:00:20.000Z</time>
      </trkpt>
      <trkpt lat="50.60136" lon="5.40394">
        <ele>89.800003051758</ele>
        <time>2019-08-30T08:00:21.000Z</time>
      </trkpt>
      <trkpt lat="50.60135" lon="5.40391">
        <ele>90.199996948242</ele>
        <time>2019-08-30T08:00:22.000Z</time>
      </trkpt>
      <trkpt lat="50.60134" lon="5.40388">
        <ele>90.599998474121</ele>
        <time>2019-08-30T08:00:23.000Z</time>
      </trkpt>
      <trkpt lat="50.60133" lon="5.40385">
        <ele>91</ele>
        <time>2019-08-30T08:00:24.000Z</time>
      </trkpt>
      <trkpt lat="50.60129" lon="5.4037">
        <ele>91</ele>
        <time>2019-08-30T08:00:29.000Z</time>
      </trkpt>
      <trkpt lat="50.60127" lon="5.40363">
        <ele>91</ele>
        <time>2019-08-30T08:00:32.000Z</time>
      </trkpt>
      <trkpt lat="50.60126" lon="5.40358">
        <ele>91</ele>
        <time>2019-08-30T08:00:34.000Z</time>
      </trkpt>
      <trkpt lat="50.60125" lon="5.40352">
        <ele>91.400001525879</ele>
        <time>2019-08-30T08:00:36.000Z</time>
      </trkpt>
      <trkpt lat="50.60124" lon="5.4035">
        <ele>91.800003051758</ele>
        <time>2019-08-30T08:00:37.000Z</time>
      </trkpt>
      <trkpt lat="50.60123" lon="5.40347">
        <ele>92.199996948242</ele>
        <time>2019-08-30T08:00:38.000Z</time>
      </trkpt>
      <trkpt lat="50.60122" lon="5.40344">
        <ele>92.599998474121</ele>
        <time>2019-08-30T08:00:39.000Z</time>
      </trkpt>
      <trkpt lat="50.60121" lon="5.40341">
        <ele>93</ele>
        <time>2019-08-30T08:00:40.000Z</time>
      </trkpt>
      <trkpt lat="50.6012" lon="5.40338">
        <ele>93</ele>
        <time>2019-08-30T08:00:41.000Z</time>
      </trkpt>
      <trkpt lat="50.60114" lon="5.40317">
        <ele>93</ele>
        <time>2019-08-30T08:00:49.000Z</time>
      </trkpt>
      <trkpt lat="50.60113" lon="5.40311">
        <ele>93.400001525879</ele>
        <time>2019-08-30T08:00:51.000Z</time>
      </trkpt>
      <trkpt lat="50.60112" lon="5.40308">
        <ele>93.800003051758</ele>
        <time>2019-08-30T08:00:52.000Z</time>
      </trkpt>
      <trkpt lat="50.60111" lon="5.40305">
        <ele>94.199996948242</ele>
        <time>2019-08-30T08:00:53.000Z</time>
      </trkpt>
      <trkpt lat="50.6011" lon="5.40302">
        <ele>94.599998474121</ele>
        <time>2019-08-30T08:00:54.000Z</time>
      </trkpt>
      <trkpt lat="50.60109" lon="5.403">
        <ele>95.199996948242</ele>
        <time>2019-08-30T08:00:55.000Z</time>
      </trkpt>
      <trkpt lat="50.60107" lon="5.40291">
        <ele>95.199996948242</ele>
        <time>2019-08-30T08:00:58.000Z</time>
      </trkpt>
      <trkpt lat="50.60102" lon="5.40274">
        <ele>95.199996948242</ele>
        <time>2019-08-30T08:01:04.000Z</time>
      </trkpt>
      <trkpt lat="50.601" lon="5.40266">
        <ele>95.599998474121</ele>
        <time>2019-08-30T08:01:07.000Z</time>
      </trkpt>
      <trkpt lat="50.60099" lon="5.40263">
        <ele>96</ele>
        <time>2019-08-30T08:01:08.000Z</time>
      </trkpt>
      <trkpt lat="50.60098" lon="5.4026">
        <ele>96.800003051758</ele>
        <time>2019-08-30T08:01:09.000Z</time>
      </trkpt>
      <trkpt lat="50.60098" lon="5.40257">
        <ele>97.400001525879</ele>
        <time>2019-08-30T08:01:10.000Z</time>
      </trkpt>
      <trkpt lat="50.60096" lon="5.40252">
        <ele>97.400001525879</ele>
        <time>2019-08-30T08:01:12.000Z</time>
      </trkpt>
      <trkpt lat="50.6009" lon="5.40233">
        <ele>97.400001525879</ele>
        <time>2019-08-30T08:01:19.000Z</time>
      </trkpt>
      <trkpt lat="50.60087" lon="5.40221">
        <ele>97.800003051758</ele>
        <time>2019-08-30T08:01:23.000Z</time>
      </trkpt>
      <trkpt lat="50.60086" lon="5.40218">
        <ele>98.199996948242</ele>
        <time>2019-08-30T08:01:24.000Z</time>
      </trkpt>
      <trkpt lat="50.60086" lon="5.40215">
        <ele>98.599998474121</ele>
        <time>2019-08-30T08:01:25.000Z</time>
      </trkpt>
      <trkpt lat="50.60085" lon="5.40212">
        <ele>99</ele>
        <time>2019-08-30T08:01:26.000Z</time>
      </trkpt>
      <trkpt lat="50.60084" lon="5.40209">
        <ele>99.400001525879</ele>
        <time>2019-08-30T08:01:27.000Z</time>
      </trkpt>
      <trkpt lat="50.60078" lon="5.40192">
        <ele>99.400001525879</ele>
        <time>2019-08-30T08:01:33.000Z</time>
      </trkpt>
      <trkpt lat="50.60075" lon="5.4018">
        <ele>99.800003051758</ele>
        <time>2019-08-30T08:01:37.000Z</time>
      </trkpt>
      <trkpt lat="50.60074" lon="5.40177">
        <ele>100.19999694824</ele>
        <time>2019-08-30T08:01:38.000Z</time>
      </trkpt>
      <trkpt lat="50.60073" lon="5.40174">
        <ele>100.80000305176</ele>
        <time>2019-08-30T08:01:39.000Z</time>
      </trkpt>
      <trkpt lat="50.60072" lon="5.40171">
        <ele>101.19999694824</ele>
        <time>2019-08-30T08:01:40.000Z</time>
      </trkpt>
      <trkpt lat="50.60071" lon="5.40168">
        <ele>101.59999847412</ele>
        <time>2019-08-30T08:01:41.000Z</time>
      </trkpt>
      <trkpt lat="50.60064" lon="5.4014">
        <ele>101.59999847412</ele>
        <time>2019-08-30T08:01:50.000Z</time>
      </trkpt>
      <trkpt lat="50.60067" lon="5.40119">
        <ele>101.59999847412</ele>
        <time>2019-08-30T08:01:56.000Z</time>
      </trkpt>
      <trkpt lat="50.60071" lon="5.40109">
        <ele>102</ele>
        <time>2019-08-30T08:01:59.000Z</time>
      </trkpt>
      <trkpt lat="50.60073" lon="5.40107">
        <ele>102.40000152588</ele>
        <time>2019-08-30T08:02:00.000Z</time>
      </trkpt>
      <trkpt lat="50.60075" lon="5.40105">
        <ele>102.80000305176</ele>
        <time>2019-08-30T08:02:01.000Z</time>
      </trkpt>
      <trkpt lat="50.60077" lon="5.40104">
        <ele>103.19999694824</ele>
        <time>2019-08-30T08:02:02.000Z</time>
      </trkpt>
      <trkpt lat="50.60079" lon="5.40103">
        <ele>103.59999847412</ele>
        <time>2019-08-30T08:02:03.000Z</time>
      </trkpt>
      <trkpt lat="50.60093" lon="5.40105">
        <ele>103.59999847412</ele>
        <time>2019-08-30T08:02:09.000Z</time>
      </trkpt>
      <trkpt lat="50.60102" lon="5.40119">
        <ele>103.59999847412</ele>
        <time>2019-08-30T08:02:14.000Z</time>
      </trkpt>
      <trkpt lat="50.60113" lon="5.40139">
        <ele>103.59999847412</ele>
        <time>2019-08-30T08:02:21.000Z</time>
      </trkpt>
      <trkpt lat="50.60114" lon="5.40142">
        <ele>104</ele>
        <time>2019-08-30T08:02:22.000Z</time>
      </trkpt>
      <trkpt lat="50.60116" lon="5.40143">
        <ele>104.40000152588</ele>
        <time>2019-08-30T08:02:23.000Z</time>
      </trkpt>
      <trkpt lat="50.60117" lon="5.40146">
        <ele>105.19999694824</ele>
        <time>2019-08-30T08:02:24.000Z</time>
      </trkpt>
      <trkpt lat="50.60118" lon="5.40149">
        <ele>105.80000305176</ele>
        <time>2019-08-30T08:02:25.000Z</time>
      </trkpt>
      <trkpt lat="50.60122" lon="5.40154">
        <ele>105.80000305176</ele>
        <time>2019-08-30T08:02:27.000Z</time>
      </trkpt>
      <trkpt lat="50.60131" lon="5.4017">
        <ele>105.80000305176</ele>
        <time>2019-08-30T08:02:34.000Z</time>
      </trkpt>
      <trkpt lat="50.60133" lon="5.40176">
        <ele>106.19999694824</ele>
        <time>2019-08-30T08:02:36.000Z</time>
      </trkpt>
      <trkpt lat="50.60134" lon="5.40178">
        <ele>106.59999847412</ele>
        <time>2019-08-30T08:02:37.000Z</time>
      </trkpt>
      <trkpt lat="50.60136" lon="5.4018">
        <ele>107</ele>
        <time>2019-08-30T08:02:38.000Z</time>
      </trkpt>
      <trkpt lat="50.60137" lon="5.40182">
        <ele>107.40000152588</ele>
        <time>2019-08-30T08:02:39.000Z</time>
      </trkpt>
      <trkpt lat="50.60139" lon="5.40184">
        <ele>107.80000305176</ele>
        <time>2019-08-30T08:02:40.000Z</time>
      </trkpt>
      <trkpt lat="50.6015" lon="5.40194">
        <ele>107.80000305176</ele>
        <time>2019-08-30T08:02:46.000Z</time>
      </trkpt>
      <trkpt lat="50.60163" lon="5.40194">
        <ele>107.80000305176</ele>
        <time>2019-08-30T08:02:52.000Z</time>
      </trkpt>
      <trkpt lat="50.60175" lon="5.4018">
        <ele>107.80000305176</ele>
        <time>2019-08-30T08:02:58.000Z</time>
      </trkpt>
      <trkpt lat="50.60177" lon="5.40174">
        <ele>108.19999694824</ele>
        <time>2019-08-30T08:03:00.000Z</time>
      </trkpt>
      <trkpt lat="50.60178" lon="5.4017">
        <ele>108.59999847412</ele>
        <time>2019-08-30T08:03:01.000Z</time>
      </trkpt>
      <trkpt lat="50.60178" lon="5.40166">
        <ele>109</ele>
        <time>2019-08-30T08:03:02.000Z</time>
      </trkpt>
      <trkpt lat="50.60179" lon="5.40163">
        <ele>109.40000152588</ele>
        <time>2019-08-30T08:03:03.000Z</time>
      </trkpt>
      <trkpt lat="50.6018" lon="5.40159">
        <ele>109.80000305176</ele>
        <time>2019-08-30T08:03:04.000Z</time>
      </trkpt>
      <trkpt lat="50.60176" lon="5.40142">
        <ele>109.80000305176</ele>
        <time>2019-08-30T08:03:09.000Z</time>
      </trkpt>
      <trkpt lat="50.60168" lon="5.40122">
        <ele>110.19999694824</ele>
        <time>2019-08-30T08:03:16.000Z</time>
      </trkpt>
      <trkpt lat="50.60167" lon="5.4012">
        <ele>110.59999847412</ele>
        <time>2019-08-30T08:03:17.000Z</time>
      </trkpt>
      <trkpt lat="50.60166" lon="5.40118">
        <ele>111.19999694824</ele>
        <time>2019-08-30T08:03:18.000Z</time>
      </trkpt>
      <trkpt lat="50.60165" lon="5.40115">
        <ele>111.59999847412</ele>
        <time>2019-08-30T08:03:19.000Z</time>
      </trkpt>
      <trkpt lat="50.60163" lon="5.40112">
        <ele>112</ele>
        <time>2019-08-30T08:03:20.000Z</time>
      </trkpt>
      <trkpt lat="50.60159" lon="5.40105">
        <ele>112</ele>
        <time>2019-08-30T08:03:23.000Z</time>
      </trkpt>
      <trkpt lat="50.60149" lon="5.40086">
        <ele>112</ele>
        <time>2019-08-30T08:03:31.000Z</time>
      </trkpt>
      <trkpt lat="50.60144" lon="5.40078">
        <ele>112.40000152588</ele>
        <time>2019-08-30T08:03:34.000Z</time>
      </trkpt>
      <trkpt lat="50.60143" lon="5.40076">
        <ele>112.80000305176</ele>
        <time>2019-08-30T08:03:35.000Z</time>
      </trkpt>
      <trkpt lat="50.60141" lon="5.40073">
        <ele>113.19999694824</ele>
        <time>2019-08-30T08:03:36.000Z</time>
      </trkpt>
      <trkpt lat="50.6014" lon="5.40071">
        <ele>113.59999847412</ele>
        <time>2019-08-30T08:03:37.000Z</time>
      </trkpt>
      <trkpt lat="50.60138" lon="5.40069">
        <ele>114</ele>
        <time>2019-08-30T08:03:38.000Z</time>
      </trkpt>
      <trkpt lat="50.60129" lon="5.40052">
        <ele>114</ele>
        <time>2019-08-30T08:03:45.000Z</time>
      </trkpt>
      <trkpt lat="50.60127" lon="5.40047">
        <ele>114.40000152588</ele>
        <time>2019-08-30T08:03:47.000Z</time>
      </trkpt>
      <trkpt lat="50.60126" lon="5.40045">
        <ele>114.80000305176</ele>
        <time>2019-08-30T08:03:48.000Z</time>
      </trkpt>
      <trkpt lat="50.60124" lon="5.40043">
        <ele>115.19999694824</ele>
        <time>2019-08-30T08:03:49.000Z</time>
      </trkpt>
      <trkpt lat="50.60123" lon="5.4004">
        <ele>115.59999847412</ele>
        <time>2019-08-30T08:03:50.000Z</time>
      </trkpt>
      <trkpt lat="50.60122" lon="5.40038">
        <ele>116</ele>
        <time>2019-08-30T08:03:51.000Z</time>
      </trkpt>
      <trkpt lat="50.6012" lon="5.40031">
        <ele>116</ele>
        <time>2019-08-30T08:03:54.000Z</time>
      </trkpt>
      <trkpt lat="50.60111" lon="5.40015">
        <ele>116</ele>
        <time>2019-08-30T08:04:01.000Z</time>
      </trkpt>
      <trkpt lat="50.6011" lon="5.40009">
        <ele>116.40000152588</ele>
        <time>2019-08-30T08:04:03.000Z</time>
      </trkpt>
      <trkpt lat="50.60109" lon="5.40007">
        <ele>116.80000305176</ele>
        <time>2019-08-30T08:04:04.000Z</time>
      </trkpt>
      <trkpt lat="50.60108" lon="5.40004">
        <ele>117.19999694824</ele>
        <time>2019-08-30T08:04:05.000Z</time>
      </trkpt>
      <trkpt lat="50.60106" lon="5.40001">
        <ele>117.59999847412</ele>
        <time>2019-08-30T08:04:06.000Z</time>
      </trkpt>
      <trkpt lat="50.60105" lon="5.39999">
        <ele>118</ele>
        <time>2019-08-30T08:04:07.000Z</time>
      </trkpt>
      <trkpt lat="50.60104" lon="5.39996">
        <ele>118</ele>
        <time>2019-08-30T08:04:08.000Z</time>
      </trkpt>
      <trkpt lat="50.60097" lon="5.39982">
        <ele>118</ele>
        <time>2019-08-30T08:04:14.000Z</time>
      </trkpt>
      <trkpt lat="50.6009" lon="5.39964">
        <ele>118.40000152588</ele>
        <time>2019-08-30T08:04:21.000Z</time>
      </trkpt>
      <trkpt lat="50.6009" lon="5.39961">
        <ele>118.80000305176</ele>
        <time>2019-08-30T08:04:22.000Z</time>
      </trkpt>
      <trkpt lat="50.60089" lon="5.39959">
        <ele>119.40000152588</ele>
        <time>2019-08-30T08:04:23.000Z</time>
      </trkpt>
      <trkpt lat="50.60087" lon="5.39957">
        <ele>119.80000305176</ele>
        <time>2019-08-30T08:04:24.000Z</time>
      </trkpt>
      <trkpt lat="50.60087" lon="5.39954">
        <ele>120.19999694824</ele>
        <time>2019-08-30T08:04:25.000Z</time>
      </trkpt>
      <trkpt lat="50.60082" lon="5.39941">
        <ele>120.19999694824</ele>
        <time>2019-08-30T08:04:30.000Z</time>
      </trkpt>
      <trkpt lat="50.60079" lon="5.3993">
        <ele>120.59999847412</ele>
        <time>2019-08-30T08:04:34.000Z</time>
      </trkpt>
      <trkpt lat="50.60078" lon="5.39928">
        <ele>121</ele>
        <time>2019-08-30T08:04:35.000Z</time>
      </trkpt>
      <trkpt lat="50.60078" lon="5.39925">
        <ele>121.40000152588</ele>
        <time>2019-08-30T08:04:36.000Z</time>
      </trkpt>
      <trkpt lat="50.60077" lon="5.39922">
        <ele>121.80000305176</ele>
        <time>2019-08-30T08:04:37.000Z</time>
      </trkpt>
      <trkpt lat="50.60077" lon="5.39919">
        <ele>122.19999694824</ele>
        <time>2019-08-30T08:04:38.000Z</time>
      </trkpt>
      <trkpt lat="50.60073" lon="5.39905">
        <ele>122.19999694824</ele>
        <time>2019-08-30T08:04:43.000Z</time>
      </trkpt>
      <trkpt lat="50.60066" lon="5.3988">
        <ele>122.19999694824</ele>
        <time>2019-08-30T08:04:52.000Z</time>
      </trkpt>
      <trkpt lat="50.60066" lon="5.39877">
        <ele>122.59999847412</ele>
        <time>2019-08-30T08:04:53.000Z</time>
      </trkpt>
      <trkpt lat="50.60064" lon="5.39875">
        <ele>123</ele>
        <time>2019-08-30T08:04:54.000Z</time>
      </trkpt>
      <trkpt lat="50.60063" lon="5.39872">
        <ele>123.40000152588</ele>
        <time>2019-08-30T08:04:55.000Z</time>
      </trkpt>
      <trkpt lat="50.60063" lon="5.39869">
        <ele>123.80000305176</ele>
        <time>2019-08-30T08:04:56.000Z</time>
      </trkpt>
      <trkpt lat="50.60062" lon="5.39866">
        <ele>124.19999694824</ele>
        <time>2019-08-30T08:04:57.000Z</time>
      </trkpt>
      <trkpt lat="50.60061" lon="5.3986">
        <ele>124.19999694824</ele>
        <time>2019-08-30T08:04:59.000Z</time>
      </trkpt>
      <trkpt lat="50.60056" lon="5.39838">
        <ele>124.19999694824</ele>
        <time>2019-08-30T08:05:07.000Z</time>
      </trkpt>
      <trkpt lat="50.60053" lon="5.39826">
        <ele>124.59999847412</ele>
        <time>2019-08-30T08:05:11.000Z</time>
      </trkpt>
      <trkpt lat="50.60052" lon="5.39823">
        <ele>125</ele>
        <time>2019-08-30T08:05:12.000Z</time>
      </trkpt>
      <trkpt lat="50.60051" lon="5.3982">
        <ele>125.40000152588</ele>
        <time>2019-08-30T08:05:13.000Z</time>
      </trkpt>
      <trkpt lat="50.6005" lon="5.39817">
        <ele>125.80000305176</ele>
        <time>2019-08-30T08:05:14.000Z</time>
      </trkpt>
      <trkpt lat="50.60049" lon="5.39814">
        <ele>126.19999694824</ele>
        <time>2019-08-30T08:05:15.000Z</time>
      </trkpt>
      <trkpt lat="50.60042" lon="5.39788">
        <ele>126.19999694824</ele>
        <time>2019-08-30T08:05:24.000Z</time>
      </trkpt>
      <trkpt lat="50.60039" lon="5.39776">
        <ele>126.80000305176</ele>
        <time>2019-08-30T08:05:28.000Z</time>
      </trkpt>
      <trkpt lat="50.60038" lon="5.39773">
        <ele>127.19999694824</ele>
        <time>2019-08-30T08:05:29.000Z</time>
      </trkpt>
      <trkpt lat="50.60037" lon="5.39771">
        <ele>127.59999847412</ele>
        <time>2019-08-30T08:05:30.000Z</time>
      </trkpt>
      <trkpt lat="50.60036" lon="5.39768">
        <ele>128</ele>
        <time>2019-08-30T08:05:31.000Z</time>
      </trkpt>
      <trkpt lat="50.60035" lon="5.39765">
        <ele>128.39999389648</ele>
        <time>2019-08-30T08:05:32.000Z</time>
      </trkpt>
      <trkpt lat="50.6003" lon="5.39752">
        <ele>128.39999389648</ele>
        <time>2019-08-30T08:05:37.000Z</time>
      </trkpt>
      <trkpt lat="50.60029" lon="5.39748">
        <ele>128.39999389648</ele>
        <time>2019-08-30T08:05:38.000Z</time>
      </trkpt>
      <trkpt lat="50.60028" lon="5.39742">
        <ele>128.39999389648</ele>
        <time>2019-08-30T08:05:40.000Z</time>
      </trkpt>
      <trkpt lat="50.60027" lon="5.39739">
        <ele>128.39999389648</ele>
        <time>2019-08-30T08:05:41.000Z</time>
      </trkpt>
      <trkpt lat="50.60023" lon="5.39728">
        <ele>128.80000305176</ele>
        <time>2019-08-30T08:05:45.000Z</time>
      </trkpt>
      <trkpt lat="50.60022" lon="5.39725">
        <ele>129.19999694824</ele>
        <time>2019-08-30T08:05:46.000Z</time>
      </trkpt>
      <trkpt lat="50.60022" lon="5.39723">
        <ele>129.60000610352</ele>
        <time>2019-08-30T08:05:47.000Z</time>
      </trkpt>
      <trkpt lat="50.60021" lon="5.3972">
        <ele>130</ele>
        <time>2019-08-30T08:05:48.000Z</time>
      </trkpt>
      <trkpt lat="50.6002" lon="5.39717">
        <ele>130.39999389648</ele>
        <time>2019-08-30T08:05:49.000Z</time>
      </trkpt>
      <trkpt lat="50.60018" lon="5.39712">
        <ele>130.39999389648</ele>
        <time>2019-08-30T08:05:51.000Z</time>
      </trkpt>
      <trkpt lat="50.60012" lon="5.39693">
        <ele>130.39999389648</ele>
        <time>2019-08-30T08:05:58.000Z</time>
      </trkpt>
      <trkpt lat="50.60008" lon="5.39679">
        <ele>130.80000305176</ele>
        <time>2019-08-30T08:06:03.000Z</time>
      </trkpt>
      <trkpt lat="50.60007" lon="5.39676">
        <ele>131.19999694824</ele>
        <time>2019-08-30T08:06:04.000Z</time>
      </trkpt>
      <trkpt lat="50.60006" lon="5.39673">
        <ele>131.60000610352</ele>
        <time>2019-08-30T08:06:05.000Z</time>
      </trkpt>
      <trkpt lat="50.60005" lon="5.3967">
        <ele>132.39999389648</ele>
        <time>2019-08-30T08:06:06.000Z</time>
      </trkpt>
      <trkpt lat="50.60004" lon="5.39668">
        <ele>132.39999389648</ele>
        <time>2019-08-30T08:06:07.000Z</time>
      </trkpt>
      <trkpt lat="50.59997" lon="5.39643">
        <ele>132.39999389648</ele>
        <time>2019-08-30T08:06:16.000Z</time>
      </trkpt>
      <trkpt lat="50.59991" lon="5.39627">
        <ele>132.80000305176</ele>
        <time>2019-08-30T08:06:22.000Z</time>
      </trkpt>
      <trkpt lat="50.59989" lon="5.39624">
        <ele>133.19999694824</ele>
        <time>2019-08-30T08:06:23.000Z</time>
      </trkpt>
      <trkpt lat="50.59988" lon="5.39621">
        <ele>133.60000610352</ele>
        <time>2019-08-30T08:06:24.000Z</time>
      </trkpt>
      <trkpt lat="50.59986" lon="5.39619">
        <ele>134</ele>
        <time>2019-08-30T08:06:25.000Z</time>
      </trkpt>
      <trkpt lat="50.59985" lon="5.39616">
        <ele>134.60000610352</ele>
        <time>2019-08-30T08:06:26.000Z</time>
      </trkpt>
      <trkpt lat="50.59975" lon="5.39599">
        <ele>134.60000610352</ele>
        <time>2019-08-30T08:06:33.000Z</time>
      </trkpt>
      <trkpt lat="50.59966" lon="5.39585">
        <ele>135</ele>
        <time>2019-08-30T08:06:39.000Z</time>
      </trkpt>
      <trkpt lat="50.59964" lon="5.39583">
        <ele>135.39999389648</ele>
        <time>2019-08-30T08:06:40.000Z</time>
      </trkpt>
      <trkpt lat="50.59963" lon="5.3958">
        <ele>135.80000305176</ele>
        <time>2019-08-30T08:06:41.000Z</time>
      </trkpt>
      <trkpt lat="50.59962" lon="5.39578">
        <ele>136.19999694824</ele>
        <time>2019-08-30T08:06:42.000Z</time>
      </trkpt>
      <trkpt lat="50.59961" lon="5.39576">
        <ele>136.60000610352</ele>
        <time>2019-08-30T08:06:43.000Z</time>
      </trkpt>
      <trkpt lat="50.59955" lon="5.39567">
        <ele>136.60000610352</ele>
        <time>2019-08-30T08:06:47.000Z</time>
      </trkpt>
      <trkpt lat="50.59946" lon="5.39551">
        <ele>136.60000610352</ele>
        <time>2019-08-30T08:06:54.000Z</time>
      </trkpt>
      <trkpt lat="50.59944" lon="5.39546">
        <ele>137.19999694824</ele>
        <time>2019-08-30T08:06:56.000Z</time>
      </trkpt>
      <trkpt lat="50.59943" lon="5.39544">
        <ele>137.60000610352</ele>
        <time>2019-08-30T08:06:57.000Z</time>
      </trkpt>
      <trkpt lat="50.59941" lon="5.39541">
        <ele>138</ele>
        <time>2019-08-30T08:06:58.000Z</time>
      </trkpt>
      <trkpt lat="50.5994" lon="5.39539">
        <ele>138.39999389648</ele>
        <time>2019-08-30T08:06:59.000Z</time>
      </trkpt>
      <trkpt lat="50.59938" lon="5.39537">
        <ele>138.80000305176</ele>
        <time>2019-08-30T08:07:00.000Z</time>
      </trkpt>
      <trkpt lat="50.59936" lon="5.39532">
        <ele>138.80000305176</ele>
        <time>2019-08-30T08:07:02.000Z</time>
      </trkpt>
      <trkpt lat="50.59925" lon="5.39517">
        <ele>138.80000305176</ele>
        <time>2019-08-30T08:07:09.000Z</time>
      </trkpt>
      <trkpt lat="50.59914" lon="5.39499">
        <ele>139.19999694824</ele>
        <time>2019-08-30T08:07:17.000Z</time>
      </trkpt>
      <trkpt lat="50.59912" lon="5.39497">
        <ele>139.60000610352</ele>
        <time>2019-08-30T08:07:18.000Z</time>
      </trkpt>
      <trkpt lat="50.59911" lon="5.39495">
        <ele>140</ele>
        <time>2019-08-30T08:07:19.000Z</time>
      </trkpt>
      <trkpt lat="50.5991" lon="5.39493">
        <ele>140.80000305176</ele>
        <time>2019-08-30T08:07:20.000Z</time>
      </trkpt>
      <trkpt lat="50.59904" lon="5.39482">
        <ele>140.80000305176</ele>
        <time>2019-08-30T08:07:25.000Z</time>
      </trkpt>
      <trkpt lat="50.59893" lon="5.39467">
        <ele>140.80000305176</ele>
        <time>2019-08-30T08:07:32.000Z</time>
      </trkpt>
      <trkpt lat="50.59886" lon="5.39456">
        <ele>141.19999694824</ele>
        <time>2019-08-30T08:07:37.000Z</time>
      </trkpt>
      <trkpt lat="50.59884" lon="5.39453">
        <ele>141.60000610352</ele>
        <time>2019-08-30T08:07:38.000Z</time>
      </trkpt>
      <trkpt lat="50.59883" lon="5.39451">
        <ele>142</ele>
        <time>2019-08-30T08:07:39.000Z</time>
      </trkpt>
      <trkpt lat="50.59881" lon="5.39449">
        <ele>142.39999389648</ele>
        <time>2019-08-30T08:07:40.000Z</time>
      </trkpt>
      <trkpt lat="50.5988" lon="5.39446">
        <ele>142.80000305176</ele>
        <time>2019-08-30T08:07:41.000Z</time>
      </trkpt>
      <trkpt lat="50.59871" lon="5.39433">
        <ele>142.80000305176</ele>
        <time>2019-08-30T08:07:47.000Z</time>
      </trkpt>
      <trkpt lat="50.59857" lon="5.39415">
        <ele>143.19999694824</ele>
        <time>2019-08-30T08:07:55.000Z</time>
      </trkpt>
      <trkpt lat="50.59856" lon="5.39413">
        <ele>143.60000610352</ele>
        <time>2019-08-30T08:07:56.000Z</time>
      </trkpt>
      <trkpt lat="50.59854" lon="5.39411">
        <ele>144</ele>
        <time>2019-08-30T08:07:57.000Z</time>
      </trkpt>
      <trkpt lat="50.59853" lon="5.39408">
        <ele>144.39999389648</ele>
        <time>2019-08-30T08:07:58.000Z</time>
      </trkpt>
      <trkpt lat="50.59851" lon="5.39406">
        <ele>144.80000305176</ele>
        <time>2019-08-30T08:07:59.000Z</time>
      </trkpt>
      <trkpt lat="50.59847" lon="5.394">
        <ele>144.80000305176</ele>
        <time>2019-08-30T08:08:02.000Z</time>
      </trkpt>
      <trkpt lat="50.5984" lon="5.39391">
        <ele>144.80000305176</ele>
        <time>2019-08-30T08:08:07.000Z</time>
      </trkpt>
      <trkpt lat="50.59838" lon="5.39387">
        <ele>144.80000305176</ele>
        <time>2019-08-30T08:08:17.000Z</time>
      </trkpt>
      <trkpt lat="50.59828" lon="5.39373">
        <ele>144.80000305176</ele>
        <time>2019-08-30T08:08:23.000Z</time>
      </trkpt>
      <trkpt lat="50.59824" lon="5.39367">
        <ele>145.19999694824</ele>
        <time>2019-08-30T08:08:25.000Z</time>
      </trkpt>
      <trkpt lat="50.59822" lon="5.39364">
        <ele>145.80000305176</ele>
        <time>2019-08-30T08:08:26.000Z</time>
      </trkpt>
      <trkpt lat="50.5982" lon="5.39362">
        <ele>146.19999694824</ele>
        <time>2019-08-30T08:08:27.000Z</time>
      </trkpt>
      <trkpt lat="50.59818" lon="5.39359">
        <ele>146.60000610352</ele>
        <time>2019-08-30T08:08:28.000Z</time>
      </trkpt>
      <trkpt lat="50.59817" lon="5.39356">
        <ele>147</ele>
        <time>2019-08-30T08:08:29.000Z</time>
      </trkpt>
      <trkpt lat="50.59799" lon="5.39332">
        <ele>147</ele>
        <time>2019-08-30T08:08:38.000Z</time>
      </trkpt>
      <trkpt lat="50.59788" lon="5.39316">
        <ele>147</ele>
        <time>2019-08-30T08:08:44.000Z</time>
      </trkpt>
      <trkpt lat="50.59775" lon="5.39296">
        <ele>147</ele>
        <time>2019-08-30T08:08:51.000Z</time>
      </trkpt>
      <trkpt lat="50.59761" lon="5.39277">
        <ele>147</ele>
        <time>2019-08-30T08:08:58.000Z</time>
      </trkpt>
      <trkpt lat="50.59747" lon="5.3926">
        <ele>147</ele>
        <time>2019-08-30T08:09:05.000Z</time>
      </trkpt>
      <trkpt lat="50.59737" lon="5.39244">
        <ele>147</ele>
        <time>2019-08-30T08:09:11.000Z</time>
      </trkpt>
      <trkpt lat="50.59731" lon="5.39237">
        <ele>147.39999389648</ele>
        <time>2019-08-30T08:09:14.000Z</time>
      </trkpt>
      <trkpt lat="50.59729" lon="5.39235">
        <ele>147.80000305176</ele>
        <time>2019-08-30T08:09:15.000Z</time>
      </trkpt>
      <trkpt lat="50.59727" lon="5.39234">
        <ele>148.19999694824</ele>
        <time>2019-08-30T08:09:16.000Z</time>
      </trkpt>
      <trkpt lat="50.59725" lon="5.39232">
        <ele>148.60000610352</ele>
        <time>2019-08-30T08:09:17.000Z</time>
      </trkpt>
      <trkpt lat="50.59723" lon="5.3923">
        <ele>149</ele>
        <time>2019-08-30T08:09:18.000Z</time>
      </trkpt>
      <trkpt lat="50.59711" lon="5.39222">
        <ele>149</ele>
        <time>2019-08-30T08:09:24.000Z</time>
      </trkpt>
      <trkpt lat="50.59704" lon="5.39219">
        <ele>149.39999389648</ele>
        <time>2019-08-30T08:09:28.000Z</time>
      </trkpt>
      <trkpt lat="50.59702" lon="5.39218">
        <ele>149.80000305176</ele>
        <time>2019-08-30T08:09:29.000Z</time>
      </trkpt>
      <trkpt lat="50.597" lon="5.39218">
        <ele>150.19999694824</ele>
        <time>2019-08-30T08:09:30.000Z</time>
      </trkpt>
      <trkpt lat="50.59699" lon="5.39217">
        <ele>150.60000610352</ele>
        <time>2019-08-30T08:09:31.000Z</time>
      </trkpt>
      <trkpt lat="50.59697" lon="5.39217">
        <ele>151</ele>
        <time>2019-08-30T08:09:32.000Z</time>
      </trkpt>
      <trkpt lat="50.59693" lon="5.39217">
        <ele>151</ele>
        <time>2019-08-30T08:09:34.000Z</time>
      </trkpt>
      <trkpt lat="50.59684" lon="5.39216">
        <ele>151</ele>
        <time>2019-08-30T08:09:39.000Z</time>
      </trkpt>
      <trkpt lat="50.59678" lon="5.39216">
        <ele>151.39999389648</ele>
        <time>2019-08-30T08:09:42.000Z</time>
      </trkpt>
      <trkpt lat="50.59677" lon="5.39215">
        <ele>151.80000305176</ele>
        <time>2019-08-30T08:09:43.000Z</time>
      </trkpt>
      <trkpt lat="50.59675" lon="5.39215">
        <ele>152.19999694824</ele>
        <time>2019-08-30T08:09:44.000Z</time>
      </trkpt>
      <trkpt lat="50.59673" lon="5.39215">
        <ele>152.60000610352</ele>
        <time>2019-08-30T08:09:45.000Z</time>
      </trkpt>
      <trkpt lat="50.59671" lon="5.39214">
        <ele>153</ele>
        <time>2019-08-30T08:09:46.000Z</time>
      </trkpt>
      <trkpt lat="50.59669" lon="5.39213">
        <ele>153</ele>
        <time>2019-08-30T08:09:47.000Z</time>
      </trkpt>
      <trkpt lat="50.59655" lon="5.39209">
        <ele>153.39999389648</ele>
        <time>2019-08-30T08:09:55.000Z</time>
      </trkpt>
      <trkpt lat="50.59653" lon="5.39209">
        <ele>153.80000305176</ele>
        <time>2019-08-30T08:09:56.000Z</time>
      </trkpt>
      <trkpt lat="50.59651" lon="5.39209">
        <ele>154.19999694824</ele>
        <time>2019-08-30T08:09:57.000Z</time>
      </trkpt>
      <trkpt lat="50.59649" lon="5.39208">
        <ele>154.60000610352</ele>
        <time>2019-08-30T08:09:58.000Z</time>
      </trkpt>
      <trkpt lat="50.59647" lon="5.39208">
        <ele>155</ele>
        <time>2019-08-30T08:09:59.000Z</time>
      </trkpt>
      <trkpt lat="50.5964" lon="5.39207">
        <ele>155</ele>
        <time>2019-08-30T08:10:03.000Z</time>
      </trkpt>
      <trkpt lat="50.59627" lon="5.39204">
        <ele>155.39999389648</ele>
        <time>2019-08-30T08:10:10.000Z</time>
      </trkpt>
      <trkpt lat="50.59625" lon="5.39204">
        <ele>155.80000305176</ele>
        <time>2019-08-30T08:10:11.000Z</time>
      </trkpt>
      <trkpt lat="50.59623" lon="5.39203">
        <ele>156.19999694824</ele>
        <time>2019-08-30T08:10:12.000Z</time>
      </trkpt>
      <trkpt lat="50.59621" lon="5.39203">
        <ele>157</ele>
        <time>2019-08-30T08:10:13.000Z</time>
      </trkpt>
      <trkpt lat="50.5961" lon="5.39201">
        <ele>157</ele>
        <time>2019-08-30T08:10:19.000Z</time>
      </trkpt>
      <trkpt lat="50.59603" lon="5.392">
        <ele>157.60000610352</ele>
        <time>2019-08-30T08:10:23.000Z</time>
      </trkpt>
      <trkpt lat="50.59601" lon="5.39199">
        <ele>158</ele>
        <time>2019-08-30T08:10:24.000Z</time>
      </trkpt>
      <trkpt lat="50.59599" lon="5.39199">
        <ele>158.39999389648</ele>
        <time>2019-08-30T08:10:25.000Z</time>
      </trkpt>
      <trkpt lat="50.59598" lon="5.39199">
        <ele>158.80000305176</ele>
        <time>2019-08-30T08:10:26.000Z</time>
      </trkpt>
      <trkpt lat="50.59595" lon="5.39198">
        <ele>159.19999694824</ele>
        <time>2019-08-30T08:10:27.000Z</time>
      </trkpt>
      <trkpt lat="50.59593" lon="5.39198">
        <ele>159.19999694824</ele>
        <time>2019-08-30T08:10:28.000Z</time>
      </trkpt>
      <trkpt lat="50.59581" lon="5.39197">
        <ele>159.19999694824</ele>
        <time>2019-08-30T08:10:35.000Z</time>
      </trkpt>
      <trkpt lat="50.59577" lon="5.39197">
        <ele>159.60000610352</ele>
        <time>2019-08-30T08:10:37.000Z</time>
      </trkpt>
      <trkpt lat="50.59575" lon="5.39197">
        <ele>160.39999389648</ele>
        <time>2019-08-30T08:10:38.000Z</time>
      </trkpt>
      <trkpt lat="50.59573" lon="5.39196">
        <ele>160.80000305176</ele>
        <time>2019-08-30T08:10:39.000Z</time>
      </trkpt>
      <trkpt lat="50.59571" lon="5.39197">
        <ele>161.19999694824</ele>
        <time>2019-08-30T08:10:40.000Z</time>
      </trkpt>
      <trkpt lat="50.59568" lon="5.39197">
        <ele>161.19999694824</ele>
        <time>2019-08-30T08:10:42.000Z</time>
      </trkpt>
      <trkpt lat="50.59554" lon="5.39204">
        <ele>161.80000305176</ele>
        <time>2019-08-30T08:10:50.000Z</time>
      </trkpt>
      <trkpt lat="50.59552" lon="5.39205">
        <ele>162.19999694824</ele>
        <time>2019-08-30T08:10:51.000Z</time>
      </trkpt>
      <trkpt lat="50.59551" lon="5.39206">
        <ele>162.60000610352</ele>
        <time>2019-08-30T08:10:52.000Z</time>
      </trkpt>
      <trkpt lat="50.59549" lon="5.39207">
        <ele>163</ele>
        <time>2019-08-30T08:10:53.000Z</time>
      </trkpt>
      <trkpt lat="50.59548" lon="5.39208">
        <ele>163.39999389648</ele>
        <time>2019-08-30T08:10:54.000Z</time>
      </trkpt>
      <trkpt lat="50.59545" lon="5.39211">
        <ele>163.39999389648</ele>
        <time>2019-08-30T08:10:56.000Z</time>
      </trkpt>
      <trkpt lat="50.59535" lon="5.3922">
        <ele>163.39999389648</ele>
        <time>2019-08-30T08:11:02.000Z</time>
      </trkpt>
      <trkpt lat="50.59532" lon="5.39223">
        <ele>163.80000305176</ele>
        <time>2019-08-30T08:11:04.000Z</time>
      </trkpt>
      <trkpt lat="50.59531" lon="5.39225">
        <ele>164.19999694824</ele>
        <time>2019-08-30T08:11:05.000Z</time>
      </trkpt>
      <trkpt lat="50.59529" lon="5.39227">
        <ele>164.60000610352</ele>
        <time>2019-08-30T08:11:06.000Z</time>
      </trkpt>
      <trkpt lat="50.59528" lon="5.3923">
        <ele>165</ele>
        <time>2019-08-30T08:11:07.000Z</time>
      </trkpt>
      <trkpt lat="50.59526" lon="5.39232">
        <ele>165.39999389648</ele>
        <time>2019-08-30T08:11:08.000Z</time>
      </trkpt>
      <trkpt lat="50.59525" lon="5.39233">
        <ele>165.39999389648</ele>
        <time>2019-08-30T08:11:09.000Z</time>
      </trkpt>
      <trkpt lat="50.59519" lon="5.39236">
        <ele>165.39999389648</ele>
        <time>2019-08-30T08:11:12.000Z</time>
      </trkpt>
      <trkpt lat="50.59512" lon="5.39245">
        <ele>165.39999389648</ele>
        <time>2019-08-30T08:11:17.000Z</time>
      </trkpt>
      <trkpt lat="50.5951" lon="5.39246">
        <ele>165.80000305176</ele>
        <time>2019-08-30T08:11:18.000Z</time>
      </trkpt>
      <trkpt lat="50.59509" lon="5.39248">
        <ele>166.19999694824</ele>
        <time>2019-08-30T08:11:19.000Z</time>
      </trkpt>
      <trkpt lat="50.59507" lon="5.39249">
        <ele>166.60000610352</ele>
        <time>2019-08-30T08:11:20.000Z</time>
      </trkpt>
      <trkpt lat="50.59506" lon="5.39251">
        <ele>167</ele>
        <time>2019-08-30T08:11:21.000Z</time>
      </trkpt>
      <trkpt lat="50.59504" lon="5.39252">
        <ele>167.39999389648</ele>
        <time>2019-08-30T08:11:22.000Z</time>
      </trkpt>
      <trkpt lat="50.595" lon="5.39255">
        <ele>167.39999389648</ele>
        <time>2019-08-30T08:11:25.000Z</time>
      </trkpt>
      <trkpt lat="50.59488" lon="5.39268">
        <ele>167.39999389648</ele>
        <time>2019-08-30T08:11:33.000Z</time>
      </trkpt>
      <trkpt lat="50.59487" lon="5.39269">
        <ele>167.80000305176</ele>
        <time>2019-08-30T08:11:34.000Z</time>
      </trkpt>
      <trkpt lat="50.59485" lon="5.39271">
        <ele>168.39999389648</ele>
        <time>2019-08-30T08:11:35.000Z</time>
      </trkpt>
      <trkpt lat="50.59484" lon="5.39273">
        <ele>168.80000305176</ele>
        <time>2019-08-30T08:11:36.000Z</time>
      </trkpt>
      <trkpt lat="50.59483" lon="5.39274">
        <ele>169.19999694824</ele>
        <time>2019-08-30T08:11:37.000Z</time>
      </trkpt>
      <trkpt lat="50.59481" lon="5.39276">
        <ele>169.60000610352</ele>
        <time>2019-08-30T08:11:38.000Z</time>
      </trkpt>
      <trkpt lat="50.59477" lon="5.39282">
        <ele>169.60000610352</ele>
        <time>2019-08-30T08:11:41.000Z</time>
      </trkpt>
      <trkpt lat="50.59465" lon="5.39294">
        <ele>169.60000610352</ele>
        <time>2019-08-30T08:11:49.000Z</time>
      </trkpt>
      <trkpt lat="50.59464" lon="5.39296">
        <ele>170</ele>
        <time>2019-08-30T08:11:50.000Z</time>
      </trkpt>
      <trkpt lat="50.59463" lon="5.39299">
        <ele>170.39999389648</ele>
        <time>2019-08-30T08:11:51.000Z</time>
      </trkpt>
      <trkpt lat="50.59461" lon="5.39302">
        <ele>171.19999694824</ele>
        <time>2019-08-30T08:11:52.000Z</time>
      </trkpt>
      <trkpt lat="50.5946" lon="5.39304">
        <ele>171.60000610352</ele>
        <time>2019-08-30T08:11:53.000Z</time>
      </trkpt>
      <trkpt lat="50.59457" lon="5.39307">
        <ele>171.60000610352</ele>
        <time>2019-08-30T08:11:55.000Z</time>
      </trkpt>
      <trkpt lat="50.59454" lon="5.39312">
        <ele>171.60000610352</ele>
        <time>2019-08-30T08:11:57.000Z</time>
      </trkpt>
      <trkpt lat="50.5945" lon="5.39319">
        <ele>171.60000610352</ele>
        <time>2019-08-30T08:12:00.000Z</time>
      </trkpt>
      <trkpt lat="50.59444" lon="5.3933">
        <ele>172</ele>
        <time>2019-08-30T08:12:05.000Z</time>
      </trkpt>
      <trkpt lat="50.59443" lon="5.39332">
        <ele>172.60000610352</ele>
        <time>2019-08-30T08:12:06.000Z</time>
      </trkpt>
      <trkpt lat="50.59442" lon="5.39334">
        <ele>173</ele>
        <time>2019-08-30T08:12:07.000Z</time>
      </trkpt>
      <trkpt lat="50.59441" lon="5.39337">
        <ele>173.39999389648</ele>
        <time>2019-08-30T08:12:08.000Z</time>
      </trkpt>
      <trkpt lat="50.5944" lon="5.39339">
        <ele>173.80000305176</ele>
        <time>2019-08-30T08:12:09.000Z</time>
      </trkpt>
      <trkpt lat="50.59433" lon="5.39353">
        <ele>173.80000305176</ele>
        <time>2019-08-30T08:12:15.000Z</time>
      </trkpt>
      <trkpt lat="50.59431" lon="5.39361">
        <ele>174.19999694824</ele>
        <time>2019-08-30T08:12:18.000Z</time>
      </trkpt>
      <trkpt lat="50.5943" lon="5.39363">
        <ele>174.60000610352</ele>
        <time>2019-08-30T08:12:19.000Z</time>
      </trkpt>
      <trkpt lat="50.59428" lon="5.39366">
        <ele>175</ele>
        <time>2019-08-30T08:12:20.000Z</time>
      </trkpt>
      <trkpt lat="50.59427" lon="5.39368">
        <ele>175.39999389648</ele>
        <time>2019-08-30T08:12:21.000Z</time>
      </trkpt>
      <trkpt lat="50.59426" lon="5.39371">
        <ele>175.80000305176</ele>
        <time>2019-08-30T08:12:22.000Z</time>
      </trkpt>
      <trkpt lat="50.59418" lon="5.39391">
        <ele>175.80000305176</ele>
        <time>2019-08-30T08:12:30.000Z</time>
      </trkpt>
      <trkpt lat="50.59416" lon="5.39398">
        <ele>176.19999694824</ele>
        <time>2019-08-30T08:12:33.000Z</time>
      </trkpt>
      <trkpt lat="50.59416" lon="5.39398">
        <ele>176.60000610352</ele>
        <time>2019-08-30T08:12:34.000Z</time>
      </trkpt>
      <trkpt lat="50.59415" lon="5.394">
        <ele>178</ele>
        <time>2019-08-30T08:12:41.000Z</time>
      </trkpt>
      <trkpt lat="50.5941" lon="5.39413">
        <ele>178</ele>
        <time>2019-08-30T08:12:46.000Z</time>
      </trkpt>
      <trkpt lat="50.59403" lon="5.3943">
        <ele>178</ele>
        <time>2019-08-30T08:12:51.000Z</time>
      </trkpt>
      <trkpt lat="50.59393" lon="5.39456">
        <ele>178</ele>
        <time>2019-08-30T08:12:58.000Z</time>
      </trkpt>
      <trkpt lat="50.59378" lon="5.39487">
        <ele>178</ele>
        <time>2019-08-30T08:13:06.000Z</time>
      </trkpt>
      <trkpt lat="50.59361" lon="5.39517">
        <ele>178</ele>
        <time>2019-08-30T08:13:14.000Z</time>
      </trkpt>
      <trkpt lat="50.5935" lon="5.39535">
        <ele>178</ele>
        <time>2019-08-30T08:13:19.000Z</time>
      </trkpt>
      <trkpt lat="50.5933" lon="5.39558">
        <ele>178</ele>
        <time>2019-08-30T08:13:27.000Z</time>
      </trkpt>
      <trkpt lat="50.59329" lon="5.39559">
        <ele>178</ele>
        <time>2019-08-30T08:13:29.000Z</time>
      </trkpt>
      <trkpt lat="50.59328" lon="5.39559">
        <ele>178</ele>
        <time>2019-08-30T08:13:36.000Z</time>
      </trkpt>
      <trkpt lat="50.59322" lon="5.39565">
        <ele>178</ele>
        <time>2019-08-30T08:13:40.000Z</time>
      </trkpt>
      <trkpt lat="50.59315" lon="5.39573">
        <ele>178.39999389648</ele>
        <time>2019-08-30T08:13:43.000Z</time>
      </trkpt>
      <trkpt lat="50.59312" lon="5.39576">
        <ele>178.80000305176</ele>
        <time>2019-08-30T08:13:44.000Z</time>
      </trkpt>
      <trkpt lat="50.59309" lon="5.39576">
        <ele>179.19999694824</ele>
        <time>2019-08-30T08:13:45.000Z</time>
      </trkpt>
      <trkpt lat="50.59306" lon="5.39575">
        <ele>179.60000610352</ele>
        <time>2019-08-30T08:13:46.000Z</time>
      </trkpt>
      <trkpt lat="50.59304" lon="5.39573">
        <ele>180</ele>
        <time>2019-08-30T08:13:47.000Z</time>
      </trkpt>
      <trkpt lat="50.59301" lon="5.39567">
        <ele>180</ele>
        <time>2019-08-30T08:13:50.000Z</time>
      </trkpt>
      <trkpt lat="50.59301" lon="5.39567">
        <ele>180</ele>
        <time>2019-08-30T08:13:57.000Z</time>
      </trkpt>
      <trkpt lat="50.59297" lon="5.3956">
        <ele>180</ele>
        <time>2019-08-30T08:14:00.000Z</time>
      </trkpt>
      <trkpt lat="50.59287" lon="5.39541">
        <ele>180</ele>
        <time>2019-08-30T08:14:06.000Z</time>
      </trkpt>
      <trkpt lat="50.59279" lon="5.39527">
        <ele>180</ele>
        <time>2019-08-30T08:14:11.000Z</time>
      </trkpt>
      <trkpt lat="50.59278" lon="5.39527">
        <ele>180</ele>
        <time>2019-08-30T08:14:12.000Z</time>
      </trkpt>
      <trkpt lat="50.59278" lon="5.39526">
        <ele>180</ele>
        <time>2019-08-30T08:14:17.000Z</time>
      </trkpt>
      <trkpt lat="50.59277" lon="5.39524">
        <ele>180</ele>
        <time>2019-08-30T08:14:18.000Z</time>
      </trkpt>
      <trkpt lat="50.59267" lon="5.39511">
        <ele>180</ele>
        <time>2019-08-30T08:14:24.000Z</time>
      </trkpt>
      <trkpt lat="50.59257" lon="5.39498">
        <ele>180</ele>
        <time>2019-08-30T08:14:29.000Z</time>
      </trkpt>
      <trkpt lat="50.59247" lon="5.39484">
        <ele>180.39999389648</ele>
        <time>2019-08-30T08:14:34.000Z</time>
      </trkpt>
      <trkpt lat="50.59245" lon="5.39481">
        <ele>180.80000305176</ele>
        <time>2019-08-30T08:14:35.000Z</time>
      </trkpt>
      <trkpt lat="50.59243" lon="5.39478">
        <ele>181.19999694824</ele>
        <time>2019-08-30T08:14:36.000Z</time>
      </trkpt>
      <trkpt lat="50.5924" lon="5.39475">
        <ele>181.60000610352</ele>
        <time>2019-08-30T08:14:37.000Z</time>
      </trkpt>
      <trkpt lat="50.59238" lon="5.39471">
        <ele>182</ele>
        <time>2019-08-30T08:14:38.000Z</time>
      </trkpt>
      <trkpt lat="50.59236" lon="5.39468">
        <ele>182</ele>
        <time>2019-08-30T08:14:39.000Z</time>
      </trkpt>
      <trkpt lat="50.5922" lon="5.39446">
        <ele>182</ele>
        <time>2019-08-30T08:14:46.000Z</time>
      </trkpt>
      <trkpt lat="50.59206" lon="5.39426">
        <ele>182</ele>
        <time>2019-08-30T08:14:52.000Z</time>
      </trkpt>
      <trkpt lat="50.59184" lon="5.39397">
        <ele>182</ele>
        <time>2019-08-30T08:15:01.000Z</time>
      </trkpt>
      <trkpt lat="50.59169" lon="5.39379">
        <ele>182</ele>
        <time>2019-08-30T08:15:06.000Z</time>
      </trkpt>
      <trkpt lat="50.5915" lon="5.39356">
        <ele>182</ele>
        <time>2019-08-30T08:15:12.000Z</time>
      </trkpt>
      <trkpt lat="50.59146" lon="5.39353">
        <ele>182</ele>
        <time>2019-08-30T08:15:13.000Z</time>
      </trkpt>
      <trkpt lat="50.59126" lon="5.39331">
        <ele>182</ele>
        <time>2019-08-30T08:15:19.000Z</time>
      </trkpt>
      <trkpt lat="50.5912" lon="5.39323">
        <ele>182</ele>
        <time>2019-08-30T08:15:21.000Z</time>
      </trkpt>
      <trkpt lat="50.5911" lon="5.39312">
        <ele>182</ele>
        <time>2019-08-30T08:15:24.000Z</time>
      </trkpt>
      <trkpt lat="50.59107" lon="5.39308">
        <ele>182</ele>
        <time>2019-08-30T08:15:25.000Z</time>
      </trkpt>
      <trkpt lat="50.59087" lon="5.39283">
        <ele>182</ele>
        <time>2019-08-30T08:15:31.000Z</time>
      </trkpt>
      <trkpt lat="50.59068" lon="5.39254">
        <ele>182</ele>
        <time>2019-08-30T08:15:37.000Z</time>
      </trkpt>
      <trkpt lat="50.59055" lon="5.39234">
        <ele>182</ele>
        <time>2019-08-30T08:15:41.000Z</time>
      </trkpt>
      <trkpt lat="50.59049" lon="5.39222">
        <ele>182</ele>
        <time>2019-08-30T08:15:43.000Z</time>
      </trkpt>
      <trkpt lat="50.59044" lon="5.39211">
        <ele>182</ele>
        <time>2019-08-30T08:15:45.000Z</time>
      </trkpt>
      <trkpt lat="50.59031" lon="5.39183">
        <ele>182</ele>
        <time>2019-08-30T08:15:50.000Z</time>
      </trkpt>
      <trkpt lat="50.59021" lon="5.39158">
        <ele>182</ele>
        <time>2019-08-30T08:15:55.000Z</time>
      </trkpt>
      <trkpt lat="50.59009" lon="5.39127">
        <ele>182</ele>
        <time>2019-08-30T08:16:01.000Z</time>
      </trkpt>
      <trkpt lat="50.59001" lon="5.39108">
        <ele>182</ele>
        <time>2019-08-30T08:16:05.000Z</time>
      </trkpt>
      <trkpt lat="50.58994" lon="5.39091">
        <ele>182</ele>
        <time>2019-08-30T08:16:08.000Z</time>
      </trkpt>
      <trkpt lat="50.5898" lon="5.39048">
        <ele>182</ele>
        <time>2019-08-30T08:16:16.000Z</time>
      </trkpt>
      <trkpt lat="50.58967" lon="5.39009">
        <ele>182</ele>
        <time>2019-08-30T08:16:23.000Z</time>
      </trkpt>
      <trkpt lat="50.58952" lon="5.38965">
        <ele>182</ele>
        <time>2019-08-30T08:16:31.000Z</time>
      </trkpt>
      <trkpt lat="50.58948" lon="5.38953">
        <ele>182</ele>
        <time>2019-08-30T08:16:33.000Z</time>
      </trkpt>
      <trkpt lat="50.58939" lon="5.38924">
        <ele>182</ele>
        <time>2019-08-30T08:16:38.000Z</time>
      </trkpt>
      <trkpt lat="50.58921" lon="5.38866">
        <ele>182</ele>
        <time>2019-08-30T08:16:48.000Z</time>
      </trkpt>
      <trkpt lat="50.58914" lon="5.38843">
        <ele>182</ele>
        <time>2019-08-30T08:16:52.000Z</time>
      </trkpt>
      <trkpt lat="50.58908" lon="5.38827">
        <ele>182</ele>
        <time>2019-08-30T08:16:55.000Z</time>
      </trkpt>
      <trkpt lat="50.58895" lon="5.38788">
        <ele>182</ele>
        <time>2019-08-30T08:17:02.000Z</time>
      </trkpt>
      <trkpt lat="50.58886" lon="5.38754">
        <ele>182</ele>
        <time>2019-08-30T08:17:08.000Z</time>
      </trkpt>
      <trkpt lat="50.58876" lon="5.38722">
        <ele>182</ele>
        <time>2019-08-30T08:17:14.000Z</time>
      </trkpt>
      <trkpt lat="50.58867" lon="5.38697">
        <ele>182</ele>
        <time>2019-08-30T08:17:20.000Z</time>
      </trkpt>
      <trkpt lat="50.58867" lon="5.38697">
        <ele>182</ele>
        <time>2019-08-30T08:17:21.000Z</time>
      </trkpt>
      <trkpt lat="50.58866" lon="5.38694">
        <ele>182</ele>
        <time>2019-08-30T08:17:29.000Z</time>
      </trkpt>
      <trkpt lat="50.58865" lon="5.38692">
        <ele>182</ele>
        <time>2019-08-30T08:17:30.000Z</time>
      </trkpt>
      <trkpt lat="50.58862" lon="5.38678">
        <ele>182</ele>
        <time>2019-08-30T08:17:34.000Z</time>
      </trkpt>
      <trkpt lat="50.58862" lon="5.38665">
        <ele>182</ele>
        <time>2019-08-30T08:17:37.000Z</time>
      </trkpt>
      <trkpt lat="50.58863" lon="5.38661">
        <ele>182</ele>
        <time>2019-08-30T08:17:38.000Z</time>
      </trkpt>
      <trkpt lat="50.58864" lon="5.38658">
        <ele>182.39999389648</ele>
        <time>2019-08-30T08:17:39.000Z</time>
      </trkpt>
      <trkpt lat="50.58866" lon="5.38655">
        <ele>182.80000305176</ele>
        <time>2019-08-30T08:17:40.000Z</time>
      </trkpt>
      <trkpt lat="50.58867" lon="5.38653">
        <ele>183.19999694824</ele>
        <time>2019-08-30T08:17:41.000Z</time>
      </trkpt>
      <trkpt lat="50.58868" lon="5.38651">
        <ele>183.80000305176</ele>
        <time>2019-08-30T08:17:42.000Z</time>
      </trkpt>
      <trkpt lat="50.5887" lon="5.38648">
        <ele>184.19999694824</ele>
        <time>2019-08-30T08:17:43.000Z</time>
      </trkpt>
      <trkpt lat="50.58872" lon="5.38642">
        <ele>184.19999694824</ele>
        <time>2019-08-30T08:17:45.000Z</time>
      </trkpt>
      <trkpt lat="50.58881" lon="5.38627">
        <ele>184.19999694824</ele>
        <time>2019-08-30T08:17:51.000Z</time>
      </trkpt>
      <trkpt lat="50.58884" lon="5.38622">
        <ele>184.60000610352</ele>
        <time>2019-08-30T08:17:53.000Z</time>
      </trkpt>
      <trkpt lat="50.58886" lon="5.38619">
        <ele>185</ele>
        <time>2019-08-30T08:17:54.000Z</time>
      </trkpt>
      <trkpt lat="50.58888" lon="5.38616">
        <ele>185.39999389648</ele>
        <time>2019-08-30T08:17:55.000Z</time>
      </trkpt>
      <trkpt lat="50.5889" lon="5.38613">
        <ele>185.80000305176</ele>
        <time>2019-08-30T08:17:56.000Z</time>
      </trkpt>
      <trkpt lat="50.58891" lon="5.3861">
        <ele>186.19999694824</ele>
        <time>2019-08-30T08:17:57.000Z</time>
      </trkpt>
      <trkpt lat="50.58895" lon="5.38605">
        <ele>186.19999694824</ele>
        <time>2019-08-30T08:17:59.000Z</time>
      </trkpt>
      <trkpt lat="50.58904" lon="5.38585">
        <ele>186.19999694824</ele>
        <time>2019-08-30T08:18:05.000Z</time>
      </trkpt>
      <trkpt lat="50.58914" lon="5.38567">
        <ele>186.60000610352</ele>
        <time>2019-08-30T08:18:11.000Z</time>
      </trkpt>
      <trkpt lat="50.58915" lon="5.38564">
        <ele>187</ele>
        <time>2019-08-30T08:18:12.000Z</time>
      </trkpt>
      <trkpt lat="50.58917" lon="5.3856">
        <ele>187.39999389648</ele>
        <time>2019-08-30T08:18:13.000Z</time>
      </trkpt>
      <trkpt lat="50.58919" lon="5.38557">
        <ele>187.80000305176</ele>
        <time>2019-08-30T08:18:14.000Z</time>
      </trkpt>
      <trkpt lat="50.58921" lon="5.38554">
        <ele>188.19999694824</ele>
        <time>2019-08-30T08:18:15.000Z</time>
      </trkpt>
      <trkpt lat="50.58928" lon="5.38541">
        <ele>188.19999694824</ele>
        <time>2019-08-30T08:18:19.000Z</time>
      </trkpt>
      <trkpt lat="50.58936" lon="5.38525">
        <ele>188.19999694824</ele>
        <time>2019-08-30T08:18:24.000Z</time>
      </trkpt>
      <trkpt lat="50.58947" lon="5.38504">
        <ele>188.19999694824</ele>
        <time>2019-08-30T08:18:30.000Z</time>
      </trkpt>
      <trkpt lat="50.58961" lon="5.38479">
        <ele>188.19999694824</ele>
        <time>2019-08-30T08:18:37.000Z</time>
      </trkpt>
      <trkpt lat="50.58965" lon="5.38471">
        <ele>188.80000305176</ele>
        <time>2019-08-30T08:18:39.000Z</time>
      </trkpt>
      <trkpt lat="50.58967" lon="5.38467">
        <ele>189.19999694824</ele>
        <time>2019-08-30T08:18:40.000Z</time>
      </trkpt>
      <trkpt lat="50.58969" lon="5.38464">
        <ele>189.60000610352</ele>
        <time>2019-08-30T08:18:41.000Z</time>
      </trkpt>
      <trkpt lat="50.58971" lon="5.3846">
        <ele>190</ele>
        <time>2019-08-30T08:18:42.000Z</time>
      </trkpt>
      <trkpt lat="50.58973" lon="5.38456">
        <ele>190.39999389648</ele>
        <time>2019-08-30T08:18:43.000Z</time>
      </trkpt>
      <trkpt lat="50.58977" lon="5.38448">
        <ele>190.39999389648</ele>
        <time>2019-08-30T08:18:45.000Z</time>
      </trkpt>
      <trkpt lat="50.58992" lon="5.3842">
        <ele>190.39999389648</ele>
        <time>2019-08-30T08:18:52.000Z</time>
      </trkpt>
      <trkpt lat="50.59011" lon="5.38393">
        <ele>190.39999389648</ele>
        <time>2019-08-30T08:18:59.000Z</time>
      </trkpt>
      <trkpt lat="50.59031" lon="5.38368">
        <ele>190.39999389648</ele>
        <time>2019-08-30T08:19:06.000Z</time>
      </trkpt>
      <trkpt lat="50.59038" lon="5.38359">
        <ele>190.39999389648</ele>
        <time>2019-08-30T08:19:08.000Z</time>
      </trkpt>
      <trkpt lat="50.59052" lon="5.38339">
        <ele>190.39999389648</ele>
        <time>2019-08-30T08:19:12.000Z</time>
      </trkpt>
      <trkpt lat="50.59069" lon="5.38318">
        <ele>190</ele>
        <time>2019-08-30T08:19:16.000Z</time>
      </trkpt>
      <trkpt lat="50.59074" lon="5.38312">
        <ele>189.60000610352</ele>
        <time>2019-08-30T08:19:17.000Z</time>
      </trkpt>
      <trkpt lat="50.59078" lon="5.38306">
        <ele>189.19999694824</ele>
        <time>2019-08-30T08:19:18.000Z</time>
      </trkpt>
      <trkpt lat="50.59083" lon="5.383">
        <ele>188.80000305176</ele>
        <time>2019-08-30T08:19:19.000Z</time>
      </trkpt>
      <trkpt lat="50.59088" lon="5.38293">
        <ele>188.39999389648</ele>
        <time>2019-08-30T08:19:20.000Z</time>
      </trkpt>
      <trkpt lat="50.59108" lon="5.38266">
        <ele>188.39999389648</ele>
        <time>2019-08-30T08:19:24.000Z</time>
      </trkpt>
      <trkpt lat="50.59122" lon="5.38248">
        <ele>187.80000305176</ele>
        <time>2019-08-30T08:19:27.000Z</time>
      </trkpt>
      <trkpt lat="50.59126" lon="5.38243">
        <ele>187.19999694824</ele>
        <time>2019-08-30T08:19:28.000Z</time>
      </trkpt>
      <trkpt lat="50.59129" lon="5.38239">
        <ele>186.60000610352</ele>
        <time>2019-08-30T08:19:29.000Z</time>
      </trkpt>
      <trkpt lat="50.59131" lon="5.38235">
        <ele>186</ele>
        <time>2019-08-30T08:19:30.000Z</time>
      </trkpt>
      <trkpt lat="50.59134" lon="5.38232">
        <ele>185.60000610352</ele>
        <time>2019-08-30T08:19:31.000Z</time>
      </trkpt>
      <trkpt lat="50.59136" lon="5.38229">
        <ele>185</ele>
        <time>2019-08-30T08:19:32.000Z</time>
      </trkpt>
      <trkpt lat="50.59138" lon="5.38227">
        <ele>184.39999389648</ele>
        <time>2019-08-30T08:19:33.000Z</time>
      </trkpt>
      <trkpt lat="50.59138" lon="5.38227">
        <ele>183.80000305176</ele>
        <time>2019-08-30T08:19:34.000Z</time>
      </trkpt>
      <trkpt lat="50.59139" lon="5.38225">
        <ele>183.19999694824</ele>
        <time>2019-08-30T08:19:42.000Z</time>
      </trkpt>
      <trkpt lat="50.59141" lon="5.38223">
        <ele>183.19999694824</ele>
        <time>2019-08-30T08:19:43.000Z</time>
      </trkpt>
      <trkpt lat="50.59145" lon="5.38213">
        <ele>183.19999694824</ele>
        <time>2019-08-30T08:19:46.000Z</time>
      </trkpt>
      <trkpt lat="50.59146" lon="5.38205">
        <ele>183.19999694824</ele>
        <time>2019-08-30T08:19:48.000Z</time>
      </trkpt>
      <trkpt lat="50.59141" lon="5.38186">
        <ele>183.19999694824</ele>
        <time>2019-08-30T08:19:53.000Z</time>
      </trkpt>
      <trkpt lat="50.5914" lon="5.38183">
        <ele>183.19999694824</ele>
        <time>2019-08-30T08:19:57.000Z</time>
      </trkpt>
      <trkpt lat="50.59138" lon="5.38181">
        <ele>183.19999694824</ele>
        <time>2019-08-30T08:20:02.000Z</time>
      </trkpt>
      <trkpt lat="50.59133" lon="5.3817">
        <ele>183.19999694824</ele>
        <time>2019-08-30T08:20:06.000Z</time>
      </trkpt>
      <trkpt lat="50.59127" lon="5.38148">
        <ele>183.19999694824</ele>
        <time>2019-08-30T08:20:11.000Z</time>
      </trkpt>
      <trkpt lat="50.59118" lon="5.38122">
        <ele>183.19999694824</ele>
        <time>2019-08-30T08:20:17.000Z</time>
      </trkpt>
      <trkpt lat="50.59109" lon="5.38097">
        <ele>183.19999694824</ele>
        <time>2019-08-30T08:20:23.000Z</time>
      </trkpt>
      <trkpt lat="50.59099" lon="5.38069">
        <ele>183.19999694824</ele>
        <time>2019-08-30T08:20:30.000Z</time>
      </trkpt>
      <trkpt lat="50.59088" lon="5.38035">
        <ele>183.19999694824</ele>
        <time>2019-08-30T08:20:38.000Z</time>
      </trkpt>
      <trkpt lat="50.59074" lon="5.37998">
        <ele>183.19999694824</ele>
        <time>2019-08-30T08:20:46.000Z</time>
      </trkpt>
      <trkpt lat="50.59062" lon="5.37966">
        <ele>183.19999694824</ele>
        <time>2019-08-30T08:20:53.000Z</time>
      </trkpt>
      <trkpt lat="50.59061" lon="5.37962">
        <ele>184.19999694824</ele>
        <time>2019-08-30T08:20:54.000Z</time>
      </trkpt>
      <trkpt lat="50.59059" lon="5.37957">
        <ele>184.60000610352</ele>
        <time>2019-08-30T08:20:55.000Z</time>
      </trkpt>
      <trkpt lat="50.59057" lon="5.37953">
        <ele>185</ele>
        <time>2019-08-30T08:20:56.000Z</time>
      </trkpt>
      <trkpt lat="50.59056" lon="5.37948">
        <ele>185.39999389648</ele>
        <time>2019-08-30T08:20:57.000Z</time>
      </trkpt>
      <trkpt lat="50.59051" lon="5.37935">
        <ele>185.39999389648</ele>
        <time>2019-08-30T08:21:00.000Z</time>
      </trkpt>
      <trkpt lat="50.59041" lon="5.37904">
        <ele>185.39999389648</ele>
        <time>2019-08-30T08:21:07.000Z</time>
      </trkpt>
      <trkpt lat="50.59031" lon="5.37874">
        <ele>185.39999389648</ele>
        <time>2019-08-30T08:21:14.000Z</time>
      </trkpt>
      <trkpt lat="50.59024" lon="5.37852">
        <ele>186.19999694824</ele>
        <time>2019-08-30T08:21:19.000Z</time>
      </trkpt>
      <trkpt lat="50.59022" lon="5.37848">
        <ele>186.60000610352</ele>
        <time>2019-08-30T08:21:20.000Z</time>
      </trkpt>
      <trkpt lat="50.59021" lon="5.37844">
        <ele>187</ele>
        <time>2019-08-30T08:21:21.000Z</time>
      </trkpt>
      <trkpt lat="50.59019" lon="5.3784">
        <ele>187.39999389648</ele>
        <time>2019-08-30T08:21:22.000Z</time>
      </trkpt>
      <trkpt lat="50.59007" lon="5.37806">
        <ele>187.39999389648</ele>
        <time>2019-08-30T08:21:30.000Z</time>
      </trkpt>
      <trkpt lat="50.58996" lon="5.37775">
        <ele>187.39999389648</ele>
        <time>2019-08-30T08:21:37.000Z</time>
      </trkpt>
      <trkpt lat="50.58989" lon="5.37752">
        <ele>188</ele>
        <time>2019-08-30T08:21:42.000Z</time>
      </trkpt>
      <trkpt lat="50.58988" lon="5.37747">
        <ele>188.80000305176</ele>
        <time>2019-08-30T08:21:43.000Z</time>
      </trkpt>
      <trkpt lat="50.58987" lon="5.37742">
        <ele>189.19999694824</ele>
        <time>2019-08-30T08:21:44.000Z</time>
      </trkpt>
      <trkpt lat="50.58985" lon="5.37738">
        <ele>189.60000610352</ele>
        <time>2019-08-30T08:21:45.000Z</time>
      </trkpt>
      <trkpt lat="50.58975" lon="5.37705">
        <ele>189.60000610352</ele>
        <time>2019-08-30T08:21:53.000Z</time>
      </trkpt>
      <trkpt lat="50.58972" lon="5.37695">
        <ele>189.60000610352</ele>
        <time>2019-08-30T08:21:57.000Z</time>
      </trkpt>
      <trkpt lat="50.58972" lon="5.37693">
        <ele>189.60000610352</ele>
        <time>2019-08-30T08:22:04.000Z</time>
      </trkpt>
      <trkpt lat="50.58964" lon="5.37677">
        <ele>189.60000610352</ele>
        <time>2019-08-30T08:22:10.000Z</time>
      </trkpt>
      <trkpt lat="50.5896" lon="5.37654">
        <ele>189.60000610352</ele>
        <time>2019-08-30T08:22:15.000Z</time>
      </trkpt>
      <trkpt lat="50.58961" lon="5.37649">
        <ele>189.60000610352</ele>
        <time>2019-08-30T08:22:16.000Z</time>
      </trkpt>
      <trkpt lat="50.58963" lon="5.37637">
        <ele>189.60000610352</ele>
        <time>2019-08-30T08:22:19.000Z</time>
      </trkpt>
      <trkpt lat="50.58963" lon="5.37636">
        <ele>189.60000610352</ele>
        <time>2019-08-30T08:22:21.000Z</time>
      </trkpt>
      <trkpt lat="50.58964" lon="5.37633">
        <ele>189.60000610352</ele>
        <time>2019-08-30T08:22:26.000Z</time>
      </trkpt>
      <trkpt lat="50.58967" lon="5.37619">
        <ele>189.60000610352</ele>
        <time>2019-08-30T08:22:30.000Z</time>
      </trkpt>
      <trkpt lat="50.58968" lon="5.37615">
        <ele>190</ele>
        <time>2019-08-30T08:22:31.000Z</time>
      </trkpt>
      <trkpt lat="50.58968" lon="5.37611">
        <ele>190.60000610352</ele>
        <time>2019-08-30T08:22:32.000Z</time>
      </trkpt>
      <trkpt lat="50.58969" lon="5.37606">
        <ele>191.39999389648</ele>
        <time>2019-08-30T08:22:33.000Z</time>
      </trkpt>
      <trkpt lat="50.58969" lon="5.37602">
        <ele>191.80000305176</ele>
        <time>2019-08-30T08:22:34.000Z</time>
      </trkpt>
      <trkpt lat="50.58972" lon="5.37585">
        <ele>191.80000305176</ele>
        <time>2019-08-30T08:22:38.000Z</time>
      </trkpt>
      <trkpt lat="50.58979" lon="5.37552">
        <ele>191.80000305176</ele>
        <time>2019-08-30T08:22:46.000Z</time>
      </trkpt>
      <trkpt lat="50.58987" lon="5.3751">
        <ele>191.80000305176</ele>
        <time>2019-08-30T08:22:54.000Z</time>
      </trkpt>
      <trkpt lat="50.58989" lon="5.37476">
        <ele>191.80000305176</ele>
        <time>2019-08-30T08:23:00.000Z</time>
      </trkpt>
      <trkpt lat="50.5898" lon="5.37445">
        <ele>191.80000305176</ele>
        <time>2019-08-30T08:23:06.000Z</time>
      </trkpt>
      <trkpt lat="50.58969" lon="5.37423">
        <ele>192.19999694824</ele>
        <time>2019-08-30T08:23:11.000Z</time>
      </trkpt>
      <trkpt lat="50.58967" lon="5.37418">
        <ele>192.60000610352</ele>
        <time>2019-08-30T08:23:12.000Z</time>
      </trkpt>
      <trkpt lat="50.58965" lon="5.37413">
        <ele>193</ele>
        <time>2019-08-30T08:23:13.000Z</time>
      </trkpt>
      <trkpt lat="50.58963" lon="5.37409">
        <ele>193.39999389648</ele>
        <time>2019-08-30T08:23:14.000Z</time>
      </trkpt>
      <trkpt lat="50.58961" lon="5.37405">
        <ele>193.80000305176</ele>
        <time>2019-08-30T08:23:15.000Z</time>
      </trkpt>
      <trkpt lat="50.58953" lon="5.37388">
        <ele>193.80000305176</ele>
        <time>2019-08-30T08:23:19.000Z</time>
      </trkpt>
      <trkpt lat="50.58934" lon="5.37351">
        <ele>193.80000305176</ele>
        <time>2019-08-30T08:23:28.000Z</time>
      </trkpt>
      <trkpt lat="50.58931" lon="5.37343">
        <ele>194.19999694824</ele>
        <time>2019-08-30T08:23:30.000Z</time>
      </trkpt>
      <trkpt lat="50.5893" lon="5.3734">
        <ele>194.60000610352</ele>
        <time>2019-08-30T08:23:31.000Z</time>
      </trkpt>
      <trkpt lat="50.5893" lon="5.37338">
        <ele>195</ele>
        <time>2019-08-30T08:23:32.000Z</time>
      </trkpt>
      <trkpt lat="50.58929" lon="5.37336">
        <ele>195.39999389648</ele>
        <time>2019-08-30T08:23:33.000Z</time>
      </trkpt>
      <trkpt lat="50.58929" lon="5.37336">
        <ele>195.80000305176</ele>
        <time>2019-08-30T08:23:34.000Z</time>
      </trkpt>
      <trkpt lat="50.58925" lon="5.37328">
        <ele>195.80000305176</ele>
        <time>2019-08-30T08:31:04.000Z</time>
      </trkpt>
      <trkpt lat="50.58923" lon="5.37327">
        <ele>195.80000305176</ele>
        <time>2019-08-30T08:31:05.000Z</time>
      </trkpt>
      <trkpt lat="50.58917" lon="5.37313">
        <ele>195.80000305176</ele>
        <time>2019-08-30T08:31:10.000Z</time>
      </trkpt>
      <trkpt lat="50.58906" lon="5.37291">
        <ele>195.80000305176</ele>
        <time>2019-08-30T08:31:16.000Z</time>
      </trkpt>
      <trkpt lat="50.58894" lon="5.37263">
        <ele>195.80000305176</ele>
        <time>2019-08-30T08:31:23.000Z</time>
      </trkpt>
      <trkpt lat="50.58878" lon="5.3723">
        <ele>195.80000305176</ele>
        <time>2019-08-30T08:31:31.000Z</time>
      </trkpt>
      <trkpt lat="50.58874" lon="5.37221">
        <ele>196.19999694824</ele>
        <time>2019-08-30T08:31:33.000Z</time>
      </trkpt>
      <trkpt lat="50.58872" lon="5.37217">
        <ele>196.60000610352</ele>
        <time>2019-08-30T08:31:34.000Z</time>
      </trkpt>
      <trkpt lat="50.5887" lon="5.37212">
        <ele>197.19999694824</ele>
        <time>2019-08-30T08:31:35.000Z</time>
      </trkpt>
      <trkpt lat="50.58867" lon="5.37208">
        <ele>197.60000610352</ele>
        <time>2019-08-30T08:31:36.000Z</time>
      </trkpt>
      <trkpt lat="50.58865" lon="5.37203">
        <ele>198</ele>
        <time>2019-08-30T08:31:37.000Z</time>
      </trkpt>
      <trkpt lat="50.58858" lon="5.37189">
        <ele>198</ele>
        <time>2019-08-30T08:31:40.000Z</time>
      </trkpt>
      <trkpt lat="50.58846" lon="5.3716">
        <ele>198</ele>
        <time>2019-08-30T08:31:46.000Z</time>
      </trkpt>
      <trkpt lat="50.58829" lon="5.37123">
        <ele>198</ele>
        <time>2019-08-30T08:31:54.000Z</time>
      </trkpt>
      <trkpt lat="50.58807" lon="5.37077">
        <ele>198</ele>
        <time>2019-08-30T08:32:04.000Z</time>
      </trkpt>
      <trkpt lat="50.58793" lon="5.37043">
        <ele>198</ele>
        <time>2019-08-30T08:32:11.000Z</time>
      </trkpt>
      <trkpt lat="50.58776" lon="5.37005">
        <ele>198</ele>
        <time>2019-08-30T08:32:19.000Z</time>
      </trkpt>
      <trkpt lat="50.58761" lon="5.3697">
        <ele>198</ele>
        <time>2019-08-30T08:32:26.000Z</time>
      </trkpt>
      <trkpt lat="50.58743" lon="5.36935">
        <ele>198</ele>
        <time>2019-08-30T08:32:34.000Z</time>
      </trkpt>
      <trkpt lat="50.5874" lon="5.36929">
        <ele>198</ele>
        <time>2019-08-30T08:32:38.000Z</time>
      </trkpt>
      <trkpt lat="50.58736" lon="5.36926">
        <ele>198</ele>
        <time>2019-08-30T08:32:48.000Z</time>
      </trkpt>
      <trkpt lat="50.58734" lon="5.36922">
        <ele>198</ele>
        <time>2019-08-30T08:32:50.000Z</time>
      </trkpt>
      <trkpt lat="50.58725" lon="5.36899">
        <ele>198</ele>
        <time>2019-08-30T08:32:56.000Z</time>
      </trkpt>
      <trkpt lat="50.58719" lon="5.36882">
        <ele>198</ele>
        <time>2019-08-30T08:33:02.000Z</time>
      </trkpt>
      <trkpt lat="50.58719" lon="5.36882">
        <ele>198</ele>
        <time>2019-08-30T08:33:03.000Z</time>
      </trkpt>
      <trkpt lat="50.58715" lon="5.36878">
        <ele>198</ele>
        <time>2019-08-30T08:33:10.000Z</time>
      </trkpt>
      <trkpt lat="50.58714" lon="5.36875">
        <ele>198.39999389648</ele>
        <time>2019-08-30T08:33:11.000Z</time>
      </trkpt>
      <trkpt lat="50.58711" lon="5.36872">
        <ele>198.80000305176</ele>
        <time>2019-08-30T08:33:12.000Z</time>
      </trkpt>
      <trkpt lat="50.5871" lon="5.36868">
        <ele>199.19999694824</ele>
        <time>2019-08-30T08:33:13.000Z</time>
      </trkpt>
      <trkpt lat="50.58709" lon="5.36864">
        <ele>199.60000610352</ele>
        <time>2019-08-30T08:33:14.000Z</time>
      </trkpt>
      <trkpt lat="50.58706" lon="5.3686">
        <ele>200</ele>
        <time>2019-08-30T08:33:15.000Z</time>
      </trkpt>
      <trkpt lat="50.58702" lon="5.36851">
        <ele>200</ele>
        <time>2019-08-30T08:33:17.000Z</time>
      </trkpt>
      <trkpt lat="50.58691" lon="5.36825">
        <ele>200</ele>
        <time>2019-08-30T08:33:23.000Z</time>
      </trkpt>
      <trkpt lat="50.58683" lon="5.36798">
        <ele>200</ele>
        <time>2019-08-30T08:33:29.000Z</time>
      </trkpt>
      <trkpt lat="50.58668" lon="5.36778">
        <ele>200</ele>
        <time>2019-08-30T08:33:35.000Z</time>
      </trkpt>
      <trkpt lat="50.58665" lon="5.36776">
        <ele>200.39999389648</ele>
        <time>2019-08-30T08:33:36.000Z</time>
      </trkpt>
      <trkpt lat="50.58662" lon="5.36773">
        <ele>200.80000305176</ele>
        <time>2019-08-30T08:33:37.000Z</time>
      </trkpt>
      <trkpt lat="50.58661" lon="5.36772">
        <ele>201.19999694824</ele>
        <time>2019-08-30T08:33:38.000Z</time>
      </trkpt>
      <trkpt lat="50.58661" lon="5.36772">
        <ele>201.60000610352</ele>
        <time>2019-08-30T08:33:39.000Z</time>
      </trkpt>
      <trkpt lat="50.58661" lon="5.36772">
        <ele>202</ele>
        <time>2019-08-30T08:33:40.000Z</time>
      </trkpt>
      <trkpt lat="50.58659" lon="5.36769">
        <ele>202</ele>
        <time>2019-08-30T08:33:51.000Z</time>
      </trkpt>
      <trkpt lat="50.58656" lon="5.36766">
        <ele>202</ele>
        <time>2019-08-30T08:33:53.000Z</time>
      </trkpt>
      <trkpt lat="50.58647" lon="5.36751">
        <ele>202</ele>
        <time>2019-08-30T08:33:58.000Z</time>
      </trkpt>
      <trkpt lat="50.58642" lon="5.36725">
        <ele>202</ele>
        <time>2019-08-30T08:34:04.000Z</time>
      </trkpt>
      <trkpt lat="50.58642" lon="5.36717">
        <ele>202</ele>
        <time>2019-08-30T08:34:08.000Z</time>
      </trkpt>
      <trkpt lat="50.58644" lon="5.36714">
        <ele>202</ele>
        <time>2019-08-30T08:34:13.000Z</time>
      </trkpt>
      <trkpt lat="50.58646" lon="5.3671">
        <ele>202</ele>
        <time>2019-08-30T08:34:15.000Z</time>
      </trkpt>
      <trkpt lat="50.58649" lon="5.36695">
        <ele>202</ele>
        <time>2019-08-30T08:34:20.000Z</time>
      </trkpt>
      <trkpt lat="50.5865" lon="5.3669">
        <ele>202</ele>
        <time>2019-08-30T08:34:50.000Z</time>
      </trkpt>
      <trkpt lat="50.58652" lon="5.36685">
        <ele>202</ele>
        <time>2019-08-30T08:34:52.000Z</time>
      </trkpt>
      <trkpt lat="50.58653" lon="5.36681">
        <ele>202</ele>
        <time>2019-08-30T08:34:53.000Z</time>
      </trkpt>
      <trkpt lat="50.58661" lon="5.36662">
        <ele>202</ele>
        <time>2019-08-30T08:34:58.000Z</time>
      </trkpt>
      <trkpt lat="50.58669" lon="5.3663">
        <ele>202</ele>
        <time>2019-08-30T08:35:04.000Z</time>
      </trkpt>
      <trkpt lat="50.58674" lon="5.36602">
        <ele>202</ele>
        <time>2019-08-30T08:35:09.000Z</time>
      </trkpt>
      <trkpt lat="50.5868" lon="5.36549">
        <ele>202</ele>
        <time>2019-08-30T08:35:18.000Z</time>
      </trkpt>
      <trkpt lat="50.58682" lon="5.36505">
        <ele>202</ele>
        <time>2019-08-30T08:35:25.000Z</time>
      </trkpt>
      <trkpt lat="50.58677" lon="5.36464">
        <ele>202</ele>
        <time>2019-08-30T08:35:32.000Z</time>
      </trkpt>
      <trkpt lat="50.58668" lon="5.36422">
        <ele>202</ele>
        <time>2019-08-30T08:35:39.000Z</time>
      </trkpt>
      <trkpt lat="50.58659" lon="5.36377">
        <ele>202</ele>
        <time>2019-08-30T08:35:47.000Z</time>
      </trkpt>
      <trkpt lat="50.58652" lon="5.36338">
        <ele>202</ele>
        <time>2019-08-30T08:35:54.000Z</time>
      </trkpt>
      <trkpt lat="50.58641" lon="5.36287">
        <ele>202</ele>
        <time>2019-08-30T08:36:03.000Z</time>
      </trkpt>
      <trkpt lat="50.58639" lon="5.36275">
        <ele>202.39999389648</ele>
        <time>2019-08-30T08:36:05.000Z</time>
      </trkpt>
      <trkpt lat="50.58638" lon="5.36269">
        <ele>202.80000305176</ele>
        <time>2019-08-30T08:36:06.000Z</time>
      </trkpt>
      <trkpt lat="50.58637" lon="5.36263">
        <ele>203.19999694824</ele>
        <time>2019-08-30T08:36:07.000Z</time>
      </trkpt>
      <trkpt lat="50.58636" lon="5.36256">
        <ele>204</ele>
        <time>2019-08-30T08:36:08.000Z</time>
      </trkpt>
      <trkpt lat="50.58634" lon="5.36239">
        <ele>204</ele>
        <time>2019-08-30T08:36:11.000Z</time>
      </trkpt>
      <trkpt lat="50.58626" lon="5.36198">
        <ele>204</ele>
        <time>2019-08-30T08:36:18.000Z</time>
      </trkpt>
      <trkpt lat="50.58619" lon="5.36157">
        <ele>204</ele>
        <time>2019-08-30T08:36:25.000Z</time>
      </trkpt>
      <trkpt lat="50.58612" lon="5.36119">
        <ele>204</ele>
        <time>2019-08-30T08:36:33.000Z</time>
      </trkpt>
      <trkpt lat="50.58612" lon="5.36119">
        <ele>204</ele>
        <time>2019-08-30T08:36:34.000Z</time>
      </trkpt>
      <trkpt lat="50.58612" lon="5.36116">
        <ele>204</ele>
        <time>2019-08-30T08:36:41.000Z</time>
      </trkpt>
      <trkpt lat="50.58612" lon="5.36112">
        <ele>204</ele>
        <time>2019-08-30T08:36:42.000Z</time>
      </trkpt>
      <trkpt lat="50.58607" lon="5.36089">
        <ele>204</ele>
        <time>2019-08-30T08:36:47.000Z</time>
      </trkpt>
      <trkpt lat="50.586" lon="5.36053">
        <ele>204</ele>
        <time>2019-08-30T08:36:54.000Z</time>
      </trkpt>
      <trkpt lat="50.58596" lon="5.36043">
        <ele>204</ele>
        <time>2019-08-30T08:36:59.000Z</time>
      </trkpt>
      <trkpt lat="50.58596" lon="5.3604">
        <ele>204</ele>
        <time>2019-08-30T08:37:04.000Z</time>
      </trkpt>
      <trkpt lat="50.58594" lon="5.36032">
        <ele>204</ele>
        <time>2019-08-30T08:37:07.000Z</time>
      </trkpt>
      <trkpt lat="50.58588" lon="5.36004">
        <ele>204</ele>
        <time>2019-08-30T08:37:14.000Z</time>
      </trkpt>
      <trkpt lat="50.58582" lon="5.35978">
        <ele>204</ele>
        <time>2019-08-30T08:37:20.000Z</time>
      </trkpt>
      <trkpt lat="50.58581" lon="5.35978">
        <ele>204</ele>
        <time>2019-08-30T08:37:22.000Z</time>
      </trkpt>
      <trkpt lat="50.5858" lon="5.35974">
        <ele>204</ele>
        <time>2019-08-30T08:37:31.000Z</time>
      </trkpt>
      <trkpt lat="50.58571" lon="5.35958">
        <ele>204</ele>
        <time>2019-08-30T08:37:37.000Z</time>
      </trkpt>
      <trkpt lat="50.58552" lon="5.35942">
        <ele>204</ele>
        <time>2019-08-30T08:37:43.000Z</time>
      </trkpt>
      <trkpt lat="50.58529" lon="5.35927">
        <ele>204</ele>
        <time>2019-08-30T08:37:48.000Z</time>
      </trkpt>
      <trkpt lat="50.58499" lon="5.35907">
        <ele>204</ele>
        <time>2019-08-30T08:37:54.000Z</time>
      </trkpt>
      <trkpt lat="50.58469" lon="5.35887">
        <ele>204</ele>
        <time>2019-08-30T08:38:01.000Z</time>
      </trkpt>
      <trkpt lat="50.58451" lon="5.35872">
        <ele>204</ele>
        <time>2019-08-30T08:38:07.000Z</time>
      </trkpt>
      <trkpt lat="50.58448" lon="5.35871">
        <ele>204</ele>
        <time>2019-08-30T08:38:09.000Z</time>
      </trkpt>
      <trkpt lat="50.58448" lon="5.35871">
        <ele>204</ele>
        <time>2019-08-30T08:38:10.000Z</time>
      </trkpt>
      <trkpt lat="50.58445" lon="5.35869">
        <ele>204</ele>
        <time>2019-08-30T08:38:16.000Z</time>
      </trkpt>
      <trkpt lat="50.58433" lon="5.35861">
        <ele>204</ele>
        <time>2019-08-30T08:38:21.000Z</time>
      </trkpt>
      <trkpt lat="50.58421" lon="5.35851">
        <ele>204</ele>
        <time>2019-08-30T08:38:27.000Z</time>
      </trkpt>
      <trkpt lat="50.58421" lon="5.35852">
        <ele>204</ele>
        <time>2019-08-30T08:38:28.000Z</time>
      </trkpt>
      <trkpt lat="50.58419" lon="5.35851">
        <ele>204</ele>
        <time>2019-08-30T08:38:33.000Z</time>
      </trkpt>
      <trkpt lat="50.58417" lon="5.35849">
        <ele>204</ele>
        <time>2019-08-30T08:38:34.000Z</time>
      </trkpt>
      <trkpt lat="50.58405" lon="5.35842">
        <ele>204</ele>
        <time>2019-08-30T08:38:39.000Z</time>
      </trkpt>
      <trkpt lat="50.58393" lon="5.35834">
        <ele>204</ele>
        <time>2019-08-30T08:38:44.000Z</time>
      </trkpt>
      <trkpt lat="50.58391" lon="5.35832">
        <ele>204</ele>
        <time>2019-08-30T08:38:45.000Z</time>
      </trkpt>
      <trkpt lat="50.58391" lon="5.35833">
        <ele>204</ele>
        <time>2019-08-30T08:38:47.000Z</time>
      </trkpt>
      <trkpt lat="50.58388" lon="5.35832">
        <ele>204</ele>
        <time>2019-08-30T08:38:51.000Z</time>
      </trkpt>
      <trkpt lat="50.58377" lon="5.35825">
        <ele>204.39999389648</ele>
        <time>2019-08-30T08:38:56.000Z</time>
      </trkpt>
      <trkpt lat="50.58375" lon="5.35824">
        <ele>204.80000305176</ele>
        <time>2019-08-30T08:38:57.000Z</time>
      </trkpt>
      <trkpt lat="50.58372" lon="5.35822">
        <ele>205.19999694824</ele>
        <time>2019-08-30T08:38:58.000Z</time>
      </trkpt>
      <trkpt lat="50.5837" lon="5.3582">
        <ele>205.60000610352</ele>
        <time>2019-08-30T08:38:59.000Z</time>
      </trkpt>
      <trkpt lat="50.58367" lon="5.35817">
        <ele>206</ele>
        <time>2019-08-30T08:39:00.000Z</time>
      </trkpt>
      <trkpt lat="50.58356" lon="5.3581">
        <ele>206</ele>
        <time>2019-08-30T08:39:04.000Z</time>
      </trkpt>
      <trkpt lat="50.58333" lon="5.35793">
        <ele>206</ele>
        <time>2019-08-30T08:39:12.000Z</time>
      </trkpt>
      <trkpt lat="50.58328" lon="5.35791">
        <ele>206</ele>
        <time>2019-08-30T08:39:16.000Z</time>
      </trkpt>
      <trkpt lat="50.58326" lon="5.35788">
        <ele>206</ele>
        <time>2019-08-30T08:39:22.000Z</time>
      </trkpt>
      <trkpt lat="50.58322" lon="5.35784">
        <ele>206</ele>
        <time>2019-08-30T08:39:24.000Z</time>
      </trkpt>
      <trkpt lat="50.58306" lon="5.35763">
        <ele>206</ele>
        <time>2019-08-30T08:39:30.000Z</time>
      </trkpt>
      <trkpt lat="50.58293" lon="5.35734">
        <ele>206</ele>
        <time>2019-08-30T08:39:36.000Z</time>
      </trkpt>
      <trkpt lat="50.58278" lon="5.35702">
        <ele>206</ele>
        <time>2019-08-30T08:39:42.000Z</time>
      </trkpt>
      <trkpt lat="50.58264" lon="5.35669">
        <ele>206</ele>
        <time>2019-08-30T08:39:48.000Z</time>
      </trkpt>
      <trkpt lat="50.58252" lon="5.35639">
        <ele>206</ele>
        <time>2019-08-30T08:39:53.000Z</time>
      </trkpt>
      <trkpt lat="50.5825" lon="5.35634">
        <ele>206</ele>
        <time>2019-08-30T08:39:54.000Z</time>
      </trkpt>
      <trkpt lat="50.58234" lon="5.35587">
        <ele>206</ele>
        <time>2019-08-30T08:40:02.000Z</time>
      </trkpt>
      <trkpt lat="50.58216" lon="5.3554">
        <ele>206</ele>
        <time>2019-08-30T08:40:10.000Z</time>
      </trkpt>
      <trkpt lat="50.58211" lon="5.35528">
        <ele>205.60000610352</ele>
        <time>2019-08-30T08:40:13.000Z</time>
      </trkpt>
      <trkpt lat="50.58209" lon="5.35524">
        <ele>205.19999694824</ele>
        <time>2019-08-30T08:40:14.000Z</time>
      </trkpt>
      <trkpt lat="50.58207" lon="5.3552">
        <ele>204.39999389648</ele>
        <time>2019-08-30T08:40:15.000Z</time>
      </trkpt>
      <trkpt lat="50.58205" lon="5.35515">
        <ele>204</ele>
        <time>2019-08-30T08:40:16.000Z</time>
      </trkpt>
      <trkpt lat="50.58199" lon="5.35502">
        <ele>204</ele>
        <time>2019-08-30T08:40:21.000Z</time>
      </trkpt>
      <trkpt lat="50.58196" lon="5.35497">
        <ele>204</ele>
        <time>2019-08-30T08:40:29.000Z</time>
      </trkpt>
      <trkpt lat="50.58193" lon="5.35489">
        <ele>204</ele>
        <time>2019-08-30T08:40:31.000Z</time>
      </trkpt>
      <trkpt lat="50.58182" lon="5.35462">
        <ele>204</ele>
        <time>2019-08-30T08:40:37.000Z</time>
      </trkpt>
      <trkpt lat="50.58174" lon="5.35442">
        <ele>204</ele>
        <time>2019-08-30T08:40:43.000Z</time>
      </trkpt>
      <trkpt lat="50.58171" lon="5.35436">
        <ele>204</ele>
        <time>2019-08-30T08:40:48.000Z</time>
      </trkpt>
      <trkpt lat="50.58168" lon="5.35429">
        <ele>204</ele>
        <time>2019-08-30T08:40:50.000Z</time>
      </trkpt>
      <trkpt lat="50.58159" lon="5.35394">
        <ele>204</ele>
        <time>2019-08-30T08:40:56.000Z</time>
      </trkpt>
      <trkpt lat="50.58162" lon="5.35359">
        <ele>203.60000610352</ele>
        <time>2019-08-30T08:41:00.000Z</time>
      </trkpt>
      <trkpt lat="50.58162" lon="5.35348">
        <ele>203.19999694824</ele>
        <time>2019-08-30T08:41:01.000Z</time>
      </trkpt>
      <trkpt lat="50.58163" lon="5.35338">
        <ele>202.80000305176</ele>
        <time>2019-08-30T08:41:02.000Z</time>
      </trkpt>
      <trkpt lat="50.58165" lon="5.35327">
        <ele>202.39999389648</ele>
        <time>2019-08-30T08:41:03.000Z</time>
      </trkpt>
      <trkpt lat="50.58165" lon="5.35317">
        <ele>202</ele>
        <time>2019-08-30T08:41:04.000Z</time>
      </trkpt>
      <trkpt lat="50.58165" lon="5.35306">
        <ele>201.60000610352</ele>
        <time>2019-08-30T08:41:05.000Z</time>
      </trkpt>
      <trkpt lat="50.58166" lon="5.35295">
        <ele>201</ele>
        <time>2019-08-30T08:41:06.000Z</time>
      </trkpt>
      <trkpt lat="50.58165" lon="5.35285">
        <ele>200.60000610352</ele>
        <time>2019-08-30T08:41:07.000Z</time>
      </trkpt>
      <trkpt lat="50.58164" lon="5.35275">
        <ele>200.19999694824</ele>
        <time>2019-08-30T08:41:08.000Z</time>
      </trkpt>
      <trkpt lat="50.58163" lon="5.35265">
        <ele>199.80000305176</ele>
        <time>2019-08-30T08:41:09.000Z</time>
      </trkpt>
      <trkpt lat="50.58163" lon="5.35255">
        <ele>199.80000305176</ele>
        <time>2019-08-30T08:41:10.000Z</time>
      </trkpt>
      <trkpt lat="50.58161" lon="5.35245">
        <ele>199.80000305176</ele>
        <time>2019-08-30T08:41:11.000Z</time>
      </trkpt>
      <trkpt lat="50.58157" lon="5.35218">
        <ele>199.80000305176</ele>
        <time>2019-08-30T08:41:14.000Z</time>
      </trkpt>
      <trkpt lat="50.5815" lon="5.35192">
        <ele>199.80000305176</ele>
        <time>2019-08-30T08:41:17.000Z</time>
      </trkpt>
      <trkpt lat="50.58149" lon="5.35184">
        <ele>199.80000305176</ele>
        <time>2019-08-30T08:41:18.000Z</time>
      </trkpt>
      <trkpt lat="50.58145" lon="5.35176">
        <ele>199.80000305176</ele>
        <time>2019-08-30T08:41:19.000Z</time>
      </trkpt>
      <trkpt lat="50.58141" lon="5.35161">
        <ele>199.80000305176</ele>
        <time>2019-08-30T08:41:21.000Z</time>
      </trkpt>
      <trkpt lat="50.58137" lon="5.35146">
        <ele>199.39999389648</ele>
        <time>2019-08-30T08:41:23.000Z</time>
      </trkpt>
      <trkpt lat="50.58136" lon="5.35139">
        <ele>199</ele>
        <time>2019-08-30T08:41:24.000Z</time>
      </trkpt>
      <trkpt lat="50.58134" lon="5.35131">
        <ele>198.39999389648</ele>
        <time>2019-08-30T08:41:25.000Z</time>
      </trkpt>
      <trkpt lat="50.58134" lon="5.35123">
        <ele>198</ele>
        <time>2019-08-30T08:41:26.000Z</time>
      </trkpt>
      <trkpt lat="50.58134" lon="5.35115">
        <ele>197.60000610352</ele>
        <time>2019-08-30T08:41:27.000Z</time>
      </trkpt>
      <trkpt lat="50.58137" lon="5.35091">
        <ele>197.60000610352</ele>
        <time>2019-08-30T08:41:30.000Z</time>
      </trkpt>
      <trkpt lat="50.58137" lon="5.35083">
        <ele>197.60000610352</ele>
        <time>2019-08-30T08:41:31.000Z</time>
      </trkpt>
      <trkpt lat="50.58137" lon="5.35075">
        <ele>197.60000610352</ele>
        <time>2019-08-30T08:41:32.000Z</time>
      </trkpt>
      <trkpt lat="50.58127" lon="5.35004">
        <ele>197.60000610352</ele>
        <time>2019-08-30T08:41:41.000Z</time>
      </trkpt>
      <trkpt lat="50.5812" lon="5.34958">
        <ele>197.19999694824</ele>
        <time>2019-08-30T08:41:47.000Z</time>
      </trkpt>
      <trkpt lat="50.58118" lon="5.34951">
        <ele>196.80000305176</ele>
        <time>2019-08-30T08:41:48.000Z</time>
      </trkpt>
      <trkpt lat="50.58117" lon="5.34944">
        <ele>196.39999389648</ele>
        <time>2019-08-30T08:41:49.000Z</time>
      </trkpt>
      <trkpt lat="50.58115" lon="5.34936">
        <ele>196</ele>
        <time>2019-08-30T08:41:50.000Z</time>
      </trkpt>
      <trkpt lat="50.58114" lon="5.34929">
        <ele>195.60000610352</ele>
        <time>2019-08-30T08:41:51.000Z</time>
      </trkpt>
      <trkpt lat="50.58113" lon="5.34922">
        <ele>195.60000610352</ele>
        <time>2019-08-30T08:41:52.000Z</time>
      </trkpt>
      <trkpt lat="50.58112" lon="5.34907">
        <ele>195.60000610352</ele>
        <time>2019-08-30T08:41:54.000Z</time>
      </trkpt>
      <trkpt lat="50.5811" lon="5.34893">
        <ele>195.60000610352</ele>
        <time>2019-08-30T08:41:56.000Z</time>
      </trkpt>
      <trkpt lat="50.58108" lon="5.34856">
        <ele>195.60000610352</ele>
        <time>2019-08-30T08:42:01.000Z</time>
      </trkpt>
      <trkpt lat="50.58104" lon="5.34793">
        <ele>195.60000610352</ele>
        <time>2019-08-30T08:42:10.000Z</time>
      </trkpt>
      <trkpt lat="50.58103" lon="5.34786">
        <ele>195.60000610352</ele>
        <time>2019-08-30T08:42:11.000Z</time>
      </trkpt>
      <trkpt lat="50.58103" lon="5.34771">
        <ele>195.60000610352</ele>
        <time>2019-08-30T08:42:13.000Z</time>
      </trkpt>
      <trkpt lat="50.58101" lon="5.3475">
        <ele>195.60000610352</ele>
        <time>2019-08-30T08:42:16.000Z</time>
      </trkpt>
      <trkpt lat="50.58101" lon="5.34743">
        <ele>195.60000610352</ele>
        <time>2019-08-30T08:42:17.000Z</time>
      </trkpt>
      <trkpt lat="50.58099" lon="5.34709">
        <ele>195.60000610352</ele>
        <time>2019-08-30T08:42:22.000Z</time>
      </trkpt>
      <trkpt lat="50.58095" lon="5.34661">
        <ele>195.60000610352</ele>
        <time>2019-08-30T08:42:29.000Z</time>
      </trkpt>
      <trkpt lat="50.58086" lon="5.34597">
        <ele>195.60000610352</ele>
        <time>2019-08-30T08:42:38.000Z</time>
      </trkpt>
      <trkpt lat="50.58084" lon="5.34583">
        <ele>195.60000610352</ele>
        <time>2019-08-30T08:42:40.000Z</time>
      </trkpt>
      <trkpt lat="50.58081" lon="5.34557">
        <ele>195.60000610352</ele>
        <time>2019-08-30T08:42:44.000Z</time>
      </trkpt>
      <trkpt lat="50.58077" lon="5.34517">
        <ele>195.60000610352</ele>
        <time>2019-08-30T08:42:50.000Z</time>
      </trkpt>
      <trkpt lat="50.58076" lon="5.34511">
        <ele>196</ele>
        <time>2019-08-30T08:42:51.000Z</time>
      </trkpt>
      <trkpt lat="50.58075" lon="5.34504">
        <ele>196.39999389648</ele>
        <time>2019-08-30T08:42:52.000Z</time>
      </trkpt>
      <trkpt lat="50.58074" lon="5.34497">
        <ele>196.80000305176</ele>
        <time>2019-08-30T08:42:53.000Z</time>
      </trkpt>
      <trkpt lat="50.58073" lon="5.3449">
        <ele>197.19999694824</ele>
        <time>2019-08-30T08:42:54.000Z</time>
      </trkpt>
      <trkpt lat="50.58073" lon="5.34484">
        <ele>197.60000610352</ele>
        <time>2019-08-30T08:42:55.000Z</time>
      </trkpt>
      <trkpt lat="50.58071" lon="5.3447">
        <ele>197.60000610352</ele>
        <time>2019-08-30T08:42:57.000Z</time>
      </trkpt>
      <trkpt lat="50.58065" lon="5.34425">
        <ele>197.60000610352</ele>
        <time>2019-08-30T08:43:04.000Z</time>
      </trkpt>
      <trkpt lat="50.5806" lon="5.34392">
        <ele>197.60000610352</ele>
        <time>2019-08-30T08:43:09.000Z</time>
      </trkpt>
      <trkpt lat="50.58056" lon="5.34372">
        <ele>197.60000610352</ele>
        <time>2019-08-30T08:43:12.000Z</time>
      </trkpt>
      <trkpt lat="50.58046" lon="5.34332">
        <ele>197.60000610352</ele>
        <time>2019-08-30T08:43:18.000Z</time>
      </trkpt>
      <trkpt lat="50.58033" lon="5.34283">
        <ele>197.60000610352</ele>
        <time>2019-08-30T08:43:25.000Z</time>
      </trkpt>
      <trkpt lat="50.58021" lon="5.34238">
        <ele>197.60000610352</ele>
        <time>2019-08-30T08:43:32.000Z</time>
      </trkpt>
      <trkpt lat="50.58019" lon="5.34235">
        <ele>197.60000610352</ele>
        <time>2019-08-30T08:43:34.000Z</time>
      </trkpt>
      <trkpt lat="50.58018" lon="5.34234">
        <ele>197.60000610352</ele>
        <time>2019-08-30T08:43:41.000Z</time>
      </trkpt>
      <trkpt lat="50.58013" lon="5.34218">
        <ele>197.60000610352</ele>
        <time>2019-08-30T08:43:46.000Z</time>
      </trkpt>
      <trkpt lat="50.58005" lon="5.3419">
        <ele>197.60000610352</ele>
        <time>2019-08-30T08:43:51.000Z</time>
      </trkpt>
      <trkpt lat="50.58003" lon="5.34184">
        <ele>197.60000610352</ele>
        <time>2019-08-30T08:43:52.000Z</time>
      </trkpt>
      <trkpt lat="50.57994" lon="5.34152">
        <ele>197.60000610352</ele>
        <time>2019-08-30T08:43:57.000Z</time>
      </trkpt>
      <trkpt lat="50.57985" lon="5.3412">
        <ele>197.19999694824</ele>
        <time>2019-08-30T08:44:02.000Z</time>
      </trkpt>
      <trkpt lat="50.57983" lon="5.34114">
        <ele>196.80000305176</ele>
        <time>2019-08-30T08:44:03.000Z</time>
      </trkpt>
      <trkpt lat="50.57982" lon="5.34108">
        <ele>196.39999389648</ele>
        <time>2019-08-30T08:44:04.000Z</time>
      </trkpt>
      <trkpt lat="50.5798" lon="5.34103">
        <ele>196</ele>
        <time>2019-08-30T08:44:05.000Z</time>
      </trkpt>
      <trkpt lat="50.57978" lon="5.34097">
        <ele>195.60000610352</ele>
        <time>2019-08-30T08:44:06.000Z</time>
      </trkpt>
      <trkpt lat="50.57966" lon="5.34052">
        <ele>195.60000610352</ele>
        <time>2019-08-30T08:44:13.000Z</time>
      </trkpt>
      <trkpt lat="50.57949" lon="5.33992">
        <ele>195.60000610352</ele>
        <time>2019-08-30T08:44:22.000Z</time>
      </trkpt>
      <trkpt lat="50.57947" lon="5.33985">
        <ele>195.60000610352</ele>
        <time>2019-08-30T08:44:23.000Z</time>
      </trkpt>
      <trkpt lat="50.57944" lon="5.33971">
        <ele>195.60000610352</ele>
        <time>2019-08-30T08:44:25.000Z</time>
      </trkpt>
      <trkpt lat="50.57938" lon="5.33944">
        <ele>195.60000610352</ele>
        <time>2019-08-30T08:44:29.000Z</time>
      </trkpt>
      <trkpt lat="50.57926" lon="5.33896">
        <ele>195.60000610352</ele>
        <time>2019-08-30T08:44:36.000Z</time>
      </trkpt>
      <trkpt lat="50.57921" lon="5.33875">
        <ele>195.60000610352</ele>
        <time>2019-08-30T08:44:39.000Z</time>
      </trkpt>
      <trkpt lat="50.57914" lon="5.33848">
        <ele>195.60000610352</ele>
        <time>2019-08-30T08:44:43.000Z</time>
      </trkpt>
      <trkpt lat="50.57899" lon="5.33782">
        <ele>195.60000610352</ele>
        <time>2019-08-30T08:44:53.000Z</time>
      </trkpt>
      <trkpt lat="50.57887" lon="5.33729">
        <ele>195.60000610352</ele>
        <time>2019-08-30T08:45:01.000Z</time>
      </trkpt>
      <trkpt lat="50.57883" lon="5.33717">
        <ele>195.60000610352</ele>
        <time>2019-08-30T08:45:03.000Z</time>
      </trkpt>
      <trkpt lat="50.57879" lon="5.33697">
        <ele>195.60000610352</ele>
        <time>2019-08-30T08:45:06.000Z</time>
      </trkpt>
      <trkpt lat="50.57878" lon="5.33691">
        <ele>195.60000610352</ele>
        <time>2019-08-30T08:45:07.000Z</time>
      </trkpt>
      <trkpt lat="50.57869" lon="5.33652">
        <ele>195.60000610352</ele>
        <time>2019-08-30T08:45:13.000Z</time>
      </trkpt>
      <trkpt lat="50.57865" lon="5.33626">
        <ele>195.60000610352</ele>
        <time>2019-08-30T08:45:17.000Z</time>
      </trkpt>
      <trkpt lat="50.57865" lon="5.33613">
        <ele>195.60000610352</ele>
        <time>2019-08-30T08:45:19.000Z</time>
      </trkpt>
      <trkpt lat="50.57867" lon="5.33578">
        <ele>195.60000610352</ele>
        <time>2019-08-30T08:45:24.000Z</time>
      </trkpt>
      <trkpt lat="50.57869" lon="5.33572">
        <ele>195.60000610352</ele>
        <time>2019-08-30T08:45:25.000Z</time>
      </trkpt>
      <trkpt lat="50.57882" lon="5.33528">
        <ele>195.60000610352</ele>
        <time>2019-08-30T08:45:32.000Z</time>
      </trkpt>
      <trkpt lat="50.57899" lon="5.33482">
        <ele>195.60000610352</ele>
        <time>2019-08-30T08:45:40.000Z</time>
      </trkpt>
      <trkpt lat="50.57903" lon="5.33471">
        <ele>195.60000610352</ele>
        <time>2019-08-30T08:45:42.000Z</time>
      </trkpt>
      <trkpt lat="50.57918" lon="5.3343">
        <ele>195.60000610352</ele>
        <time>2019-08-30T08:45:49.000Z</time>
      </trkpt>
      <trkpt lat="50.5792" lon="5.33424">
        <ele>195.60000610352</ele>
        <time>2019-08-30T08:45:50.000Z</time>
      </trkpt>
      <trkpt lat="50.57922" lon="5.33418">
        <ele>195.60000610352</ele>
        <time>2019-08-30T08:45:51.000Z</time>
      </trkpt>
      <trkpt lat="50.57937" lon="5.33384">
        <ele>195.60000610352</ele>
        <time>2019-08-30T08:45:57.000Z</time>
      </trkpt>
      <trkpt lat="50.57958" lon="5.33342">
        <ele>195.60000610352</ele>
        <time>2019-08-30T08:46:05.000Z</time>
      </trkpt>
      <trkpt lat="50.57976" lon="5.33308">
        <ele>195.60000610352</ele>
        <time>2019-08-30T08:46:12.000Z</time>
      </trkpt>
      <trkpt lat="50.57993" lon="5.33282">
        <ele>195.60000610352</ele>
        <time>2019-08-30T08:46:18.000Z</time>
      </trkpt>
      <trkpt lat="50.58004" lon="5.33267">
        <ele>195.60000610352</ele>
        <time>2019-08-30T08:46:23.000Z</time>
      </trkpt>
      <trkpt lat="50.58004" lon="5.33266">
        <ele>195.60000610352</ele>
        <time>2019-08-30T08:46:24.000Z</time>
      </trkpt>
      <trkpt lat="50.58005" lon="5.33263">
        <ele>195.60000610352</ele>
        <time>2019-08-30T08:46:32.000Z</time>
      </trkpt>
      <trkpt lat="50.58007" lon="5.33259">
        <ele>195.60000610352</ele>
        <time>2019-08-30T08:46:34.000Z</time>
      </trkpt>
      <trkpt lat="50.58013" lon="5.33249">
        <ele>195.60000610352</ele>
        <time>2019-08-30T08:46:41.000Z</time>
      </trkpt>
      <trkpt lat="50.58013" lon="5.33246">
        <ele>195.60000610352</ele>
        <time>2019-08-30T08:46:54.000Z</time>
      </trkpt>
      <trkpt lat="50.58012" lon="5.33239">
        <ele>195.60000610352</ele>
        <time>2019-08-30T08:46:56.000Z</time>
      </trkpt>
      <trkpt lat="50.58011" lon="5.33231">
        <ele>195.60000610352</ele>
        <time>2019-08-30T08:46:58.000Z</time>
      </trkpt>
      <trkpt lat="50.58011" lon="5.33226">
        <ele>195.60000610352</ele>
        <time>2019-08-30T08:47:00.000Z</time>
      </trkpt>
      <trkpt lat="50.58011" lon="5.33226">
        <ele>195.60000610352</ele>
        <time>2019-08-30T08:47:01.000Z</time>
      </trkpt>
      <trkpt lat="50.58011" lon="5.33226">
        <ele>195.60000610352</ele>
        <time>2019-08-30T08:47:07.000Z</time>
      </trkpt>
      <trkpt lat="50.58009" lon="5.33221">
        <ele>195.60000610352</ele>
        <time>2019-08-30T08:47:09.000Z</time>
      </trkpt>
      <trkpt lat="50.58008" lon="5.33215">
        <ele>195.60000610352</ele>
        <time>2019-08-30T08:47:11.000Z</time>
      </trkpt>
      <trkpt lat="50.58006" lon="5.33201">
        <ele>195.60000610352</ele>
        <time>2019-08-30T08:47:16.000Z</time>
      </trkpt>
      <trkpt lat="50.58006" lon="5.33201">
        <ele>195.60000610352</ele>
        <time>2019-08-30T08:47:17.000Z</time>
      </trkpt>
      <trkpt lat="50.58006" lon="5.33201">
        <ele>195.60000610352</ele>
        <time>2019-08-30T08:47:22.000Z</time>
      </trkpt>
      <trkpt lat="50.58004" lon="5.33195">
        <ele>195.60000610352</ele>
        <time>2019-08-30T08:47:24.000Z</time>
      </trkpt>
      <trkpt lat="50.57998" lon="5.33171">
        <ele>195.60000610352</ele>
        <time>2019-08-30T08:47:29.000Z</time>
      </trkpt>
      <trkpt lat="50.57991" lon="5.33135">
        <ele>195.60000610352</ele>
        <time>2019-08-30T08:47:35.000Z</time>
      </trkpt>
      <trkpt lat="50.57984" lon="5.331">
        <ele>195.19999694824</ele>
        <time>2019-08-30T08:47:40.000Z</time>
      </trkpt>
      <trkpt lat="50.57982" lon="5.33093">
        <ele>194.80000305176</ele>
        <time>2019-08-30T08:47:41.000Z</time>
      </trkpt>
      <trkpt lat="50.57979" lon="5.33086">
        <ele>194.19999694824</ele>
        <time>2019-08-30T08:47:42.000Z</time>
      </trkpt>
      <trkpt lat="50.57977" lon="5.33078">
        <ele>193.80000305176</ele>
        <time>2019-08-30T08:47:43.000Z</time>
      </trkpt>
      <trkpt lat="50.57976" lon="5.3307">
        <ele>193.39999389648</ele>
        <time>2019-08-30T08:47:44.000Z</time>
      </trkpt>
      <trkpt lat="50.57966" lon="5.33021">
        <ele>193.39999389648</ele>
        <time>2019-08-30T08:47:50.000Z</time>
      </trkpt>
      <trkpt lat="50.57964" lon="5.33012">
        <ele>193.39999389648</ele>
        <time>2019-08-30T08:47:51.000Z</time>
      </trkpt>
      <trkpt lat="50.5796" lon="5.32995">
        <ele>193</ele>
        <time>2019-08-30T08:47:53.000Z</time>
      </trkpt>
      <trkpt lat="50.57958" lon="5.32986">
        <ele>192.60000610352</ele>
        <time>2019-08-30T08:47:54.000Z</time>
      </trkpt>
      <trkpt lat="50.57956" lon="5.32976">
        <ele>192.19999694824</ele>
        <time>2019-08-30T08:47:55.000Z</time>
      </trkpt>
      <trkpt lat="50.57955" lon="5.32967">
        <ele>191.80000305176</ele>
        <time>2019-08-30T08:47:56.000Z</time>
      </trkpt>
      <trkpt lat="50.57953" lon="5.32958">
        <ele>191.39999389648</ele>
        <time>2019-08-30T08:47:57.000Z</time>
      </trkpt>
      <trkpt lat="50.57941" lon="5.32901">
        <ele>191.39999389648</ele>
        <time>2019-08-30T08:48:03.000Z</time>
      </trkpt>
      <trkpt lat="50.57938" lon="5.32891">
        <ele>191</ele>
        <time>2019-08-30T08:48:04.000Z</time>
      </trkpt>
      <trkpt lat="50.57936" lon="5.32881">
        <ele>190.60000610352</ele>
        <time>2019-08-30T08:48:05.000Z</time>
      </trkpt>
      <trkpt lat="50.57934" lon="5.32871">
        <ele>190</ele>
        <time>2019-08-30T08:48:06.000Z</time>
      </trkpt>
      <trkpt lat="50.57931" lon="5.32861">
        <ele>189.60000610352</ele>
        <time>2019-08-30T08:48:07.000Z</time>
      </trkpt>
      <trkpt lat="50.57929" lon="5.3285">
        <ele>189.19999694824</ele>
        <time>2019-08-30T08:48:08.000Z</time>
      </trkpt>
      <trkpt lat="50.57913" lon="5.32777">
        <ele>188.80000305176</ele>
        <time>2019-08-30T08:48:15.000Z</time>
      </trkpt>
      <trkpt lat="50.57911" lon="5.32766">
        <ele>188.39999389648</ele>
        <time>2019-08-30T08:48:16.000Z</time>
      </trkpt>
      <trkpt lat="50.57909" lon="5.32755">
        <ele>188</ele>
        <time>2019-08-30T08:48:17.000Z</time>
      </trkpt>
      <trkpt lat="50.57907" lon="5.32744">
        <ele>187.60000610352</ele>
        <time>2019-08-30T08:48:18.000Z</time>
      </trkpt>
      <trkpt lat="50.57904" lon="5.32734">
        <ele>187.19999694824</ele>
        <time>2019-08-30T08:48:19.000Z</time>
      </trkpt>
      <trkpt lat="50.57899" lon="5.32714">
        <ele>186.80000305176</ele>
        <time>2019-08-30T08:48:21.000Z</time>
      </trkpt>
      <trkpt lat="50.57897" lon="5.32703">
        <ele>186.19999694824</ele>
        <time>2019-08-30T08:48:22.000Z</time>
      </trkpt>
      <trkpt lat="50.57895" lon="5.32692">
        <ele>185.80000305176</ele>
        <time>2019-08-30T08:48:23.000Z</time>
      </trkpt>
      <trkpt lat="50.57892" lon="5.32681">
        <ele>185.39999389648</ele>
        <time>2019-08-30T08:48:24.000Z</time>
      </trkpt>
      <trkpt lat="50.5789" lon="5.32669">
        <ele>184.80000305176</ele>
        <time>2019-08-30T08:48:25.000Z</time>
      </trkpt>
      <trkpt lat="50.57883" lon="5.32635">
        <ele>184.39999389648</ele>
        <time>2019-08-30T08:48:28.000Z</time>
      </trkpt>
      <trkpt lat="50.5788" lon="5.32624">
        <ele>184</ele>
        <time>2019-08-30T08:48:29.000Z</time>
      </trkpt>
      <trkpt lat="50.57878" lon="5.32612">
        <ele>183.60000610352</ele>
        <time>2019-08-30T08:48:30.000Z</time>
      </trkpt>
      <trkpt lat="50.57876" lon="5.32601">
        <ele>183.19999694824</ele>
        <time>2019-08-30T08:48:31.000Z</time>
      </trkpt>
      <trkpt lat="50.57874" lon="5.3259">
        <ele>182.60000610352</ele>
        <time>2019-08-30T08:48:32.000Z</time>
      </trkpt>
      <trkpt lat="50.57871" lon="5.3258">
        <ele>182.60000610352</ele>
        <time>2019-08-30T08:48:33.000Z</time>
      </trkpt>
      <trkpt lat="50.57869" lon="5.32571">
        <ele>182.19999694824</ele>
        <time>2019-08-30T08:48:34.000Z</time>
      </trkpt>
      <trkpt lat="50.57868" lon="5.32562">
        <ele>181.80000305176</ele>
        <time>2019-08-30T08:48:35.000Z</time>
      </trkpt>
      <trkpt lat="50.57866" lon="5.32552">
        <ele>181.39999389648</ele>
        <time>2019-08-30T08:48:36.000Z</time>
      </trkpt>
      <trkpt lat="50.57864" lon="5.32543">
        <ele>181</ele>
        <time>2019-08-30T08:48:37.000Z</time>
      </trkpt>
      <trkpt lat="50.57862" lon="5.32534">
        <ele>180.39999389648</ele>
        <time>2019-08-30T08:48:38.000Z</time>
      </trkpt>
      <trkpt lat="50.5786" lon="5.32524">
        <ele>180.39999389648</ele>
        <time>2019-08-30T08:48:39.000Z</time>
      </trkpt>
      <trkpt lat="50.57846" lon="5.32456">
        <ele>180</ele>
        <time>2019-08-30T08:48:46.000Z</time>
      </trkpt>
      <trkpt lat="50.57844" lon="5.32447">
        <ele>179.60000610352</ele>
        <time>2019-08-30T08:48:47.000Z</time>
      </trkpt>
      <trkpt lat="50.57842" lon="5.32437">
        <ele>179</ele>
        <time>2019-08-30T08:48:48.000Z</time>
      </trkpt>
      <trkpt lat="50.5784" lon="5.32428">
        <ele>178.60000610352</ele>
        <time>2019-08-30T08:48:49.000Z</time>
      </trkpt>
      <trkpt lat="50.57838" lon="5.3242">
        <ele>178.19999694824</ele>
        <time>2019-08-30T08:48:50.000Z</time>
      </trkpt>
      <trkpt lat="50.57834" lon="5.32405">
        <ele>177.80000305176</ele>
        <time>2019-08-30T08:48:52.000Z</time>
      </trkpt>
      <trkpt lat="50.57833" lon="5.32399">
        <ele>177.19999694824</ele>
        <time>2019-08-30T08:48:53.000Z</time>
      </trkpt>
      <trkpt lat="50.57832" lon="5.32395">
        <ele>176.80000305176</ele>
        <time>2019-08-30T08:48:54.000Z</time>
      </trkpt>
      <trkpt lat="50.57832" lon="5.32393">
        <ele>176.39999389648</ele>
        <time>2019-08-30T08:48:55.000Z</time>
      </trkpt>
      <trkpt lat="50.57832" lon="5.32393">
        <ele>176</ele>
        <time>2019-08-30T08:48:56.000Z</time>
      </trkpt>
      <trkpt lat="50.57831" lon="5.32391">
        <ele>176</ele>
        <time>2019-08-30T08:49:03.000Z</time>
      </trkpt>
      <trkpt lat="50.57829" lon="5.32381">
        <ele>176</ele>
        <time>2019-08-30T08:49:06.000Z</time>
      </trkpt>
      <trkpt lat="50.57824" lon="5.32347">
        <ele>176</ele>
        <time>2019-08-30T08:49:13.000Z</time>
      </trkpt>
      <trkpt lat="50.57822" lon="5.32341">
        <ele>175.60000610352</ele>
        <time>2019-08-30T08:49:14.000Z</time>
      </trkpt>
      <trkpt lat="50.57821" lon="5.32336">
        <ele>175.19999694824</ele>
        <time>2019-08-30T08:49:15.000Z</time>
      </trkpt>
      <trkpt lat="50.5782" lon="5.3233">
        <ele>174.80000305176</ele>
        <time>2019-08-30T08:49:16.000Z</time>
      </trkpt>
      <trkpt lat="50.57819" lon="5.32324">
        <ele>173.80000305176</ele>
        <time>2019-08-30T08:49:17.000Z</time>
      </trkpt>
      <trkpt lat="50.57817" lon="5.32316">
        <ele>173.80000305176</ele>
        <time>2019-08-30T08:49:19.000Z</time>
      </trkpt>
      <trkpt lat="50.57815" lon="5.32311">
        <ele>173.80000305176</ele>
        <time>2019-08-30T08:49:22.000Z</time>
      </trkpt>
      <trkpt lat="50.57815" lon="5.32309">
        <ele>173.80000305176</ele>
        <time>2019-08-30T08:49:37.000Z</time>
      </trkpt>
      <trkpt lat="50.57811" lon="5.32294">
        <ele>173.80000305176</ele>
        <time>2019-08-30T08:49:41.000Z</time>
      </trkpt>
      <trkpt lat="50.57805" lon="5.32267">
        <ele>173.80000305176</ele>
        <time>2019-08-30T08:49:46.000Z</time>
      </trkpt>
      <trkpt lat="50.57801" lon="5.32254">
        <ele>173.80000305176</ele>
        <time>2019-08-30T08:49:48.000Z</time>
      </trkpt>
      <trkpt lat="50.57791" lon="5.3224">
        <ele>173.80000305176</ele>
        <time>2019-08-30T08:49:51.000Z</time>
      </trkpt>
      <trkpt lat="50.57787" lon="5.32237">
        <ele>173.39999389648</ele>
        <time>2019-08-30T08:49:52.000Z</time>
      </trkpt>
      <trkpt lat="50.57782" lon="5.32236">
        <ele>173</ele>
        <time>2019-08-30T08:49:53.000Z</time>
      </trkpt>
      <trkpt lat="50.57778" lon="5.32236">
        <ele>172.60000610352</ele>
        <time>2019-08-30T08:49:54.000Z</time>
      </trkpt>
      <trkpt lat="50.57774" lon="5.32235">
        <ele>172.19999694824</ele>
        <time>2019-08-30T08:49:55.000Z</time>
      </trkpt>
      <trkpt lat="50.57769" lon="5.32234">
        <ele>171.80000305176</ele>
        <time>2019-08-30T08:49:56.000Z</time>
      </trkpt>
      <trkpt lat="50.57742" lon="5.32231">
        <ele>171.80000305176</ele>
        <time>2019-08-30T08:50:02.000Z</time>
      </trkpt>
      <trkpt lat="50.5771" lon="5.32227">
        <ele>171.80000305176</ele>
        <time>2019-08-30T08:50:09.000Z</time>
      </trkpt>
      <trkpt lat="50.57686" lon="5.32221">
        <ele>171.80000305176</ele>
        <time>2019-08-30T08:50:15.000Z</time>
      </trkpt>
      <trkpt lat="50.57678" lon="5.3222">
        <ele>171.80000305176</ele>
        <time>2019-08-30T08:50:19.000Z</time>
      </trkpt>
      <trkpt lat="50.57678" lon="5.32219">
        <ele>171.80000305176</ele>
        <time>2019-08-30T08:50:20.000Z</time>
      </trkpt>
      <trkpt lat="50.57674" lon="5.32219">
        <ele>171.80000305176</ele>
        <time>2019-08-30T08:50:30.000Z</time>
      </trkpt>
      <trkpt lat="50.57669" lon="5.32216">
        <ele>171.80000305176</ele>
        <time>2019-08-30T08:50:32.000Z</time>
      </trkpt>
      <trkpt lat="50.5766" lon="5.32202">
        <ele>171.80000305176</ele>
        <time>2019-08-30T08:50:37.000Z</time>
      </trkpt>
      <trkpt lat="50.57661" lon="5.3219">
        <ele>171.80000305176</ele>
        <time>2019-08-30T08:50:41.000Z</time>
      </trkpt>
      <trkpt lat="50.57661" lon="5.32189">
        <ele>171.80000305176</ele>
        <time>2019-08-30T08:50:42.000Z</time>
      </trkpt>
      <trkpt lat="50.57662" lon="5.32187">
        <ele>171.80000305176</ele>
        <time>2019-08-30T08:50:48.000Z</time>
      </trkpt>
      <trkpt lat="50.57663" lon="5.32181">
        <ele>171.80000305176</ele>
        <time>2019-08-30T08:50:50.000Z</time>
      </trkpt>
      <trkpt lat="50.57672" lon="5.32162">
        <ele>171.80000305176</ele>
        <time>2019-08-30T08:50:55.000Z</time>
      </trkpt>
      <trkpt lat="50.57683" lon="5.32142">
        <ele>171.19999694824</ele>
        <time>2019-08-30T08:50:59.000Z</time>
      </trkpt>
      <trkpt lat="50.57685" lon="5.32137">
        <ele>170.80000305176</ele>
        <time>2019-08-30T08:51:00.000Z</time>
      </trkpt>
      <trkpt lat="50.57687" lon="5.3213">
        <ele>170.39999389648</ele>
        <time>2019-08-30T08:51:01.000Z</time>
      </trkpt>
      <trkpt lat="50.57689" lon="5.32122">
        <ele>170</ele>
        <time>2019-08-30T08:51:02.000Z</time>
      </trkpt>
      <trkpt lat="50.5769" lon="5.32114">
        <ele>169.60000610352</ele>
        <time>2019-08-30T08:51:03.000Z</time>
      </trkpt>
      <trkpt lat="50.57697" lon="5.32088">
        <ele>169.60000610352</ele>
        <time>2019-08-30T08:51:06.000Z</time>
      </trkpt>
      <trkpt lat="50.57703" lon="5.32058">
        <ele>169.60000610352</ele>
        <time>2019-08-30T08:51:09.000Z</time>
      </trkpt>
      <trkpt lat="50.57705" lon="5.32046">
        <ele>169.60000610352</ele>
        <time>2019-08-30T08:51:10.000Z</time>
      </trkpt>
      <trkpt lat="50.57708" lon="5.32036">
        <ele>169.19999694824</ele>
        <time>2019-08-30T08:51:11.000Z</time>
      </trkpt>
      <trkpt lat="50.57711" lon="5.32027">
        <ele>168.80000305176</ele>
        <time>2019-08-30T08:51:12.000Z</time>
      </trkpt>
      <trkpt lat="50.57714" lon="5.32018">
        <ele>168.19999694824</ele>
        <time>2019-08-30T08:51:13.000Z</time>
      </trkpt>
      <trkpt lat="50.57717" lon="5.32008">
        <ele>167.80000305176</ele>
        <time>2019-08-30T08:51:14.000Z</time>
      </trkpt>
      <trkpt lat="50.57719" lon="5.31999">
        <ele>167.39999389648</ele>
        <time>2019-08-30T08:51:15.000Z</time>
      </trkpt>
      <trkpt lat="50.57727" lon="5.3197">
        <ele>167.39999389648</ele>
        <time>2019-08-30T08:51:19.000Z</time>
      </trkpt>
      <trkpt lat="50.57727" lon="5.31968">
        <ele>166.60000610352</ele>
        <time>2019-08-30T08:51:20.000Z</time>
      </trkpt>
      <trkpt lat="50.57727" lon="5.31967">
        <ele>166</ele>
        <time>2019-08-30T08:51:21.000Z</time>
      </trkpt>
      <trkpt lat="50.57728" lon="5.31964">
        <ele>165.19999694824</ele>
        <time>2019-08-30T08:51:27.000Z</time>
      </trkpt>
      <trkpt lat="50.57734" lon="5.31946">
        <ele>165.19999694824</ele>
        <time>2019-08-30T08:51:32.000Z</time>
      </trkpt>
      <trkpt lat="50.57739" lon="5.31926">
        <ele>165.19999694824</ele>
        <time>2019-08-30T08:51:36.000Z</time>
      </trkpt>
      <trkpt lat="50.57749" lon="5.31896">
        <ele>165.19999694824</ele>
        <time>2019-08-30T08:51:42.000Z</time>
      </trkpt>
      <trkpt lat="50.57763" lon="5.3185">
        <ele>165.19999694824</ele>
        <time>2019-08-30T08:51:50.000Z</time>
      </trkpt>
      <trkpt lat="50.57775" lon="5.31802">
        <ele>165.19999694824</ele>
        <time>2019-08-30T08:51:57.000Z</time>
      </trkpt>
      <trkpt lat="50.57777" lon="5.31794">
        <ele>164.80000305176</ele>
        <time>2019-08-30T08:51:58.000Z</time>
      </trkpt>
      <trkpt lat="50.57778" lon="5.31785">
        <ele>164.39999389648</ele>
        <time>2019-08-30T08:51:59.000Z</time>
      </trkpt>
      <trkpt lat="50.57779" lon="5.31776">
        <ele>164</ele>
        <time>2019-08-30T08:52:00.000Z</time>
      </trkpt>
      <trkpt lat="50.5778" lon="5.31766">
        <ele>163.60000610352</ele>
        <time>2019-08-30T08:52:01.000Z</time>
      </trkpt>
      <trkpt lat="50.57781" lon="5.31757">
        <ele>163.19999694824</ele>
        <time>2019-08-30T08:52:02.000Z</time>
      </trkpt>
      <trkpt lat="50.57782" lon="5.31747">
        <ele>163.19999694824</ele>
        <time>2019-08-30T08:52:03.000Z</time>
      </trkpt>
      <trkpt lat="50.57784" lon="5.31704">
        <ele>162.60000610352</ele>
        <time>2019-08-30T08:52:07.000Z</time>
      </trkpt>
      <trkpt lat="50.57784" lon="5.31693">
        <ele>162.19999694824</ele>
        <time>2019-08-30T08:52:08.000Z</time>
      </trkpt>
      <trkpt lat="50.57783" lon="5.31681">
        <ele>161.19999694824</ele>
        <time>2019-08-30T08:52:09.000Z</time>
      </trkpt>
      <trkpt lat="50.57783" lon="5.3167">
        <ele>160.60000610352</ele>
        <time>2019-08-30T08:52:10.000Z</time>
      </trkpt>
      <trkpt lat="50.5778" lon="5.31634">
        <ele>160.19999694824</ele>
        <time>2019-08-30T08:52:13.000Z</time>
      </trkpt>
      <trkpt lat="50.57779" lon="5.31622">
        <ele>159.80000305176</ele>
        <time>2019-08-30T08:52:14.000Z</time>
      </trkpt>
      <trkpt lat="50.57778" lon="5.3161">
        <ele>159.39999389648</ele>
        <time>2019-08-30T08:52:15.000Z</time>
      </trkpt>
      <trkpt lat="50.57777" lon="5.31598">
        <ele>159</ele>
        <time>2019-08-30T08:52:16.000Z</time>
      </trkpt>
      <trkpt lat="50.57776" lon="5.31586">
        <ele>158.39999389648</ele>
        <time>2019-08-30T08:52:17.000Z</time>
      </trkpt>
      <trkpt lat="50.57773" lon="5.31549">
        <ele>158</ele>
        <time>2019-08-30T08:52:20.000Z</time>
      </trkpt>
      <trkpt lat="50.57772" lon="5.31537">
        <ele>157.60000610352</ele>
        <time>2019-08-30T08:52:21.000Z</time>
      </trkpt>
      <trkpt lat="50.57771" lon="5.31526">
        <ele>157.19999694824</ele>
        <time>2019-08-30T08:52:22.000Z</time>
      </trkpt>
      <trkpt lat="50.5777" lon="5.31514">
        <ele>156.80000305176</ele>
        <time>2019-08-30T08:52:23.000Z</time>
      </trkpt>
      <trkpt lat="50.57769" lon="5.31503">
        <ele>156.39999389648</ele>
        <time>2019-08-30T08:52:24.000Z</time>
      </trkpt>
      <trkpt lat="50.57764" lon="5.31445">
        <ele>156</ele>
        <time>2019-08-30T08:52:29.000Z</time>
      </trkpt>
      <trkpt lat="50.57763" lon="5.31433">
        <ele>155.60000610352</ele>
        <time>2019-08-30T08:52:30.000Z</time>
      </trkpt>
      <trkpt lat="50.57762" lon="5.31421">
        <ele>155.19999694824</ele>
        <time>2019-08-30T08:52:31.000Z</time>
      </trkpt>
      <trkpt lat="50.57762" lon="5.3141">
        <ele>154.80000305176</ele>
        <time>2019-08-30T08:52:32.000Z</time>
      </trkpt>
      <trkpt lat="50.57761" lon="5.31398">
        <ele>154.19999694824</ele>
        <time>2019-08-30T08:52:33.000Z</time>
      </trkpt>
      <trkpt lat="50.57755" lon="5.31353">
        <ele>154.19999694824</ele>
        <time>2019-08-30T08:52:37.000Z</time>
      </trkpt>
      <trkpt lat="50.57747" lon="5.31321">
        <ele>153.80000305176</ele>
        <time>2019-08-30T08:52:40.000Z</time>
      </trkpt>
      <trkpt lat="50.57744" lon="5.3131">
        <ele>153.39999389648</ele>
        <time>2019-08-30T08:52:41.000Z</time>
      </trkpt>
      <trkpt lat="50.57741" lon="5.313">
        <ele>153</ele>
        <time>2019-08-30T08:52:42.000Z</time>
      </trkpt>
      <trkpt lat="50.57738" lon="5.3129">
        <ele>152.60000610352</ele>
        <time>2019-08-30T08:52:43.000Z</time>
      </trkpt>
      <trkpt lat="50.57734" lon="5.3128">
        <ele>152</ele>
        <time>2019-08-30T08:52:44.000Z</time>
      </trkpt>
      <trkpt lat="50.57721" lon="5.31242">
        <ele>152</ele>
        <time>2019-08-30T08:52:48.000Z</time>
      </trkpt>
      <trkpt lat="50.57708" lon="5.31205">
        <ele>151.60000610352</ele>
        <time>2019-08-30T08:52:52.000Z</time>
      </trkpt>
      <trkpt lat="50.57705" lon="5.31196">
        <ele>151.19999694824</ele>
        <time>2019-08-30T08:52:53.000Z</time>
      </trkpt>
      <trkpt lat="50.57702" lon="5.31187">
        <ele>150.80000305176</ele>
        <time>2019-08-30T08:52:54.000Z</time>
      </trkpt>
      <trkpt lat="50.57698" lon="5.31178">
        <ele>150.39999389648</ele>
        <time>2019-08-30T08:52:55.000Z</time>
      </trkpt>
      <trkpt lat="50.57695" lon="5.31169">
        <ele>150</ele>
        <time>2019-08-30T08:52:56.000Z</time>
      </trkpt>
      <trkpt lat="50.57674" lon="5.31107">
        <ele>149.60000610352</ele>
        <time>2019-08-30T08:53:03.000Z</time>
      </trkpt>
      <trkpt lat="50.57672" lon="5.31098">
        <ele>149.19999694824</ele>
        <time>2019-08-30T08:53:04.000Z</time>
      </trkpt>
      <trkpt lat="50.57669" lon="5.3109">
        <ele>148.80000305176</ele>
        <time>2019-08-30T08:53:05.000Z</time>
      </trkpt>
      <trkpt lat="50.57668" lon="5.31081">
        <ele>148.39999389648</ele>
        <time>2019-08-30T08:53:06.000Z</time>
      </trkpt>
      <trkpt lat="50.57667" lon="5.31072">
        <ele>148</ele>
        <time>2019-08-30T08:53:07.000Z</time>
      </trkpt>
      <trkpt lat="50.57663" lon="5.31054">
        <ele>148</ele>
        <time>2019-08-30T08:53:09.000Z</time>
      </trkpt>
      <trkpt lat="50.57654" lon="5.31002">
        <ele>148</ele>
        <time>2019-08-30T08:53:15.000Z</time>
      </trkpt>
      <trkpt lat="50.57642" lon="5.30934">
        <ele>148</ele>
        <time>2019-08-30T08:53:23.000Z</time>
      </trkpt>
      <trkpt lat="50.57631" lon="5.30869">
        <ele>148</ele>
        <time>2019-08-30T08:53:31.000Z</time>
      </trkpt>
      <trkpt lat="50.5763" lon="5.30861">
        <ele>147.60000610352</ele>
        <time>2019-08-30T08:53:32.000Z</time>
      </trkpt>
      <trkpt lat="50.57628" lon="5.30853">
        <ele>147.19999694824</ele>
        <time>2019-08-30T08:53:33.000Z</time>
      </trkpt>
      <trkpt lat="50.57627" lon="5.30845">
        <ele>146.80000305176</ele>
        <time>2019-08-30T08:53:34.000Z</time>
      </trkpt>
      <trkpt lat="50.57625" lon="5.30838">
        <ele>146.39999389648</ele>
        <time>2019-08-30T08:53:35.000Z</time>
      </trkpt>
      <trkpt lat="50.57622" lon="5.3083">
        <ele>146</ele>
        <time>2019-08-30T08:53:36.000Z</time>
      </trkpt>
      <trkpt lat="50.57619" lon="5.30824">
        <ele>146</ele>
        <time>2019-08-30T08:53:37.000Z</time>
      </trkpt>
      <trkpt lat="50.57613" lon="5.30812">
        <ele>146</ele>
        <time>2019-08-30T08:53:39.000Z</time>
      </trkpt>
      <trkpt lat="50.57602" lon="5.30788">
        <ele>146</ele>
        <time>2019-08-30T08:53:43.000Z</time>
      </trkpt>
      <trkpt lat="50.57595" lon="5.30769">
        <ele>146</ele>
        <time>2019-08-30T08:53:46.000Z</time>
      </trkpt>
      <trkpt lat="50.5759" lon="5.30748">
        <ele>146</ele>
        <time>2019-08-30T08:53:49.000Z</time>
      </trkpt>
      <trkpt lat="50.57582" lon="5.3069">
        <ele>146</ele>
        <time>2019-08-30T08:53:57.000Z</time>
      </trkpt>
      <trkpt lat="50.57573" lon="5.30633">
        <ele>146</ele>
        <time>2019-08-30T08:54:05.000Z</time>
      </trkpt>
      <trkpt lat="50.57571" lon="5.30603">
        <ele>146</ele>
        <time>2019-08-30T08:54:10.000Z</time>
      </trkpt>
      <trkpt lat="50.5757" lon="5.30598">
        <ele>146</ele>
        <time>2019-08-30T08:54:13.000Z</time>
      </trkpt>
      <trkpt lat="50.5757" lon="5.30598">
        <ele>146</ele>
        <time>2019-08-30T08:54:14.000Z</time>
      </trkpt>
      <trkpt lat="50.57569" lon="5.30594">
        <ele>144</ele>
        <time>2019-08-30T08:54:29.000Z</time>
      </trkpt>
      <trkpt lat="50.57569" lon="5.30588">
        <ele>144</ele>
        <time>2019-08-30T08:54:31.000Z</time>
      </trkpt>
      <trkpt lat="50.57566" lon="5.30571">
        <ele>144</ele>
        <time>2019-08-30T08:54:36.000Z</time>
      </trkpt>
      <trkpt lat="50.57566" lon="5.3057">
        <ele>144</ele>
        <time>2019-08-30T08:54:37.000Z</time>
      </trkpt>
      <trkpt lat="50.57566" lon="5.30569">
        <ele>144</ele>
        <time>2019-08-30T08:54:38.000Z</time>
      </trkpt>
      <trkpt lat="50.57566" lon="5.30566">
        <ele>144</ele>
        <time>2019-08-30T08:54:44.000Z</time>
      </trkpt>
      <trkpt lat="50.57567" lon="5.3056">
        <ele>144</ele>
        <time>2019-08-30T08:54:46.000Z</time>
      </trkpt>
      <trkpt lat="50.57569" lon="5.30553">
        <ele>144</ele>
        <time>2019-08-30T08:54:50.000Z</time>
      </trkpt>
      <trkpt lat="50.57571" lon="5.30549">
        <ele>144</ele>
        <time>2019-08-30T08:54:53.000Z</time>
      </trkpt>
      <trkpt lat="50.57574" lon="5.30547">
        <ele>144</ele>
        <time>2019-08-30T08:54:56.000Z</time>
      </trkpt>
      <trkpt lat="50.57575" lon="5.30547">
        <ele>144</ele>
        <time>2019-08-30T08:54:58.000Z</time>
      </trkpt>
      <trkpt lat="50.57577" lon="5.30545">
        <ele>144</ele>
        <time>2019-08-30T08:55:04.000Z</time>
      </trkpt>
      <trkpt lat="50.57581" lon="5.30542">
        <ele>144</ele>
        <time>2019-08-30T08:55:07.000Z</time>
      </trkpt>
      <trkpt lat="50.57591" lon="5.30536">
        <ele>144</ele>
        <time>2019-08-30T08:55:11.000Z</time>
      </trkpt>
      <trkpt lat="50.57594" lon="5.30534">
        <ele>144</ele>
        <time>2019-08-30T08:55:12.000Z</time>
      </trkpt>
      <trkpt lat="50.57608" lon="5.30517">
        <ele>144</ele>
        <time>2019-08-30T08:55:18.000Z</time>
      </trkpt>
      <trkpt lat="50.57615" lon="5.30499">
        <ele>144</ele>
        <time>2019-08-30T08:55:23.000Z</time>
      </trkpt>
      <trkpt lat="50.57619" lon="5.30482">
        <ele>144.39999389648</ele>
        <time>2019-08-30T08:55:27.000Z</time>
      </trkpt>
      <trkpt lat="50.57619" lon="5.30478">
        <ele>144.80000305176</ele>
        <time>2019-08-30T08:55:28.000Z</time>
      </trkpt>
      <trkpt lat="50.5762" lon="5.30473">
        <ele>145.19999694824</ele>
        <time>2019-08-30T08:55:29.000Z</time>
      </trkpt>
      <trkpt lat="50.57621" lon="5.30469">
        <ele>145.60000610352</ele>
        <time>2019-08-30T08:55:30.000Z</time>
      </trkpt>
      <trkpt lat="50.57621" lon="5.30464">
        <ele>146</ele>
        <time>2019-08-30T08:55:31.000Z</time>
      </trkpt>
      <trkpt lat="50.57627" lon="5.30428">
        <ele>146</ele>
        <time>2019-08-30T08:55:39.000Z</time>
      </trkpt>
      <trkpt lat="50.57632" lon="5.30398">
        <ele>146</ele>
        <time>2019-08-30T08:55:46.000Z</time>
      </trkpt>
      <trkpt lat="50.57633" lon="5.3039">
        <ele>146.39999389648</ele>
        <time>2019-08-30T08:55:48.000Z</time>
      </trkpt>
      <trkpt lat="50.57634" lon="5.30385">
        <ele>146.80000305176</ele>
        <time>2019-08-30T08:55:49.000Z</time>
      </trkpt>
      <trkpt lat="50.57634" lon="5.30381">
        <ele>147.19999694824</ele>
        <time>2019-08-30T08:55:50.000Z</time>
      </trkpt>
      <trkpt lat="50.57634" lon="5.30377">
        <ele>148</ele>
        <time>2019-08-30T08:55:51.000Z</time>
      </trkpt>
      <trkpt lat="50.57636" lon="5.30368">
        <ele>148</ele>
        <time>2019-08-30T08:55:53.000Z</time>
      </trkpt>
      <trkpt lat="50.57642" lon="5.30336">
        <ele>148</ele>
        <time>2019-08-30T08:56:00.000Z</time>
      </trkpt>
      <trkpt lat="50.57646" lon="5.30303">
        <ele>148</ele>
        <time>2019-08-30T08:56:07.000Z</time>
      </trkpt>
      <trkpt lat="50.57649" lon="5.30286">
        <ele>148.39999389648</ele>
        <time>2019-08-30T08:56:11.000Z</time>
      </trkpt>
      <trkpt lat="50.5765" lon="5.30281">
        <ele>148.80000305176</ele>
        <time>2019-08-30T08:56:12.000Z</time>
      </trkpt>
      <trkpt lat="50.5765" lon="5.30277">
        <ele>149.19999694824</ele>
        <time>2019-08-30T08:56:13.000Z</time>
      </trkpt>
      <trkpt lat="50.57651" lon="5.30272">
        <ele>149.80000305176</ele>
        <time>2019-08-30T08:56:14.000Z</time>
      </trkpt>
      <trkpt lat="50.57652" lon="5.30268">
        <ele>150.19999694824</ele>
        <time>2019-08-30T08:56:15.000Z</time>
      </trkpt>
      <trkpt lat="50.57653" lon="5.30264">
        <ele>150.19999694824</ele>
        <time>2019-08-30T08:56:16.000Z</time>
      </trkpt>
      <trkpt lat="50.57657" lon="5.30232">
        <ele>150.19999694824</ele>
        <time>2019-08-30T08:56:23.000Z</time>
      </trkpt>
      <trkpt lat="50.57665" lon="5.302">
        <ele>150.19999694824</ele>
        <time>2019-08-30T08:56:30.000Z</time>
      </trkpt>
      <trkpt lat="50.57667" lon="5.30196">
        <ele>150.60000610352</ele>
        <time>2019-08-30T08:56:31.000Z</time>
      </trkpt>
      <trkpt lat="50.57669" lon="5.30192">
        <ele>151</ele>
        <time>2019-08-30T08:56:32.000Z</time>
      </trkpt>
      <trkpt lat="50.57671" lon="5.30189">
        <ele>151.39999389648</ele>
        <time>2019-08-30T08:56:33.000Z</time>
      </trkpt>
      <trkpt lat="50.57673" lon="5.30185">
        <ele>151.80000305176</ele>
        <time>2019-08-30T08:56:34.000Z</time>
      </trkpt>
      <trkpt lat="50.57675" lon="5.30182">
        <ele>152.19999694824</ele>
        <time>2019-08-30T08:56:35.000Z</time>
      </trkpt>
      <trkpt lat="50.57677" lon="5.3018">
        <ele>152.19999694824</ele>
        <time>2019-08-30T08:56:36.000Z</time>
      </trkpt>
      <trkpt lat="50.57692" lon="5.30167">
        <ele>152.19999694824</ele>
        <time>2019-08-30T08:56:42.000Z</time>
      </trkpt>
      <trkpt lat="50.57706" lon="5.30159">
        <ele>152.19999694824</ele>
        <time>2019-08-30T08:56:47.000Z</time>
      </trkpt>
      <trkpt lat="50.57721" lon="5.30151">
        <ele>152.60000610352</ele>
        <time>2019-08-30T08:56:52.000Z</time>
      </trkpt>
      <trkpt lat="50.57724" lon="5.3015">
        <ele>153</ele>
        <time>2019-08-30T08:56:53.000Z</time>
      </trkpt>
      <trkpt lat="50.57727" lon="5.30149">
        <ele>153.39999389648</ele>
        <time>2019-08-30T08:56:54.000Z</time>
      </trkpt>
      <trkpt lat="50.5773" lon="5.30148">
        <ele>153.80000305176</ele>
        <time>2019-08-30T08:56:55.000Z</time>
      </trkpt>
      <trkpt lat="50.57733" lon="5.30148">
        <ele>154.19999694824</ele>
        <time>2019-08-30T08:56:56.000Z</time>
      </trkpt>
      <trkpt lat="50.57746" lon="5.30151">
        <ele>154.19999694824</ele>
        <time>2019-08-30T08:57:00.000Z</time>
      </trkpt>
      <trkpt lat="50.57766" lon="5.30159">
        <ele>154.19999694824</ele>
        <time>2019-08-30T08:57:07.000Z</time>
      </trkpt>
      <trkpt lat="50.57787" lon="5.30169">
        <ele>154.19999694824</ele>
        <time>2019-08-30T08:57:14.000Z</time>
      </trkpt>
      <trkpt lat="50.57792" lon="5.30172">
        <ele>154.80000305176</ele>
        <time>2019-08-30T08:57:16.000Z</time>
      </trkpt>
      <trkpt lat="50.57795" lon="5.30174">
        <ele>155.19999694824</ele>
        <time>2019-08-30T08:57:17.000Z</time>
      </trkpt>
      <trkpt lat="50.57798" lon="5.30175">
        <ele>155.60000610352</ele>
        <time>2019-08-30T08:57:18.000Z</time>
      </trkpt>
      <trkpt lat="50.57801" lon="5.30175">
        <ele>156</ele>
        <time>2019-08-30T08:57:19.000Z</time>
      </trkpt>
      <trkpt lat="50.57805" lon="5.30176">
        <ele>156.39999389648</ele>
        <time>2019-08-30T08:57:20.000Z</time>
      </trkpt>
      <trkpt lat="50.57814" lon="5.30181">
        <ele>156.39999389648</ele>
        <time>2019-08-30T08:57:23.000Z</time>
      </trkpt>
      <trkpt lat="50.57822" lon="5.30184">
        <ele>156.39999389648</ele>
        <time>2019-08-30T08:57:26.000Z</time>
      </trkpt>
      <trkpt lat="50.57839" lon="5.30191">
        <ele>156.39999389648</ele>
        <time>2019-08-30T08:57:32.000Z</time>
      </trkpt>
      <trkpt lat="50.57844" lon="5.30194">
        <ele>156.80000305176</ele>
        <time>2019-08-30T08:57:34.000Z</time>
      </trkpt>
      <trkpt lat="50.57847" lon="5.30195">
        <ele>157.19999694824</ele>
        <time>2019-08-30T08:57:35.000Z</time>
      </trkpt>
      <trkpt lat="50.5785" lon="5.30197">
        <ele>157.60000610352</ele>
        <time>2019-08-30T08:57:36.000Z</time>
      </trkpt>
      <trkpt lat="50.57853" lon="5.30199">
        <ele>158</ele>
        <time>2019-08-30T08:57:37.000Z</time>
      </trkpt>
      <trkpt lat="50.57856" lon="5.302">
        <ele>158.39999389648</ele>
        <time>2019-08-30T08:57:38.000Z</time>
      </trkpt>
      <trkpt lat="50.57876" lon="5.30209">
        <ele>158.39999389648</ele>
        <time>2019-08-30T08:57:45.000Z</time>
      </trkpt>
      <trkpt lat="50.57897" lon="5.30215">
        <ele>158.39999389648</ele>
        <time>2019-08-30T08:57:52.000Z</time>
      </trkpt>
      <trkpt lat="50.579" lon="5.30215">
        <ele>158.80000305176</ele>
        <time>2019-08-30T08:57:53.000Z</time>
      </trkpt>
      <trkpt lat="50.57903" lon="5.30215">
        <ele>159.19999694824</ele>
        <time>2019-08-30T08:57:54.000Z</time>
      </trkpt>
      <trkpt lat="50.57906" lon="5.30215">
        <ele>160</ele>
        <time>2019-08-30T08:57:55.000Z</time>
      </trkpt>
      <trkpt lat="50.57909" lon="5.30216">
        <ele>160.39999389648</ele>
        <time>2019-08-30T08:57:56.000Z</time>
      </trkpt>
      <trkpt lat="50.57914" lon="5.30215">
        <ele>160.39999389648</ele>
        <time>2019-08-30T08:57:58.000Z</time>
      </trkpt>
      <trkpt lat="50.57931" lon="5.30214">
        <ele>160.39999389648</ele>
        <time>2019-08-30T08:58:04.000Z</time>
      </trkpt>
      <trkpt lat="50.57949" lon="5.30211">
        <ele>160.39999389648</ele>
        <time>2019-08-30T08:58:10.000Z</time>
      </trkpt>
      <trkpt lat="50.57955" lon="5.30211">
        <ele>160.80000305176</ele>
        <time>2019-08-30T08:58:12.000Z</time>
      </trkpt>
      <trkpt lat="50.57958" lon="5.30211">
        <ele>161.19999694824</ele>
        <time>2019-08-30T08:58:13.000Z</time>
      </trkpt>
      <trkpt lat="50.57961" lon="5.30211">
        <ele>161.60000610352</ele>
        <time>2019-08-30T08:58:14.000Z</time>
      </trkpt>
      <trkpt lat="50.57964" lon="5.3021">
        <ele>162</ele>
        <time>2019-08-30T08:58:15.000Z</time>
      </trkpt>
      <trkpt lat="50.57967" lon="5.30209">
        <ele>162.39999389648</ele>
        <time>2019-08-30T08:58:16.000Z</time>
      </trkpt>
      <trkpt lat="50.57983" lon="5.30207">
        <ele>162.39999389648</ele>
        <time>2019-08-30T08:58:22.000Z</time>
      </trkpt>
      <trkpt lat="50.57999" lon="5.30206">
        <ele>163</ele>
        <time>2019-08-30T08:58:28.000Z</time>
      </trkpt>
      <trkpt lat="50.58002" lon="5.30207">
        <ele>163.39999389648</ele>
        <time>2019-08-30T08:58:29.000Z</time>
      </trkpt>
      <trkpt lat="50.58005" lon="5.30208">
        <ele>163.80000305176</ele>
        <time>2019-08-30T08:58:30.000Z</time>
      </trkpt>
      <trkpt lat="50.58007" lon="5.30209">
        <ele>164.19999694824</ele>
        <time>2019-08-30T08:58:31.000Z</time>
      </trkpt>
      <trkpt lat="50.5801" lon="5.3021">
        <ele>164.60000610352</ele>
        <time>2019-08-30T08:58:32.000Z</time>
      </trkpt>
      <trkpt lat="50.5802" lon="5.30215">
        <ele>164.60000610352</ele>
        <time>2019-08-30T08:58:36.000Z</time>
      </trkpt>
      <trkpt lat="50.58035" lon="5.3022">
        <ele>164.60000610352</ele>
        <time>2019-08-30T08:58:42.000Z</time>
      </trkpt>
      <trkpt lat="50.58048" lon="5.30225">
        <ele>165</ele>
        <time>2019-08-30T08:58:47.000Z</time>
      </trkpt>
      <trkpt lat="50.5805" lon="5.30227">
        <ele>165.39999389648</ele>
        <time>2019-08-30T08:58:48.000Z</time>
      </trkpt>
      <trkpt lat="50.58052" lon="5.30228">
        <ele>165.80000305176</ele>
        <time>2019-08-30T08:58:49.000Z</time>
      </trkpt>
      <trkpt lat="50.58055" lon="5.30229">
        <ele>166.19999694824</ele>
        <time>2019-08-30T08:58:50.000Z</time>
      </trkpt>
      <trkpt lat="50.58057" lon="5.3023">
        <ele>166.60000610352</ele>
        <time>2019-08-30T08:58:51.000Z</time>
      </trkpt>
      <trkpt lat="50.5807" lon="5.30236">
        <ele>166.60000610352</ele>
        <time>2019-08-30T08:58:56.000Z</time>
      </trkpt>
      <trkpt lat="50.58095" lon="5.3025">
        <ele>167</ele>
        <time>2019-08-30T08:59:06.000Z</time>
      </trkpt>
      <trkpt lat="50.58097" lon="5.30251">
        <ele>167.39999389648</ele>
        <time>2019-08-30T08:59:07.000Z</time>
      </trkpt>
      <trkpt lat="50.581" lon="5.30252">
        <ele>167.80000305176</ele>
        <time>2019-08-30T08:59:08.000Z</time>
      </trkpt>
      <trkpt lat="50.58102" lon="5.30254">
        <ele>168.80000305176</ele>
        <time>2019-08-30T08:59:09.000Z</time>
      </trkpt>
      <trkpt lat="50.5811" lon="5.30259">
        <ele>168.80000305176</ele>
        <time>2019-08-30T08:59:12.000Z</time>
      </trkpt>
      <trkpt lat="50.58129" lon="5.30274">
        <ele>168.80000305176</ele>
        <time>2019-08-30T08:59:20.000Z</time>
      </trkpt>
      <trkpt lat="50.5815" lon="5.30288">
        <ele>168.80000305176</ele>
        <time>2019-08-30T08:59:28.000Z</time>
      </trkpt>
      <trkpt lat="50.58167" lon="5.30298">
        <ele>168.80000305176</ele>
        <time>2019-08-30T08:59:35.000Z</time>
      </trkpt>
      <trkpt lat="50.5817" lon="5.30299">
        <ele>169.19999694824</ele>
        <time>2019-08-30T08:59:36.000Z</time>
      </trkpt>
      <trkpt lat="50.58173" lon="5.303">
        <ele>169.60000610352</ele>
        <time>2019-08-30T08:59:37.000Z</time>
      </trkpt>
      <trkpt lat="50.58176" lon="5.30302">
        <ele>170</ele>
        <time>2019-08-30T08:59:38.000Z</time>
      </trkpt>
      <trkpt lat="50.58178" lon="5.30304">
        <ele>170.39999389648</ele>
        <time>2019-08-30T08:59:39.000Z</time>
      </trkpt>
      <trkpt lat="50.58181" lon="5.30306">
        <ele>170.80000305176</ele>
        <time>2019-08-30T08:59:40.000Z</time>
      </trkpt>
      <trkpt lat="50.58196" lon="5.30314">
        <ele>170.80000305176</ele>
        <time>2019-08-30T08:59:47.000Z</time>
      </trkpt>
      <trkpt lat="50.58196" lon="5.30314">
        <ele>170.80000305176</ele>
        <time>2019-08-30T08:59:48.000Z</time>
      </trkpt>
      <trkpt lat="50.58199" lon="5.30314">
        <ele>170.80000305176</ele>
        <time>2019-08-30T08:59:57.000Z</time>
      </trkpt>
      <trkpt lat="50.58202" lon="5.30315">
        <ele>170.80000305176</ele>
        <time>2019-08-30T08:59:59.000Z</time>
      </trkpt>
      <trkpt lat="50.58217" lon="5.30317">
        <ele>170.80000305176</ele>
        <time>2019-08-30T09:00:05.000Z</time>
      </trkpt>
      <trkpt lat="50.58236" lon="5.30317">
        <ele>170.80000305176</ele>
        <time>2019-08-30T09:00:11.000Z</time>
      </trkpt>
      <trkpt lat="50.58256" lon="5.30312">
        <ele>170.80000305176</ele>
        <time>2019-08-30T09:00:17.000Z</time>
      </trkpt>
      <trkpt lat="50.58263" lon="5.30309">
        <ele>170.80000305176</ele>
        <time>2019-08-30T09:00:19.000Z</time>
      </trkpt>
      <trkpt lat="50.5828" lon="5.30295">
        <ele>170.80000305176</ele>
        <time>2019-08-30T09:00:25.000Z</time>
      </trkpt>
      <trkpt lat="50.5829" lon="5.30287">
        <ele>170.80000305176</ele>
        <time>2019-08-30T09:00:30.000Z</time>
      </trkpt>
      <trkpt lat="50.5829" lon="5.30287">
        <ele>170.80000305176</ele>
        <time>2019-08-30T09:00:31.000Z</time>
      </trkpt>
      <trkpt lat="50.58292" lon="5.30286">
        <ele>170.80000305176</ele>
        <time>2019-08-30T09:00:38.000Z</time>
      </trkpt>
      <trkpt lat="50.58296" lon="5.30283">
        <ele>170.80000305176</ele>
        <time>2019-08-30T09:00:40.000Z</time>
      </trkpt>
      <trkpt lat="50.5831" lon="5.30279">
        <ele>170.80000305176</ele>
        <time>2019-08-30T09:00:45.000Z</time>
      </trkpt>
      <trkpt lat="50.58312" lon="5.30278">
        <ele>171.19999694824</ele>
        <time>2019-08-30T09:00:46.000Z</time>
      </trkpt>
      <trkpt lat="50.58315" lon="5.30277">
        <ele>171.60000610352</ele>
        <time>2019-08-30T09:00:47.000Z</time>
      </trkpt>
      <trkpt lat="50.58318" lon="5.30276">
        <ele>172</ele>
        <time>2019-08-30T09:00:48.000Z</time>
      </trkpt>
      <trkpt lat="50.5832" lon="5.30274">
        <ele>172.80000305176</ele>
        <time>2019-08-30T09:00:49.000Z</time>
      </trkpt>
      <trkpt lat="50.58326" lon="5.30272">
        <ele>172.80000305176</ele>
        <time>2019-08-30T09:00:51.000Z</time>
      </trkpt>
      <trkpt lat="50.58329" lon="5.30272">
        <ele>172.80000305176</ele>
        <time>2019-08-30T09:00:52.000Z</time>
      </trkpt>
      <trkpt lat="50.58337" lon="5.30275">
        <ele>172.80000305176</ele>
        <time>2019-08-30T09:00:55.000Z</time>
      </trkpt>
      <trkpt lat="50.58354" lon="5.30286">
        <ele>172.80000305176</ele>
        <time>2019-08-30T09:01:01.000Z</time>
      </trkpt>
      <trkpt lat="50.58371" lon="5.30296">
        <ele>172.80000305176</ele>
        <time>2019-08-30T09:01:07.000Z</time>
      </trkpt>
      <trkpt lat="50.58391" lon="5.30311">
        <ele>173.19999694824</ele>
        <time>2019-08-30T09:01:14.000Z</time>
      </trkpt>
      <trkpt lat="50.58393" lon="5.30313">
        <ele>173.60000610352</ele>
        <time>2019-08-30T09:01:15.000Z</time>
      </trkpt>
      <trkpt lat="50.58396" lon="5.30316">
        <ele>174</ele>
        <time>2019-08-30T09:01:16.000Z</time>
      </trkpt>
      <trkpt lat="50.58399" lon="5.30318">
        <ele>174.39999389648</ele>
        <time>2019-08-30T09:01:17.000Z</time>
      </trkpt>
      <trkpt lat="50.58402" lon="5.3032">
        <ele>174.80000305176</ele>
        <time>2019-08-30T09:01:18.000Z</time>
      </trkpt>
      <trkpt lat="50.58416" lon="5.30329">
        <ele>174.80000305176</ele>
        <time>2019-08-30T09:01:23.000Z</time>
      </trkpt>
      <trkpt lat="50.58434" lon="5.30343">
        <ele>174.80000305176</ele>
        <time>2019-08-30T09:01:29.000Z</time>
      </trkpt>
      <trkpt lat="50.58455" lon="5.30355">
        <ele>174.80000305176</ele>
        <time>2019-08-30T09:01:36.000Z</time>
      </trkpt>
      <trkpt lat="50.5847" lon="5.30364">
        <ele>174.80000305176</ele>
        <time>2019-08-30T09:01:41.000Z</time>
      </trkpt>
      <trkpt lat="50.58499" lon="5.3038">
        <ele>175.19999694824</ele>
        <time>2019-08-30T09:01:50.000Z</time>
      </trkpt>
      <trkpt lat="50.58502" lon="5.30382">
        <ele>175.60000610352</ele>
        <time>2019-08-30T09:01:51.000Z</time>
      </trkpt>
      <trkpt lat="50.58505" lon="5.30383">
        <ele>176</ele>
        <time>2019-08-30T09:01:52.000Z</time>
      </trkpt>
      <trkpt lat="50.58507" lon="5.30386">
        <ele>176.39999389648</ele>
        <time>2019-08-30T09:01:53.000Z</time>
      </trkpt>
      <trkpt lat="50.5851" lon="5.30388">
        <ele>176.80000305176</ele>
        <time>2019-08-30T09:01:54.000Z</time>
      </trkpt>
      <trkpt lat="50.58518" lon="5.30394">
        <ele>176.80000305176</ele>
        <time>2019-08-30T09:01:57.000Z</time>
      </trkpt>
      <trkpt lat="50.5854" lon="5.3041">
        <ele>176.80000305176</ele>
        <time>2019-08-30T09:02:05.000Z</time>
      </trkpt>
      <trkpt lat="50.58551" lon="5.30416">
        <ele>177.19999694824</ele>
        <time>2019-08-30T09:02:09.000Z</time>
      </trkpt>
      <trkpt lat="50.58553" lon="5.30417">
        <ele>177.60000610352</ele>
        <time>2019-08-30T09:02:10.000Z</time>
      </trkpt>
      <trkpt lat="50.58555" lon="5.30417">
        <ele>178</ele>
        <time>2019-08-30T09:02:11.000Z</time>
      </trkpt>
      <trkpt lat="50.58556" lon="5.30417">
        <ele>178.39999389648</ele>
        <time>2019-08-30T09:02:12.000Z</time>
      </trkpt>
      <trkpt lat="50.58556" lon="5.30416">
        <ele>178.80000305176</ele>
        <time>2019-08-30T09:02:13.000Z</time>
      </trkpt>
      <trkpt lat="50.58558" lon="5.30415">
        <ele>178.80000305176</ele>
        <time>2019-08-30T09:02:20.000Z</time>
      </trkpt>
      <trkpt lat="50.5856" lon="5.30415">
        <ele>178.80000305176</ele>
        <time>2019-08-30T09:02:21.000Z</time>
      </trkpt>
      <trkpt lat="50.58569" lon="5.30409">
        <ele>178.80000305176</ele>
        <time>2019-08-30T09:02:25.000Z</time>
      </trkpt>
      <trkpt lat="50.58573" lon="5.30398">
        <ele>178.80000305176</ele>
        <time>2019-08-30T09:02:28.000Z</time>
      </trkpt>
      <trkpt lat="50.58578" lon="5.30393">
        <ele>178.80000305176</ele>
        <time>2019-08-30T09:02:30.000Z</time>
      </trkpt>
      <trkpt lat="50.58588" lon="5.30372">
        <ele>179.19999694824</ele>
        <time>2019-08-30T09:02:36.000Z</time>
      </trkpt>
      <trkpt lat="50.5859" lon="5.30368">
        <ele>179.60000610352</ele>
        <time>2019-08-30T09:02:37.000Z</time>
      </trkpt>
      <trkpt lat="50.58591" lon="5.30364">
        <ele>180</ele>
        <time>2019-08-30T09:02:38.000Z</time>
      </trkpt>
      <trkpt lat="50.58594" lon="5.30362">
        <ele>180.60000610352</ele>
        <time>2019-08-30T09:02:39.000Z</time>
      </trkpt>
      <trkpt lat="50.58597" lon="5.3036">
        <ele>181</ele>
        <time>2019-08-30T09:02:40.000Z</time>
      </trkpt>
      <trkpt lat="50.58602" lon="5.30359">
        <ele>181</ele>
        <time>2019-08-30T09:02:42.000Z</time>
      </trkpt>
      <trkpt lat="50.58619" lon="5.30368">
        <ele>181</ele>
        <time>2019-08-30T09:02:48.000Z</time>
      </trkpt>
      <trkpt lat="50.58631" lon="5.30377">
        <ele>181.39999389648</ele>
        <time>2019-08-30T09:02:53.000Z</time>
      </trkpt>
      <trkpt lat="50.58633" lon="5.3038">
        <ele>181.80000305176</ele>
        <time>2019-08-30T09:02:54.000Z</time>
      </trkpt>
      <trkpt lat="50.58636" lon="5.30382">
        <ele>182.19999694824</ele>
        <time>2019-08-30T09:02:55.000Z</time>
      </trkpt>
      <trkpt lat="50.58639" lon="5.30383">
        <ele>182.60000610352</ele>
        <time>2019-08-30T09:02:56.000Z</time>
      </trkpt>
      <trkpt lat="50.58642" lon="5.30384">
        <ele>183</ele>
        <time>2019-08-30T09:02:57.000Z</time>
      </trkpt>
      <trkpt lat="50.5865" lon="5.30387">
        <ele>183</ele>
        <time>2019-08-30T09:03:00.000Z</time>
      </trkpt>
      <trkpt lat="50.58673" lon="5.30395">
        <ele>183</ele>
        <time>2019-08-30T09:03:08.000Z</time>
      </trkpt>
      <trkpt lat="50.58681" lon="5.30399">
        <ele>183.39999389648</ele>
        <time>2019-08-30T09:03:11.000Z</time>
      </trkpt>
      <trkpt lat="50.58684" lon="5.30399">
        <ele>183.80000305176</ele>
        <time>2019-08-30T09:03:12.000Z</time>
      </trkpt>
      <trkpt lat="50.58686" lon="5.30401">
        <ele>184.19999694824</ele>
        <time>2019-08-30T09:03:13.000Z</time>
      </trkpt>
      <trkpt lat="50.58688" lon="5.30402">
        <ele>184.80000305176</ele>
        <time>2019-08-30T09:03:14.000Z</time>
      </trkpt>
      <trkpt lat="50.58691" lon="5.30402">
        <ele>185.19999694824</ele>
        <time>2019-08-30T09:03:15.000Z</time>
      </trkpt>
      <trkpt lat="50.58699" lon="5.30406">
        <ele>185.19999694824</ele>
        <time>2019-08-30T09:03:20.000Z</time>
      </trkpt>
      <trkpt lat="50.58704" lon="5.30405">
        <ele>185.19999694824</ele>
        <time>2019-08-30T09:03:30.000Z</time>
      </trkpt>
      <trkpt lat="50.58708" lon="5.30406">
        <ele>185.19999694824</ele>
        <time>2019-08-30T09:03:32.000Z</time>
      </trkpt>
      <trkpt lat="50.58716" lon="5.30406">
        <ele>185.19999694824</ele>
        <time>2019-08-30T09:03:37.000Z</time>
      </trkpt>
      <trkpt lat="50.58718" lon="5.30404">
        <ele>185.19999694824</ele>
        <time>2019-08-30T09:03:42.000Z</time>
      </trkpt>
      <trkpt lat="50.58718" lon="5.30398">
        <ele>185.19999694824</ele>
        <time>2019-08-30T09:03:44.000Z</time>
      </trkpt>
      <trkpt lat="50.58719" lon="5.30391">
        <ele>185.60000610352</ele>
        <time>2019-08-30T09:03:46.000Z</time>
      </trkpt>
      <trkpt lat="50.58719" lon="5.30387">
        <ele>186</ele>
        <time>2019-08-30T09:03:47.000Z</time>
      </trkpt>
      <trkpt lat="50.58719" lon="5.30383">
        <ele>186.39999389648</ele>
        <time>2019-08-30T09:03:48.000Z</time>
      </trkpt>
      <trkpt lat="50.58719" lon="5.30379">
        <ele>186.80000305176</ele>
        <time>2019-08-30T09:03:49.000Z</time>
      </trkpt>
      <trkpt lat="50.58719" lon="5.30375">
        <ele>187.19999694824</ele>
        <time>2019-08-30T09:03:50.000Z</time>
      </trkpt>
      <trkpt lat="50.58717" lon="5.30369">
        <ele>187.19999694824</ele>
        <time>2019-08-30T09:03:53.000Z</time>
      </trkpt>
      <trkpt lat="50.58716" lon="5.30366">
        <ele>187.19999694824</ele>
        <time>2019-08-30T09:03:59.000Z</time>
      </trkpt>
      <trkpt lat="50.58714" lon="5.3036">
        <ele>187.19999694824</ele>
        <time>2019-08-30T09:04:01.000Z</time>
      </trkpt>
      <trkpt lat="50.58711" lon="5.30336">
        <ele>187.19999694824</ele>
        <time>2019-08-30T09:04:06.000Z</time>
      </trkpt>
      <trkpt lat="50.58702" lon="5.30282">
        <ele>187.19999694824</ele>
        <time>2019-08-30T09:04:15.000Z</time>
      </trkpt>
      <trkpt lat="50.58691" lon="5.30219">
        <ele>187.19999694824</ele>
        <time>2019-08-30T09:04:25.000Z</time>
      </trkpt>
      <trkpt lat="50.58682" lon="5.30167">
        <ele>187.19999694824</ele>
        <time>2019-08-30T09:04:33.000Z</time>
      </trkpt>
      <trkpt lat="50.58681" lon="5.3016">
        <ele>187.19999694824</ele>
        <time>2019-08-30T09:04:34.000Z</time>
      </trkpt>
      <trkpt lat="50.58678" lon="5.30133">
        <ele>187.19999694824</ele>
        <time>2019-08-30T09:04:38.000Z</time>
      </trkpt>
      <trkpt lat="50.58677" lon="5.30126">
        <ele>187.19999694824</ele>
        <time>2019-08-30T09:04:39.000Z</time>
      </trkpt>
      <trkpt lat="50.58676" lon="5.30094">
        <ele>187.19999694824</ele>
        <time>2019-08-30T09:04:44.000Z</time>
      </trkpt>
      <trkpt lat="50.58676" lon="5.30081">
        <ele>187.19999694824</ele>
        <time>2019-08-30T09:04:46.000Z</time>
      </trkpt>
      <trkpt lat="50.58679" lon="5.30024">
        <ele>187.19999694824</ele>
        <time>2019-08-30T09:04:55.000Z</time>
      </trkpt>
      <trkpt lat="50.5868" lon="5.2997">
        <ele>187.19999694824</ele>
        <time>2019-08-30T09:05:04.000Z</time>
      </trkpt>
      <trkpt lat="50.5868" lon="5.29923">
        <ele>187.19999694824</ele>
        <time>2019-08-30T09:05:12.000Z</time>
      </trkpt>
      <trkpt lat="50.58679" lon="5.2987">
        <ele>187.19999694824</ele>
        <time>2019-08-30T09:05:21.000Z</time>
      </trkpt>
      <trkpt lat="50.58677" lon="5.29817">
        <ele>187.19999694824</ele>
        <time>2019-08-30T09:05:30.000Z</time>
      </trkpt>
      <trkpt lat="50.58676" lon="5.29776">
        <ele>187.19999694824</ele>
        <time>2019-08-30T09:05:37.000Z</time>
      </trkpt>
      <trkpt lat="50.58673" lon="5.29735">
        <ele>187.19999694824</ele>
        <time>2019-08-30T09:05:44.000Z</time>
      </trkpt>
      <trkpt lat="50.58667" lon="5.29688">
        <ele>187.19999694824</ele>
        <time>2019-08-30T09:05:52.000Z</time>
      </trkpt>
      <trkpt lat="50.58662" lon="5.29644">
        <ele>187.19999694824</ele>
        <time>2019-08-30T09:06:00.000Z</time>
      </trkpt>
      <trkpt lat="50.58657" lon="5.29595">
        <ele>187.19999694824</ele>
        <time>2019-08-30T09:06:08.000Z</time>
      </trkpt>
      <trkpt lat="50.58652" lon="5.29547">
        <ele>187.19999694824</ele>
        <time>2019-08-30T09:06:16.000Z</time>
      </trkpt>
      <trkpt lat="50.5865" lon="5.29529">
        <ele>187.19999694824</ele>
        <time>2019-08-30T09:06:21.000Z</time>
      </trkpt>
      <trkpt lat="50.5865" lon="5.29528">
        <ele>187.19999694824</ele>
        <time>2019-08-30T09:06:28.000Z</time>
      </trkpt>
      <trkpt lat="50.58649" lon="5.29525">
        <ele>187.19999694824</ele>
        <time>2019-08-30T09:06:29.000Z</time>
      </trkpt>
      <trkpt lat="50.58648" lon="5.2952">
        <ele>187.19999694824</ele>
        <time>2019-08-30T09:06:30.000Z</time>
      </trkpt>
      <trkpt lat="50.58648" lon="5.2949">
        <ele>187.19999694824</ele>
        <time>2019-08-30T09:06:35.000Z</time>
      </trkpt>
      <trkpt lat="50.58656" lon="5.29464">
        <ele>187.19999694824</ele>
        <time>2019-08-30T09:06:40.000Z</time>
      </trkpt>
      <trkpt lat="50.58666" lon="5.29448">
        <ele>187.19999694824</ele>
        <time>2019-08-30T09:06:45.000Z</time>
      </trkpt>
      <trkpt lat="50.58666" lon="5.29448">
        <ele>187.19999694824</ele>
        <time>2019-08-30T09:06:47.000Z</time>
      </trkpt>
      <trkpt lat="50.58668" lon="5.29446">
        <ele>187.19999694824</ele>
        <time>2019-08-30T09:06:52.000Z</time>
      </trkpt>
      <trkpt lat="50.58677" lon="5.29434">
        <ele>187.19999694824</ele>
        <time>2019-08-30T09:06:57.000Z</time>
      </trkpt>
      <trkpt lat="50.58696" lon="5.29412">
        <ele>187.19999694824</ele>
        <time>2019-08-30T09:07:05.000Z</time>
      </trkpt>
      <trkpt lat="50.58714" lon="5.29389">
        <ele>187.19999694824</ele>
        <time>2019-08-30T09:07:11.000Z</time>
      </trkpt>
      <trkpt lat="50.58739" lon="5.29359">
        <ele>187.19999694824</ele>
        <time>2019-08-30T09:07:17.000Z</time>
      </trkpt>
      <trkpt lat="50.58778" lon="5.2931">
        <ele>186.80000305176</ele>
        <time>2019-08-30T09:07:25.000Z</time>
      </trkpt>
      <trkpt lat="50.58783" lon="5.29304">
        <ele>186.39999389648</ele>
        <time>2019-08-30T09:07:26.000Z</time>
      </trkpt>
      <trkpt lat="50.58786" lon="5.29301">
        <ele>186</ele>
        <time>2019-08-30T09:07:27.000Z</time>
      </trkpt>
      <trkpt lat="50.58789" lon="5.29298">
        <ele>185.60000610352</ele>
        <time>2019-08-30T09:07:28.000Z</time>
      </trkpt>
      <trkpt lat="50.58791" lon="5.29296">
        <ele>185.19999694824</ele>
        <time>2019-08-30T09:07:29.000Z</time>
      </trkpt>
      <trkpt lat="50.5879" lon="5.29296">
        <ele>184.80000305176</ele>
        <time>2019-08-30T09:07:30.000Z</time>
      </trkpt>
      <trkpt lat="50.58792" lon="5.29293">
        <ele>183</ele>
        <time>2019-08-30T09:07:36.000Z</time>
      </trkpt>
      <trkpt lat="50.58794" lon="5.29291">
        <ele>183</ele>
        <time>2019-08-30T09:07:37.000Z</time>
      </trkpt>
      <trkpt lat="50.58804" lon="5.29274">
        <ele>183</ele>
        <time>2019-08-30T09:07:41.000Z</time>
      </trkpt>
      <trkpt lat="50.5883" lon="5.29235">
        <ele>183</ele>
        <time>2019-08-30T09:07:49.000Z</time>
      </trkpt>
      <trkpt lat="50.58856" lon="5.29191">
        <ele>183</ele>
        <time>2019-08-30T09:07:57.000Z</time>
      </trkpt>
      <trkpt lat="50.58863" lon="5.2918">
        <ele>182.60000610352</ele>
        <time>2019-08-30T09:07:59.000Z</time>
      </trkpt>
      <trkpt lat="50.58866" lon="5.29175">
        <ele>182.19999694824</ele>
        <time>2019-08-30T09:08:00.000Z</time>
      </trkpt>
      <trkpt lat="50.58869" lon="5.29169">
        <ele>181.80000305176</ele>
        <time>2019-08-30T09:08:01.000Z</time>
      </trkpt>
      <trkpt lat="50.58872" lon="5.29163">
        <ele>181.39999389648</ele>
        <time>2019-08-30T09:08:02.000Z</time>
      </trkpt>
      <trkpt lat="50.58876" lon="5.29159">
        <ele>181</ele>
        <time>2019-08-30T09:08:03.000Z</time>
      </trkpt>
      <trkpt lat="50.58882" lon="5.29148">
        <ele>181</ele>
        <time>2019-08-30T09:08:05.000Z</time>
      </trkpt>
      <trkpt lat="50.58909" lon="5.29104">
        <ele>181</ele>
        <time>2019-08-30T09:08:14.000Z</time>
      </trkpt>
      <trkpt lat="50.58917" lon="5.29092">
        <ele>181</ele>
        <time>2019-08-30T09:08:18.000Z</time>
      </trkpt>
      <trkpt lat="50.58916" lon="5.29092">
        <ele>180.60000610352</ele>
        <time>2019-08-30T09:08:19.000Z</time>
      </trkpt>
      <trkpt lat="50.58918" lon="5.29089">
        <ele>179</ele>
        <time>2019-08-30T09:08:24.000Z</time>
      </trkpt>
      <trkpt lat="50.58919" lon="5.29087">
        <ele>179</ele>
        <time>2019-08-30T09:08:25.000Z</time>
      </trkpt>
      <trkpt lat="50.58933" lon="5.2907">
        <ele>179</ele>
        <time>2019-08-30T09:08:32.000Z</time>
      </trkpt>
      <trkpt lat="50.5894" lon="5.29053">
        <ele>179</ele>
        <time>2019-08-30T09:08:36.000Z</time>
      </trkpt>
      <trkpt lat="50.58947" lon="5.29041">
        <ele>179</ele>
        <time>2019-08-30T09:08:40.000Z</time>
      </trkpt>
      <trkpt lat="50.58947" lon="5.29042">
        <ele>179</ele>
        <time>2019-08-30T09:08:41.000Z</time>
      </trkpt>
      <trkpt lat="50.58949" lon="5.29038">
        <ele>179</ele>
        <time>2019-08-30T09:08:47.000Z</time>
      </trkpt>
      <trkpt lat="50.5895" lon="5.29036">
        <ele>179</ele>
        <time>2019-08-30T09:08:48.000Z</time>
      </trkpt>
      <trkpt lat="50.58961" lon="5.29022">
        <ele>179</ele>
        <time>2019-08-30T09:08:53.000Z</time>
      </trkpt>
      <trkpt lat="50.58982" lon="5.28994">
        <ele>179</ele>
        <time>2019-08-30T09:09:01.000Z</time>
      </trkpt>
      <trkpt lat="50.59007" lon="5.28963">
        <ele>179</ele>
        <time>2019-08-30T09:09:10.000Z</time>
      </trkpt>
      <trkpt lat="50.59032" lon="5.28934">
        <ele>179</ele>
        <time>2019-08-30T09:09:18.000Z</time>
      </trkpt>
      <trkpt lat="50.59056" lon="5.28902">
        <ele>179</ele>
        <time>2019-08-30T09:09:26.000Z</time>
      </trkpt>
      <trkpt lat="50.59081" lon="5.28871">
        <ele>179</ele>
        <time>2019-08-30T09:09:34.000Z</time>
      </trkpt>
      <trkpt lat="50.59101" lon="5.28844">
        <ele>179</ele>
        <time>2019-08-30T09:09:41.000Z</time>
      </trkpt>
      <trkpt lat="50.59107" lon="5.28835">
        <ele>179</ele>
        <time>2019-08-30T09:09:46.000Z</time>
      </trkpt>
      <trkpt lat="50.59111" lon="5.28832">
        <ele>179</ele>
        <time>2019-08-30T09:09:53.000Z</time>
      </trkpt>
      <trkpt lat="50.59116" lon="5.28826">
        <ele>179</ele>
        <time>2019-08-30T09:09:55.000Z</time>
      </trkpt>
      <trkpt lat="50.59131" lon="5.28805">
        <ele>179</ele>
        <time>2019-08-30T09:10:02.000Z</time>
      </trkpt>
      <trkpt lat="50.59131" lon="5.28801">
        <ele>179</ele>
        <time>2019-08-30T09:10:03.000Z</time>
      </trkpt>
      <trkpt lat="50.5913" lon="5.28795">
        <ele>179</ele>
        <time>2019-08-30T09:10:06.000Z</time>
      </trkpt>
      <trkpt lat="50.59131" lon="5.28794">
        <ele>179</ele>
        <time>2019-08-30T09:10:07.000Z</time>
      </trkpt>
      <trkpt lat="50.59131" lon="5.28789">
        <ele>179</ele>
        <time>2019-08-30T09:10:13.000Z</time>
      </trkpt>
      <trkpt lat="50.59131" lon="5.28785">
        <ele>179</ele>
        <time>2019-08-30T09:10:14.000Z</time>
      </trkpt>
      <trkpt lat="50.59133" lon="5.28772">
        <ele>179</ele>
        <time>2019-08-30T09:10:17.000Z</time>
      </trkpt>
      <trkpt lat="50.59133" lon="5.28757">
        <ele>179</ele>
        <time>2019-08-30T09:10:21.000Z</time>
      </trkpt>
      <trkpt lat="50.59133" lon="5.28756">
        <ele>179</ele>
        <time>2019-08-30T09:10:23.000Z</time>
      </trkpt>
      <trkpt lat="50.59133" lon="5.28751">
        <ele>179</ele>
        <time>2019-08-30T09:10:29.000Z</time>
      </trkpt>
      <trkpt lat="50.59133" lon="5.28728">
        <ele>179</ele>
        <time>2019-08-30T09:10:35.000Z</time>
      </trkpt>
      <trkpt lat="50.59133" lon="5.28706">
        <ele>179</ele>
        <time>2019-08-30T09:10:40.000Z</time>
      </trkpt>
      <trkpt lat="50.59133" lon="5.28684">
        <ele>179</ele>
        <time>2019-08-30T09:10:45.000Z</time>
      </trkpt>
      <trkpt lat="50.59133" lon="5.28664">
        <ele>179.39999389648</ele>
        <time>2019-08-30T09:10:49.000Z</time>
      </trkpt>
      <trkpt lat="50.59133" lon="5.28659">
        <ele>179.80000305176</ele>
        <time>2019-08-30T09:10:50.000Z</time>
      </trkpt>
      <trkpt lat="50.59133" lon="5.28654">
        <ele>180.19999694824</ele>
        <time>2019-08-30T09:10:51.000Z</time>
      </trkpt>
      <trkpt lat="50.59133" lon="5.2865">
        <ele>180.60000610352</ele>
        <time>2019-08-30T09:10:52.000Z</time>
      </trkpt>
      <trkpt lat="50.59132" lon="5.28642">
        <ele>181</ele>
        <time>2019-08-30T09:10:53.000Z</time>
      </trkpt>
      <trkpt lat="50.59132" lon="5.28622">
        <ele>181</ele>
        <time>2019-08-30T09:10:56.000Z</time>
      </trkpt>
      <trkpt lat="50.59131" lon="5.28588">
        <ele>181</ele>
        <time>2019-08-30T09:11:02.000Z</time>
      </trkpt>
      <trkpt lat="50.59128" lon="5.28553">
        <ele>181</ele>
        <time>2019-08-30T09:11:08.000Z</time>
      </trkpt>
      <trkpt lat="50.59127" lon="5.28538">
        <ele>181</ele>
        <time>2019-08-30T09:11:11.000Z</time>
      </trkpt>
      <trkpt lat="50.59127" lon="5.28532">
        <ele>181</ele>
        <time>2019-08-30T09:11:12.000Z</time>
      </trkpt>
      <trkpt lat="50.59127" lon="5.2852">
        <ele>181.39999389648</ele>
        <time>2019-08-30T09:11:14.000Z</time>
      </trkpt>
      <trkpt lat="50.59127" lon="5.28514">
        <ele>181.80000305176</ele>
        <time>2019-08-30T09:11:15.000Z</time>
      </trkpt>
      <trkpt lat="50.59127" lon="5.28509">
        <ele>182.19999694824</ele>
        <time>2019-08-30T09:11:16.000Z</time>
      </trkpt>
      <trkpt lat="50.59127" lon="5.28504">
        <ele>182.60000610352</ele>
        <time>2019-08-30T09:11:17.000Z</time>
      </trkpt>
      <trkpt lat="50.59127" lon="5.28499">
        <ele>183</ele>
        <time>2019-08-30T09:11:18.000Z</time>
      </trkpt>
      <trkpt lat="50.59126" lon="5.28473">
        <ele>183</ele>
        <time>2019-08-30T09:11:23.000Z</time>
      </trkpt>
      <trkpt lat="50.59125" lon="5.2844">
        <ele>183</ele>
        <time>2019-08-30T09:11:29.000Z</time>
      </trkpt>
      <trkpt lat="50.59121" lon="5.28403">
        <ele>183</ele>
        <time>2019-08-30T09:11:35.000Z</time>
      </trkpt>
      <trkpt lat="50.59112" lon="5.28387">
        <ele>183</ele>
        <time>2019-08-30T09:11:39.000Z</time>
      </trkpt>
      <trkpt lat="50.59093" lon="5.28384">
        <ele>183</ele>
        <time>2019-08-30T09:11:44.000Z</time>
      </trkpt>
      <trkpt lat="50.59063" lon="5.28381">
        <ele>183</ele>
        <time>2019-08-30T09:11:52.000Z</time>
      </trkpt>
      <trkpt lat="50.59056" lon="5.28375">
        <ele>183</ele>
        <time>2019-08-30T09:11:54.000Z</time>
      </trkpt>
      <trkpt lat="50.59047" lon="5.28364">
        <ele>183</ele>
        <time>2019-08-30T09:11:57.000Z</time>
      </trkpt>
      <trkpt lat="50.59044" lon="5.2836">
        <ele>183</ele>
        <time>2019-08-30T09:11:58.000Z</time>
      </trkpt>
      <trkpt lat="50.5902" lon="5.28326">
        <ele>183</ele>
        <time>2019-08-30T09:12:06.000Z</time>
      </trkpt>
      <trkpt lat="50.59001" lon="5.28295">
        <ele>183</ele>
        <time>2019-08-30T09:12:13.000Z</time>
      </trkpt>
      <trkpt lat="50.58986" lon="5.28261">
        <ele>183</ele>
        <time>2019-08-30T09:12:20.000Z</time>
      </trkpt>
      <trkpt lat="50.58972" lon="5.28232">
        <ele>183</ele>
        <time>2019-08-30T09:12:26.000Z</time>
      </trkpt>
      <trkpt lat="50.58962" lon="5.28215">
        <ele>183.39999389648</ele>
        <time>2019-08-30T09:12:30.000Z</time>
      </trkpt>
      <trkpt lat="50.5896" lon="5.2821">
        <ele>183.80000305176</ele>
        <time>2019-08-30T09:12:31.000Z</time>
      </trkpt>
      <trkpt lat="50.58957" lon="5.28206">
        <ele>184.19999694824</ele>
        <time>2019-08-30T09:12:32.000Z</time>
      </trkpt>
      <trkpt lat="50.58955" lon="5.28202">
        <ele>184.60000610352</ele>
        <time>2019-08-30T09:12:33.000Z</time>
      </trkpt>
      <trkpt lat="50.58953" lon="5.28197">
        <ele>185</ele>
        <time>2019-08-30T09:12:34.000Z</time>
      </trkpt>
      <trkpt lat="50.58934" lon="5.28164">
        <ele>185</ele>
        <time>2019-08-30T09:12:42.000Z</time>
      </trkpt>
      <trkpt lat="50.58914" lon="5.28131">
        <ele>185</ele>
        <time>2019-08-30T09:12:50.000Z</time>
      </trkpt>
      <trkpt lat="50.58894" lon="5.28099">
        <ele>185</ele>
        <time>2019-08-30T09:12:58.000Z</time>
      </trkpt>
      <trkpt lat="50.58884" lon="5.28085">
        <ele>185</ele>
        <time>2019-08-30T09:13:03.000Z</time>
      </trkpt>
      <trkpt lat="50.58883" lon="5.28086">
        <ele>185</ele>
        <time>2019-08-30T09:13:05.000Z</time>
      </trkpt>
      <trkpt lat="50.58882" lon="5.28085">
        <ele>185</ele>
        <time>2019-08-30T09:13:11.000Z</time>
      </trkpt>
      <trkpt lat="50.58881" lon="5.28083">
        <ele>185</ele>
        <time>2019-08-30T09:13:12.000Z</time>
      </trkpt>
      <trkpt lat="50.58874" lon="5.28072">
        <ele>185</ele>
        <time>2019-08-30T09:13:19.000Z</time>
      </trkpt>
      <trkpt lat="50.58872" lon="5.28069">
        <ele>185</ele>
        <time>2019-08-30T09:13:30.000Z</time>
      </trkpt>
      <trkpt lat="50.58873" lon="5.2806">
        <ele>185</ele>
        <time>2019-08-30T09:13:32.000Z</time>
      </trkpt>
      <trkpt lat="50.58875" lon="5.28055">
        <ele>185</ele>
        <time>2019-08-30T09:13:33.000Z</time>
      </trkpt>
      <trkpt lat="50.58879" lon="5.2805">
        <ele>185</ele>
        <time>2019-08-30T09:13:35.000Z</time>
      </trkpt>
      <trkpt lat="50.58879" lon="5.2805">
        <ele>185</ele>
        <time>2019-08-30T09:13:37.000Z</time>
      </trkpt>
      <trkpt lat="50.58879" lon="5.28049">
        <ele>185</ele>
        <time>2019-08-30T09:13:43.000Z</time>
      </trkpt>
      <trkpt lat="50.58888" lon="5.28031">
        <ele>185</ele>
        <time>2019-08-30T09:13:48.000Z</time>
      </trkpt>
      <trkpt lat="50.58901" lon="5.27997">
        <ele>185</ele>
        <time>2019-08-30T09:13:55.000Z</time>
      </trkpt>
      <trkpt lat="50.58912" lon="5.27959">
        <ele>185</ele>
        <time>2019-08-30T09:14:02.000Z</time>
      </trkpt>
      <trkpt lat="50.58923" lon="5.27919">
        <ele>185</ele>
        <time>2019-08-30T09:14:09.000Z</time>
      </trkpt>
      <trkpt lat="50.58935" lon="5.27881">
        <ele>185</ele>
        <time>2019-08-30T09:14:16.000Z</time>
      </trkpt>
      <trkpt lat="50.58945" lon="5.2784">
        <ele>185</ele>
        <time>2019-08-30T09:14:23.000Z</time>
      </trkpt>
      <trkpt lat="50.58958" lon="5.27801">
        <ele>185</ele>
        <time>2019-08-30T09:14:30.000Z</time>
      </trkpt>
      <trkpt lat="50.5897" lon="5.27755">
        <ele>185</ele>
        <time>2019-08-30T09:14:39.000Z</time>
      </trkpt>
      <trkpt lat="50.58977" lon="5.27724">
        <ele>185</ele>
        <time>2019-08-30T09:14:45.000Z</time>
      </trkpt>
      <trkpt lat="50.58984" lon="5.27696">
        <ele>185</ele>
        <time>2019-08-30T09:14:50.000Z</time>
      </trkpt>
      <trkpt lat="50.58994" lon="5.27653">
        <ele>185</ele>
        <time>2019-08-30T09:14:58.000Z</time>
      </trkpt>
      <trkpt lat="50.59004" lon="5.27614">
        <ele>185</ele>
        <time>2019-08-30T09:15:05.000Z</time>
      </trkpt>
      <trkpt lat="50.59011" lon="5.27582">
        <ele>185</ele>
        <time>2019-08-30T09:15:11.000Z</time>
      </trkpt>
      <trkpt lat="50.5902" lon="5.27545">
        <ele>185</ele>
        <time>2019-08-30T09:15:18.000Z</time>
      </trkpt>
      <trkpt lat="50.59031" lon="5.27501">
        <ele>185</ele>
        <time>2019-08-30T09:15:26.000Z</time>
      </trkpt>
      <trkpt lat="50.5904" lon="5.27457">
        <ele>185</ele>
        <time>2019-08-30T09:15:34.000Z</time>
      </trkpt>
      <trkpt lat="50.5905" lon="5.27402">
        <ele>185</ele>
        <time>2019-08-30T09:15:44.000Z</time>
      </trkpt>
      <trkpt lat="50.59055" lon="5.27363">
        <ele>185</ele>
        <time>2019-08-30T09:15:51.000Z</time>
      </trkpt>
      <trkpt lat="50.59058" lon="5.27324">
        <ele>185</ele>
        <time>2019-08-30T09:15:58.000Z</time>
      </trkpt>
      <trkpt lat="50.59059" lon="5.27284">
        <ele>185</ele>
        <time>2019-08-30T09:16:05.000Z</time>
      </trkpt>
      <trkpt lat="50.59059" lon="5.27255">
        <ele>185.39999389648</ele>
        <time>2019-08-30T09:16:10.000Z</time>
      </trkpt>
      <trkpt lat="50.59059" lon="5.2725">
        <ele>186</ele>
        <time>2019-08-30T09:16:11.000Z</time>
      </trkpt>
      <trkpt lat="50.59059" lon="5.27244">
        <ele>186.39999389648</ele>
        <time>2019-08-30T09:16:12.000Z</time>
      </trkpt>
      <trkpt lat="50.59059" lon="5.27239">
        <ele>186.80000305176</ele>
        <time>2019-08-30T09:16:13.000Z</time>
      </trkpt>
      <trkpt lat="50.59058" lon="5.27233">
        <ele>187.19999694824</ele>
        <time>2019-08-30T09:16:14.000Z</time>
      </trkpt>
      <trkpt lat="50.59058" lon="5.27216">
        <ele>187.19999694824</ele>
        <time>2019-08-30T09:16:17.000Z</time>
      </trkpt>
      <trkpt lat="50.59054" lon="5.27177">
        <ele>187.19999694824</ele>
        <time>2019-08-30T09:16:24.000Z</time>
      </trkpt>
      <trkpt lat="50.5905" lon="5.27144">
        <ele>187.19999694824</ele>
        <time>2019-08-30T09:16:30.000Z</time>
      </trkpt>
      <trkpt lat="50.59045" lon="5.27111">
        <ele>187.19999694824</ele>
        <time>2019-08-30T09:16:36.000Z</time>
      </trkpt>
      <trkpt lat="50.59043" lon="5.27092">
        <ele>187.19999694824</ele>
        <time>2019-08-30T09:16:41.000Z</time>
      </trkpt>
      <trkpt lat="50.59038" lon="5.2707">
        <ele>187.19999694824</ele>
        <time>2019-08-30T09:16:47.000Z</time>
      </trkpt>
      <trkpt lat="50.59031" lon="5.27044">
        <ele>187.19999694824</ele>
        <time>2019-08-30T09:16:53.000Z</time>
      </trkpt>
      <trkpt lat="50.59025" lon="5.2702">
        <ele>187.19999694824</ele>
        <time>2019-08-30T09:16:58.000Z</time>
      </trkpt>
      <trkpt lat="50.59017" lon="5.26997">
        <ele>187.60000610352</ele>
        <time>2019-08-30T09:17:03.000Z</time>
      </trkpt>
      <trkpt lat="50.59015" lon="5.26993">
        <ele>188</ele>
        <time>2019-08-30T09:17:04.000Z</time>
      </trkpt>
      <trkpt lat="50.59014" lon="5.26988">
        <ele>188.39999389648</ele>
        <time>2019-08-30T09:17:05.000Z</time>
      </trkpt>
      <trkpt lat="50.59013" lon="5.26983">
        <ele>188.80000305176</ele>
        <time>2019-08-30T09:17:06.000Z</time>
      </trkpt>
      <trkpt lat="50.59011" lon="5.26978">
        <ele>189.19999694824</ele>
        <time>2019-08-30T09:17:07.000Z</time>
      </trkpt>
      <trkpt lat="50.59004" lon="5.26961">
        <ele>189.19999694824</ele>
        <time>2019-08-30T09:17:11.000Z</time>
      </trkpt>
      <trkpt lat="50.58991" lon="5.26926">
        <ele>189.19999694824</ele>
        <time>2019-08-30T09:17:19.000Z</time>
      </trkpt>
      <trkpt lat="50.58978" lon="5.26897">
        <ele>189.19999694824</ele>
        <time>2019-08-30T09:17:26.000Z</time>
      </trkpt>
      <trkpt lat="50.58962" lon="5.26856">
        <ele>189.19999694824</ele>
        <time>2019-08-30T09:17:35.000Z</time>
      </trkpt>
      <trkpt lat="50.5896" lon="5.26852">
        <ele>189.60000610352</ele>
        <time>2019-08-30T09:17:36.000Z</time>
      </trkpt>
      <trkpt lat="50.58958" lon="5.26848">
        <ele>190</ele>
        <time>2019-08-30T09:17:37.000Z</time>
      </trkpt>
      <trkpt lat="50.58956" lon="5.26844">
        <ele>190.39999389648</ele>
        <time>2019-08-30T09:17:38.000Z</time>
      </trkpt>
      <trkpt lat="50.58955" lon="5.26839">
        <ele>190.80000305176</ele>
        <time>2019-08-30T09:17:39.000Z</time>
      </trkpt>
      <trkpt lat="50.58953" lon="5.26834">
        <ele>191.19999694824</ele>
        <time>2019-08-30T09:17:40.000Z</time>
      </trkpt>
      <trkpt lat="50.58951" lon="5.26829">
        <ele>191.19999694824</ele>
        <time>2019-08-30T09:17:41.000Z</time>
      </trkpt>
      <trkpt lat="50.58941" lon="5.26807">
        <ele>191.19999694824</ele>
        <time>2019-08-30T09:17:46.000Z</time>
      </trkpt>
      <trkpt lat="50.58927" lon="5.26771">
        <ele>191.19999694824</ele>
        <time>2019-08-30T09:17:54.000Z</time>
      </trkpt>
      <trkpt lat="50.58913" lon="5.26738">
        <ele>191.19999694824</ele>
        <time>2019-08-30T09:18:01.000Z</time>
      </trkpt>
      <trkpt lat="50.58895" lon="5.26694">
        <ele>191.19999694824</ele>
        <time>2019-08-30T09:18:10.000Z</time>
      </trkpt>
      <trkpt lat="50.58882" lon="5.26664">
        <ele>191.19999694824</ele>
        <time>2019-08-30T09:18:16.000Z</time>
      </trkpt>
      <trkpt lat="50.58862" lon="5.26617">
        <ele>191.19999694824</ele>
        <time>2019-08-30T09:18:25.000Z</time>
      </trkpt>
      <trkpt lat="50.58847" lon="5.26579">
        <ele>191.19999694824</ele>
        <time>2019-08-30T09:18:32.000Z</time>
      </trkpt>
      <trkpt lat="50.58829" lon="5.26537">
        <ele>191.19999694824</ele>
        <time>2019-08-30T09:18:40.000Z</time>
      </trkpt>
      <trkpt lat="50.58816" lon="5.26505">
        <ele>191.19999694824</ele>
        <time>2019-08-30T09:18:46.000Z</time>
      </trkpt>
      <trkpt lat="50.58811" lon="5.26495">
        <ele>191.19999694824</ele>
        <time>2019-08-30T09:18:48.000Z</time>
      </trkpt>
      <trkpt lat="50.58792" lon="5.26451">
        <ele>190.80000305176</ele>
        <time>2019-08-30T09:18:56.000Z</time>
      </trkpt>
      <trkpt lat="50.5879" lon="5.26445">
        <ele>190.39999389648</ele>
        <time>2019-08-30T09:18:57.000Z</time>
      </trkpt>
      <trkpt lat="50.58787" lon="5.2644">
        <ele>190</ele>
        <time>2019-08-30T09:18:58.000Z</time>
      </trkpt>
      <trkpt lat="50.58785" lon="5.26435">
        <ele>189.60000610352</ele>
        <time>2019-08-30T09:18:59.000Z</time>
      </trkpt>
      <trkpt lat="50.58782" lon="5.26429">
        <ele>189.19999694824</ele>
        <time>2019-08-30T09:19:00.000Z</time>
      </trkpt>
      <trkpt lat="50.58753" lon="5.26374">
        <ele>189.19999694824</ele>
        <time>2019-08-30T09:19:11.000Z</time>
      </trkpt>
      <trkpt lat="50.58747" lon="5.26364">
        <ele>189.19999694824</ele>
        <time>2019-08-30T09:19:13.000Z</time>
      </trkpt>
      <trkpt lat="50.58733" lon="5.2634">
        <ele>189.19999694824</ele>
        <time>2019-08-30T09:19:18.000Z</time>
      </trkpt>
      <trkpt lat="50.5871" lon="5.26305">
        <ele>189.19999694824</ele>
        <time>2019-08-30T09:19:26.000Z</time>
      </trkpt>
      <trkpt lat="50.58691" lon="5.2628">
        <ele>189.19999694824</ele>
        <time>2019-08-30T09:19:33.000Z</time>
      </trkpt>
      <trkpt lat="50.58678" lon="5.26273">
        <ele>189.19999694824</ele>
        <time>2019-08-30T09:19:37.000Z</time>
      </trkpt>
      <trkpt lat="50.58671" lon="5.26276">
        <ele>189.19999694824</ele>
        <time>2019-08-30T09:19:39.000Z</time>
      </trkpt>
      <trkpt lat="50.58653" lon="5.26286">
        <ele>189.19999694824</ele>
        <time>2019-08-30T09:19:45.000Z</time>
      </trkpt>
      <trkpt lat="50.58639" lon="5.26298">
        <ele>189.19999694824</ele>
        <time>2019-08-30T09:19:50.000Z</time>
      </trkpt>
      <trkpt lat="50.58633" lon="5.26304">
        <ele>189.19999694824</ele>
        <time>2019-08-30T09:19:54.000Z</time>
      </trkpt>
      <trkpt lat="50.58633" lon="5.26304">
        <ele>189.19999694824</ele>
        <time>2019-08-30T09:20:01.000Z</time>
      </trkpt>
      <trkpt lat="50.58632" lon="5.26306">
        <ele>189.19999694824</ele>
        <time>2019-08-30T09:20:02.000Z</time>
      </trkpt>
      <trkpt lat="50.58631" lon="5.26308">
        <ele>189.19999694824</ele>
        <time>2019-08-30T09:20:03.000Z</time>
      </trkpt>
      <trkpt lat="50.58619" lon="5.26315">
        <ele>189.19999694824</ele>
        <time>2019-08-30T09:20:08.000Z</time>
      </trkpt>
      <trkpt lat="50.5861" lon="5.26306">
        <ele>189.19999694824</ele>
        <time>2019-08-30T09:20:12.000Z</time>
      </trkpt>
      <trkpt lat="50.58609" lon="5.26302">
        <ele>189.19999694824</ele>
        <time>2019-08-30T09:20:13.000Z</time>
      </trkpt>
      <trkpt lat="50.58608" lon="5.26288">
        <ele>189.19999694824</ele>
        <time>2019-08-30T09:20:17.000Z</time>
      </trkpt>
      <trkpt lat="50.58608" lon="5.26287">
        <ele>189.19999694824</ele>
        <time>2019-08-30T09:20:18.000Z</time>
      </trkpt>
      <trkpt lat="50.58608" lon="5.26285">
        <ele>189.19999694824</ele>
        <time>2019-08-30T09:20:23.000Z</time>
      </trkpt>
      <trkpt lat="50.58609" lon="5.26283">
        <ele>189.19999694824</ele>
        <time>2019-08-30T09:20:24.000Z</time>
      </trkpt>
      <trkpt lat="50.58615" lon="5.26269">
        <ele>189.19999694824</ele>
        <time>2019-08-30T09:20:31.000Z</time>
      </trkpt>
      <trkpt lat="50.58624" lon="5.26259">
        <ele>189.19999694824</ele>
        <time>2019-08-30T09:20:37.000Z</time>
      </trkpt>
      <trkpt lat="50.58624" lon="5.26258">
        <ele>189.19999694824</ele>
        <time>2019-08-30T09:20:38.000Z</time>
      </trkpt>
      <trkpt lat="50.58628" lon="5.26255">
        <ele>189.19999694824</ele>
        <time>2019-08-30T09:20:50.000Z</time>
      </trkpt>
      <trkpt lat="50.5863" lon="5.26252">
        <ele>189.19999694824</ele>
        <time>2019-08-30T09:20:52.000Z</time>
      </trkpt>
      <trkpt lat="50.58632" lon="5.26252">
        <ele>189.19999694824</ele>
        <time>2019-08-30T09:20:55.000Z</time>
      </trkpt>
      <trkpt lat="50.5863" lon="5.26254">
        <ele>189.19999694824</ele>
        <time>2019-08-30T09:21:13.000Z</time>
      </trkpt>
      <trkpt lat="50.58629" lon="5.26255">
        <ele>189.19999694824</ele>
        <time>2019-08-30T09:21:14.000Z</time>
      </trkpt>
      <trkpt lat="50.58625" lon="5.26257">
        <ele>189.19999694824</ele>
        <time>2019-08-30T09:21:20.000Z</time>
      </trkpt>
      <trkpt lat="50.58624" lon="5.26255">
        <ele>189.19999694824</ele>
        <time>2019-08-30T09:21:38.000Z</time>
      </trkpt>
      <trkpt lat="50.58624" lon="5.2625">
        <ele>189.19999694824</ele>
        <time>2019-08-30T09:21:40.000Z</time>
      </trkpt>
      <trkpt lat="50.58623" lon="5.26241">
        <ele>189.19999694824</ele>
        <time>2019-08-30T09:21:46.000Z</time>
      </trkpt>
      <trkpt lat="50.58623" lon="5.2624">
        <ele>189.19999694824</ele>
        <time>2019-08-30T09:21:47.000Z</time>
      </trkpt>
      <trkpt lat="50.58623" lon="5.2624">
        <ele>189.19999694824</ele>
        <time>2019-08-30T09:22:17.000Z</time>
      </trkpt>
      <trkpt lat="50.58623" lon="5.26239">
        <ele>189.19999694824</ele>
        <time>2019-08-30T09:22:18.000Z</time>
      </trkpt>
      <trkpt lat="50.58623" lon="5.26237">
        <ele>189.19999694824</ele>
        <time>2019-08-30T09:22:19.000Z</time>
      </trkpt>
      <trkpt lat="50.58622" lon="5.26232">
        <ele>189.19999694824</ele>
        <time>2019-08-30T09:22:24.000Z</time>
      </trkpt>
      <trkpt lat="50.58621" lon="5.26231">
        <ele>189.19999694824</ele>
        <time>2019-08-30T09:22:28.000Z</time>
      </trkpt>
      <trkpt lat="50.58618" lon="5.26221">
        <ele>189.19999694824</ele>
        <time>2019-08-30T09:22:33.000Z</time>
      </trkpt>
      <trkpt lat="50.58611" lon="5.26214">
        <ele>189.19999694824</ele>
        <time>2019-08-30T09:22:39.000Z</time>
      </trkpt>
      <trkpt lat="50.5861" lon="5.26213">
        <ele>189.19999694824</ele>
        <time>2019-08-30T09:22:41.000Z</time>
      </trkpt>
      <trkpt lat="50.5861" lon="5.26212">
        <ele>189.19999694824</ele>
        <time>2019-08-30T09:22:42.000Z</time>
      </trkpt>
      <trkpt lat="50.5861" lon="5.26212">
        <ele>189.19999694824</ele>
        <time>2019-08-30T09:23:33.000Z</time>
      </trkpt>
      <trkpt lat="50.58608" lon="5.26208">
        <ele>189.19999694824</ele>
        <time>2019-08-30T09:23:35.000Z</time>
      </trkpt>
      <trkpt lat="50.58605" lon="5.26203">
        <ele>189.19999694824</ele>
        <time>2019-08-30T09:23:37.000Z</time>
      </trkpt>
      <trkpt lat="50.58598" lon="5.26189">
        <ele>189.19999694824</ele>
        <time>2019-08-30T09:23:41.000Z</time>
      </trkpt>
      <trkpt lat="50.58584" lon="5.26173">
        <ele>189.19999694824</ele>
        <time>2019-08-30T09:23:47.000Z</time>
      </trkpt>
      <trkpt lat="50.58567" lon="5.26161">
        <ele>189.19999694824</ele>
        <time>2019-08-30T09:23:53.000Z</time>
      </trkpt>
      <trkpt lat="50.58552" lon="5.26148">
        <ele>189.19999694824</ele>
        <time>2019-08-30T09:23:59.000Z</time>
      </trkpt>
      <trkpt lat="50.58549" lon="5.26145">
        <ele>189.19999694824</ele>
        <time>2019-08-30T09:24:02.000Z</time>
      </trkpt>
      <trkpt lat="50.58383" lon="5.26019">
        <ele>189.19999694824</ele>
        <time>2019-08-30T09:27:45.000Z</time>
      </trkpt>
      <trkpt lat="50.5836" lon="5.26">
        <ele>189.19999694824</ele>
        <time>2019-08-30T09:27:52.000Z</time>
      </trkpt>
      <trkpt lat="50.58336" lon="5.25985">
        <ele>189.19999694824</ele>
        <time>2019-08-30T09:27:59.000Z</time>
      </trkpt>
      <trkpt lat="50.58304" lon="5.25959">
        <ele>189.19999694824</ele>
        <time>2019-08-30T09:28:09.000Z</time>
      </trkpt>
      <trkpt lat="50.58278" lon="5.2594">
        <ele>189.19999694824</ele>
        <time>2019-08-30T09:28:17.000Z</time>
      </trkpt>
      <trkpt lat="50.58272" lon="5.25935">
        <ele>189.60000610352</ele>
        <time>2019-08-30T09:28:19.000Z</time>
      </trkpt>
      <trkpt lat="50.58269" lon="5.25932">
        <ele>190.19999694824</ele>
        <time>2019-08-30T09:28:20.000Z</time>
      </trkpt>
      <trkpt lat="50.58266" lon="5.2593">
        <ele>190.60000610352</ele>
        <time>2019-08-30T09:28:21.000Z</time>
      </trkpt>
      <trkpt lat="50.58262" lon="5.25927">
        <ele>191</ele>
        <time>2019-08-30T09:28:22.000Z</time>
      </trkpt>
      <trkpt lat="50.58259" lon="5.25925">
        <ele>191.39999389648</ele>
        <time>2019-08-30T09:28:23.000Z</time>
      </trkpt>
      <trkpt lat="50.58246" lon="5.25916">
        <ele>191.39999389648</ele>
        <time>2019-08-30T09:28:27.000Z</time>
      </trkpt>
      <trkpt lat="50.5822" lon="5.25895">
        <ele>191.39999389648</ele>
        <time>2019-08-30T09:28:35.000Z</time>
      </trkpt>
      <trkpt lat="50.58191" lon="5.25871">
        <ele>191.39999389648</ele>
        <time>2019-08-30T09:28:44.000Z</time>
      </trkpt>
      <trkpt lat="50.58171" lon="5.25857">
        <ele>191.39999389648</ele>
        <time>2019-08-30T09:28:50.000Z</time>
      </trkpt>
      <trkpt lat="50.5815" lon="5.25839">
        <ele>191.39999389648</ele>
        <time>2019-08-30T09:28:57.000Z</time>
      </trkpt>
      <trkpt lat="50.58138" lon="5.2583">
        <ele>191.80000305176</ele>
        <time>2019-08-30T09:29:01.000Z</time>
      </trkpt>
      <trkpt lat="50.58135" lon="5.25828">
        <ele>192.19999694824</ele>
        <time>2019-08-30T09:29:02.000Z</time>
      </trkpt>
      <trkpt lat="50.58132" lon="5.25826">
        <ele>192.60000610352</ele>
        <time>2019-08-30T09:29:03.000Z</time>
      </trkpt>
      <trkpt lat="50.58129" lon="5.25823">
        <ele>193</ele>
        <time>2019-08-30T09:29:04.000Z</time>
      </trkpt>
      <trkpt lat="50.58126" lon="5.25821">
        <ele>193.39999389648</ele>
        <time>2019-08-30T09:29:05.000Z</time>
      </trkpt>
      <trkpt lat="50.58108" lon="5.25811">
        <ele>193.39999389648</ele>
        <time>2019-08-30T09:29:10.000Z</time>
      </trkpt>
      <trkpt lat="50.58082" lon="5.25801">
        <ele>193.39999389648</ele>
        <time>2019-08-30T09:29:17.000Z</time>
      </trkpt>
      <trkpt lat="50.58056" lon="5.25794">
        <ele>193.39999389648</ele>
        <time>2019-08-30T09:29:24.000Z</time>
      </trkpt>
      <trkpt lat="50.58025" lon="5.2579">
        <ele>193.39999389648</ele>
        <time>2019-08-30T09:29:32.000Z</time>
      </trkpt>
      <trkpt lat="50.57996" lon="5.25791">
        <ele>193.39999389648</ele>
        <time>2019-08-30T09:29:39.000Z</time>
      </trkpt>
      <trkpt lat="50.57989" lon="5.25792">
        <ele>193.39999389648</ele>
        <time>2019-08-30T09:29:41.000Z</time>
      </trkpt>
      <trkpt lat="50.57953" lon="5.25804">
        <ele>193.39999389648</ele>
        <time>2019-08-30T09:29:50.000Z</time>
      </trkpt>
      <trkpt lat="50.57949" lon="5.25806">
        <ele>193.39999389648</ele>
        <time>2019-08-30T09:29:51.000Z</time>
      </trkpt>
      <trkpt lat="50.57934" lon="5.25812">
        <ele>193.39999389648</ele>
        <time>2019-08-30T09:29:55.000Z</time>
      </trkpt>
      <trkpt lat="50.57898" lon="5.25827">
        <ele>193.39999389648</ele>
        <time>2019-08-30T09:30:04.000Z</time>
      </trkpt>
      <trkpt lat="50.57867" lon="5.25841">
        <ele>193.39999389648</ele>
        <time>2019-08-30T09:30:12.000Z</time>
      </trkpt>
      <trkpt lat="50.57831" lon="5.25857">
        <ele>193.39999389648</ele>
        <time>2019-08-30T09:30:21.000Z</time>
      </trkpt>
      <trkpt lat="50.57799" lon="5.25876">
        <ele>193.39999389648</ele>
        <time>2019-08-30T09:30:30.000Z</time>
      </trkpt>
      <trkpt lat="50.5778" lon="5.2589">
        <ele>193.39999389648</ele>
        <time>2019-08-30T09:30:37.000Z</time>
      </trkpt>
      <trkpt lat="50.57775" lon="5.25895">
        <ele>193.39999389648</ele>
        <time>2019-08-30T09:30:41.000Z</time>
      </trkpt>
      <trkpt lat="50.57773" lon="5.25897">
        <ele>193.39999389648</ele>
        <time>2019-08-30T09:30:50.000Z</time>
      </trkpt>
      <trkpt lat="50.5777" lon="5.25898">
        <ele>193.39999389648</ele>
        <time>2019-08-30T09:30:52.000Z</time>
      </trkpt>
      <trkpt lat="50.57768" lon="5.25898">
        <ele>193.39999389648</ele>
        <time>2019-08-30T09:30:53.000Z</time>
      </trkpt>
      <trkpt lat="50.57761" lon="5.25905">
        <ele>193.39999389648</ele>
        <time>2019-08-30T09:30:58.000Z</time>
      </trkpt>
      <trkpt lat="50.57753" lon="5.25913">
        <ele>193.39999389648</ele>
        <time>2019-08-30T09:31:01.000Z</time>
      </trkpt>
      <trkpt lat="50.5775" lon="5.25916">
        <ele>193.39999389648</ele>
        <time>2019-08-30T09:31:02.000Z</time>
      </trkpt>
      <trkpt lat="50.57725" lon="5.25936">
        <ele>193.39999389648</ele>
        <time>2019-08-30T09:31:10.000Z</time>
      </trkpt>
      <trkpt lat="50.57699" lon="5.2596">
        <ele>193.39999389648</ele>
        <time>2019-08-30T09:31:19.000Z</time>
      </trkpt>
      <trkpt lat="50.5768" lon="5.25977">
        <ele>193.39999389648</ele>
        <time>2019-08-30T09:31:26.000Z</time>
      </trkpt>
      <trkpt lat="50.57676" lon="5.2598">
        <ele>193.39999389648</ele>
        <time>2019-08-30T09:31:30.000Z</time>
      </trkpt>
      <trkpt lat="50.57674" lon="5.25982">
        <ele>193.39999389648</ele>
        <time>2019-08-30T09:31:40.000Z</time>
      </trkpt>
      <trkpt lat="50.57673" lon="5.25983">
        <ele>193.39999389648</ele>
        <time>2019-08-30T09:31:41.000Z</time>
      </trkpt>
      <trkpt lat="50.57671" lon="5.25984">
        <ele>193.39999389648</ele>
        <time>2019-08-30T09:31:42.000Z</time>
      </trkpt>
      <trkpt lat="50.57655" lon="5.25998">
        <ele>193.39999389648</ele>
        <time>2019-08-30T09:31:49.000Z</time>
      </trkpt>
      <trkpt lat="50.57648" lon="5.26003">
        <ele>193.39999389648</ele>
        <time>2019-08-30T09:31:54.000Z</time>
      </trkpt>
      <trkpt lat="50.57646" lon="5.26006">
        <ele>193.39999389648</ele>
        <time>2019-08-30T09:32:09.000Z</time>
      </trkpt>
      <trkpt lat="50.57642" lon="5.26009">
        <ele>193.39999389648</ele>
        <time>2019-08-30T09:32:11.000Z</time>
      </trkpt>
      <trkpt lat="50.57627" lon="5.26013">
        <ele>193.39999389648</ele>
        <time>2019-08-30T09:32:17.000Z</time>
      </trkpt>
      <trkpt lat="50.57619" lon="5.26006">
        <ele>193.39999389648</ele>
        <time>2019-08-30T09:32:23.000Z</time>
      </trkpt>
      <trkpt lat="50.57619" lon="5.26006">
        <ele>193.39999389648</ele>
        <time>2019-08-30T09:32:29.000Z</time>
      </trkpt>
      <trkpt lat="50.57617" lon="5.26003">
        <ele>193.39999389648</ele>
        <time>2019-08-30T09:32:30.000Z</time>
      </trkpt>
      <trkpt lat="50.57616" lon="5.26">
        <ele>193.39999389648</ele>
        <time>2019-08-30T09:32:31.000Z</time>
      </trkpt>
      <trkpt lat="50.57607" lon="5.25985">
        <ele>193.39999389648</ele>
        <time>2019-08-30T09:32:36.000Z</time>
      </trkpt>
      <trkpt lat="50.57603" lon="5.25976">
        <ele>193.80000305176</ele>
        <time>2019-08-30T09:32:38.000Z</time>
      </trkpt>
      <trkpt lat="50.57601" lon="5.25973">
        <ele>194.19999694824</ele>
        <time>2019-08-30T09:32:39.000Z</time>
      </trkpt>
      <trkpt lat="50.576" lon="5.25969">
        <ele>194.60000610352</ele>
        <time>2019-08-30T09:32:40.000Z</time>
      </trkpt>
      <trkpt lat="50.57598" lon="5.25968">
        <ele>195</ele>
        <time>2019-08-30T09:32:41.000Z</time>
      </trkpt>
      <trkpt lat="50.57598" lon="5.25967">
        <ele>195.39999389648</ele>
        <time>2019-08-30T09:32:42.000Z</time>
      </trkpt>
      <trkpt lat="50.57598" lon="5.25967">
        <ele>195.39999389648</ele>
        <time>2019-08-30T09:32:43.000Z</time>
      </trkpt>
      <trkpt lat="50.57597" lon="5.25964">
        <ele>195.39999389648</ele>
        <time>2019-08-30T09:32:47.000Z</time>
      </trkpt>
      <trkpt lat="50.57596" lon="5.25961">
        <ele>195.39999389648</ele>
        <time>2019-08-30T09:32:48.000Z</time>
      </trkpt>
      <trkpt lat="50.57589" lon="5.25947">
        <ele>195.39999389648</ele>
        <time>2019-08-30T09:32:52.000Z</time>
      </trkpt>
      <trkpt lat="50.57575" lon="5.25917">
        <ele>195.39999389648</ele>
        <time>2019-08-30T09:32:59.000Z</time>
      </trkpt>
      <trkpt lat="50.57555" lon="5.25872">
        <ele>195.39999389648</ele>
        <time>2019-08-30T09:33:09.000Z</time>
      </trkpt>
      <trkpt lat="50.57536" lon="5.25829">
        <ele>195.39999389648</ele>
        <time>2019-08-30T09:33:18.000Z</time>
      </trkpt>
      <trkpt lat="50.57523" lon="5.25799">
        <ele>195.39999389648</ele>
        <time>2019-08-30T09:33:24.000Z</time>
      </trkpt>
      <trkpt lat="50.57507" lon="5.25764">
        <ele>195.39999389648</ele>
        <time>2019-08-30T09:33:31.000Z</time>
      </trkpt>
      <trkpt lat="50.57494" lon="5.25733">
        <ele>195.39999389648</ele>
        <time>2019-08-30T09:33:37.000Z</time>
      </trkpt>
      <trkpt lat="50.5749" lon="5.25723">
        <ele>196</ele>
        <time>2019-08-30T09:33:39.000Z</time>
      </trkpt>
      <trkpt lat="50.57488" lon="5.25718">
        <ele>196.39999389648</ele>
        <time>2019-08-30T09:33:40.000Z</time>
      </trkpt>
      <trkpt lat="50.57486" lon="5.25713">
        <ele>196.80000305176</ele>
        <time>2019-08-30T09:33:41.000Z</time>
      </trkpt>
      <trkpt lat="50.57483" lon="5.25709">
        <ele>197.19999694824</ele>
        <time>2019-08-30T09:33:42.000Z</time>
      </trkpt>
      <trkpt lat="50.57481" lon="5.25704">
        <ele>197.60000610352</ele>
        <time>2019-08-30T09:33:43.000Z</time>
      </trkpt>
      <trkpt lat="50.57477" lon="5.25694">
        <ele>197.60000610352</ele>
        <time>2019-08-30T09:33:45.000Z</time>
      </trkpt>
      <trkpt lat="50.57454" lon="5.25644">
        <ele>197.60000610352</ele>
        <time>2019-08-30T09:33:55.000Z</time>
      </trkpt>
      <trkpt lat="50.57433" lon="5.25597">
        <ele>197.60000610352</ele>
        <time>2019-08-30T09:34:05.000Z</time>
      </trkpt>
      <trkpt lat="50.57415" lon="5.25557">
        <ele>197.60000610352</ele>
        <time>2019-08-30T09:34:14.000Z</time>
      </trkpt>
      <trkpt lat="50.57414" lon="5.25552">
        <ele>197.60000610352</ele>
        <time>2019-08-30T09:34:15.000Z</time>
      </trkpt>
      <trkpt lat="50.57415" lon="5.25547">
        <ele>197.60000610352</ele>
        <time>2019-08-30T09:34:16.000Z</time>
      </trkpt>
      <trkpt lat="50.57429" lon="5.25527">
        <ele>195.60000610352</ele>
        <time>2019-08-30T09:42:14.000Z</time>
      </trkpt>
      <trkpt lat="50.5744" lon="5.25517">
        <ele>195.60000610352</ele>
        <time>2019-08-30T09:42:18.000Z</time>
      </trkpt>
      <trkpt lat="50.57453" lon="5.25498">
        <ele>195.60000610352</ele>
        <time>2019-08-30T09:42:23.000Z</time>
      </trkpt>
      <trkpt lat="50.57461" lon="5.25488">
        <ele>195.60000610352</ele>
        <time>2019-08-30T09:42:26.000Z</time>
      </trkpt>
      <trkpt lat="50.57466" lon="5.2548">
        <ele>195.60000610352</ele>
        <time>2019-08-30T09:42:28.000Z</time>
      </trkpt>
      <trkpt lat="50.57486" lon="5.25455">
        <ele>195.60000610352</ele>
        <time>2019-08-30T09:42:35.000Z</time>
      </trkpt>
      <trkpt lat="50.57505" lon="5.25434">
        <ele>195.60000610352</ele>
        <time>2019-08-30T09:42:41.000Z</time>
      </trkpt>
      <trkpt lat="50.57524" lon="5.2541">
        <ele>195.60000610352</ele>
        <time>2019-08-30T09:42:47.000Z</time>
      </trkpt>
      <trkpt lat="50.57528" lon="5.25407">
        <ele>195.60000610352</ele>
        <time>2019-08-30T09:42:48.000Z</time>
      </trkpt>
      <trkpt lat="50.57539" lon="5.25396">
        <ele>195.60000610352</ele>
        <time>2019-08-30T09:42:51.000Z</time>
      </trkpt>
      <trkpt lat="50.57546" lon="5.25386">
        <ele>195.60000610352</ele>
        <time>2019-08-30T09:42:53.000Z</time>
      </trkpt>
      <trkpt lat="50.57567" lon="5.25363">
        <ele>195.60000610352</ele>
        <time>2019-08-30T09:42:59.000Z</time>
      </trkpt>
      <trkpt lat="50.57574" lon="5.25355">
        <ele>195.60000610352</ele>
        <time>2019-08-30T09:43:01.000Z</time>
      </trkpt>
      <trkpt lat="50.57582" lon="5.25348">
        <ele>195.60000610352</ele>
        <time>2019-08-30T09:43:03.000Z</time>
      </trkpt>
      <trkpt lat="50.57589" lon="5.25339">
        <ele>195.60000610352</ele>
        <time>2019-08-30T09:43:05.000Z</time>
      </trkpt>
      <trkpt lat="50.57597" lon="5.2533">
        <ele>195.60000610352</ele>
        <time>2019-08-30T09:43:09.000Z</time>
      </trkpt>
      <trkpt lat="50.576" lon="5.2532">
        <ele>195.60000610352</ele>
        <time>2019-08-30T09:43:14.000Z</time>
      </trkpt>
      <trkpt lat="50.57607" lon="5.25311">
        <ele>195.60000610352</ele>
        <time>2019-08-30T09:43:20.000Z</time>
      </trkpt>
      <trkpt lat="50.57617" lon="5.253">
        <ele>195.60000610352</ele>
        <time>2019-08-30T09:43:26.000Z</time>
      </trkpt>
      <trkpt lat="50.57626" lon="5.2529">
        <ele>195.60000610352</ele>
        <time>2019-08-30T09:43:31.000Z</time>
      </trkpt>
      <trkpt lat="50.57638" lon="5.25276">
        <ele>195.19999694824</ele>
        <time>2019-08-30T09:43:36.000Z</time>
      </trkpt>
      <trkpt lat="50.57641" lon="5.25272">
        <ele>194.80000305176</ele>
        <time>2019-08-30T09:43:37.000Z</time>
      </trkpt>
      <trkpt lat="50.57643" lon="5.25268">
        <ele>194.39999389648</ele>
        <time>2019-08-30T09:43:38.000Z</time>
      </trkpt>
      <trkpt lat="50.57646" lon="5.25265">
        <ele>194</ele>
        <time>2019-08-30T09:43:39.000Z</time>
      </trkpt>
      <trkpt lat="50.57648" lon="5.25261">
        <ele>193.60000610352</ele>
        <time>2019-08-30T09:43:40.000Z</time>
      </trkpt>
      <trkpt lat="50.57657" lon="5.25244">
        <ele>193.60000610352</ele>
        <time>2019-08-30T09:43:44.000Z</time>
      </trkpt>
      <trkpt lat="50.57672" lon="5.25205">
        <ele>193.60000610352</ele>
        <time>2019-08-30T09:43:52.000Z</time>
      </trkpt>
      <trkpt lat="50.57687" lon="5.25164">
        <ele>193.60000610352</ele>
        <time>2019-08-30T09:44:00.000Z</time>
      </trkpt>
      <trkpt lat="50.57705" lon="5.25116">
        <ele>193.60000610352</ele>
        <time>2019-08-30T09:44:09.000Z</time>
      </trkpt>
      <trkpt lat="50.57719" lon="5.25095">
        <ele>193.60000610352</ele>
        <time>2019-08-30T09:44:14.000Z</time>
      </trkpt>
      <trkpt lat="50.57725" lon="5.25087">
        <ele>193.60000610352</ele>
        <time>2019-08-30T09:44:16.000Z</time>
      </trkpt>
      <trkpt lat="50.57751" lon="5.25057">
        <ele>193.60000610352</ele>
        <time>2019-08-30T09:44:24.000Z</time>
      </trkpt>
      <trkpt lat="50.57763" lon="5.25042">
        <ele>193.19999694824</ele>
        <time>2019-08-30T09:44:28.000Z</time>
      </trkpt>
      <trkpt lat="50.57767" lon="5.25039">
        <ele>192.80000305176</ele>
        <time>2019-08-30T09:44:29.000Z</time>
      </trkpt>
      <trkpt lat="50.5777" lon="5.25035">
        <ele>192.39999389648</ele>
        <time>2019-08-30T09:44:30.000Z</time>
      </trkpt>
      <trkpt lat="50.57773" lon="5.25031">
        <ele>191.80000305176</ele>
        <time>2019-08-30T09:44:31.000Z</time>
      </trkpt>
      <trkpt lat="50.57776" lon="5.25027">
        <ele>191.39999389648</ele>
        <time>2019-08-30T09:44:32.000Z</time>
      </trkpt>
      <trkpt lat="50.578" lon="5.24998">
        <ele>191.39999389648</ele>
        <time>2019-08-30T09:44:40.000Z</time>
      </trkpt>
      <trkpt lat="50.57821" lon="5.2497">
        <ele>191.39999389648</ele>
        <time>2019-08-30T09:44:47.000Z</time>
      </trkpt>
      <trkpt lat="50.57846" lon="5.24939">
        <ele>191.39999389648</ele>
        <time>2019-08-30T09:44:55.000Z</time>
      </trkpt>
      <trkpt lat="50.57875" lon="5.24898">
        <ele>191.39999389648</ele>
        <time>2019-08-30T09:45:05.000Z</time>
      </trkpt>
      <trkpt lat="50.57887" lon="5.24882">
        <ele>191.39999389648</ele>
        <time>2019-08-30T09:45:09.000Z</time>
      </trkpt>
      <trkpt lat="50.57898" lon="5.24865">
        <ele>191.39999389648</ele>
        <time>2019-08-30T09:45:13.000Z</time>
      </trkpt>
      <trkpt lat="50.57921" lon="5.24833">
        <ele>191.39999389648</ele>
        <time>2019-08-30T09:45:21.000Z</time>
      </trkpt>
      <trkpt lat="50.57944" lon="5.248">
        <ele>191.39999389648</ele>
        <time>2019-08-30T09:45:29.000Z</time>
      </trkpt>
      <trkpt lat="50.57965" lon="5.24772">
        <ele>191.39999389648</ele>
        <time>2019-08-30T09:45:36.000Z</time>
      </trkpt>
      <trkpt lat="50.57983" lon="5.24751">
        <ele>191.39999389648</ele>
        <time>2019-08-30T09:45:43.000Z</time>
      </trkpt>
      <trkpt lat="50.57983" lon="5.2475">
        <ele>191.39999389648</ele>
        <time>2019-08-30T09:45:45.000Z</time>
      </trkpt>
      <trkpt lat="50.57986" lon="5.24747">
        <ele>191.39999389648</ele>
        <time>2019-08-30T09:45:54.000Z</time>
      </trkpt>
      <trkpt lat="50.57994" lon="5.24739">
        <ele>191.39999389648</ele>
        <time>2019-08-30T09:45:58.000Z</time>
      </trkpt>
      <trkpt lat="50.58014" lon="5.2472">
        <ele>191.39999389648</ele>
        <time>2019-08-30T09:46:05.000Z</time>
      </trkpt>
      <trkpt lat="50.58022" lon="5.24711">
        <ele>191</ele>
        <time>2019-08-30T09:46:08.000Z</time>
      </trkpt>
      <trkpt lat="50.58025" lon="5.24708">
        <ele>190.60000610352</ele>
        <time>2019-08-30T09:46:09.000Z</time>
      </trkpt>
      <trkpt lat="50.58028" lon="5.24705">
        <ele>190.19999694824</ele>
        <time>2019-08-30T09:46:10.000Z</time>
      </trkpt>
      <trkpt lat="50.58031" lon="5.24702">
        <ele>189.80000305176</ele>
        <time>2019-08-30T09:46:11.000Z</time>
      </trkpt>
      <trkpt lat="50.58035" lon="5.24698">
        <ele>189.39999389648</ele>
        <time>2019-08-30T09:46:12.000Z</time>
      </trkpt>
      <trkpt lat="50.58063" lon="5.2467">
        <ele>189.39999389648</ele>
        <time>2019-08-30T09:46:20.000Z</time>
      </trkpt>
      <trkpt lat="50.58093" lon="5.24648">
        <ele>189.39999389648</ele>
        <time>2019-08-30T09:46:27.000Z</time>
      </trkpt>
      <trkpt lat="50.58097" lon="5.24646">
        <ele>189.39999389648</ele>
        <time>2019-08-30T09:46:28.000Z</time>
      </trkpt>
      <trkpt lat="50.58106" lon="5.24639">
        <ele>189</ele>
        <time>2019-08-30T09:46:30.000Z</time>
      </trkpt>
      <trkpt lat="50.58111" lon="5.24635">
        <ele>188.60000610352</ele>
        <time>2019-08-30T09:46:31.000Z</time>
      </trkpt>
      <trkpt lat="50.58116" lon="5.24631">
        <ele>188.19999694824</ele>
        <time>2019-08-30T09:46:32.000Z</time>
      </trkpt>
      <trkpt lat="50.58121" lon="5.24629">
        <ele>187.80000305176</ele>
        <time>2019-08-30T09:46:33.000Z</time>
      </trkpt>
      <trkpt lat="50.58126" lon="5.24626">
        <ele>187.39999389648</ele>
        <time>2019-08-30T09:46:34.000Z</time>
      </trkpt>
      <trkpt lat="50.58165" lon="5.246">
        <ele>187</ele>
        <time>2019-08-30T09:46:41.000Z</time>
      </trkpt>
      <trkpt lat="50.58171" lon="5.24594">
        <ele>186.60000610352</ele>
        <time>2019-08-30T09:46:42.000Z</time>
      </trkpt>
      <trkpt lat="50.58176" lon="5.24589">
        <ele>186.19999694824</ele>
        <time>2019-08-30T09:46:43.000Z</time>
      </trkpt>
      <trkpt lat="50.58182" lon="5.24584">
        <ele>185.80000305176</ele>
        <time>2019-08-30T09:46:44.000Z</time>
      </trkpt>
      <trkpt lat="50.58188" lon="5.24578">
        <ele>185.39999389648</ele>
        <time>2019-08-30T09:46:45.000Z</time>
      </trkpt>
      <trkpt lat="50.58193" lon="5.24573">
        <ele>185.39999389648</ele>
        <time>2019-08-30T09:46:46.000Z</time>
      </trkpt>
      <trkpt lat="50.58215" lon="5.24548">
        <ele>185.39999389648</ele>
        <time>2019-08-30T09:46:50.000Z</time>
      </trkpt>
      <trkpt lat="50.58236" lon="5.24522">
        <ele>184.80000305176</ele>
        <time>2019-08-30T09:46:54.000Z</time>
      </trkpt>
      <trkpt lat="50.58241" lon="5.24516">
        <ele>184.39999389648</ele>
        <time>2019-08-30T09:46:55.000Z</time>
      </trkpt>
      <trkpt lat="50.58247" lon="5.2451">
        <ele>184</ele>
        <time>2019-08-30T09:46:56.000Z</time>
      </trkpt>
      <trkpt lat="50.58252" lon="5.24503">
        <ele>183.60000610352</ele>
        <time>2019-08-30T09:46:57.000Z</time>
      </trkpt>
      <trkpt lat="50.58257" lon="5.24497">
        <ele>183</ele>
        <time>2019-08-30T09:46:58.000Z</time>
      </trkpt>
      <trkpt lat="50.58268" lon="5.24484">
        <ele>183</ele>
        <time>2019-08-30T09:47:00.000Z</time>
      </trkpt>
      <trkpt lat="50.58294" lon="5.24444">
        <ele>183</ele>
        <time>2019-08-30T09:47:06.000Z</time>
      </trkpt>
      <trkpt lat="50.58311" lon="5.24419">
        <ele>182.60000610352</ele>
        <time>2019-08-30T09:47:10.000Z</time>
      </trkpt>
      <trkpt lat="50.58315" lon="5.24413">
        <ele>182.19999694824</ele>
        <time>2019-08-30T09:47:11.000Z</time>
      </trkpt>
      <trkpt lat="50.58319" lon="5.24406">
        <ele>181.80000305176</ele>
        <time>2019-08-30T09:47:12.000Z</time>
      </trkpt>
      <trkpt lat="50.58323" lon="5.244">
        <ele>181</ele>
        <time>2019-08-30T09:47:13.000Z</time>
      </trkpt>
      <trkpt lat="50.58334" lon="5.24381">
        <ele>181</ele>
        <time>2019-08-30T09:47:16.000Z</time>
      </trkpt>
      <trkpt lat="50.58369" lon="5.2433">
        <ele>181</ele>
        <time>2019-08-30T09:47:25.000Z</time>
      </trkpt>
      <trkpt lat="50.58381" lon="5.24316">
        <ele>181</ele>
        <time>2019-08-30T09:47:28.000Z</time>
      </trkpt>
      <trkpt lat="50.58398" lon="5.24302">
        <ele>181</ele>
        <time>2019-08-30T09:47:32.000Z</time>
      </trkpt>
      <trkpt lat="50.58425" lon="5.24286">
        <ele>181</ele>
        <time>2019-08-30T09:47:38.000Z</time>
      </trkpt>
      <trkpt lat="50.58434" lon="5.24282">
        <ele>181</ele>
        <time>2019-08-30T09:47:40.000Z</time>
      </trkpt>
      <trkpt lat="50.58438" lon="5.2428">
        <ele>181</ele>
        <time>2019-08-30T09:47:41.000Z</time>
      </trkpt>
      <trkpt lat="50.58458" lon="5.24268">
        <ele>181</ele>
        <time>2019-08-30T09:47:46.000Z</time>
      </trkpt>
      <trkpt lat="50.58485" lon="5.24249">
        <ele>181</ele>
        <time>2019-08-30T09:47:53.000Z</time>
      </trkpt>
      <trkpt lat="50.58492" lon="5.24243">
        <ele>181</ele>
        <time>2019-08-30T09:47:55.000Z</time>
      </trkpt>
      <trkpt lat="50.58518" lon="5.24225">
        <ele>181</ele>
        <time>2019-08-30T09:48:02.000Z</time>
      </trkpt>
      <trkpt lat="50.58522" lon="5.24222">
        <ele>181</ele>
        <time>2019-08-30T09:48:03.000Z</time>
      </trkpt>
      <trkpt lat="50.58544" lon="5.24205">
        <ele>181</ele>
        <time>2019-08-30T09:48:09.000Z</time>
      </trkpt>
      <trkpt lat="50.58568" lon="5.24179">
        <ele>181</ele>
        <time>2019-08-30T09:48:16.000Z</time>
      </trkpt>
      <trkpt lat="50.58591" lon="5.24153">
        <ele>181</ele>
        <time>2019-08-30T09:48:23.000Z</time>
      </trkpt>
      <trkpt lat="50.58615" lon="5.24123">
        <ele>181</ele>
        <time>2019-08-30T09:48:31.000Z</time>
      </trkpt>
      <trkpt lat="50.58636" lon="5.24098">
        <ele>181</ele>
        <time>2019-08-30T09:48:38.000Z</time>
      </trkpt>
      <trkpt lat="50.5866" lon="5.24068">
        <ele>181</ele>
        <time>2019-08-30T09:48:46.000Z</time>
      </trkpt>
      <trkpt lat="50.58663" lon="5.24065">
        <ele>181.39999389648</ele>
        <time>2019-08-30T09:48:47.000Z</time>
      </trkpt>
      <trkpt lat="50.58666" lon="5.24061">
        <ele>181.80000305176</ele>
        <time>2019-08-30T09:48:48.000Z</time>
      </trkpt>
      <trkpt lat="50.58669" lon="5.24058">
        <ele>182.19999694824</ele>
        <time>2019-08-30T09:48:49.000Z</time>
      </trkpt>
      <trkpt lat="50.58672" lon="5.24055">
        <ele>182.60000610352</ele>
        <time>2019-08-30T09:48:50.000Z</time>
      </trkpt>
      <trkpt lat="50.58676" lon="5.24051">
        <ele>183</ele>
        <time>2019-08-30T09:48:51.000Z</time>
      </trkpt>
      <trkpt lat="50.58685" lon="5.24041">
        <ele>183</ele>
        <time>2019-08-30T09:48:54.000Z</time>
      </trkpt>
      <trkpt lat="50.58712" lon="5.24009">
        <ele>183</ele>
        <time>2019-08-30T09:49:03.000Z</time>
      </trkpt>
      <trkpt lat="50.58732" lon="5.23983">
        <ele>183</ele>
        <time>2019-08-30T09:49:10.000Z</time>
      </trkpt>
      <trkpt lat="50.58738" lon="5.23975">
        <ele>183</ele>
        <time>2019-08-30T09:49:12.000Z</time>
      </trkpt>
      <trkpt lat="50.58749" lon="5.23958">
        <ele>183.39999389648</ele>
        <time>2019-08-30T09:49:16.000Z</time>
      </trkpt>
      <trkpt lat="50.58752" lon="5.23954">
        <ele>183.80000305176</ele>
        <time>2019-08-30T09:49:17.000Z</time>
      </trkpt>
      <trkpt lat="50.58755" lon="5.2395">
        <ele>184.19999694824</ele>
        <time>2019-08-30T09:49:18.000Z</time>
      </trkpt>
      <trkpt lat="50.58757" lon="5.23946">
        <ele>184.60000610352</ele>
        <time>2019-08-30T09:49:19.000Z</time>
      </trkpt>
      <trkpt lat="50.5876" lon="5.23942">
        <ele>185</ele>
        <time>2019-08-30T09:49:20.000Z</time>
      </trkpt>
      <trkpt lat="50.58767" lon="5.23927">
        <ele>185</ele>
        <time>2019-08-30T09:49:23.000Z</time>
      </trkpt>
      <trkpt lat="50.58785" lon="5.23889">
        <ele>185</ele>
        <time>2019-08-30T09:49:31.000Z</time>
      </trkpt>
      <trkpt lat="50.58803" lon="5.23855">
        <ele>185</ele>
        <time>2019-08-30T09:49:38.000Z</time>
      </trkpt>
      <trkpt lat="50.58824" lon="5.2381">
        <ele>185</ele>
        <time>2019-08-30T09:49:47.000Z</time>
      </trkpt>
      <trkpt lat="50.58843" lon="5.2378">
        <ele>185</ele>
        <time>2019-08-30T09:49:54.000Z</time>
      </trkpt>
      <trkpt lat="50.58861" lon="5.23769">
        <ele>185</ele>
        <time>2019-08-30T09:49:59.000Z</time>
      </trkpt>
      <trkpt lat="50.58869" lon="5.23767">
        <ele>185</ele>
        <time>2019-08-30T09:50:01.000Z</time>
      </trkpt>
      <trkpt lat="50.58878" lon="5.23767">
        <ele>185</ele>
        <time>2019-08-30T09:50:03.000Z</time>
      </trkpt>
      <trkpt lat="50.58922" lon="5.23759">
        <ele>185.39999389648</ele>
        <time>2019-08-30T09:50:14.000Z</time>
      </trkpt>
      <trkpt lat="50.58926" lon="5.23755">
        <ele>185.80000305176</ele>
        <time>2019-08-30T09:50:15.000Z</time>
      </trkpt>
      <trkpt lat="50.58929" lon="5.23752">
        <ele>186.19999694824</ele>
        <time>2019-08-30T09:50:16.000Z</time>
      </trkpt>
      <trkpt lat="50.58933" lon="5.23748">
        <ele>186.80000305176</ele>
        <time>2019-08-30T09:50:17.000Z</time>
      </trkpt>
      <trkpt lat="50.58936" lon="5.23745">
        <ele>187.19999694824</ele>
        <time>2019-08-30T09:50:18.000Z</time>
      </trkpt>
      <trkpt lat="50.58953" lon="5.23725">
        <ele>187.19999694824</ele>
        <time>2019-08-30T09:50:23.000Z</time>
      </trkpt>
      <trkpt lat="50.58974" lon="5.23699">
        <ele>187.19999694824</ele>
        <time>2019-08-30T09:50:30.000Z</time>
      </trkpt>
      <trkpt lat="50.58983" lon="5.23687">
        <ele>187.19999694824</ele>
        <time>2019-08-30T09:50:33.000Z</time>
      </trkpt>
      <trkpt lat="50.58993" lon="5.23677">
        <ele>187.19999694824</ele>
        <time>2019-08-30T09:50:36.000Z</time>
      </trkpt>
      <trkpt lat="50.59016" lon="5.23656">
        <ele>187.19999694824</ele>
        <time>2019-08-30T09:50:43.000Z</time>
      </trkpt>
      <trkpt lat="50.59042" lon="5.23637">
        <ele>187.19999694824</ele>
        <time>2019-08-30T09:50:50.000Z</time>
      </trkpt>
      <trkpt lat="50.5907" lon="5.23625">
        <ele>186.60000610352</ele>
        <time>2019-08-30T09:50:56.000Z</time>
      </trkpt>
      <trkpt lat="50.59075" lon="5.23623">
        <ele>186.19999694824</ele>
        <time>2019-08-30T09:50:57.000Z</time>
      </trkpt>
      <trkpt lat="50.5908" lon="5.23621">
        <ele>185.80000305176</ele>
        <time>2019-08-30T09:50:58.000Z</time>
      </trkpt>
      <trkpt lat="50.59086" lon="5.23619">
        <ele>185.39999389648</ele>
        <time>2019-08-30T09:50:59.000Z</time>
      </trkpt>
      <trkpt lat="50.59092" lon="5.23616">
        <ele>185</ele>
        <time>2019-08-30T09:51:00.000Z</time>
      </trkpt>
      <trkpt lat="50.59104" lon="5.23611">
        <ele>185</ele>
        <time>2019-08-30T09:51:02.000Z</time>
      </trkpt>
      <trkpt lat="50.59123" lon="5.23604">
        <ele>184.60000610352</ele>
        <time>2019-08-30T09:51:05.000Z</time>
      </trkpt>
      <trkpt lat="50.59129" lon="5.23601">
        <ele>184.19999694824</ele>
        <time>2019-08-30T09:51:06.000Z</time>
      </trkpt>
      <trkpt lat="50.59136" lon="5.23599">
        <ele>183.80000305176</ele>
        <time>2019-08-30T09:51:07.000Z</time>
      </trkpt>
      <trkpt lat="50.59142" lon="5.23598">
        <ele>183.19999694824</ele>
        <time>2019-08-30T09:51:08.000Z</time>
      </trkpt>
      <trkpt lat="50.59148" lon="5.23596">
        <ele>182.80000305176</ele>
        <time>2019-08-30T09:51:09.000Z</time>
      </trkpt>
      <trkpt lat="50.59155" lon="5.23594">
        <ele>182.80000305176</ele>
        <time>2019-08-30T09:51:10.000Z</time>
      </trkpt>
      <trkpt lat="50.59178" lon="5.23585">
        <ele>182.80000305176</ele>
        <time>2019-08-30T09:51:13.000Z</time>
      </trkpt>
      <trkpt lat="50.59186" lon="5.23582">
        <ele>182.39999389648</ele>
        <time>2019-08-30T09:51:14.000Z</time>
      </trkpt>
      <trkpt lat="50.59193" lon="5.2358">
        <ele>182</ele>
        <time>2019-08-30T09:51:15.000Z</time>
      </trkpt>
      <trkpt lat="50.59201" lon="5.23577">
        <ele>181.60000610352</ele>
        <time>2019-08-30T09:51:16.000Z</time>
      </trkpt>
      <trkpt lat="50.59209" lon="5.23575">
        <ele>181.19999694824</ele>
        <time>2019-08-30T09:51:17.000Z</time>
      </trkpt>
      <trkpt lat="50.59217" lon="5.23572">
        <ele>180.60000610352</ele>
        <time>2019-08-30T09:51:18.000Z</time>
      </trkpt>
      <trkpt lat="50.59241" lon="5.23563">
        <ele>179.80000305176</ele>
        <time>2019-08-30T09:51:21.000Z</time>
      </trkpt>
      <trkpt lat="50.59248" lon="5.23561">
        <ele>179.39999389648</ele>
        <time>2019-08-30T09:51:22.000Z</time>
      </trkpt>
      <trkpt lat="50.59255" lon="5.23559">
        <ele>179</ele>
        <time>2019-08-30T09:51:23.000Z</time>
      </trkpt>
      <trkpt lat="50.5926" lon="5.23557">
        <ele>178.39999389648</ele>
        <time>2019-08-30T09:51:24.000Z</time>
      </trkpt>
      <trkpt lat="50.59269" lon="5.23554">
        <ele>178</ele>
        <time>2019-08-30T09:51:26.000Z</time>
      </trkpt>
      <trkpt lat="50.59272" lon="5.23553">
        <ele>177.60000610352</ele>
        <time>2019-08-30T09:51:27.000Z</time>
      </trkpt>
      <trkpt lat="50.59274" lon="5.23552">
        <ele>177.19999694824</ele>
        <time>2019-08-30T09:51:28.000Z</time>
      </trkpt>
      <trkpt lat="50.59276" lon="5.23552">
        <ele>176.80000305176</ele>
        <time>2019-08-30T09:51:29.000Z</time>
      </trkpt>
      <trkpt lat="50.59278" lon="5.23551">
        <ele>176.39999389648</ele>
        <time>2019-08-30T09:51:30.000Z</time>
      </trkpt>
      <trkpt lat="50.5929" lon="5.23547">
        <ele>176.39999389648</ele>
        <time>2019-08-30T09:51:35.000Z</time>
      </trkpt>
      <trkpt lat="50.5929" lon="5.23547">
        <ele>176.39999389648</ele>
        <time>2019-08-30T09:51:38.000Z</time>
      </trkpt>
      <trkpt lat="50.59292" lon="5.23546">
        <ele>176.39999389648</ele>
        <time>2019-08-30T09:51:45.000Z</time>
      </trkpt>
      <trkpt lat="50.59304" lon="5.23542">
        <ele>176.39999389648</ele>
        <time>2019-08-30T09:51:51.000Z</time>
      </trkpt>
      <trkpt lat="50.59314" lon="5.23539">
        <ele>176.39999389648</ele>
        <time>2019-08-30T09:51:57.000Z</time>
      </trkpt>
      <trkpt lat="50.59316" lon="5.23538">
        <ele>176.39999389648</ele>
        <time>2019-08-30T09:52:03.000Z</time>
      </trkpt>
      <trkpt lat="50.59321" lon="5.23537">
        <ele>176.39999389648</ele>
        <time>2019-08-30T09:52:05.000Z</time>
      </trkpt>
      <trkpt lat="50.59325" lon="5.23535">
        <ele>176.39999389648</ele>
        <time>2019-08-30T09:52:07.000Z</time>
      </trkpt>
      <trkpt lat="50.59327" lon="5.23533">
        <ele>176</ele>
        <time>2019-08-30T09:52:10.000Z</time>
      </trkpt>
      <trkpt lat="50.59327" lon="5.23533">
        <ele>174.39999389648</ele>
        <time>2019-08-30T09:52:14.000Z</time>
      </trkpt>
      <trkpt lat="50.59332" lon="5.23533">
        <ele>174.39999389648</ele>
        <time>2019-08-30T09:52:16.000Z</time>
      </trkpt>
      <trkpt lat="50.59338" lon="5.23533">
        <ele>174.39999389648</ele>
        <time>2019-08-30T09:52:18.000Z</time>
      </trkpt>
      <trkpt lat="50.59339" lon="5.23532">
        <ele>174.39999389648</ele>
        <time>2019-08-30T09:52:20.000Z</time>
      </trkpt>
      <trkpt lat="50.59339" lon="5.23532">
        <ele>174.39999389648</ele>
        <time>2019-08-30T09:52:25.000Z</time>
      </trkpt>
      <trkpt lat="50.59347" lon="5.23532">
        <ele>174.39999389648</ele>
        <time>2019-08-30T09:52:28.000Z</time>
      </trkpt>
      <trkpt lat="50.59365" lon="5.23534">
        <ele>174.39999389648</ele>
        <time>2019-08-30T09:52:33.000Z</time>
      </trkpt>
      <trkpt lat="50.59378" lon="5.23535">
        <ele>174.39999389648</ele>
        <time>2019-08-30T09:52:36.000Z</time>
      </trkpt>
      <trkpt lat="50.59383" lon="5.23535">
        <ele>174</ele>
        <time>2019-08-30T09:52:37.000Z</time>
      </trkpt>
      <trkpt lat="50.59388" lon="5.23535">
        <ele>173.60000610352</ele>
        <time>2019-08-30T09:52:38.000Z</time>
      </trkpt>
      <trkpt lat="50.59393" lon="5.23535">
        <ele>173.19999694824</ele>
        <time>2019-08-30T09:52:39.000Z</time>
      </trkpt>
      <trkpt lat="50.59399" lon="5.23535">
        <ele>172.60000610352</ele>
        <time>2019-08-30T09:52:40.000Z</time>
      </trkpt>
      <trkpt lat="50.59404" lon="5.23535">
        <ele>172.19999694824</ele>
        <time>2019-08-30T09:52:41.000Z</time>
      </trkpt>
      <trkpt lat="50.5942" lon="5.23533">
        <ele>172.19999694824</ele>
        <time>2019-08-30T09:52:44.000Z</time>
      </trkpt>
      <trkpt lat="50.59451" lon="5.23526">
        <ele>172.19999694824</ele>
        <time>2019-08-30T09:52:50.000Z</time>
      </trkpt>
      <trkpt lat="50.59461" lon="5.23522">
        <ele>172.19999694824</ele>
        <time>2019-08-30T09:52:52.000Z</time>
      </trkpt>
      <trkpt lat="50.59481" lon="5.23514">
        <ele>172.19999694824</ele>
        <time>2019-08-30T09:52:56.000Z</time>
      </trkpt>
      <trkpt lat="50.59495" lon="5.23508">
        <ele>171.80000305176</ele>
        <time>2019-08-30T09:52:59.000Z</time>
      </trkpt>
      <trkpt lat="50.59498" lon="5.23507">
        <ele>171.39999389648</ele>
        <time>2019-08-30T09:53:00.000Z</time>
      </trkpt>
      <trkpt lat="50.59501" lon="5.23506">
        <ele>171</ele>
        <time>2019-08-30T09:53:01.000Z</time>
      </trkpt>
      <trkpt lat="50.59503" lon="5.23505">
        <ele>170.60000610352</ele>
        <time>2019-08-30T09:53:02.000Z</time>
      </trkpt>
      <trkpt lat="50.59504" lon="5.23504">
        <ele>170.19999694824</ele>
        <time>2019-08-30T09:53:03.000Z</time>
      </trkpt>
      <trkpt lat="50.59504" lon="5.23504">
        <ele>170.19999694824</ele>
        <time>2019-08-30T09:53:13.000Z</time>
      </trkpt>
      <trkpt lat="50.59516" lon="5.23499">
        <ele>170.19999694824</ele>
        <time>2019-08-30T09:53:19.000Z</time>
      </trkpt>
      <trkpt lat="50.59521" lon="5.235">
        <ele>170.19999694824</ele>
        <time>2019-08-30T09:53:23.000Z</time>
      </trkpt>
      <trkpt lat="50.59523" lon="5.23501">
        <ele>170.19999694824</ele>
        <time>2019-08-30T09:53:28.000Z</time>
      </trkpt>
      <trkpt lat="50.59526" lon="5.23505">
        <ele>170.19999694824</ele>
        <time>2019-08-30T09:53:31.000Z</time>
      </trkpt>
      <trkpt lat="50.59537" lon="5.2352">
        <ele>170.19999694824</ele>
        <time>2019-08-30T09:53:37.000Z</time>
      </trkpt>
      <trkpt lat="50.59546" lon="5.23544">
        <ele>170.19999694824</ele>
        <time>2019-08-30T09:53:44.000Z</time>
      </trkpt>
      <trkpt lat="50.59547" lon="5.23556">
        <ele>170.19999694824</ele>
        <time>2019-08-30T09:53:49.000Z</time>
      </trkpt>
      <trkpt lat="50.59549" lon="5.23559">
        <ele>170.19999694824</ele>
        <time>2019-08-30T09:53:55.000Z</time>
      </trkpt>
      <trkpt lat="50.59551" lon="5.23561">
        <ele>170.19999694824</ele>
        <time>2019-08-30T09:53:56.000Z</time>
      </trkpt>
      <trkpt lat="50.59555" lon="5.23566">
        <ele>170.19999694824</ele>
        <time>2019-08-30T09:53:58.000Z</time>
      </trkpt>
      <trkpt lat="50.59568" lon="5.23572">
        <ele>170.19999694824</ele>
        <time>2019-08-30T09:54:03.000Z</time>
      </trkpt>
      <trkpt lat="50.59584" lon="5.23574">
        <ele>170.19999694824</ele>
        <time>2019-08-30T09:54:08.000Z</time>
      </trkpt>
      <trkpt lat="50.596" lon="5.23576">
        <ele>170.19999694824</ele>
        <time>2019-08-30T09:54:13.000Z</time>
      </trkpt>
      <trkpt lat="50.59615" lon="5.23577">
        <ele>170.19999694824</ele>
        <time>2019-08-30T09:54:18.000Z</time>
      </trkpt>
      <trkpt lat="50.59622" lon="5.23578">
        <ele>170.60000610352</ele>
        <time>2019-08-30T09:54:20.000Z</time>
      </trkpt>
      <trkpt lat="50.59625" lon="5.23579">
        <ele>171</ele>
        <time>2019-08-30T09:54:21.000Z</time>
      </trkpt>
      <trkpt lat="50.59629" lon="5.2358">
        <ele>171.39999389648</ele>
        <time>2019-08-30T09:54:22.000Z</time>
      </trkpt>
      <trkpt lat="50.59632" lon="5.2358">
        <ele>171.80000305176</ele>
        <time>2019-08-30T09:54:23.000Z</time>
      </trkpt>
      <trkpt lat="50.59635" lon="5.23581">
        <ele>172.19999694824</ele>
        <time>2019-08-30T09:54:24.000Z</time>
      </trkpt>
      <trkpt lat="50.5966" lon="5.2358">
        <ele>172.19999694824</ele>
        <time>2019-08-30T09:54:30.000Z</time>
      </trkpt>
      <trkpt lat="50.59665" lon="5.23579">
        <ele>172.19999694824</ele>
        <time>2019-08-30T09:54:31.000Z</time>
      </trkpt>
      <trkpt lat="50.59689" lon="5.23575">
        <ele>172.19999694824</ele>
        <time>2019-08-30T09:54:35.000Z</time>
      </trkpt>
      <trkpt lat="50.59709" lon="5.23572">
        <ele>171.80000305176</ele>
        <time>2019-08-30T09:54:38.000Z</time>
      </trkpt>
      <trkpt lat="50.59716" lon="5.2357">
        <ele>171.39999389648</ele>
        <time>2019-08-30T09:54:39.000Z</time>
      </trkpt>
      <trkpt lat="50.59724" lon="5.23569">
        <ele>171</ele>
        <time>2019-08-30T09:54:40.000Z</time>
      </trkpt>
      <trkpt lat="50.59731" lon="5.23568">
        <ele>170.39999389648</ele>
        <time>2019-08-30T09:54:41.000Z</time>
      </trkpt>
      <trkpt lat="50.59739" lon="5.23566">
        <ele>170</ele>
        <time>2019-08-30T09:54:42.000Z</time>
      </trkpt>
      <trkpt lat="50.59754" lon="5.23562">
        <ele>169.60000610352</ele>
        <time>2019-08-30T09:54:44.000Z</time>
      </trkpt>
      <trkpt lat="50.59763" lon="5.23561">
        <ele>169.19999694824</ele>
        <time>2019-08-30T09:54:45.000Z</time>
      </trkpt>
      <trkpt lat="50.59771" lon="5.23559">
        <ele>168.80000305176</ele>
        <time>2019-08-30T09:54:46.000Z</time>
      </trkpt>
      <trkpt lat="50.5978" lon="5.23558">
        <ele>168.39999389648</ele>
        <time>2019-08-30T09:54:47.000Z</time>
      </trkpt>
      <trkpt lat="50.59788" lon="5.23556">
        <ele>168</ele>
        <time>2019-08-30T09:54:48.000Z</time>
      </trkpt>
      <trkpt lat="50.59822" lon="5.23551">
        <ele>167.60000610352</ele>
        <time>2019-08-30T09:54:52.000Z</time>
      </trkpt>
      <trkpt lat="50.59831" lon="5.2355">
        <ele>167</ele>
        <time>2019-08-30T09:54:53.000Z</time>
      </trkpt>
      <trkpt lat="50.5984" lon="5.2355">
        <ele>166.60000610352</ele>
        <time>2019-08-30T09:54:54.000Z</time>
      </trkpt>
      <trkpt lat="50.59849" lon="5.2355">
        <ele>166</ele>
        <time>2019-08-30T09:54:55.000Z</time>
      </trkpt>
      <trkpt lat="50.59859" lon="5.2355">
        <ele>165.60000610352</ele>
        <time>2019-08-30T09:54:56.000Z</time>
      </trkpt>
      <trkpt lat="50.59876" lon="5.23551">
        <ele>165.19999694824</ele>
        <time>2019-08-30T09:54:58.000Z</time>
      </trkpt>
      <trkpt lat="50.59885" lon="5.23551">
        <ele>164.80000305176</ele>
        <time>2019-08-30T09:54:59.000Z</time>
      </trkpt>
      <trkpt lat="50.59894" lon="5.23551">
        <ele>164.39999389648</ele>
        <time>2019-08-30T09:55:00.000Z</time>
      </trkpt>
      <trkpt lat="50.59902" lon="5.23551">
        <ele>163.60000610352</ele>
        <time>2019-08-30T09:55:01.000Z</time>
      </trkpt>
      <trkpt lat="50.59919" lon="5.23549">
        <ele>163.60000610352</ele>
        <time>2019-08-30T09:55:03.000Z</time>
      </trkpt>
      <trkpt lat="50.59935" lon="5.23546">
        <ele>163</ele>
        <time>2019-08-30T09:55:05.000Z</time>
      </trkpt>
      <trkpt lat="50.59943" lon="5.23544">
        <ele>162.60000610352</ele>
        <time>2019-08-30T09:55:06.000Z</time>
      </trkpt>
      <trkpt lat="50.5995" lon="5.23542">
        <ele>162.19999694824</ele>
        <time>2019-08-30T09:55:07.000Z</time>
      </trkpt>
      <trkpt lat="50.59958" lon="5.2354">
        <ele>161.80000305176</ele>
        <time>2019-08-30T09:55:08.000Z</time>
      </trkpt>
      <trkpt lat="50.59966" lon="5.23538">
        <ele>161.39999389648</ele>
        <time>2019-08-30T09:55:09.000Z</time>
      </trkpt>
      <trkpt lat="50.59973" lon="5.23535">
        <ele>161.39999389648</ele>
        <time>2019-08-30T09:55:10.000Z</time>
      </trkpt>
      <trkpt lat="50.59994" lon="5.23528">
        <ele>161.39999389648</ele>
        <time>2019-08-30T09:55:14.000Z</time>
      </trkpt>
      <trkpt lat="50.59995" lon="5.23527">
        <ele>161</ele>
        <time>2019-08-30T09:55:15.000Z</time>
      </trkpt>
      <trkpt lat="50.59996" lon="5.23526">
        <ele>159.19999694824</ele>
        <time>2019-08-30T09:55:24.000Z</time>
      </trkpt>
      <trkpt lat="50.59997" lon="5.23524">
        <ele>159.19999694824</ele>
        <time>2019-08-30T09:55:25.000Z</time>
      </trkpt>
      <trkpt lat="50.60009" lon="5.2352">
        <ele>159.19999694824</ele>
        <time>2019-08-30T09:55:29.000Z</time>
      </trkpt>
      <trkpt lat="50.60031" lon="5.23517">
        <ele>159.19999694824</ele>
        <time>2019-08-30T09:55:35.000Z</time>
      </trkpt>
      <trkpt lat="50.6005" lon="5.23518">
        <ele>159.19999694824</ele>
        <time>2019-08-30T09:55:40.000Z</time>
      </trkpt>
      <trkpt lat="50.60053" lon="5.23518">
        <ele>159.19999694824</ele>
        <time>2019-08-30T09:55:43.000Z</time>
      </trkpt>
      <trkpt lat="50.60055" lon="5.23518">
        <ele>159.19999694824</ele>
        <time>2019-08-30T09:55:51.000Z</time>
      </trkpt>
      <trkpt lat="50.60059" lon="5.23517">
        <ele>159.19999694824</ele>
        <time>2019-08-30T09:55:53.000Z</time>
      </trkpt>
      <trkpt lat="50.60074" lon="5.23518">
        <ele>159.19999694824</ele>
        <time>2019-08-30T09:55:58.000Z</time>
      </trkpt>
      <trkpt lat="50.60098" lon="5.23522">
        <ele>159.19999694824</ele>
        <time>2019-08-30T09:56:05.000Z</time>
      </trkpt>
      <trkpt lat="50.60128" lon="5.23525">
        <ele>159.19999694824</ele>
        <time>2019-08-30T09:56:13.000Z</time>
      </trkpt>
      <trkpt lat="50.60157" lon="5.23527">
        <ele>159.19999694824</ele>
        <time>2019-08-30T09:56:21.000Z</time>
      </trkpt>
      <trkpt lat="50.60183" lon="5.23529">
        <ele>159.19999694824</ele>
        <time>2019-08-30T09:56:28.000Z</time>
      </trkpt>
      <trkpt lat="50.60205" lon="5.23531">
        <ele>159.19999694824</ele>
        <time>2019-08-30T09:56:34.000Z</time>
      </trkpt>
      <trkpt lat="50.60226" lon="5.23532">
        <ele>160</ele>
        <time>2019-08-30T09:56:40.000Z</time>
      </trkpt>
      <trkpt lat="50.60229" lon="5.23532">
        <ele>160.39999389648</ele>
        <time>2019-08-30T09:56:41.000Z</time>
      </trkpt>
      <trkpt lat="50.60233" lon="5.23532">
        <ele>161</ele>
        <time>2019-08-30T09:56:42.000Z</time>
      </trkpt>
      <trkpt lat="50.60236" lon="5.23532">
        <ele>161.39999389648</ele>
        <time>2019-08-30T09:56:43.000Z</time>
      </trkpt>
      <trkpt lat="50.60239" lon="5.23532">
        <ele>161.39999389648</ele>
        <time>2019-08-30T09:56:44.000Z</time>
      </trkpt>
      <trkpt lat="50.60248" lon="5.23534">
        <ele>161.39999389648</ele>
        <time>2019-08-30T09:56:47.000Z</time>
      </trkpt>
      <trkpt lat="50.60267" lon="5.23535">
        <ele>161.80000305176</ele>
        <time>2019-08-30T09:56:53.000Z</time>
      </trkpt>
      <trkpt lat="50.6027" lon="5.23535">
        <ele>162.19999694824</ele>
        <time>2019-08-30T09:56:54.000Z</time>
      </trkpt>
      <trkpt lat="50.60273" lon="5.23536">
        <ele>162.60000610352</ele>
        <time>2019-08-30T09:56:55.000Z</time>
      </trkpt>
      <trkpt lat="50.60276" lon="5.23536">
        <ele>163</ele>
        <time>2019-08-30T09:56:56.000Z</time>
      </trkpt>
      <trkpt lat="50.60279" lon="5.23536">
        <ele>163.39999389648</ele>
        <time>2019-08-30T09:56:57.000Z</time>
      </trkpt>
      <trkpt lat="50.60291" lon="5.23537">
        <ele>163.39999389648</ele>
        <time>2019-08-30T09:57:01.000Z</time>
      </trkpt>
      <trkpt lat="50.60304" lon="5.23536">
        <ele>164.19999694824</ele>
        <time>2019-08-30T09:57:05.000Z</time>
      </trkpt>
      <trkpt lat="50.60307" lon="5.23535">
        <ele>164.60000610352</ele>
        <time>2019-08-30T09:57:06.000Z</time>
      </trkpt>
      <trkpt lat="50.6031" lon="5.23535">
        <ele>165</ele>
        <time>2019-08-30T09:57:07.000Z</time>
      </trkpt>
      <trkpt lat="50.60313" lon="5.23534">
        <ele>165.39999389648</ele>
        <time>2019-08-30T09:57:08.000Z</time>
      </trkpt>
      <trkpt lat="50.60338" lon="5.23529">
        <ele>165.39999389648</ele>
        <time>2019-08-30T09:57:16.000Z</time>
      </trkpt>
      <trkpt lat="50.6035" lon="5.23524">
        <ele>166</ele>
        <time>2019-08-30T09:57:20.000Z</time>
      </trkpt>
      <trkpt lat="50.60353" lon="5.23523">
        <ele>166.39999389648</ele>
        <time>2019-08-30T09:57:21.000Z</time>
      </trkpt>
      <trkpt lat="50.60356" lon="5.23522">
        <ele>166.80000305176</ele>
        <time>2019-08-30T09:57:22.000Z</time>
      </trkpt>
      <trkpt lat="50.60359" lon="5.2352">
        <ele>167.19999694824</ele>
        <time>2019-08-30T09:57:23.000Z</time>
      </trkpt>
      <trkpt lat="50.60362" lon="5.23519">
        <ele>167.60000610352</ele>
        <time>2019-08-30T09:57:24.000Z</time>
      </trkpt>
      <trkpt lat="50.60387" lon="5.23505">
        <ele>167.60000610352</ele>
        <time>2019-08-30T09:57:32.000Z</time>
      </trkpt>
      <trkpt lat="50.60408" lon="5.23492">
        <ele>167.60000610352</ele>
        <time>2019-08-30T09:57:39.000Z</time>
      </trkpt>
      <trkpt lat="50.60423" lon="5.23482">
        <ele>167.60000610352</ele>
        <time>2019-08-30T09:57:44.000Z</time>
      </trkpt>
      <trkpt lat="50.60441" lon="5.23472">
        <ele>167.60000610352</ele>
        <time>2019-08-30T09:57:49.000Z</time>
      </trkpt>
      <trkpt lat="50.60449" lon="5.23467">
        <ele>167.60000610352</ele>
        <time>2019-08-30T09:57:51.000Z</time>
      </trkpt>
      <trkpt lat="50.60462" lon="5.2346">
        <ele>167.60000610352</ele>
        <time>2019-08-30T09:57:54.000Z</time>
      </trkpt>
      <trkpt lat="50.60475" lon="5.23453">
        <ele>167.60000610352</ele>
        <time>2019-08-30T09:57:57.000Z</time>
      </trkpt>
      <trkpt lat="50.60489" lon="5.23444">
        <ele>167.60000610352</ele>
        <time>2019-08-30T09:58:00.000Z</time>
      </trkpt>
      <trkpt lat="50.60503" lon="5.23436">
        <ele>167.60000610352</ele>
        <time>2019-08-30T09:58:03.000Z</time>
      </trkpt>
      <trkpt lat="50.60519" lon="5.23428">
        <ele>167.19999694824</ele>
        <time>2019-08-30T09:58:06.000Z</time>
      </trkpt>
      <trkpt lat="50.60525" lon="5.23425">
        <ele>166.80000305176</ele>
        <time>2019-08-30T09:58:07.000Z</time>
      </trkpt>
      <trkpt lat="50.6053" lon="5.23422">
        <ele>166.39999389648</ele>
        <time>2019-08-30T09:58:08.000Z</time>
      </trkpt>
      <trkpt lat="50.60536" lon="5.23418">
        <ele>166</ele>
        <time>2019-08-30T09:58:09.000Z</time>
      </trkpt>
      <trkpt lat="50.60542" lon="5.23414">
        <ele>165.60000610352</ele>
        <time>2019-08-30T09:58:10.000Z</time>
      </trkpt>
      <trkpt lat="50.60573" lon="5.23396">
        <ele>165.60000610352</ele>
        <time>2019-08-30T09:58:15.000Z</time>
      </trkpt>
      <trkpt lat="50.60593" lon="5.23387">
        <ele>165</ele>
        <time>2019-08-30T09:58:18.000Z</time>
      </trkpt>
      <trkpt lat="50.606" lon="5.23385">
        <ele>164.19999694824</ele>
        <time>2019-08-30T09:58:19.000Z</time>
      </trkpt>
      <trkpt lat="50.60607" lon="5.23382">
        <ele>163.80000305176</ele>
        <time>2019-08-30T09:58:20.000Z</time>
      </trkpt>
      <trkpt lat="50.60614" lon="5.23379">
        <ele>163.39999389648</ele>
        <time>2019-08-30T09:58:21.000Z</time>
      </trkpt>
      <trkpt lat="50.60629" lon="5.23376">
        <ele>163</ele>
        <time>2019-08-30T09:58:23.000Z</time>
      </trkpt>
      <trkpt lat="50.60636" lon="5.23375">
        <ele>162.60000610352</ele>
        <time>2019-08-30T09:58:24.000Z</time>
      </trkpt>
      <trkpt lat="50.60643" lon="5.23373">
        <ele>162.19999694824</ele>
        <time>2019-08-30T09:58:25.000Z</time>
      </trkpt>
      <trkpt lat="50.60651" lon="5.23372">
        <ele>161.80000305176</ele>
        <time>2019-08-30T09:58:26.000Z</time>
      </trkpt>
      <trkpt lat="50.60658" lon="5.23371">
        <ele>161.39999389648</ele>
        <time>2019-08-30T09:58:27.000Z</time>
      </trkpt>
      <trkpt lat="50.60707" lon="5.23365">
        <ele>161</ele>
        <time>2019-08-30T09:58:34.000Z</time>
      </trkpt>
      <trkpt lat="50.60714" lon="5.23365">
        <ele>160.60000610352</ele>
        <time>2019-08-30T09:58:35.000Z</time>
      </trkpt>
      <trkpt lat="50.60719" lon="5.23364">
        <ele>160</ele>
        <time>2019-08-30T09:58:36.000Z</time>
      </trkpt>
      <trkpt lat="50.60724" lon="5.23363">
        <ele>159.60000610352</ele>
        <time>2019-08-30T09:58:37.000Z</time>
      </trkpt>
      <trkpt lat="50.6073" lon="5.23363">
        <ele>159.19999694824</ele>
        <time>2019-08-30T09:58:38.000Z</time>
      </trkpt>
      <trkpt lat="50.60735" lon="5.23363">
        <ele>159.19999694824</ele>
        <time>2019-08-30T09:58:39.000Z</time>
      </trkpt>
      <trkpt lat="50.60744" lon="5.23363">
        <ele>159.19999694824</ele>
        <time>2019-08-30T09:58:42.000Z</time>
      </trkpt>
      <trkpt lat="50.60747" lon="5.23363">
        <ele>159.19999694824</ele>
        <time>2019-08-30T09:58:44.000Z</time>
      </trkpt>
      <trkpt lat="50.60748" lon="5.23363">
        <ele>159.19999694824</ele>
        <time>2019-08-30T09:58:55.000Z</time>
      </trkpt>
      <trkpt lat="50.6075" lon="5.23363">
        <ele>159.19999694824</ele>
        <time>2019-08-30T09:58:56.000Z</time>
      </trkpt>
      <trkpt lat="50.6076" lon="5.23363">
        <ele>159.19999694824</ele>
        <time>2019-08-30T09:59:00.000Z</time>
      </trkpt>
      <trkpt lat="50.60763" lon="5.23363">
        <ele>159.19999694824</ele>
        <time>2019-08-30T09:59:01.000Z</time>
      </trkpt>
      <trkpt lat="50.60783" lon="5.23362">
        <ele>159.19999694824</ele>
        <time>2019-08-30T09:59:08.000Z</time>
      </trkpt>
      <trkpt lat="50.60793" lon="5.23361">
        <ele>159.19999694824</ele>
        <time>2019-08-30T09:59:14.000Z</time>
      </trkpt>
      <trkpt lat="50.60795" lon="5.23361">
        <ele>159.19999694824</ele>
        <time>2019-08-30T09:59:20.000Z</time>
      </trkpt>
      <trkpt lat="50.60799" lon="5.2336">
        <ele>159.19999694824</ele>
        <time>2019-08-30T09:59:22.000Z</time>
      </trkpt>
      <trkpt lat="50.60801" lon="5.23359">
        <ele>159.19999694824</ele>
        <time>2019-08-30T09:59:23.000Z</time>
      </trkpt>
      <trkpt lat="50.60809" lon="5.23361">
        <ele>159.19999694824</ele>
        <time>2019-08-30T09:59:26.000Z</time>
      </trkpt>
      <trkpt lat="50.60828" lon="5.23361">
        <ele>159.19999694824</ele>
        <time>2019-08-30T09:59:32.000Z</time>
      </trkpt>
      <trkpt lat="50.60831" lon="5.23361">
        <ele>159.19999694824</ele>
        <time>2019-08-30T09:59:33.000Z</time>
      </trkpt>
      <trkpt lat="50.60849" lon="5.23361">
        <ele>159.19999694824</ele>
        <time>2019-08-30T09:59:39.000Z</time>
      </trkpt>
      <trkpt lat="50.60868" lon="5.23361">
        <ele>159.19999694824</ele>
        <time>2019-08-30T09:59:45.000Z</time>
      </trkpt>
      <trkpt lat="50.60889" lon="5.23362">
        <ele>159.19999694824</ele>
        <time>2019-08-30T09:59:51.000Z</time>
      </trkpt>
      <trkpt lat="50.60908" lon="5.23362">
        <ele>159.60000610352</ele>
        <time>2019-08-30T09:59:57.000Z</time>
      </trkpt>
      <trkpt lat="50.60912" lon="5.23362">
        <ele>160</ele>
        <time>2019-08-30T09:59:58.000Z</time>
      </trkpt>
      <trkpt lat="50.60915" lon="5.23362">
        <ele>160.60000610352</ele>
        <time>2019-08-30T09:59:59.000Z</time>
      </trkpt>
      <trkpt lat="50.60918" lon="5.23362">
        <ele>161</ele>
        <time>2019-08-30T10:00:00.000Z</time>
      </trkpt>
      <trkpt lat="50.60921" lon="5.23362">
        <ele>161.39999389648</ele>
        <time>2019-08-30T10:00:01.000Z</time>
      </trkpt>
      <trkpt lat="50.60939" lon="5.23357">
        <ele>161.39999389648</ele>
        <time>2019-08-30T10:00:07.000Z</time>
      </trkpt>
      <trkpt lat="50.60959" lon="5.23356">
        <ele>161.39999389648</ele>
        <time>2019-08-30T10:00:13.000Z</time>
      </trkpt>
      <trkpt lat="50.60978" lon="5.23353">
        <ele>161.80000305176</ele>
        <time>2019-08-30T10:00:19.000Z</time>
      </trkpt>
      <trkpt lat="50.60981" lon="5.23352">
        <ele>162.19999694824</ele>
        <time>2019-08-30T10:00:20.000Z</time>
      </trkpt>
      <trkpt lat="50.60984" lon="5.23352">
        <ele>162.60000610352</ele>
        <time>2019-08-30T10:00:21.000Z</time>
      </trkpt>
      <trkpt lat="50.60987" lon="5.23352">
        <ele>163.60000610352</ele>
        <time>2019-08-30T10:00:22.000Z</time>
      </trkpt>
      <trkpt lat="50.60996" lon="5.23349">
        <ele>163.60000610352</ele>
        <time>2019-08-30T10:00:25.000Z</time>
      </trkpt>
      <trkpt lat="50.61016" lon="5.23346">
        <ele>163.60000610352</ele>
        <time>2019-08-30T10:00:31.000Z</time>
      </trkpt>
      <trkpt lat="50.61034" lon="5.23343">
        <ele>164</ele>
        <time>2019-08-30T10:00:37.000Z</time>
      </trkpt>
      <trkpt lat="50.61036" lon="5.23342">
        <ele>164.39999389648</ele>
        <time>2019-08-30T10:00:38.000Z</time>
      </trkpt>
      <trkpt lat="50.61039" lon="5.23342">
        <ele>164.80000305176</ele>
        <time>2019-08-30T10:00:39.000Z</time>
      </trkpt>
      <trkpt lat="50.61042" lon="5.23342">
        <ele>165.19999694824</ele>
        <time>2019-08-30T10:00:40.000Z</time>
      </trkpt>
      <trkpt lat="50.61045" lon="5.23341">
        <ele>165.60000610352</ele>
        <time>2019-08-30T10:00:41.000Z</time>
      </trkpt>
      <trkpt lat="50.61059" lon="5.23338">
        <ele>165.60000610352</ele>
        <time>2019-08-30T10:00:46.000Z</time>
      </trkpt>
      <trkpt lat="50.61072" lon="5.23337">
        <ele>165.60000610352</ele>
        <time>2019-08-30T10:00:51.000Z</time>
      </trkpt>
      <trkpt lat="50.61076" lon="5.23335">
        <ele>165.60000610352</ele>
        <time>2019-08-30T10:00:53.000Z</time>
      </trkpt>
      <trkpt lat="50.61076" lon="5.23335">
        <ele>165.60000610352</ele>
        <time>2019-08-30T10:00:55.000Z</time>
      </trkpt>
      <trkpt lat="50.61078" lon="5.23335">
        <ele>165.60000610352</ele>
        <time>2019-08-30T10:01:01.000Z</time>
      </trkpt>
      <trkpt lat="50.61082" lon="5.23334">
        <ele>165.60000610352</ele>
        <time>2019-08-30T10:01:03.000Z</time>
      </trkpt>
      <trkpt lat="50.61093" lon="5.23333">
        <ele>165.60000610352</ele>
        <time>2019-08-30T10:01:07.000Z</time>
      </trkpt>
      <trkpt lat="50.61096" lon="5.23332">
        <ele>165.60000610352</ele>
        <time>2019-08-30T10:01:08.000Z</time>
      </trkpt>
      <trkpt lat="50.61121" lon="5.23328">
        <ele>165.60000610352</ele>
        <time>2019-08-30T10:01:15.000Z</time>
      </trkpt>
      <trkpt lat="50.61141" lon="5.23325">
        <ele>165.60000610352</ele>
        <time>2019-08-30T10:01:20.000Z</time>
      </trkpt>
      <trkpt lat="50.61145" lon="5.23324">
        <ele>165.60000610352</ele>
        <time>2019-08-30T10:01:21.000Z</time>
      </trkpt>
      <trkpt lat="50.61164" lon="5.23321">
        <ele>165.60000610352</ele>
        <time>2019-08-30T10:01:25.000Z</time>
      </trkpt>
      <trkpt lat="50.61183" lon="5.23314">
        <ele>165.19999694824</ele>
        <time>2019-08-30T10:01:29.000Z</time>
      </trkpt>
      <trkpt lat="50.61188" lon="5.23313">
        <ele>164.80000305176</ele>
        <time>2019-08-30T10:01:30.000Z</time>
      </trkpt>
      <trkpt lat="50.61194" lon="5.2331">
        <ele>164.39999389648</ele>
        <time>2019-08-30T10:01:31.000Z</time>
      </trkpt>
      <trkpt lat="50.61199" lon="5.23307">
        <ele>164</ele>
        <time>2019-08-30T10:01:32.000Z</time>
      </trkpt>
      <trkpt lat="50.61204" lon="5.23305">
        <ele>163.60000610352</ele>
        <time>2019-08-30T10:01:33.000Z</time>
      </trkpt>
      <trkpt lat="50.61231" lon="5.23289">
        <ele>163.60000610352</ele>
        <time>2019-08-30T10:01:38.000Z</time>
      </trkpt>
      <trkpt lat="50.61248" lon="5.23278">
        <ele>163</ele>
        <time>2019-08-30T10:01:41.000Z</time>
      </trkpt>
      <trkpt lat="50.61253" lon="5.23274">
        <ele>162.60000610352</ele>
        <time>2019-08-30T10:01:42.000Z</time>
      </trkpt>
      <trkpt lat="50.61258" lon="5.23271">
        <ele>162.19999694824</ele>
        <time>2019-08-30T10:01:43.000Z</time>
      </trkpt>
      <trkpt lat="50.61262" lon="5.23269">
        <ele>161.80000305176</ele>
        <time>2019-08-30T10:01:44.000Z</time>
      </trkpt>
      <trkpt lat="50.61265" lon="5.23266">
        <ele>161.39999389648</ele>
        <time>2019-08-30T10:01:45.000Z</time>
      </trkpt>
      <trkpt lat="50.61272" lon="5.23261">
        <ele>161.39999389648</ele>
        <time>2019-08-30T10:01:49.000Z</time>
      </trkpt>
      <trkpt lat="50.61273" lon="5.23261">
        <ele>159.19999694824</ele>
        <time>2019-08-30T10:01:54.000Z</time>
      </trkpt>
      <trkpt lat="50.61278" lon="5.23255">
        <ele>159.19999694824</ele>
        <time>2019-08-30T10:01:57.000Z</time>
      </trkpt>
      <trkpt lat="50.61297" lon="5.23245">
        <ele>159.19999694824</ele>
        <time>2019-08-30T10:02:03.000Z</time>
      </trkpt>
      <trkpt lat="50.613" lon="5.23243">
        <ele>159.19999694824</ele>
        <time>2019-08-30T10:02:04.000Z</time>
      </trkpt>
      <trkpt lat="50.61307" lon="5.23236">
        <ele>159.19999694824</ele>
        <time>2019-08-30T10:02:07.000Z</time>
      </trkpt>
      <trkpt lat="50.61309" lon="5.23235">
        <ele>159.19999694824</ele>
        <time>2019-08-30T10:02:08.000Z</time>
      </trkpt>
      <trkpt lat="50.61317" lon="5.2323">
        <ele>159.19999694824</ele>
        <time>2019-08-30T10:02:11.000Z</time>
      </trkpt>
      <trkpt lat="50.61323" lon="5.23226">
        <ele>158.80000305176</ele>
        <time>2019-08-30T10:02:14.000Z</time>
      </trkpt>
      <trkpt lat="50.61324" lon="5.23225">
        <ele>158.39999389648</ele>
        <time>2019-08-30T10:02:15.000Z</time>
      </trkpt>
      <trkpt lat="50.61325" lon="5.23224">
        <ele>158</ele>
        <time>2019-08-30T10:02:16.000Z</time>
      </trkpt>
      <trkpt lat="50.61325" lon="5.23224">
        <ele>157.60000610352</ele>
        <time>2019-08-30T10:02:17.000Z</time>
      </trkpt>
      <trkpt lat="50.61326" lon="5.23223">
        <ele>157.19999694824</ele>
        <time>2019-08-30T10:02:23.000Z</time>
      </trkpt>
      <trkpt lat="50.61328" lon="5.23219">
        <ele>157.19999694824</ele>
        <time>2019-08-30T10:02:25.000Z</time>
      </trkpt>
      <trkpt lat="50.61341" lon="5.23208">
        <ele>157.19999694824</ele>
        <time>2019-08-30T10:02:30.000Z</time>
      </trkpt>
      <trkpt lat="50.61344" lon="5.23204">
        <ele>157.19999694824</ele>
        <time>2019-08-30T10:02:33.000Z</time>
      </trkpt>
      <trkpt lat="50.61346" lon="5.23202">
        <ele>157.19999694824</ele>
        <time>2019-08-30T10:02:38.000Z</time>
      </trkpt>
      <trkpt lat="50.6135" lon="5.23198">
        <ele>157.19999694824</ele>
        <time>2019-08-30T10:02:40.000Z</time>
      </trkpt>
      <trkpt lat="50.61356" lon="5.23184">
        <ele>157.19999694824</ele>
        <time>2019-08-30T10:02:44.000Z</time>
      </trkpt>
      <trkpt lat="50.61356" lon="5.23179">
        <ele>157.19999694824</ele>
        <time>2019-08-30T10:02:45.000Z</time>
      </trkpt>
      <trkpt lat="50.61353" lon="5.23169">
        <ele>157.19999694824</ele>
        <time>2019-08-30T10:02:48.000Z</time>
      </trkpt>
      <trkpt lat="50.61353" lon="5.23168">
        <ele>157.19999694824</ele>
        <time>2019-08-30T10:02:49.000Z</time>
      </trkpt>
      <trkpt lat="50.61352" lon="5.23168">
        <ele>157.19999694824</ele>
        <time>2019-08-30T10:02:56.000Z</time>
      </trkpt>
      <trkpt lat="50.6135" lon="5.23163">
        <ele>157.19999694824</ele>
        <time>2019-08-30T10:02:58.000Z</time>
      </trkpt>
      <trkpt lat="50.61345" lon="5.23146">
        <ele>157.19999694824</ele>
        <time>2019-08-30T10:03:05.000Z</time>
      </trkpt>
      <trkpt lat="50.61345" lon="5.23146">
        <ele>157.19999694824</ele>
        <time>2019-08-30T10:03:06.000Z</time>
      </trkpt>
      <trkpt lat="50.61345" lon="5.23142">
        <ele>157.19999694824</ele>
        <time>2019-08-30T10:03:10.000Z</time>
      </trkpt>
      <trkpt lat="50.61344" lon="5.23136">
        <ele>157.19999694824</ele>
        <time>2019-08-30T10:03:12.000Z</time>
      </trkpt>
      <trkpt lat="50.61345" lon="5.23119">
        <ele>157.19999694824</ele>
        <time>2019-08-30T10:03:16.000Z</time>
      </trkpt>
      <trkpt lat="50.61346" lon="5.23116">
        <ele>156.80000305176</ele>
        <time>2019-08-30T10:03:17.000Z</time>
      </trkpt>
      <trkpt lat="50.61347" lon="5.23116">
        <ele>156.39999389648</ele>
        <time>2019-08-30T10:03:18.000Z</time>
      </trkpt>
      <trkpt lat="50.61348" lon="5.23115">
        <ele>155</ele>
        <time>2019-08-30T10:03:23.000Z</time>
      </trkpt>
      <trkpt lat="50.61349" lon="5.23111">
        <ele>155</ele>
        <time>2019-08-30T10:03:24.000Z</time>
      </trkpt>
      <trkpt lat="50.61356" lon="5.2309">
        <ele>155</ele>
        <time>2019-08-30T10:03:28.000Z</time>
      </trkpt>
      <trkpt lat="50.61365" lon="5.23067">
        <ele>155</ele>
        <time>2019-08-30T10:03:31.000Z</time>
      </trkpt>
      <trkpt lat="50.61369" lon="5.23059">
        <ele>154.60000610352</ele>
        <time>2019-08-30T10:03:32.000Z</time>
      </trkpt>
      <trkpt lat="50.61374" lon="5.2305">
        <ele>154.19999694824</ele>
        <time>2019-08-30T10:03:33.000Z</time>
      </trkpt>
      <trkpt lat="50.61379" lon="5.23042">
        <ele>153.80000305176</ele>
        <time>2019-08-30T10:03:34.000Z</time>
      </trkpt>
      <trkpt lat="50.61385" lon="5.23035">
        <ele>153.19999694824</ele>
        <time>2019-08-30T10:03:35.000Z</time>
      </trkpt>
      <trkpt lat="50.61391" lon="5.23029">
        <ele>152.80000305176</ele>
        <time>2019-08-30T10:03:36.000Z</time>
      </trkpt>
      <trkpt lat="50.61405" lon="5.23017">
        <ele>152.39999389648</ele>
        <time>2019-08-30T10:03:38.000Z</time>
      </trkpt>
      <trkpt lat="50.61412" lon="5.2301">
        <ele>151.80000305176</ele>
        <time>2019-08-30T10:03:39.000Z</time>
      </trkpt>
      <trkpt lat="50.61419" lon="5.23003">
        <ele>151</ele>
        <time>2019-08-30T10:03:40.000Z</time>
      </trkpt>
      <trkpt lat="50.61426" lon="5.22997">
        <ele>150.39999389648</ele>
        <time>2019-08-30T10:03:41.000Z</time>
      </trkpt>
      <trkpt lat="50.61448" lon="5.22975">
        <ele>150</ele>
        <time>2019-08-30T10:03:44.000Z</time>
      </trkpt>
      <trkpt lat="50.61454" lon="5.22968">
        <ele>149.60000610352</ele>
        <time>2019-08-30T10:03:45.000Z</time>
      </trkpt>
      <trkpt lat="50.61461" lon="5.22959">
        <ele>149</ele>
        <time>2019-08-30T10:03:46.000Z</time>
      </trkpt>
      <trkpt lat="50.61467" lon="5.2295">
        <ele>148.60000610352</ele>
        <time>2019-08-30T10:03:47.000Z</time>
      </trkpt>
      <trkpt lat="50.61472" lon="5.22941">
        <ele>148.19999694824</ele>
        <time>2019-08-30T10:03:48.000Z</time>
      </trkpt>
      <trkpt lat="50.61478" lon="5.22931">
        <ele>148.19999694824</ele>
        <time>2019-08-30T10:03:49.000Z</time>
      </trkpt>
      <trkpt lat="50.61492" lon="5.22902">
        <ele>148.19999694824</ele>
        <time>2019-08-30T10:03:52.000Z</time>
      </trkpt>
      <trkpt lat="50.61496" lon="5.22881">
        <ele>148.19999694824</ele>
        <time>2019-08-30T10:03:54.000Z</time>
      </trkpt>
      <trkpt lat="50.61501" lon="5.22852">
        <ele>148.19999694824</ele>
        <time>2019-08-30T10:03:58.000Z</time>
      </trkpt>
      <trkpt lat="50.61501" lon="5.22834">
        <ele>148.19999694824</ele>
        <time>2019-08-30T10:04:02.000Z</time>
      </trkpt>
      <trkpt lat="50.61503" lon="5.22818">
        <ele>148.19999694824</ele>
        <time>2019-08-30T10:04:08.000Z</time>
      </trkpt>
      <trkpt lat="50.61502" lon="5.22802">
        <ele>148.60000610352</ele>
        <time>2019-08-30T10:04:13.000Z</time>
      </trkpt>
      <trkpt lat="50.61502" lon="5.22799">
        <ele>149</ele>
        <time>2019-08-30T10:04:14.000Z</time>
      </trkpt>
      <trkpt lat="50.61501" lon="5.22795">
        <ele>149.39999389648</ele>
        <time>2019-08-30T10:04:15.000Z</time>
      </trkpt>
      <trkpt lat="50.615" lon="5.22792">
        <ele>149.80000305176</ele>
        <time>2019-08-30T10:04:16.000Z</time>
      </trkpt>
      <trkpt lat="50.61499" lon="5.22789">
        <ele>150.19999694824</ele>
        <time>2019-08-30T10:04:17.000Z</time>
      </trkpt>
      <trkpt lat="50.61496" lon="5.22775">
        <ele>150.19999694824</ele>
        <time>2019-08-30T10:04:21.000Z</time>
      </trkpt>
      <trkpt lat="50.61493" lon="5.22766">
        <ele>150.60000610352</ele>
        <time>2019-08-30T10:04:24.000Z</time>
      </trkpt>
      <trkpt lat="50.61492" lon="5.22763">
        <ele>151</ele>
        <time>2019-08-30T10:04:25.000Z</time>
      </trkpt>
      <trkpt lat="50.61491" lon="5.2276">
        <ele>151.39999389648</ele>
        <time>2019-08-30T10:04:26.000Z</time>
      </trkpt>
      <trkpt lat="50.61491" lon="5.22758">
        <ele>151.80000305176</ele>
        <time>2019-08-30T10:04:27.000Z</time>
      </trkpt>
      <trkpt lat="50.6149" lon="5.22756">
        <ele>152.39999389648</ele>
        <time>2019-08-30T10:04:28.000Z</time>
      </trkpt>
      <trkpt lat="50.61486" lon="5.22741">
        <ele>152.39999389648</ele>
        <time>2019-08-30T10:04:35.000Z</time>
      </trkpt>
      <trkpt lat="50.61485" lon="5.22739">
        <ele>152.80000305176</ele>
        <time>2019-08-30T10:04:36.000Z</time>
      </trkpt>
      <trkpt lat="50.61484" lon="5.22737">
        <ele>153.19999694824</ele>
        <time>2019-08-30T10:04:37.000Z</time>
      </trkpt>
      <trkpt lat="50.61483" lon="5.22734">
        <ele>153.60000610352</ele>
        <time>2019-08-30T10:04:38.000Z</time>
      </trkpt>
      <trkpt lat="50.61482" lon="5.22731">
        <ele>154</ele>
        <time>2019-08-30T10:04:39.000Z</time>
      </trkpt>
      <trkpt lat="50.61481" lon="5.22728">
        <ele>154.39999389648</ele>
        <time>2019-08-30T10:04:40.000Z</time>
      </trkpt>
      <trkpt lat="50.6148" lon="5.22721">
        <ele>154.39999389648</ele>
        <time>2019-08-30T10:04:42.000Z</time>
      </trkpt>
      <trkpt lat="50.61478" lon="5.22709">
        <ele>154.80000305176</ele>
        <time>2019-08-30T10:04:45.000Z</time>
      </trkpt>
      <trkpt lat="50.61478" lon="5.22705">
        <ele>155.19999694824</ele>
        <time>2019-08-30T10:04:46.000Z</time>
      </trkpt>
      <trkpt lat="50.61477" lon="5.22701">
        <ele>155.60000610352</ele>
        <time>2019-08-30T10:04:47.000Z</time>
      </trkpt>
      <trkpt lat="50.61477" lon="5.22698">
        <ele>156</ele>
        <time>2019-08-30T10:04:48.000Z</time>
      </trkpt>
      <trkpt lat="50.61477" lon="5.22694">
        <ele>156.60000610352</ele>
        <time>2019-08-30T10:04:49.000Z</time>
      </trkpt>
      <trkpt lat="50.61476" lon="5.22684">
        <ele>156.60000610352</ele>
        <time>2019-08-30T10:04:52.000Z</time>
      </trkpt>
      <trkpt lat="50.61471" lon="5.2265">
        <ele>156.60000610352</ele>
        <time>2019-08-30T10:05:01.000Z</time>
      </trkpt>
      <trkpt lat="50.61471" lon="5.22644">
        <ele>157</ele>
        <time>2019-08-30T10:05:03.000Z</time>
      </trkpt>
      <trkpt lat="50.61471" lon="5.22641">
        <ele>157.39999389648</ele>
        <time>2019-08-30T10:05:04.000Z</time>
      </trkpt>
      <trkpt lat="50.61472" lon="5.22638">
        <ele>157.80000305176</ele>
        <time>2019-08-30T10:05:05.000Z</time>
      </trkpt>
      <trkpt lat="50.61472" lon="5.22637">
        <ele>158.19999694824</ele>
        <time>2019-08-30T10:05:06.000Z</time>
      </trkpt>
      <trkpt lat="50.61473" lon="5.22627">
        <ele>158.60000610352</ele>
        <time>2019-08-30T10:05:25.000Z</time>
      </trkpt>
      <trkpt lat="50.61476" lon="5.22611">
        <ele>158.60000610352</ele>
        <time>2019-08-30T10:05:30.000Z</time>
      </trkpt>
      <trkpt lat="50.61473" lon="5.2259">
        <ele>158.60000610352</ele>
        <time>2019-08-30T10:05:35.000Z</time>
      </trkpt>
      <trkpt lat="50.61473" lon="5.22587">
        <ele>159</ele>
        <time>2019-08-30T10:05:36.000Z</time>
      </trkpt>
      <trkpt lat="50.61472" lon="5.22583">
        <ele>159.39999389648</ele>
        <time>2019-08-30T10:05:37.000Z</time>
      </trkpt>
      <trkpt lat="50.61471" lon="5.22579">
        <ele>159.80000305176</ele>
        <time>2019-08-30T10:05:38.000Z</time>
      </trkpt>
      <trkpt lat="50.61471" lon="5.22576">
        <ele>160.19999694824</ele>
        <time>2019-08-30T10:05:39.000Z</time>
      </trkpt>
      <trkpt lat="50.6147" lon="5.22574">
        <ele>160.80000305176</ele>
        <time>2019-08-30T10:05:40.000Z</time>
      </trkpt>
      <trkpt lat="50.6147" lon="5.22574">
        <ele>160.80000305176</ele>
        <time>2019-08-30T10:05:41.000Z</time>
      </trkpt>
      <trkpt lat="50.6147" lon="5.22571">
        <ele>160.80000305176</ele>
        <time>2019-08-30T10:05:43.000Z</time>
      </trkpt>
      <trkpt lat="50.61469" lon="5.2257">
        <ele>160.80000305176</ele>
        <time>2019-08-30T10:05:45.000Z</time>
      </trkpt>
      <trkpt lat="50.61469" lon="5.22568">
        <ele>160.80000305176</ele>
        <time>2019-08-30T10:05:49.000Z</time>
      </trkpt>
      <trkpt lat="50.61466" lon="5.22546">
        <ele>160.80000305176</ele>
        <time>2019-08-30T10:05:55.000Z</time>
      </trkpt>
      <trkpt lat="50.61466" lon="5.22525">
        <ele>160.80000305176</ele>
        <time>2019-08-30T10:06:00.000Z</time>
      </trkpt>
      <trkpt lat="50.61469" lon="5.22495">
        <ele>160.80000305176</ele>
        <time>2019-08-30T10:06:07.000Z</time>
      </trkpt>
      <trkpt lat="50.61474" lon="5.22458">
        <ele>160.80000305176</ele>
        <time>2019-08-30T10:06:16.000Z</time>
      </trkpt>
      <trkpt lat="50.61477" lon="5.22432">
        <ele>161.19999694824</ele>
        <time>2019-08-30T10:06:22.000Z</time>
      </trkpt>
      <trkpt lat="50.61477" lon="5.22429">
        <ele>161.60000610352</ele>
        <time>2019-08-30T10:06:23.000Z</time>
      </trkpt>
      <trkpt lat="50.61478" lon="5.22425">
        <ele>162</ele>
        <time>2019-08-30T10:06:24.000Z</time>
      </trkpt>
      <trkpt lat="50.61478" lon="5.22421">
        <ele>162.39999389648</ele>
        <time>2019-08-30T10:06:25.000Z</time>
      </trkpt>
      <trkpt lat="50.61478" lon="5.22417">
        <ele>162.80000305176</ele>
        <time>2019-08-30T10:06:26.000Z</time>
      </trkpt>
      <trkpt lat="50.61482" lon="5.22392">
        <ele>162.80000305176</ele>
        <time>2019-08-30T10:06:32.000Z</time>
      </trkpt>
      <trkpt lat="50.61488" lon="5.22362">
        <ele>162.80000305176</ele>
        <time>2019-08-30T10:06:39.000Z</time>
      </trkpt>
      <trkpt lat="50.61495" lon="5.22339">
        <ele>163.19999694824</ele>
        <time>2019-08-30T10:06:45.000Z</time>
      </trkpt>
      <trkpt lat="50.61497" lon="5.22335">
        <ele>163.60000610352</ele>
        <time>2019-08-30T10:06:46.000Z</time>
      </trkpt>
      <trkpt lat="50.61498" lon="5.22331">
        <ele>164</ele>
        <time>2019-08-30T10:06:47.000Z</time>
      </trkpt>
      <trkpt lat="50.61499" lon="5.22326">
        <ele>164.39999389648</ele>
        <time>2019-08-30T10:06:48.000Z</time>
      </trkpt>
      <trkpt lat="50.615" lon="5.22322">
        <ele>164.80000305176</ele>
        <time>2019-08-30T10:06:49.000Z</time>
      </trkpt>
      <trkpt lat="50.61504" lon="5.22311">
        <ele>164.80000305176</ele>
        <time>2019-08-30T10:06:52.000Z</time>
      </trkpt>
      <trkpt lat="50.61516" lon="5.22276">
        <ele>164.80000305176</ele>
        <time>2019-08-30T10:07:01.000Z</time>
      </trkpt>
      <trkpt lat="50.61526" lon="5.22249">
        <ele>164.80000305176</ele>
        <time>2019-08-30T10:07:08.000Z</time>
      </trkpt>
      <trkpt lat="50.61534" lon="5.22225">
        <ele>165.19999694824</ele>
        <time>2019-08-30T10:07:14.000Z</time>
      </trkpt>
      <trkpt lat="50.61535" lon="5.22221">
        <ele>165.60000610352</ele>
        <time>2019-08-30T10:07:15.000Z</time>
      </trkpt>
      <trkpt lat="50.61536" lon="5.22217">
        <ele>166</ele>
        <time>2019-08-30T10:07:16.000Z</time>
      </trkpt>
      <trkpt lat="50.61538" lon="5.22213">
        <ele>166.39999389648</ele>
        <time>2019-08-30T10:07:17.000Z</time>
      </trkpt>
      <trkpt lat="50.61539" lon="5.22209">
        <ele>166.80000305176</ele>
        <time>2019-08-30T10:07:18.000Z</time>
      </trkpt>
      <trkpt lat="50.61548" lon="5.22185">
        <ele>166.80000305176</ele>
        <time>2019-08-30T10:07:24.000Z</time>
      </trkpt>
      <trkpt lat="50.61556" lon="5.22156">
        <ele>166.80000305176</ele>
        <time>2019-08-30T10:07:31.000Z</time>
      </trkpt>
      <trkpt lat="50.61566" lon="5.22123">
        <ele>166.80000305176</ele>
        <time>2019-08-30T10:07:39.000Z</time>
      </trkpt>
      <trkpt lat="50.61575" lon="5.22092">
        <ele>166.80000305176</ele>
        <time>2019-08-30T10:07:46.000Z</time>
      </trkpt>
      <trkpt lat="50.61584" lon="5.22068">
        <ele>166.80000305176</ele>
        <time>2019-08-30T10:07:51.000Z</time>
      </trkpt>
      <trkpt lat="50.61594" lon="5.22029">
        <ele>166.80000305176</ele>
        <time>2019-08-30T10:07:57.000Z</time>
      </trkpt>
      <trkpt lat="50.61603" lon="5.21983">
        <ele>166.80000305176</ele>
        <time>2019-08-30T10:08:03.000Z</time>
      </trkpt>
      <trkpt lat="50.61616" lon="5.2191">
        <ele>166.80000305176</ele>
        <time>2019-08-30T10:08:12.000Z</time>
      </trkpt>
      <trkpt lat="50.61626" lon="5.21862">
        <ele>166.80000305176</ele>
        <time>2019-08-30T10:08:18.000Z</time>
      </trkpt>
      <trkpt lat="50.61629" lon="5.21854">
        <ele>166.80000305176</ele>
        <time>2019-08-30T10:08:19.000Z</time>
      </trkpt>
      <trkpt lat="50.61631" lon="5.21847">
        <ele>166.39999389648</ele>
        <time>2019-08-30T10:08:20.000Z</time>
      </trkpt>
      <trkpt lat="50.61633" lon="5.21839">
        <ele>166</ele>
        <time>2019-08-30T10:08:21.000Z</time>
      </trkpt>
      <trkpt lat="50.61635" lon="5.21831">
        <ele>165.60000610352</ele>
        <time>2019-08-30T10:08:22.000Z</time>
      </trkpt>
      <trkpt lat="50.61638" lon="5.21823">
        <ele>165.19999694824</ele>
        <time>2019-08-30T10:08:23.000Z</time>
      </trkpt>
      <trkpt lat="50.6164" lon="5.21815">
        <ele>164.80000305176</ele>
        <time>2019-08-30T10:08:24.000Z</time>
      </trkpt>
      <trkpt lat="50.61646" lon="5.21792">
        <ele>164.80000305176</ele>
        <time>2019-08-30T10:08:27.000Z</time>
      </trkpt>
      <trkpt lat="50.61648" lon="5.21784">
        <ele>164.80000305176</ele>
        <time>2019-08-30T10:08:28.000Z</time>
      </trkpt>
      <trkpt lat="50.61652" lon="5.21769">
        <ele>164.39999389648</ele>
        <time>2019-08-30T10:08:30.000Z</time>
      </trkpt>
      <trkpt lat="50.61653" lon="5.21761">
        <ele>163.80000305176</ele>
        <time>2019-08-30T10:08:31.000Z</time>
      </trkpt>
      <trkpt lat="50.61655" lon="5.21753">
        <ele>163.39999389648</ele>
        <time>2019-08-30T10:08:32.000Z</time>
      </trkpt>
      <trkpt lat="50.61656" lon="5.21745">
        <ele>163</ele>
        <time>2019-08-30T10:08:33.000Z</time>
      </trkpt>
      <trkpt lat="50.61657" lon="5.21737">
        <ele>162.60000610352</ele>
        <time>2019-08-30T10:08:34.000Z</time>
      </trkpt>
      <trkpt lat="50.61661" lon="5.21693">
        <ele>162.60000610352</ele>
        <time>2019-08-30T10:08:39.000Z</time>
      </trkpt>
      <trkpt lat="50.61664" lon="5.21654">
        <ele>162.19999694824</ele>
        <time>2019-08-30T10:08:43.000Z</time>
      </trkpt>
      <trkpt lat="50.61665" lon="5.21644">
        <ele>161.80000305176</ele>
        <time>2019-08-30T10:08:44.000Z</time>
      </trkpt>
      <trkpt lat="50.61666" lon="5.21634">
        <ele>161.39999389648</ele>
        <time>2019-08-30T10:08:45.000Z</time>
      </trkpt>
      <trkpt lat="50.61667" lon="5.21623">
        <ele>161</ele>
        <time>2019-08-30T10:08:46.000Z</time>
      </trkpt>
      <trkpt lat="50.61668" lon="5.21613">
        <ele>160.60000610352</ele>
        <time>2019-08-30T10:08:47.000Z</time>
      </trkpt>
      <trkpt lat="50.61675" lon="5.21544">
        <ele>160</ele>
        <time>2019-08-30T10:08:53.000Z</time>
      </trkpt>
      <trkpt lat="50.61676" lon="5.21532">
        <ele>159.60000610352</ele>
        <time>2019-08-30T10:08:54.000Z</time>
      </trkpt>
      <trkpt lat="50.61678" lon="5.2152">
        <ele>159.19999694824</ele>
        <time>2019-08-30T10:08:55.000Z</time>
      </trkpt>
      <trkpt lat="50.6168" lon="5.21508">
        <ele>158.60000610352</ele>
        <time>2019-08-30T10:08:56.000Z</time>
      </trkpt>
      <trkpt lat="50.61681" lon="5.21495">
        <ele>158.19999694824</ele>
        <time>2019-08-30T10:08:57.000Z</time>
      </trkpt>
      <trkpt lat="50.61681" lon="5.21482">
        <ele>158.19999694824</ele>
        <time>2019-08-30T10:08:58.000Z</time>
      </trkpt>
      <trkpt lat="50.61683" lon="5.21444">
        <ele>157.80000305176</ele>
        <time>2019-08-30T10:09:01.000Z</time>
      </trkpt>
      <trkpt lat="50.61683" lon="5.21431">
        <ele>156.80000305176</ele>
        <time>2019-08-30T10:09:02.000Z</time>
      </trkpt>
      <trkpt lat="50.61683" lon="5.21418">
        <ele>156.39999389648</ele>
        <time>2019-08-30T10:09:03.000Z</time>
      </trkpt>
      <trkpt lat="50.61683" lon="5.21404">
        <ele>156</ele>
        <time>2019-08-30T10:09:04.000Z</time>
      </trkpt>
      <trkpt lat="50.61684" lon="5.21378">
        <ele>155.60000610352</ele>
        <time>2019-08-30T10:09:06.000Z</time>
      </trkpt>
      <trkpt lat="50.61684" lon="5.21364">
        <ele>155.19999694824</ele>
        <time>2019-08-30T10:09:07.000Z</time>
      </trkpt>
      <trkpt lat="50.61684" lon="5.21352">
        <ele>154.60000610352</ele>
        <time>2019-08-30T10:09:08.000Z</time>
      </trkpt>
      <trkpt lat="50.61685" lon="5.21339">
        <ele>154.19999694824</ele>
        <time>2019-08-30T10:09:09.000Z</time>
      </trkpt>
      <trkpt lat="50.61687" lon="5.21326">
        <ele>153.80000305176</ele>
        <time>2019-08-30T10:09:10.000Z</time>
      </trkpt>
      <trkpt lat="50.6169" lon="5.21299">
        <ele>153.39999389648</ele>
        <time>2019-08-30T10:09:12.000Z</time>
      </trkpt>
      <trkpt lat="50.61691" lon="5.21285">
        <ele>153</ele>
        <time>2019-08-30T10:09:13.000Z</time>
      </trkpt>
      <trkpt lat="50.61693" lon="5.21272">
        <ele>152.60000610352</ele>
        <time>2019-08-30T10:09:14.000Z</time>
      </trkpt>
      <trkpt lat="50.61695" lon="5.21259">
        <ele>152.19999694824</ele>
        <time>2019-08-30T10:09:15.000Z</time>
      </trkpt>
      <trkpt lat="50.61696" lon="5.21247">
        <ele>151.80000305176</ele>
        <time>2019-08-30T10:09:16.000Z</time>
      </trkpt>
      <trkpt lat="50.61703" lon="5.21196">
        <ele>151.80000305176</ele>
        <time>2019-08-30T10:09:20.000Z</time>
      </trkpt>
      <trkpt lat="50.61705" lon="5.21183">
        <ele>151.19999694824</ele>
        <time>2019-08-30T10:09:21.000Z</time>
      </trkpt>
      <trkpt lat="50.61708" lon="5.21171">
        <ele>150.80000305176</ele>
        <time>2019-08-30T10:09:22.000Z</time>
      </trkpt>
      <trkpt lat="50.6171" lon="5.2116">
        <ele>150.39999389648</ele>
        <time>2019-08-30T10:09:23.000Z</time>
      </trkpt>
      <trkpt lat="50.61713" lon="5.21148">
        <ele>150</ele>
        <time>2019-08-30T10:09:24.000Z</time>
      </trkpt>
      <trkpt lat="50.61717" lon="5.21137">
        <ele>149.60000610352</ele>
        <time>2019-08-30T10:09:25.000Z</time>
      </trkpt>
      <trkpt lat="50.61724" lon="5.21112">
        <ele>149.60000610352</ele>
        <time>2019-08-30T10:09:27.000Z</time>
      </trkpt>
      <trkpt lat="50.61731" lon="5.21087">
        <ele>149</ele>
        <time>2019-08-30T10:09:29.000Z</time>
      </trkpt>
      <trkpt lat="50.61734" lon="5.21075">
        <ele>148.60000610352</ele>
        <time>2019-08-30T10:09:30.000Z</time>
      </trkpt>
      <trkpt lat="50.61737" lon="5.21063">
        <ele>148</ele>
        <time>2019-08-30T10:09:31.000Z</time>
      </trkpt>
      <trkpt lat="50.61741" lon="5.21052">
        <ele>147.60000610352</ele>
        <time>2019-08-30T10:09:32.000Z</time>
      </trkpt>
      <trkpt lat="50.61744" lon="5.2104">
        <ele>147</ele>
        <time>2019-08-30T10:09:33.000Z</time>
      </trkpt>
      <trkpt lat="50.61748" lon="5.2103">
        <ele>146.19999694824</ele>
        <time>2019-08-30T10:09:34.000Z</time>
      </trkpt>
      <trkpt lat="50.6175" lon="5.2102">
        <ele>145.60000610352</ele>
        <time>2019-08-30T10:09:35.000Z</time>
      </trkpt>
      <trkpt lat="50.61753" lon="5.21012">
        <ele>145</ele>
        <time>2019-08-30T10:09:36.000Z</time>
      </trkpt>
      <trkpt lat="50.61755" lon="5.21005">
        <ele>144.19999694824</ele>
        <time>2019-08-30T10:09:37.000Z</time>
      </trkpt>
      <trkpt lat="50.61757" lon="5.20997">
        <ele>144.19999694824</ele>
        <time>2019-08-30T10:09:38.000Z</time>
      </trkpt>
      <trkpt lat="50.61758" lon="5.20991">
        <ele>143.80000305176</ele>
        <time>2019-08-30T10:09:39.000Z</time>
      </trkpt>
      <trkpt lat="50.6176" lon="5.20984">
        <ele>143.39999389648</ele>
        <time>2019-08-30T10:09:40.000Z</time>
      </trkpt>
      <trkpt lat="50.61761" lon="5.20979">
        <ele>143</ele>
        <time>2019-08-30T10:09:41.000Z</time>
      </trkpt>
      <trkpt lat="50.61762" lon="5.20977">
        <ele>142.60000610352</ele>
        <time>2019-08-30T10:09:42.000Z</time>
      </trkpt>
      <trkpt lat="50.61762" lon="5.20977">
        <ele>142.19999694824</ele>
        <time>2019-08-30T10:09:43.000Z</time>
      </trkpt>
      <trkpt lat="50.61762" lon="5.20975">
        <ele>142.19999694824</ele>
        <time>2019-08-30T10:09:51.000Z</time>
      </trkpt>
      <trkpt lat="50.61763" lon="5.20966">
        <ele>142.19999694824</ele>
        <time>2019-08-30T10:09:54.000Z</time>
      </trkpt>
      <trkpt lat="50.61768" lon="5.2095">
        <ele>142.19999694824</ele>
        <time>2019-08-30T10:09:59.000Z</time>
      </trkpt>
      <trkpt lat="50.6177" lon="5.20948">
        <ele>142.19999694824</ele>
        <time>2019-08-30T10:10:00.000Z</time>
      </trkpt>
      <trkpt lat="50.61771" lon="5.20947">
        <ele>141.80000305176</ele>
        <time>2019-08-30T10:10:01.000Z</time>
      </trkpt>
      <trkpt lat="50.61772" lon="5.20946">
        <ele>141.39999389648</ele>
        <time>2019-08-30T10:10:02.000Z</time>
      </trkpt>
      <trkpt lat="50.61771" lon="5.20946">
        <ele>141</ele>
        <time>2019-08-30T10:10:03.000Z</time>
      </trkpt>
      <trkpt lat="50.61772" lon="5.20943">
        <ele>140.19999694824</ele>
        <time>2019-08-30T10:10:11.000Z</time>
      </trkpt>
      <trkpt lat="50.61773" lon="5.20941">
        <ele>140.19999694824</ele>
        <time>2019-08-30T10:10:12.000Z</time>
      </trkpt>
      <trkpt lat="50.61776" lon="5.20947">
        <ele>140.19999694824</ele>
        <time>2019-08-30T10:10:17.000Z</time>
      </trkpt>
      <trkpt lat="50.61776" lon="5.20947">
        <ele>140.19999694824</ele>
        <time>2019-08-30T10:10:18.000Z</time>
      </trkpt>
      <trkpt lat="50.61777" lon="5.20949">
        <ele>140.19999694824</ele>
        <time>2019-08-30T10:10:24.000Z</time>
      </trkpt>
      <trkpt lat="50.61778" lon="5.20951">
        <ele>140.19999694824</ele>
        <time>2019-08-30T10:10:25.000Z</time>
      </trkpt>
      <trkpt lat="50.61786" lon="5.20964">
        <ele>140.19999694824</ele>
        <time>2019-08-30T10:10:30.000Z</time>
      </trkpt>
      <trkpt lat="50.61789" lon="5.20969">
        <ele>140.19999694824</ele>
        <time>2019-08-30T10:10:32.000Z</time>
      </trkpt>
      <trkpt lat="50.61793" lon="5.20975">
        <ele>140.19999694824</ele>
        <time>2019-08-30T10:10:34.000Z</time>
      </trkpt>
      <trkpt lat="50.61807" lon="5.20997">
        <ele>140.19999694824</ele>
        <time>2019-08-30T10:10:41.000Z</time>
      </trkpt>
      <trkpt lat="50.6182" lon="5.21016">
        <ele>140.19999694824</ele>
        <time>2019-08-30T10:10:47.000Z</time>
      </trkpt>
      <trkpt lat="50.61839" lon="5.21047">
        <ele>140.19999694824</ele>
        <time>2019-08-30T10:10:56.000Z</time>
      </trkpt>
      <trkpt lat="50.61855" lon="5.21072">
        <ele>140.19999694824</ele>
        <time>2019-08-30T10:11:04.000Z</time>
      </trkpt>
      <trkpt lat="50.61857" lon="5.21076">
        <ele>140.19999694824</ele>
        <time>2019-08-30T10:11:07.000Z</time>
      </trkpt>
      <trkpt lat="50.6186" lon="5.21078">
        <ele>140.19999694824</ele>
        <time>2019-08-30T10:11:15.000Z</time>
      </trkpt>
      <trkpt lat="50.61866" lon="5.21087">
        <ele>140.19999694824</ele>
        <time>2019-08-30T10:11:19.000Z</time>
      </trkpt>
      <trkpt lat="50.61868" lon="5.21089">
        <ele>140.19999694824</ele>
        <time>2019-08-30T10:11:20.000Z</time>
      </trkpt>
      <trkpt lat="50.61876" lon="5.211">
        <ele>140.19999694824</ele>
        <time>2019-08-30T10:11:25.000Z</time>
      </trkpt>
      <trkpt lat="50.61877" lon="5.211">
        <ele>140.19999694824</ele>
        <time>2019-08-30T10:11:27.000Z</time>
      </trkpt>
      <trkpt lat="50.6188" lon="5.21102">
        <ele>140.19999694824</ele>
        <time>2019-08-30T10:11:32.000Z</time>
      </trkpt>
      <trkpt lat="50.61888" lon="5.21101">
        <ele>140.19999694824</ele>
        <time>2019-08-30T10:11:36.000Z</time>
      </trkpt>
      <trkpt lat="50.6189" lon="5.21101">
        <ele>140.19999694824</ele>
        <time>2019-08-30T10:11:37.000Z</time>
      </trkpt>
      <trkpt lat="50.61896" lon="5.21098">
        <ele>140.19999694824</ele>
        <time>2019-08-30T10:11:42.000Z</time>
      </trkpt>
      <trkpt lat="50.61897" lon="5.21096">
        <ele>140.19999694824</ele>
        <time>2019-08-30T10:11:46.000Z</time>
      </trkpt>
      <trkpt lat="50.61902" lon="5.21091">
        <ele>140.19999694824</ele>
        <time>2019-08-30T10:11:49.000Z</time>
      </trkpt>
      <trkpt lat="50.61914" lon="5.2108">
        <ele>140.19999694824</ele>
        <time>2019-08-30T10:11:54.000Z</time>
      </trkpt>
      <trkpt lat="50.61931" lon="5.21067">
        <ele>140.19999694824</ele>
        <time>2019-08-30T10:12:01.000Z</time>
      </trkpt>
      <trkpt lat="50.61934" lon="5.21065">
        <ele>140.60000610352</ele>
        <time>2019-08-30T10:12:02.000Z</time>
      </trkpt>
      <trkpt lat="50.61936" lon="5.21063">
        <ele>141</ele>
        <time>2019-08-30T10:12:03.000Z</time>
      </trkpt>
      <trkpt lat="50.61939" lon="5.21061">
        <ele>141.39999389648</ele>
        <time>2019-08-30T10:12:04.000Z</time>
      </trkpt>
      <trkpt lat="50.61941" lon="5.21059">
        <ele>141.80000305176</ele>
        <time>2019-08-30T10:12:05.000Z</time>
      </trkpt>
      <trkpt lat="50.61944" lon="5.21057">
        <ele>142.19999694824</ele>
        <time>2019-08-30T10:12:06.000Z</time>
      </trkpt>
      <trkpt lat="50.61948" lon="5.21052">
        <ele>142.19999694824</ele>
        <time>2019-08-30T10:12:08.000Z</time>
      </trkpt>
      <trkpt lat="50.61963" lon="5.21041">
        <ele>142.19999694824</ele>
        <time>2019-08-30T10:12:14.000Z</time>
      </trkpt>
      <trkpt lat="50.61979" lon="5.21023">
        <ele>142.19999694824</ele>
        <time>2019-08-30T10:12:21.000Z</time>
      </trkpt>
      <trkpt lat="50.61985" lon="5.21016">
        <ele>142.60000610352</ele>
        <time>2019-08-30T10:12:24.000Z</time>
      </trkpt>
      <trkpt lat="50.61987" lon="5.21013">
        <ele>143</ele>
        <time>2019-08-30T10:12:25.000Z</time>
      </trkpt>
      <trkpt lat="50.61989" lon="5.2101">
        <ele>143.39999389648</ele>
        <time>2019-08-30T10:12:26.000Z</time>
      </trkpt>
      <trkpt lat="50.61991" lon="5.21007">
        <ele>143.80000305176</ele>
        <time>2019-08-30T10:12:27.000Z</time>
      </trkpt>
      <trkpt lat="50.61993" lon="5.21004">
        <ele>144.19999694824</ele>
        <time>2019-08-30T10:12:28.000Z</time>
      </trkpt>
      <trkpt lat="50.62003" lon="5.20991">
        <ele>144.19999694824</ele>
        <time>2019-08-30T10:12:33.000Z</time>
      </trkpt>
      <trkpt lat="50.62007" lon="5.20987">
        <ele>144.19999694824</ele>
        <time>2019-08-30T10:12:35.000Z</time>
      </trkpt>
      <trkpt lat="50.62013" lon="5.20978">
        <ele>144.19999694824</ele>
        <time>2019-08-30T10:12:38.000Z</time>
      </trkpt>
      <trkpt lat="50.62018" lon="5.20974">
        <ele>144.19999694824</ele>
        <time>2019-08-30T10:12:40.000Z</time>
      </trkpt>
      <trkpt lat="50.62024" lon="5.20966">
        <ele>144.19999694824</ele>
        <time>2019-08-30T10:12:44.000Z</time>
      </trkpt>
      <trkpt lat="50.62023" lon="5.20966">
        <ele>144.19999694824</ele>
        <time>2019-08-30T10:12:45.000Z</time>
      </trkpt>
      <trkpt lat="50.62024" lon="5.20965">
        <ele>144.19999694824</ele>
        <time>2019-08-30T10:12:58.000Z</time>
      </trkpt>
      <trkpt lat="50.62025" lon="5.20964">
        <ele>144.19999694824</ele>
        <time>2019-08-30T10:12:59.000Z</time>
      </trkpt>
      <trkpt lat="50.62026" lon="5.20962">
        <ele>144.60000610352</ele>
        <time>2019-08-30T10:13:00.000Z</time>
      </trkpt>
      <trkpt lat="50.62028" lon="5.2096">
        <ele>145</ele>
        <time>2019-08-30T10:13:01.000Z</time>
      </trkpt>
      <trkpt lat="50.62029" lon="5.20958">
        <ele>145.60000610352</ele>
        <time>2019-08-30T10:13:02.000Z</time>
      </trkpt>
      <trkpt lat="50.62031" lon="5.20955">
        <ele>146</ele>
        <time>2019-08-30T10:13:03.000Z</time>
      </trkpt>
      <trkpt lat="50.62032" lon="5.20953">
        <ele>146.39999389648</ele>
        <time>2019-08-30T10:13:04.000Z</time>
      </trkpt>
      <trkpt lat="50.62035" lon="5.20951">
        <ele>146.39999389648</ele>
        <time>2019-08-30T10:13:05.000Z</time>
      </trkpt>
      <trkpt lat="50.62046" lon="5.20937">
        <ele>146.39999389648</ele>
        <time>2019-08-30T10:13:11.000Z</time>
      </trkpt>
      <trkpt lat="50.62058" lon="5.20922">
        <ele>146.39999389648</ele>
        <time>2019-08-30T10:13:17.000Z</time>
      </trkpt>
      <trkpt lat="50.6206" lon="5.20919">
        <ele>146.80000305176</ele>
        <time>2019-08-30T10:13:18.000Z</time>
      </trkpt>
      <trkpt lat="50.62061" lon="5.20917">
        <ele>147.19999694824</ele>
        <time>2019-08-30T10:13:19.000Z</time>
      </trkpt>
      <trkpt lat="50.62063" lon="5.20915">
        <ele>147.60000610352</ele>
        <time>2019-08-30T10:13:20.000Z</time>
      </trkpt>
      <trkpt lat="50.62065" lon="5.20912">
        <ele>148</ele>
        <time>2019-08-30T10:13:21.000Z</time>
      </trkpt>
      <trkpt lat="50.62067" lon="5.2091">
        <ele>148.39999389648</ele>
        <time>2019-08-30T10:13:22.000Z</time>
      </trkpt>
      <trkpt lat="50.62072" lon="5.20903">
        <ele>148.39999389648</ele>
        <time>2019-08-30T10:13:25.000Z</time>
      </trkpt>
      <trkpt lat="50.62088" lon="5.20884">
        <ele>148.39999389648</ele>
        <time>2019-08-30T10:13:33.000Z</time>
      </trkpt>
      <trkpt lat="50.62093" lon="5.2088">
        <ele>148.80000305176</ele>
        <time>2019-08-30T10:13:35.000Z</time>
      </trkpt>
      <trkpt lat="50.62095" lon="5.20879">
        <ele>149.19999694824</ele>
        <time>2019-08-30T10:13:36.000Z</time>
      </trkpt>
      <trkpt lat="50.62098" lon="5.20878">
        <ele>149.60000610352</ele>
        <time>2019-08-30T10:13:37.000Z</time>
      </trkpt>
      <trkpt lat="50.621" lon="5.20876">
        <ele>150</ele>
        <time>2019-08-30T10:13:38.000Z</time>
      </trkpt>
      <trkpt lat="50.62103" lon="5.20875">
        <ele>150.39999389648</ele>
        <time>2019-08-30T10:13:39.000Z</time>
      </trkpt>
      <trkpt lat="50.62105" lon="5.20875">
        <ele>150.39999389648</ele>
        <time>2019-08-30T10:13:40.000Z</time>
      </trkpt>
      <trkpt lat="50.62119" lon="5.20871">
        <ele>150.39999389648</ele>
        <time>2019-08-30T10:13:46.000Z</time>
      </trkpt>
      <trkpt lat="50.62135" lon="5.20873">
        <ele>150.80000305176</ele>
        <time>2019-08-30T10:13:52.000Z</time>
      </trkpt>
      <trkpt lat="50.62138" lon="5.20874">
        <ele>151.19999694824</ele>
        <time>2019-08-30T10:13:53.000Z</time>
      </trkpt>
      <trkpt lat="50.6214" lon="5.20874">
        <ele>151.60000610352</ele>
        <time>2019-08-30T10:13:54.000Z</time>
      </trkpt>
      <trkpt lat="50.62143" lon="5.20874">
        <ele>152</ele>
        <time>2019-08-30T10:13:55.000Z</time>
      </trkpt>
      <trkpt lat="50.62146" lon="5.20874">
        <ele>152.39999389648</ele>
        <time>2019-08-30T10:13:56.000Z</time>
      </trkpt>
      <trkpt lat="50.62151" lon="5.20872">
        <ele>152.39999389648</ele>
        <time>2019-08-30T10:13:58.000Z</time>
      </trkpt>
      <trkpt lat="50.62166" lon="5.20874">
        <ele>152.39999389648</ele>
        <time>2019-08-30T10:14:04.000Z</time>
      </trkpt>
      <trkpt lat="50.62184" lon="5.20876">
        <ele>152.39999389648</ele>
        <time>2019-08-30T10:14:11.000Z</time>
      </trkpt>
      <trkpt lat="50.62187" lon="5.20876">
        <ele>152.80000305176</ele>
        <time>2019-08-30T10:14:12.000Z</time>
      </trkpt>
      <trkpt lat="50.62189" lon="5.20876">
        <ele>153.39999389648</ele>
        <time>2019-08-30T10:14:13.000Z</time>
      </trkpt>
      <trkpt lat="50.62192" lon="5.20876">
        <ele>153.80000305176</ele>
        <time>2019-08-30T10:14:14.000Z</time>
      </trkpt>
      <trkpt lat="50.62194" lon="5.20877">
        <ele>154.19999694824</ele>
        <time>2019-08-30T10:14:15.000Z</time>
      </trkpt>
      <trkpt lat="50.62197" lon="5.20877">
        <ele>154.60000610352</ele>
        <time>2019-08-30T10:14:16.000Z</time>
      </trkpt>
      <trkpt lat="50.62202" lon="5.20877">
        <ele>154.60000610352</ele>
        <time>2019-08-30T10:14:18.000Z</time>
      </trkpt>
      <trkpt lat="50.62216" lon="5.20878">
        <ele>154.60000610352</ele>
        <time>2019-08-30T10:14:23.000Z</time>
      </trkpt>
      <trkpt lat="50.62234" lon="5.20879">
        <ele>155</ele>
        <time>2019-08-30T10:14:30.000Z</time>
      </trkpt>
      <trkpt lat="50.62236" lon="5.20879">
        <ele>155.39999389648</ele>
        <time>2019-08-30T10:14:31.000Z</time>
      </trkpt>
      <trkpt lat="50.62239" lon="5.20879">
        <ele>155.80000305176</ele>
        <time>2019-08-30T10:14:32.000Z</time>
      </trkpt>
      <trkpt lat="50.62242" lon="5.20879">
        <ele>156.19999694824</ele>
        <time>2019-08-30T10:14:33.000Z</time>
      </trkpt>
      <trkpt lat="50.62244" lon="5.20879">
        <ele>156.60000610352</ele>
        <time>2019-08-30T10:14:34.000Z</time>
      </trkpt>
      <trkpt lat="50.62255" lon="5.20879">
        <ele>156.60000610352</ele>
        <time>2019-08-30T10:14:38.000Z</time>
      </trkpt>
      <trkpt lat="50.62276" lon="5.20881">
        <ele>157</ele>
        <time>2019-08-30T10:14:46.000Z</time>
      </trkpt>
      <trkpt lat="50.62279" lon="5.20881">
        <ele>157.80000305176</ele>
        <time>2019-08-30T10:14:47.000Z</time>
      </trkpt>
      <trkpt lat="50.62281" lon="5.20882">
        <ele>158.19999694824</ele>
        <time>2019-08-30T10:14:48.000Z</time>
      </trkpt>
      <trkpt lat="50.62284" lon="5.20882">
        <ele>158.60000610352</ele>
        <time>2019-08-30T10:14:49.000Z</time>
      </trkpt>
      <trkpt lat="50.62298" lon="5.20882">
        <ele>158.60000610352</ele>
        <time>2019-08-30T10:14:54.000Z</time>
      </trkpt>
      <trkpt lat="50.62319" lon="5.20883">
        <ele>158.60000610352</ele>
        <time>2019-08-30T10:15:01.000Z</time>
      </trkpt>
      <trkpt lat="50.62352" lon="5.20884">
        <ele>158.60000610352</ele>
        <time>2019-08-30T10:15:10.000Z</time>
      </trkpt>
      <trkpt lat="50.62382" lon="5.20886">
        <ele>158.60000610352</ele>
        <time>2019-08-30T10:15:17.000Z</time>
      </trkpt>
      <trkpt lat="50.62392" lon="5.20887">
        <ele>158.60000610352</ele>
        <time>2019-08-30T10:15:19.000Z</time>
      </trkpt>
      <trkpt lat="50.62421" lon="5.20888">
        <ele>158.60000610352</ele>
        <time>2019-08-30T10:15:25.000Z</time>
      </trkpt>
      <trkpt lat="50.62442" lon="5.20889">
        <ele>158.19999694824</ele>
        <time>2019-08-30T10:15:30.000Z</time>
      </trkpt>
      <trkpt lat="50.62446" lon="5.2089">
        <ele>157.80000305176</ele>
        <time>2019-08-30T10:15:31.000Z</time>
      </trkpt>
      <trkpt lat="50.62449" lon="5.2089">
        <ele>157.39999389648</ele>
        <time>2019-08-30T10:15:32.000Z</time>
      </trkpt>
      <trkpt lat="50.62452" lon="5.2089">
        <ele>157</ele>
        <time>2019-08-30T10:15:33.000Z</time>
      </trkpt>
      <trkpt lat="50.62455" lon="5.20891">
        <ele>156.60000610352</ele>
        <time>2019-08-30T10:15:34.000Z</time>
      </trkpt>
      <trkpt lat="50.62456" lon="5.20892">
        <ele>156.60000610352</ele>
        <time>2019-08-30T10:15:36.000Z</time>
      </trkpt>
      <trkpt lat="50.62455" lon="5.20892">
        <ele>156.60000610352</ele>
        <time>2019-08-30T10:17:00.000Z</time>
      </trkpt>
      <trkpt lat="50.6246" lon="5.2089">
        <ele>156.60000610352</ele>
        <time>2019-08-30T10:17:03.000Z</time>
      </trkpt>
      <trkpt lat="50.62462" lon="5.20889">
        <ele>156.60000610352</ele>
        <time>2019-08-30T10:17:04.000Z</time>
      </trkpt>
      <trkpt lat="50.62471" lon="5.20879">
        <ele>156.60000610352</ele>
        <time>2019-08-30T10:17:08.000Z</time>
      </trkpt>
      <trkpt lat="50.62473" lon="5.20873">
        <ele>156.60000610352</ele>
        <time>2019-08-30T10:17:12.000Z</time>
      </trkpt>
      <trkpt lat="50.62474" lon="5.20872">
        <ele>156.60000610352</ele>
        <time>2019-08-30T10:17:15.000Z</time>
      </trkpt>
      <trkpt lat="50.62475" lon="5.20869">
        <ele>156.60000610352</ele>
        <time>2019-08-30T10:17:21.000Z</time>
      </trkpt>
      <trkpt lat="50.62476" lon="5.20866">
        <ele>156.60000610352</ele>
        <time>2019-08-30T10:17:22.000Z</time>
      </trkpt>
      <trkpt lat="50.62484" lon="5.20857">
        <ele>156.60000610352</ele>
        <time>2019-08-30T10:17:26.000Z</time>
      </trkpt>
      <trkpt lat="50.62486" lon="5.20854">
        <ele>156.60000610352</ele>
        <time>2019-08-30T10:17:27.000Z</time>
      </trkpt>
      <trkpt lat="50.62496" lon="5.20839">
        <ele>156.60000610352</ele>
        <time>2019-08-30T10:17:32.000Z</time>
      </trkpt>
      <trkpt lat="50.62514" lon="5.20814">
        <ele>156.60000610352</ele>
        <time>2019-08-30T10:17:40.000Z</time>
      </trkpt>
      <trkpt lat="50.62536" lon="5.20782">
        <ele>156.60000610352</ele>
        <time>2019-08-30T10:17:49.000Z</time>
      </trkpt>
      <trkpt lat="50.62556" lon="5.20752">
        <ele>156.60000610352</ele>
        <time>2019-08-30T10:17:57.000Z</time>
      </trkpt>
      <trkpt lat="50.6258" lon="5.20717">
        <ele>156.60000610352</ele>
        <time>2019-08-30T10:18:06.000Z</time>
      </trkpt>
      <trkpt lat="50.62588" lon="5.20706">
        <ele>156.60000610352</ele>
        <time>2019-08-30T10:18:09.000Z</time>
      </trkpt>
      <trkpt lat="50.62593" lon="5.20699">
        <ele>156.60000610352</ele>
        <time>2019-08-30T10:18:11.000Z</time>
      </trkpt>
      <trkpt lat="50.626" lon="5.20687">
        <ele>156.60000610352</ele>
        <time>2019-08-30T10:18:14.000Z</time>
      </trkpt>
      <trkpt lat="50.62623" lon="5.20654">
        <ele>156.60000610352</ele>
        <time>2019-08-30T10:18:23.000Z</time>
      </trkpt>
      <trkpt lat="50.62646" lon="5.2062">
        <ele>156.60000610352</ele>
        <time>2019-08-30T10:18:32.000Z</time>
      </trkpt>
      <trkpt lat="50.6267" lon="5.20587">
        <ele>156.60000610352</ele>
        <time>2019-08-30T10:18:41.000Z</time>
      </trkpt>
      <trkpt lat="50.62689" lon="5.20562">
        <ele>156.60000610352</ele>
        <time>2019-08-30T10:18:48.000Z</time>
      </trkpt>
      <trkpt lat="50.62711" lon="5.20536">
        <ele>156.60000610352</ele>
        <time>2019-08-30T10:18:56.000Z</time>
      </trkpt>
      <trkpt lat="50.62733" lon="5.2051">
        <ele>156.60000610352</ele>
        <time>2019-08-30T10:19:04.000Z</time>
      </trkpt>
      <trkpt lat="50.62757" lon="5.20482">
        <ele>156.60000610352</ele>
        <time>2019-08-30T10:19:13.000Z</time>
      </trkpt>
      <trkpt lat="50.62762" lon="5.20475">
        <ele>157</ele>
        <time>2019-08-30T10:19:15.000Z</time>
      </trkpt>
      <trkpt lat="50.62765" lon="5.20472">
        <ele>157.39999389648</ele>
        <time>2019-08-30T10:19:16.000Z</time>
      </trkpt>
      <trkpt lat="50.62768" lon="5.20469">
        <ele>157.80000305176</ele>
        <time>2019-08-30T10:19:17.000Z</time>
      </trkpt>
      <trkpt lat="50.62771" lon="5.20465">
        <ele>158.19999694824</ele>
        <time>2019-08-30T10:19:18.000Z</time>
      </trkpt>
      <trkpt lat="50.62774" lon="5.20462">
        <ele>158.60000610352</ele>
        <time>2019-08-30T10:19:19.000Z</time>
      </trkpt>
      <trkpt lat="50.62779" lon="5.20456">
        <ele>158.60000610352</ele>
        <time>2019-08-30T10:19:21.000Z</time>
      </trkpt>
      <trkpt lat="50.62805" lon="5.20427">
        <ele>158.60000610352</ele>
        <time>2019-08-30T10:19:30.000Z</time>
      </trkpt>
      <trkpt lat="50.62829" lon="5.20399">
        <ele>158.60000610352</ele>
        <time>2019-08-30T10:19:39.000Z</time>
      </trkpt>
      <trkpt lat="50.62838" lon="5.20389">
        <ele>159</ele>
        <time>2019-08-30T10:19:42.000Z</time>
      </trkpt>
      <trkpt lat="50.6284" lon="5.20386">
        <ele>159.39999389648</ele>
        <time>2019-08-30T10:19:43.000Z</time>
      </trkpt>
      <trkpt lat="50.62843" lon="5.20383">
        <ele>160.19999694824</ele>
        <time>2019-08-30T10:19:44.000Z</time>
      </trkpt>
      <trkpt lat="50.62846" lon="5.2038">
        <ele>160.60000610352</ele>
        <time>2019-08-30T10:19:45.000Z</time>
      </trkpt>
      <trkpt lat="50.62855" lon="5.20371">
        <ele>160.60000610352</ele>
        <time>2019-08-30T10:19:48.000Z</time>
      </trkpt>
      <trkpt lat="50.62876" lon="5.20346">
        <ele>160.60000610352</ele>
        <time>2019-08-30T10:19:56.000Z</time>
      </trkpt>
      <trkpt lat="50.62897" lon="5.20321">
        <ele>160.60000610352</ele>
        <time>2019-08-30T10:20:04.000Z</time>
      </trkpt>
      <trkpt lat="50.62905" lon="5.20313">
        <ele>161.19999694824</ele>
        <time>2019-08-30T10:20:07.000Z</time>
      </trkpt>
      <trkpt lat="50.62907" lon="5.20311">
        <ele>161.60000610352</ele>
        <time>2019-08-30T10:20:08.000Z</time>
      </trkpt>
      <trkpt lat="50.6291" lon="5.20308">
        <ele>162.39999389648</ele>
        <time>2019-08-30T10:20:09.000Z</time>
      </trkpt>
      <trkpt lat="50.62912" lon="5.20305">
        <ele>162.80000305176</ele>
        <time>2019-08-30T10:20:10.000Z</time>
      </trkpt>
      <trkpt lat="50.62917" lon="5.203">
        <ele>162.80000305176</ele>
        <time>2019-08-30T10:20:12.000Z</time>
      </trkpt>
      <trkpt lat="50.62937" lon="5.20278">
        <ele>162.80000305176</ele>
        <time>2019-08-30T10:20:20.000Z</time>
      </trkpt>
      <trkpt lat="50.62959" lon="5.20256">
        <ele>163.19999694824</ele>
        <time>2019-08-30T10:20:28.000Z</time>
      </trkpt>
      <trkpt lat="50.62962" lon="5.20254">
        <ele>163.60000610352</ele>
        <time>2019-08-30T10:20:29.000Z</time>
      </trkpt>
      <trkpt lat="50.62965" lon="5.20251">
        <ele>164</ele>
        <time>2019-08-30T10:20:30.000Z</time>
      </trkpt>
      <trkpt lat="50.62968" lon="5.20249">
        <ele>164.39999389648</ele>
        <time>2019-08-30T10:20:31.000Z</time>
      </trkpt>
      <trkpt lat="50.62971" lon="5.20246">
        <ele>164.80000305176</ele>
        <time>2019-08-30T10:20:32.000Z</time>
      </trkpt>
      <trkpt lat="50.6298" lon="5.20237">
        <ele>164.80000305176</ele>
        <time>2019-08-30T10:20:35.000Z</time>
      </trkpt>
      <trkpt lat="50.63009" lon="5.20213">
        <ele>164.80000305176</ele>
        <time>2019-08-30T10:20:44.000Z</time>
      </trkpt>
      <trkpt lat="50.63043" lon="5.2019">
        <ele>164.80000305176</ele>
        <time>2019-08-30T10:20:53.000Z</time>
      </trkpt>
      <trkpt lat="50.63075" lon="5.20167">
        <ele>164.80000305176</ele>
        <time>2019-08-30T10:21:02.000Z</time>
      </trkpt>
      <trkpt lat="50.63104" lon="5.20142">
        <ele>164.80000305176</ele>
        <time>2019-08-30T10:21:10.000Z</time>
      </trkpt>
      <trkpt lat="50.63126" lon="5.20117">
        <ele>164.80000305176</ele>
        <time>2019-08-30T10:21:17.000Z</time>
      </trkpt>
      <trkpt lat="50.6313" lon="5.20113">
        <ele>164.80000305176</ele>
        <time>2019-08-30T10:21:18.000Z</time>
      </trkpt>
      <trkpt lat="50.63153" lon="5.20079">
        <ele>164.80000305176</ele>
        <time>2019-08-30T10:21:26.000Z</time>
      </trkpt>
      <trkpt lat="50.63183" lon="5.20035">
        <ele>164.80000305176</ele>
        <time>2019-08-30T10:21:36.000Z</time>
      </trkpt>
      <trkpt lat="50.63207" lon="5.2">
        <ele>164.39999389648</ele>
        <time>2019-08-30T10:21:43.000Z</time>
      </trkpt>
      <trkpt lat="50.6321" lon="5.19995">
        <ele>164</ele>
        <time>2019-08-30T10:21:44.000Z</time>
      </trkpt>
      <trkpt lat="50.63214" lon="5.19989">
        <ele>163.60000610352</ele>
        <time>2019-08-30T10:21:45.000Z</time>
      </trkpt>
      <trkpt lat="50.63217" lon="5.19984">
        <ele>163.19999694824</ele>
        <time>2019-08-30T10:21:46.000Z</time>
      </trkpt>
      <trkpt lat="50.63221" lon="5.19979">
        <ele>162.80000305176</ele>
        <time>2019-08-30T10:21:47.000Z</time>
      </trkpt>
      <trkpt lat="50.63231" lon="5.19964">
        <ele>162.80000305176</ele>
        <time>2019-08-30T10:21:50.000Z</time>
      </trkpt>
      <trkpt lat="50.63262" lon="5.19918">
        <ele>162.80000305176</ele>
        <time>2019-08-30T10:21:58.000Z</time>
      </trkpt>
      <trkpt lat="50.63277" lon="5.19894">
        <ele>162.39999389648</ele>
        <time>2019-08-30T10:22:02.000Z</time>
      </trkpt>
      <trkpt lat="50.63282" lon="5.19889">
        <ele>162</ele>
        <time>2019-08-30T10:22:03.000Z</time>
      </trkpt>
      <trkpt lat="50.63286" lon="5.19883">
        <ele>161.60000610352</ele>
        <time>2019-08-30T10:22:04.000Z</time>
      </trkpt>
      <trkpt lat="50.6329" lon="5.19877">
        <ele>161.19999694824</ele>
        <time>2019-08-30T10:22:05.000Z</time>
      </trkpt>
      <trkpt lat="50.63294" lon="5.19871">
        <ele>160.60000610352</ele>
        <time>2019-08-30T10:22:06.000Z</time>
      </trkpt>
      <trkpt lat="50.63321" lon="5.19831">
        <ele>160.60000610352</ele>
        <time>2019-08-30T10:22:13.000Z</time>
      </trkpt>
      <trkpt lat="50.63336" lon="5.19809">
        <ele>160.19999694824</ele>
        <time>2019-08-30T10:22:17.000Z</time>
      </trkpt>
      <trkpt lat="50.6334" lon="5.19803">
        <ele>159.80000305176</ele>
        <time>2019-08-30T10:22:18.000Z</time>
      </trkpt>
      <trkpt lat="50.63343" lon="5.19798">
        <ele>159.39999389648</ele>
        <time>2019-08-30T10:22:19.000Z</time>
      </trkpt>
      <trkpt lat="50.63347" lon="5.19792">
        <ele>159</ele>
        <time>2019-08-30T10:22:20.000Z</time>
      </trkpt>
      <trkpt lat="50.63351" lon="5.19787">
        <ele>158.60000610352</ele>
        <time>2019-08-30T10:22:21.000Z</time>
      </trkpt>
      <trkpt lat="50.63355" lon="5.19781">
        <ele>158.60000610352</ele>
        <time>2019-08-30T10:22:22.000Z</time>
      </trkpt>
      <trkpt lat="50.63398" lon="5.19717">
        <ele>158.60000610352</ele>
        <time>2019-08-30T10:22:33.000Z</time>
      </trkpt>
      <trkpt lat="50.63402" lon="5.19711">
        <ele>158.60000610352</ele>
        <time>2019-08-30T10:22:34.000Z</time>
      </trkpt>
      <trkpt lat="50.63405" lon="5.19706">
        <ele>158.19999694824</ele>
        <time>2019-08-30T10:22:35.000Z</time>
      </trkpt>
      <trkpt lat="50.63408" lon="5.19703">
        <ele>157.80000305176</ele>
        <time>2019-08-30T10:22:36.000Z</time>
      </trkpt>
      <trkpt lat="50.6341" lon="5.19699">
        <ele>157</ele>
        <time>2019-08-30T10:22:37.000Z</time>
      </trkpt>
      <trkpt lat="50.63411" lon="5.19697">
        <ele>156.60000610352</ele>
        <time>2019-08-30T10:22:38.000Z</time>
      </trkpt>
      <trkpt lat="50.63413" lon="5.19694">
        <ele>156.60000610352</ele>
        <time>2019-08-30T10:22:41.000Z</time>
      </trkpt>
      <trkpt lat="50.63415" lon="5.19691">
        <ele>156.60000610352</ele>
        <time>2019-08-30T10:22:50.000Z</time>
      </trkpt>
      <trkpt lat="50.63419" lon="5.19683">
        <ele>156.60000610352</ele>
        <time>2019-08-30T10:22:54.000Z</time>
      </trkpt>
      <trkpt lat="50.63424" lon="5.19682">
        <ele>156.60000610352</ele>
        <time>2019-08-30T10:22:57.000Z</time>
      </trkpt>
      <trkpt lat="50.63428" lon="5.19681">
        <ele>156.60000610352</ele>
        <time>2019-08-30T10:22:59.000Z</time>
      </trkpt>
      <trkpt lat="50.63433" lon="5.19683">
        <ele>156.60000610352</ele>
        <time>2019-08-30T10:23:02.000Z</time>
      </trkpt>
      <trkpt lat="50.63433" lon="5.19683">
        <ele>156.60000610352</ele>
        <time>2019-08-30T10:23:04.000Z</time>
      </trkpt>
      <trkpt lat="50.63434" lon="5.19684">
        <ele>156.60000610352</ele>
        <time>2019-08-30T10:23:09.000Z</time>
      </trkpt>
      <trkpt lat="50.63437" lon="5.19685">
        <ele>156.60000610352</ele>
        <time>2019-08-30T10:23:10.000Z</time>
      </trkpt>
      <trkpt lat="50.63439" lon="5.19686">
        <ele>156.60000610352</ele>
        <time>2019-08-30T10:23:11.000Z</time>
      </trkpt>
      <trkpt lat="50.63449" lon="5.19693">
        <ele>156.60000610352</ele>
        <time>2019-08-30T10:23:15.000Z</time>
      </trkpt>
      <trkpt lat="50.63465" lon="5.19706">
        <ele>156.60000610352</ele>
        <time>2019-08-30T10:23:21.000Z</time>
      </trkpt>
      <trkpt lat="50.63479" lon="5.1972">
        <ele>156.60000610352</ele>
        <time>2019-08-30T10:23:26.000Z</time>
      </trkpt>
      <trkpt lat="50.63499" lon="5.19747">
        <ele>156.60000610352</ele>
        <time>2019-08-30T10:23:34.000Z</time>
      </trkpt>
      <trkpt lat="50.63517" lon="5.19774">
        <ele>156.60000610352</ele>
        <time>2019-08-30T10:23:41.000Z</time>
      </trkpt>
      <trkpt lat="50.63532" lon="5.19797">
        <ele>156.60000610352</ele>
        <time>2019-08-30T10:23:47.000Z</time>
      </trkpt>
      <trkpt lat="50.63545" lon="5.19816">
        <ele>156.60000610352</ele>
        <time>2019-08-30T10:23:52.000Z</time>
      </trkpt>
      <trkpt lat="50.63557" lon="5.19833">
        <ele>156.60000610352</ele>
        <time>2019-08-30T10:23:56.000Z</time>
      </trkpt>
      <trkpt lat="50.63562" lon="5.19842">
        <ele>156.60000610352</ele>
        <time>2019-08-30T10:23:58.000Z</time>
      </trkpt>
      <trkpt lat="50.6358" lon="5.19867">
        <ele>156.60000610352</ele>
        <time>2019-08-30T10:24:04.000Z</time>
      </trkpt>
      <trkpt lat="50.63597" lon="5.19892">
        <ele>156.60000610352</ele>
        <time>2019-08-30T10:24:10.000Z</time>
      </trkpt>
      <trkpt lat="50.63615" lon="5.19919">
        <ele>156.60000610352</ele>
        <time>2019-08-30T10:24:17.000Z</time>
      </trkpt>
      <trkpt lat="50.63635" lon="5.19949">
        <ele>156.60000610352</ele>
        <time>2019-08-30T10:24:24.000Z</time>
      </trkpt>
      <trkpt lat="50.63662" lon="5.1999">
        <ele>156.60000610352</ele>
        <time>2019-08-30T10:24:32.000Z</time>
      </trkpt>
      <trkpt lat="50.63689" lon="5.20031">
        <ele>156.60000610352</ele>
        <time>2019-08-30T10:24:39.000Z</time>
      </trkpt>
      <trkpt lat="50.63726" lon="5.20087">
        <ele>156.60000610352</ele>
        <time>2019-08-30T10:24:48.000Z</time>
      </trkpt>
      <trkpt lat="50.63754" lon="5.20133">
        <ele>156.60000610352</ele>
        <time>2019-08-30T10:24:55.000Z</time>
      </trkpt>
      <trkpt lat="50.63761" lon="5.20145">
        <ele>156.60000610352</ele>
        <time>2019-08-30T10:24:57.000Z</time>
      </trkpt>
      <trkpt lat="50.63775" lon="5.2017">
        <ele>156.19999694824</ele>
        <time>2019-08-30T10:25:01.000Z</time>
      </trkpt>
      <trkpt lat="50.63779" lon="5.20176">
        <ele>155.80000305176</ele>
        <time>2019-08-30T10:25:02.000Z</time>
      </trkpt>
      <trkpt lat="50.63782" lon="5.20181">
        <ele>155.39999389648</ele>
        <time>2019-08-30T10:25:03.000Z</time>
      </trkpt>
      <trkpt lat="50.63786" lon="5.20187">
        <ele>154.60000610352</ele>
        <time>2019-08-30T10:25:04.000Z</time>
      </trkpt>
      <trkpt lat="50.63809" lon="5.20228">
        <ele>154.60000610352</ele>
        <time>2019-08-30T10:25:11.000Z</time>
      </trkpt>
      <trkpt lat="50.63819" lon="5.20244">
        <ele>154.60000610352</ele>
        <time>2019-08-30T10:25:14.000Z</time>
      </trkpt>
      <trkpt lat="50.63831" lon="5.20266">
        <ele>154.60000610352</ele>
        <time>2019-08-30T10:25:18.000Z</time>
      </trkpt>
      <trkpt lat="50.63856" lon="5.20309">
        <ele>154.60000610352</ele>
        <time>2019-08-30T10:25:26.000Z</time>
      </trkpt>
      <trkpt lat="50.6388" lon="5.20352">
        <ele>154.60000610352</ele>
        <time>2019-08-30T10:25:34.000Z</time>
      </trkpt>
      <trkpt lat="50.63883" lon="5.20358">
        <ele>154.60000610352</ele>
        <time>2019-08-30T10:25:35.000Z</time>
      </trkpt>
      <trkpt lat="50.63906" lon="5.20401">
        <ele>154.60000610352</ele>
        <time>2019-08-30T10:25:43.000Z</time>
      </trkpt>
      <trkpt lat="50.63909" lon="5.20406">
        <ele>154.60000610352</ele>
        <time>2019-08-30T10:25:44.000Z</time>
      </trkpt>
      <trkpt lat="50.63923" lon="5.20435">
        <ele>154.60000610352</ele>
        <time>2019-08-30T10:25:49.000Z</time>
      </trkpt>
      <trkpt lat="50.63928" lon="5.20446">
        <ele>154.60000610352</ele>
        <time>2019-08-30T10:25:51.000Z</time>
      </trkpt>
      <trkpt lat="50.63931" lon="5.20452">
        <ele>154.19999694824</ele>
        <time>2019-08-30T10:25:52.000Z</time>
      </trkpt>
      <trkpt lat="50.63933" lon="5.20459">
        <ele>153.80000305176</ele>
        <time>2019-08-30T10:25:53.000Z</time>
      </trkpt>
      <trkpt lat="50.63935" lon="5.20466">
        <ele>152.80000305176</ele>
        <time>2019-08-30T10:25:54.000Z</time>
      </trkpt>
      <trkpt lat="50.63938" lon="5.20472">
        <ele>152.39999389648</ele>
        <time>2019-08-30T10:25:55.000Z</time>
      </trkpt>
      <trkpt lat="50.63943" lon="5.20484">
        <ele>152.39999389648</ele>
        <time>2019-08-30T10:25:57.000Z</time>
      </trkpt>
      <trkpt lat="50.63946" lon="5.2049">
        <ele>152.39999389648</ele>
        <time>2019-08-30T10:25:58.000Z</time>
      </trkpt>
      <trkpt lat="50.63953" lon="5.20509">
        <ele>152.39999389648</ele>
        <time>2019-08-30T10:26:01.000Z</time>
      </trkpt>
      <trkpt lat="50.63958" lon="5.20521">
        <ele>152.39999389648</ele>
        <time>2019-08-30T10:26:03.000Z</time>
      </trkpt>
      <trkpt lat="50.63968" lon="5.20546">
        <ele>152.39999389648</ele>
        <time>2019-08-30T10:26:07.000Z</time>
      </trkpt>
      <trkpt lat="50.63972" lon="5.20557">
        <ele>152.39999389648</ele>
        <time>2019-08-30T10:26:09.000Z</time>
      </trkpt>
      <trkpt lat="50.63993" lon="5.20602">
        <ele>152.39999389648</ele>
        <time>2019-08-30T10:26:17.000Z</time>
      </trkpt>
      <trkpt lat="50.64023" lon="5.20664">
        <ele>152</ele>
        <time>2019-08-30T10:26:28.000Z</time>
      </trkpt>
      <trkpt lat="50.64025" lon="5.20669">
        <ele>151.60000610352</ele>
        <time>2019-08-30T10:26:29.000Z</time>
      </trkpt>
      <trkpt lat="50.64028" lon="5.20675">
        <ele>151.19999694824</ele>
        <time>2019-08-30T10:26:30.000Z</time>
      </trkpt>
      <trkpt lat="50.6403" lon="5.20681">
        <ele>150.80000305176</ele>
        <time>2019-08-30T10:26:31.000Z</time>
      </trkpt>
      <trkpt lat="50.64033" lon="5.20686">
        <ele>150.39999389648</ele>
        <time>2019-08-30T10:26:32.000Z</time>
      </trkpt>
      <trkpt lat="50.64036" lon="5.20692">
        <ele>150.39999389648</ele>
        <time>2019-08-30T10:26:33.000Z</time>
      </trkpt>
      <trkpt lat="50.64039" lon="5.20697">
        <ele>150.39999389648</ele>
        <time>2019-08-30T10:26:34.000Z</time>
      </trkpt>
      <trkpt lat="50.64041" lon="5.20702">
        <ele>150.39999389648</ele>
        <time>2019-08-30T10:26:35.000Z</time>
      </trkpt>
      <trkpt lat="50.64051" lon="5.20723">
        <ele>150.39999389648</ele>
        <time>2019-08-30T10:26:39.000Z</time>
      </trkpt>
      <trkpt lat="50.64058" lon="5.20739">
        <ele>150.39999389648</ele>
        <time>2019-08-30T10:26:42.000Z</time>
      </trkpt>
      <trkpt lat="50.64068" lon="5.2076">
        <ele>150.39999389648</ele>
        <time>2019-08-30T10:26:46.000Z</time>
      </trkpt>
      <trkpt lat="50.64076" lon="5.20787">
        <ele>150.39999389648</ele>
        <time>2019-08-30T10:26:51.000Z</time>
      </trkpt>
      <trkpt lat="50.64079" lon="5.20806">
        <ele>150.39999389648</ele>
        <time>2019-08-30T10:26:54.000Z</time>
      </trkpt>
      <trkpt lat="50.6408" lon="5.20825">
        <ele>150.39999389648</ele>
        <time>2019-08-30T10:26:57.000Z</time>
      </trkpt>
      <trkpt lat="50.6408" lon="5.20858">
        <ele>150.39999389648</ele>
        <time>2019-08-30T10:27:02.000Z</time>
      </trkpt>
      <trkpt lat="50.6408" lon="5.20871">
        <ele>150.39999389648</ele>
        <time>2019-08-30T10:27:04.000Z</time>
      </trkpt>
      <trkpt lat="50.64079" lon="5.20903">
        <ele>150.39999389648</ele>
        <time>2019-08-30T10:27:09.000Z</time>
      </trkpt>
      <trkpt lat="50.64079" lon="5.20922">
        <ele>150.39999389648</ele>
        <time>2019-08-30T10:27:12.000Z</time>
      </trkpt>
      <trkpt lat="50.64078" lon="5.20942">
        <ele>150.39999389648</ele>
        <time>2019-08-30T10:27:15.000Z</time>
      </trkpt>
      <trkpt lat="50.64082" lon="5.20959">
        <ele>150.39999389648</ele>
        <time>2019-08-30T10:27:18.000Z</time>
      </trkpt>
      <trkpt lat="50.64092" lon="5.20975">
        <ele>150.39999389648</ele>
        <time>2019-08-30T10:27:22.000Z</time>
      </trkpt>
      <trkpt lat="50.64094" lon="5.20977">
        <ele>150.80000305176</ele>
        <time>2019-08-30T10:27:23.000Z</time>
      </trkpt>
      <trkpt lat="50.64097" lon="5.20979">
        <ele>151.19999694824</ele>
        <time>2019-08-30T10:27:24.000Z</time>
      </trkpt>
      <trkpt lat="50.64099" lon="5.20981">
        <ele>151.60000610352</ele>
        <time>2019-08-30T10:27:25.000Z</time>
      </trkpt>
      <trkpt lat="50.64101" lon="5.20984">
        <ele>152</ele>
        <time>2019-08-30T10:27:26.000Z</time>
      </trkpt>
      <trkpt lat="50.64103" lon="5.20986">
        <ele>152.39999389648</ele>
        <time>2019-08-30T10:27:27.000Z</time>
      </trkpt>
      <trkpt lat="50.64106" lon="5.20987">
        <ele>152.39999389648</ele>
        <time>2019-08-30T10:27:28.000Z</time>
      </trkpt>
      <trkpt lat="50.64111" lon="5.2099">
        <ele>152.39999389648</ele>
        <time>2019-08-30T10:27:32.000Z</time>
      </trkpt>
      <trkpt lat="50.64113" lon="5.2099">
        <ele>152.39999389648</ele>
        <time>2019-08-30T10:27:40.000Z</time>
      </trkpt>
      <trkpt lat="50.64115" lon="5.20991">
        <ele>152.39999389648</ele>
        <time>2019-08-30T10:27:41.000Z</time>
      </trkpt>
      <trkpt lat="50.64118" lon="5.20994">
        <ele>152.39999389648</ele>
        <time>2019-08-30T10:27:43.000Z</time>
      </trkpt>
      <trkpt lat="50.64121" lon="5.20995">
        <ele>152.39999389648</ele>
        <time>2019-08-30T10:27:44.000Z</time>
      </trkpt>
      <trkpt lat="50.64125" lon="5.21004">
        <ele>152.39999389648</ele>
        <time>2019-08-30T10:27:47.000Z</time>
      </trkpt>
      <trkpt lat="50.64124" lon="5.21008">
        <ele>152.39999389648</ele>
        <time>2019-08-30T10:27:48.000Z</time>
      </trkpt>
      <trkpt lat="50.64124" lon="5.21012">
        <ele>152.39999389648</ele>
        <time>2019-08-30T10:27:50.000Z</time>
      </trkpt>
      <trkpt lat="50.64124" lon="5.21013">
        <ele>152.39999389648</ele>
        <time>2019-08-30T10:27:51.000Z</time>
      </trkpt>
      <trkpt lat="50.64124" lon="5.21014">
        <ele>152.39999389648</ele>
        <time>2019-08-30T10:27:57.000Z</time>
      </trkpt>
      <trkpt lat="50.64124" lon="5.2102">
        <ele>152.39999389648</ele>
        <time>2019-08-30T10:27:59.000Z</time>
      </trkpt>
      <trkpt lat="50.64122" lon="5.21041">
        <ele>152.39999389648</ele>
        <time>2019-08-30T10:28:04.000Z</time>
      </trkpt>
      <trkpt lat="50.64119" lon="5.21076">
        <ele>152.39999389648</ele>
        <time>2019-08-30T10:28:11.000Z</time>
      </trkpt>
      <trkpt lat="50.64115" lon="5.21106">
        <ele>152.39999389648</ele>
        <time>2019-08-30T10:28:17.000Z</time>
      </trkpt>
      <trkpt lat="50.64112" lon="5.21131">
        <ele>152.39999389648</ele>
        <time>2019-08-30T10:28:22.000Z</time>
      </trkpt>
      <trkpt lat="50.64106" lon="5.21164">
        <ele>152.39999389648</ele>
        <time>2019-08-30T10:28:28.000Z</time>
      </trkpt>
      <trkpt lat="50.64102" lon="5.21195">
        <ele>152.39999389648</ele>
        <time>2019-08-30T10:28:34.000Z</time>
      </trkpt>
      <trkpt lat="50.64101" lon="5.21201">
        <ele>152.80000305176</ele>
        <time>2019-08-30T10:28:35.000Z</time>
      </trkpt>
      <trkpt lat="50.641" lon="5.21206">
        <ele>153.19999694824</ele>
        <time>2019-08-30T10:28:36.000Z</time>
      </trkpt>
      <trkpt lat="50.64099" lon="5.21212">
        <ele>153.60000610352</ele>
        <time>2019-08-30T10:28:37.000Z</time>
      </trkpt>
      <trkpt lat="50.64099" lon="5.21217">
        <ele>154.19999694824</ele>
        <time>2019-08-30T10:28:38.000Z</time>
      </trkpt>
      <trkpt lat="50.64098" lon="5.21223">
        <ele>154.60000610352</ele>
        <time>2019-08-30T10:28:39.000Z</time>
      </trkpt>
      <trkpt lat="50.64091" lon="5.21259">
        <ele>154.60000610352</ele>
        <time>2019-08-30T10:28:46.000Z</time>
      </trkpt>
      <trkpt lat="50.64085" lon="5.21295">
        <ele>154.60000610352</ele>
        <time>2019-08-30T10:28:53.000Z</time>
      </trkpt>
      <trkpt lat="50.64076" lon="5.21327">
        <ele>154.60000610352</ele>
        <time>2019-08-30T10:28:59.000Z</time>
      </trkpt>
      <trkpt lat="50.64067" lon="5.21366">
        <ele>154.60000610352</ele>
        <time>2019-08-30T10:29:06.000Z</time>
      </trkpt>
      <trkpt lat="50.64058" lon="5.21398">
        <ele>154.60000610352</ele>
        <time>2019-08-30T10:29:12.000Z</time>
      </trkpt>
      <trkpt lat="50.64047" lon="5.21445">
        <ele>154.60000610352</ele>
        <time>2019-08-30T10:29:21.000Z</time>
      </trkpt>
      <trkpt lat="50.64039" lon="5.21481">
        <ele>154.60000610352</ele>
        <time>2019-08-30T10:29:28.000Z</time>
      </trkpt>
      <trkpt lat="50.64033" lon="5.21508">
        <ele>154.60000610352</ele>
        <time>2019-08-30T10:29:33.000Z</time>
      </trkpt>
      <trkpt lat="50.6403" lon="5.21523">
        <ele>155</ele>
        <time>2019-08-30T10:29:36.000Z</time>
      </trkpt>
      <trkpt lat="50.64029" lon="5.21528">
        <ele>155.39999389648</ele>
        <time>2019-08-30T10:29:37.000Z</time>
      </trkpt>
      <trkpt lat="50.64028" lon="5.21534">
        <ele>155.80000305176</ele>
        <time>2019-08-30T10:29:38.000Z</time>
      </trkpt>
      <trkpt lat="50.64027" lon="5.21539">
        <ele>156.19999694824</ele>
        <time>2019-08-30T10:29:39.000Z</time>
      </trkpt>
      <trkpt lat="50.64025" lon="5.21544">
        <ele>156.60000610352</ele>
        <time>2019-08-30T10:29:40.000Z</time>
      </trkpt>
      <trkpt lat="50.64022" lon="5.21578">
        <ele>156.60000610352</ele>
        <time>2019-08-30T10:29:46.000Z</time>
      </trkpt>
      <trkpt lat="50.64018" lon="5.21611">
        <ele>156.60000610352</ele>
        <time>2019-08-30T10:29:52.000Z</time>
      </trkpt>
      <trkpt lat="50.64016" lon="5.21636">
        <ele>156.60000610352</ele>
        <time>2019-08-30T10:29:56.000Z</time>
      </trkpt>
      <trkpt lat="50.64016" lon="5.21642">
        <ele>156.60000610352</ele>
        <time>2019-08-30T10:29:57.000Z</time>
      </trkpt>
      <trkpt lat="50.64014" lon="5.21682">
        <ele>156.60000610352</ele>
        <time>2019-08-30T10:30:04.000Z</time>
      </trkpt>
      <trkpt lat="50.64015" lon="5.21719">
        <ele>156.60000610352</ele>
        <time>2019-08-30T10:30:11.000Z</time>
      </trkpt>
      <trkpt lat="50.64018" lon="5.2174">
        <ele>156.60000610352</ele>
        <time>2019-08-30T10:30:17.000Z</time>
      </trkpt>
      <trkpt lat="50.64018" lon="5.2174">
        <ele>156.60000610352</ele>
        <time>2019-08-30T10:30:23.000Z</time>
      </trkpt>
      <trkpt lat="50.64019" lon="5.21747">
        <ele>156.60000610352</ele>
        <time>2019-08-30T10:30:25.000Z</time>
      </trkpt>
      <trkpt lat="50.64022" lon="5.21761">
        <ele>156.60000610352</ele>
        <time>2019-08-30T10:30:30.000Z</time>
      </trkpt>
      <trkpt lat="50.64022" lon="5.21762">
        <ele>156.60000610352</ele>
        <time>2019-08-30T10:30:35.000Z</time>
      </trkpt>
      <trkpt lat="50.64022" lon="5.21767">
        <ele>156.60000610352</ele>
        <time>2019-08-30T10:30:37.000Z</time>
      </trkpt>
      <trkpt lat="50.64021" lon="5.21771">
        <ele>156.60000610352</ele>
        <time>2019-08-30T10:30:38.000Z</time>
      </trkpt>
      <trkpt lat="50.64013" lon="5.21794">
        <ele>156.60000610352</ele>
        <time>2019-08-30T10:30:44.000Z</time>
      </trkpt>
      <trkpt lat="50.64001" lon="5.21834">
        <ele>156.60000610352</ele>
        <time>2019-08-30T10:30:52.000Z</time>
      </trkpt>
      <trkpt lat="50.63994" lon="5.2186">
        <ele>156.60000610352</ele>
        <time>2019-08-30T10:30:57.000Z</time>
      </trkpt>
      <trkpt lat="50.63985" lon="5.21888">
        <ele>156.60000610352</ele>
        <time>2019-08-30T10:31:03.000Z</time>
      </trkpt>
      <trkpt lat="50.63984" lon="5.21895">
        <ele>156.19999694824</ele>
        <time>2019-08-30T10:31:06.000Z</time>
      </trkpt>
      <trkpt lat="50.63984" lon="5.21897">
        <ele>155.80000305176</ele>
        <time>2019-08-30T10:31:07.000Z</time>
      </trkpt>
      <trkpt lat="50.63984" lon="5.21899">
        <ele>155.39999389648</ele>
        <time>2019-08-30T10:31:08.000Z</time>
      </trkpt>
      <trkpt lat="50.63983" lon="5.21902">
        <ele>154.80000305176</ele>
        <time>2019-08-30T10:31:09.000Z</time>
      </trkpt>
      <trkpt lat="50.63982" lon="5.21906">
        <ele>154.39999389648</ele>
        <time>2019-08-30T10:31:10.000Z</time>
      </trkpt>
      <trkpt lat="50.63981" lon="5.21913">
        <ele>154.39999389648</ele>
        <time>2019-08-30T10:31:12.000Z</time>
      </trkpt>
      <trkpt lat="50.6398" lon="5.21925">
        <ele>154.39999389648</ele>
        <time>2019-08-30T10:31:17.000Z</time>
      </trkpt>
      <trkpt lat="50.6398" lon="5.21932">
        <ele>154.39999389648</ele>
        <time>2019-08-30T10:31:20.000Z</time>
      </trkpt>
      <trkpt lat="50.63979" lon="5.21934">
        <ele>154.39999389648</ele>
        <time>2019-08-30T10:31:25.000Z</time>
      </trkpt>
      <trkpt lat="50.63978" lon="5.21951">
        <ele>154.39999389648</ele>
        <time>2019-08-30T10:31:30.000Z</time>
      </trkpt>
      <trkpt lat="50.63977" lon="5.21955">
        <ele>154.39999389648</ele>
        <time>2019-08-30T10:31:31.000Z</time>
      </trkpt>
      <trkpt lat="50.63973" lon="5.21966">
        <ele>154.39999389648</ele>
        <time>2019-08-30T10:31:34.000Z</time>
      </trkpt>
      <trkpt lat="50.63972" lon="5.21969">
        <ele>154.39999389648</ele>
        <time>2019-08-30T10:31:36.000Z</time>
      </trkpt>
      <trkpt lat="50.63971" lon="5.21971">
        <ele>154.39999389648</ele>
        <time>2019-08-30T10:31:41.000Z</time>
      </trkpt>
      <trkpt lat="50.63966" lon="5.21984">
        <ele>154.39999389648</ele>
        <time>2019-08-30T10:31:45.000Z</time>
      </trkpt>
      <trkpt lat="50.63958" lon="5.22005">
        <ele>154.39999389648</ele>
        <time>2019-08-30T10:31:50.000Z</time>
      </trkpt>
      <trkpt lat="50.63943" lon="5.22039">
        <ele>154.39999389648</ele>
        <time>2019-08-30T10:31:58.000Z</time>
      </trkpt>
      <trkpt lat="50.6393" lon="5.22062">
        <ele>154.39999389648</ele>
        <time>2019-08-30T10:32:04.000Z</time>
      </trkpt>
      <trkpt lat="50.63918" lon="5.22087">
        <ele>154.39999389648</ele>
        <time>2019-08-30T10:32:10.000Z</time>
      </trkpt>
      <trkpt lat="50.63906" lon="5.22111">
        <ele>154.39999389648</ele>
        <time>2019-08-30T10:32:16.000Z</time>
      </trkpt>
      <trkpt lat="50.63888" lon="5.22146">
        <ele>154.39999389648</ele>
        <time>2019-08-30T10:32:25.000Z</time>
      </trkpt>
      <trkpt lat="50.63872" lon="5.22179">
        <ele>154.39999389648</ele>
        <time>2019-08-30T10:32:33.000Z</time>
      </trkpt>
      <trkpt lat="50.63858" lon="5.22209">
        <ele>154.39999389648</ele>
        <time>2019-08-30T10:32:40.000Z</time>
      </trkpt>
      <trkpt lat="50.63846" lon="5.22227">
        <ele>154.39999389648</ele>
        <time>2019-08-30T10:32:45.000Z</time>
      </trkpt>
      <trkpt lat="50.63835" lon="5.22251">
        <ele>154.39999389648</ele>
        <time>2019-08-30T10:32:51.000Z</time>
      </trkpt>
      <trkpt lat="50.63823" lon="5.22269">
        <ele>154.39999389648</ele>
        <time>2019-08-30T10:32:56.000Z</time>
      </trkpt>
      <trkpt lat="50.63809" lon="5.22292">
        <ele>154.39999389648</ele>
        <time>2019-08-30T10:33:02.000Z</time>
      </trkpt>
      <trkpt lat="50.63795" lon="5.22312">
        <ele>154.39999389648</ele>
        <time>2019-08-30T10:33:09.000Z</time>
      </trkpt>
      <trkpt lat="50.63794" lon="5.22314">
        <ele>154.39999389648</ele>
        <time>2019-08-30T10:33:10.000Z</time>
      </trkpt>
      <trkpt lat="50.63794" lon="5.22314">
        <ele>154.39999389648</ele>
        <time>2019-08-30T10:33:11.000Z</time>
      </trkpt>
      <trkpt lat="50.63792" lon="5.22316">
        <ele>154.39999389648</ele>
        <time>2019-08-30T10:33:18.000Z</time>
      </trkpt>
      <trkpt lat="50.63782" lon="5.22332">
        <ele>154.39999389648</ele>
        <time>2019-08-30T10:33:24.000Z</time>
      </trkpt>
      <trkpt lat="50.63781" lon="5.22356">
        <ele>154.39999389648</ele>
        <time>2019-08-30T10:33:30.000Z</time>
      </trkpt>
      <trkpt lat="50.63783" lon="5.22362">
        <ele>154.39999389648</ele>
        <time>2019-08-30T10:33:33.000Z</time>
      </trkpt>
      <trkpt lat="50.63783" lon="5.22364">
        <ele>154.39999389648</ele>
        <time>2019-08-30T10:33:38.000Z</time>
      </trkpt>
      <trkpt lat="50.63787" lon="5.22377">
        <ele>154.39999389648</ele>
        <time>2019-08-30T10:33:42.000Z</time>
      </trkpt>
      <trkpt lat="50.63796" lon="5.22408">
        <ele>154.39999389648</ele>
        <time>2019-08-30T10:33:49.000Z</time>
      </trkpt>
      <trkpt lat="50.63804" lon="5.22434">
        <ele>154.39999389648</ele>
        <time>2019-08-30T10:33:55.000Z</time>
      </trkpt>
      <trkpt lat="50.63811" lon="5.22458">
        <ele>154.39999389648</ele>
        <time>2019-08-30T10:34:00.000Z</time>
      </trkpt>
      <trkpt lat="50.63815" lon="5.22472">
        <ele>154.80000305176</ele>
        <time>2019-08-30T10:34:03.000Z</time>
      </trkpt>
      <trkpt lat="50.63817" lon="5.22477">
        <ele>155.19999694824</ele>
        <time>2019-08-30T10:34:04.000Z</time>
      </trkpt>
      <trkpt lat="50.63817" lon="5.22482">
        <ele>155.80000305176</ele>
        <time>2019-08-30T10:34:05.000Z</time>
      </trkpt>
      <trkpt lat="50.63818" lon="5.22487">
        <ele>156.19999694824</ele>
        <time>2019-08-30T10:34:06.000Z</time>
      </trkpt>
      <trkpt lat="50.63819" lon="5.22492">
        <ele>156.60000610352</ele>
        <time>2019-08-30T10:34:07.000Z</time>
      </trkpt>
      <trkpt lat="50.63821" lon="5.22507">
        <ele>156.60000610352</ele>
        <time>2019-08-30T10:34:10.000Z</time>
      </trkpt>
      <trkpt lat="50.63818" lon="5.22538">
        <ele>156.60000610352</ele>
        <time>2019-08-30T10:34:16.000Z</time>
      </trkpt>
      <trkpt lat="50.63812" lon="5.22572">
        <ele>157</ele>
        <time>2019-08-30T10:34:23.000Z</time>
      </trkpt>
      <trkpt lat="50.63812" lon="5.22577">
        <ele>157.39999389648</ele>
        <time>2019-08-30T10:34:24.000Z</time>
      </trkpt>
      <trkpt lat="50.63811" lon="5.22582">
        <ele>157.80000305176</ele>
        <time>2019-08-30T10:34:25.000Z</time>
      </trkpt>
      <trkpt lat="50.6381" lon="5.22587">
        <ele>158.19999694824</ele>
        <time>2019-08-30T10:34:26.000Z</time>
      </trkpt>
      <trkpt lat="50.63809" lon="5.22591">
        <ele>158.60000610352</ele>
        <time>2019-08-30T10:34:27.000Z</time>
      </trkpt>
      <trkpt lat="50.63806" lon="5.2261">
        <ele>158.60000610352</ele>
        <time>2019-08-30T10:34:31.000Z</time>
      </trkpt>
      <trkpt lat="50.63801" lon="5.22639">
        <ele>158.60000610352</ele>
        <time>2019-08-30T10:34:37.000Z</time>
      </trkpt>
      <trkpt lat="50.63798" lon="5.22659">
        <ele>159</ele>
        <time>2019-08-30T10:34:41.000Z</time>
      </trkpt>
      <trkpt lat="50.63798" lon="5.22664">
        <ele>159.39999389648</ele>
        <time>2019-08-30T10:34:42.000Z</time>
      </trkpt>
      <trkpt lat="50.63797" lon="5.22668">
        <ele>159.80000305176</ele>
        <time>2019-08-30T10:34:43.000Z</time>
      </trkpt>
      <trkpt lat="50.63796" lon="5.22674">
        <ele>160.19999694824</ele>
        <time>2019-08-30T10:34:44.000Z</time>
      </trkpt>
      <trkpt lat="50.63796" lon="5.22679">
        <ele>160.60000610352</ele>
        <time>2019-08-30T10:34:45.000Z</time>
      </trkpt>
      <trkpt lat="50.63795" lon="5.22684">
        <ele>160.60000610352</ele>
        <time>2019-08-30T10:34:46.000Z</time>
      </trkpt>
      <trkpt lat="50.63786" lon="5.22705">
        <ele>160.60000610352</ele>
        <time>2019-08-30T10:34:51.000Z</time>
      </trkpt>
      <trkpt lat="50.63774" lon="5.22715">
        <ele>160.60000610352</ele>
        <time>2019-08-30T10:34:55.000Z</time>
      </trkpt>
      <trkpt lat="50.63755" lon="5.2273">
        <ele>160.60000610352</ele>
        <time>2019-08-30T10:35:01.000Z</time>
      </trkpt>
      <trkpt lat="50.63726" lon="5.22753">
        <ele>160.60000610352</ele>
        <time>2019-08-30T10:35:10.000Z</time>
      </trkpt>
      <trkpt lat="50.63705" lon="5.22768">
        <ele>160.60000610352</ele>
        <time>2019-08-30T10:35:16.000Z</time>
      </trkpt>
      <trkpt lat="50.63679" lon="5.22788">
        <ele>160.60000610352</ele>
        <time>2019-08-30T10:35:23.000Z</time>
      </trkpt>
      <trkpt lat="50.63671" lon="5.22794">
        <ele>160.60000610352</ele>
        <time>2019-08-30T10:35:25.000Z</time>
      </trkpt>
      <trkpt lat="50.63651" lon="5.22809">
        <ele>160.60000610352</ele>
        <time>2019-08-30T10:35:30.000Z</time>
      </trkpt>
      <trkpt lat="50.63647" lon="5.22812">
        <ele>160.19999694824</ele>
        <time>2019-08-30T10:35:32.000Z</time>
      </trkpt>
      <trkpt lat="50.63645" lon="5.22813">
        <ele>159.80000305176</ele>
        <time>2019-08-30T10:35:33.000Z</time>
      </trkpt>
      <trkpt lat="50.63643" lon="5.22815">
        <ele>159.39999389648</ele>
        <time>2019-08-30T10:35:34.000Z</time>
      </trkpt>
      <trkpt lat="50.63641" lon="5.22817">
        <ele>159</ele>
        <time>2019-08-30T10:35:35.000Z</time>
      </trkpt>
      <trkpt lat="50.63639" lon="5.22819">
        <ele>158.39999389648</ele>
        <time>2019-08-30T10:35:36.000Z</time>
      </trkpt>
      <trkpt lat="50.63633" lon="5.22825">
        <ele>158.39999389648</ele>
        <time>2019-08-30T10:35:40.000Z</time>
      </trkpt>
      <trkpt lat="50.63631" lon="5.22826">
        <ele>158.39999389648</ele>
        <time>2019-08-30T10:35:49.000Z</time>
      </trkpt>
      <trkpt lat="50.63625" lon="5.22828">
        <ele>158.39999389648</ele>
        <time>2019-08-30T10:35:51.000Z</time>
      </trkpt>
      <trkpt lat="50.63613" lon="5.22839">
        <ele>158.39999389648</ele>
        <time>2019-08-30T10:35:55.000Z</time>
      </trkpt>
      <trkpt lat="50.63593" lon="5.22857">
        <ele>158.39999389648</ele>
        <time>2019-08-30T10:36:01.000Z</time>
      </trkpt>
      <trkpt lat="50.63577" lon="5.22871">
        <ele>158.39999389648</ele>
        <time>2019-08-30T10:36:06.000Z</time>
      </trkpt>
      <trkpt lat="50.63566" lon="5.22898">
        <ele>158.39999389648</ele>
        <time>2019-08-30T10:36:12.000Z</time>
      </trkpt>
      <trkpt lat="50.63572" lon="5.22919">
        <ele>158.39999389648</ele>
        <time>2019-08-30T10:36:16.000Z</time>
      </trkpt>
      <trkpt lat="50.63587" lon="5.22952">
        <ele>158.39999389648</ele>
        <time>2019-08-30T10:36:23.000Z</time>
      </trkpt>
      <trkpt lat="50.63604" lon="5.22982">
        <ele>158.39999389648</ele>
        <time>2019-08-30T10:36:30.000Z</time>
      </trkpt>
      <trkpt lat="50.6361" lon="5.22996">
        <ele>158</ele>
        <time>2019-08-30T10:36:33.000Z</time>
      </trkpt>
      <trkpt lat="50.63612" lon="5.23001">
        <ele>157.60000610352</ele>
        <time>2019-08-30T10:36:34.000Z</time>
      </trkpt>
      <trkpt lat="50.63614" lon="5.23006">
        <ele>157.19999694824</ele>
        <time>2019-08-30T10:36:35.000Z</time>
      </trkpt>
      <trkpt lat="50.63617" lon="5.23011">
        <ele>156.39999389648</ele>
        <time>2019-08-30T10:36:36.000Z</time>
      </trkpt>
      <trkpt lat="50.63619" lon="5.23016">
        <ele>156.39999389648</ele>
        <time>2019-08-30T10:36:37.000Z</time>
      </trkpt>
      <trkpt lat="50.63636" lon="5.23046">
        <ele>156.39999389648</ele>
        <time>2019-08-30T10:36:43.000Z</time>
      </trkpt>
      <trkpt lat="50.63644" lon="5.23061">
        <ele>156.39999389648</ele>
        <time>2019-08-30T10:36:46.000Z</time>
      </trkpt>
      <trkpt lat="50.63651" lon="5.23077">
        <ele>156.39999389648</ele>
        <time>2019-08-30T10:36:49.000Z</time>
      </trkpt>
      <trkpt lat="50.63654" lon="5.23081">
        <ele>156.39999389648</ele>
        <time>2019-08-30T10:36:50.000Z</time>
      </trkpt>
      <trkpt lat="50.63663" lon="5.23099">
        <ele>156.39999389648</ele>
        <time>2019-08-30T10:36:54.000Z</time>
      </trkpt>
      <trkpt lat="50.63671" lon="5.23112">
        <ele>156.39999389648</ele>
        <time>2019-08-30T10:36:59.000Z</time>
      </trkpt>
      <trkpt lat="50.63671" lon="5.23112">
        <ele>156.39999389648</ele>
        <time>2019-08-30T10:37:04.000Z</time>
      </trkpt>
      <trkpt lat="50.63676" lon="5.2312">
        <ele>156.39999389648</ele>
        <time>2019-08-30T10:37:07.000Z</time>
      </trkpt>
      <trkpt lat="50.63685" lon="5.2314">
        <ele>156.39999389648</ele>
        <time>2019-08-30T10:37:12.000Z</time>
      </trkpt>
      <trkpt lat="50.63687" lon="5.23149">
        <ele>156.39999389648</ele>
        <time>2019-08-30T10:37:14.000Z</time>
      </trkpt>
      <trkpt lat="50.63688" lon="5.23158">
        <ele>156.39999389648</ele>
        <time>2019-08-30T10:37:16.000Z</time>
      </trkpt>
      <trkpt lat="50.63682" lon="5.23175">
        <ele>156.39999389648</ele>
        <time>2019-08-30T10:37:20.000Z</time>
      </trkpt>
      <trkpt lat="50.6368" lon="5.23179">
        <ele>156.39999389648</ele>
        <time>2019-08-30T10:37:21.000Z</time>
      </trkpt>
      <trkpt lat="50.63679" lon="5.23181">
        <ele>156.39999389648</ele>
        <time>2019-08-30T10:37:23.000Z</time>
      </trkpt>
      <trkpt lat="50.63679" lon="5.23181">
        <ele>156.39999389648</ele>
        <time>2019-08-30T10:37:28.000Z</time>
      </trkpt>
      <trkpt lat="50.63671" lon="5.23197">
        <ele>156.39999389648</ele>
        <time>2019-08-30T10:37:33.000Z</time>
      </trkpt>
      <trkpt lat="50.63658" lon="5.23227">
        <ele>156.39999389648</ele>
        <time>2019-08-30T10:37:40.000Z</time>
      </trkpt>
      <trkpt lat="50.63646" lon="5.23252">
        <ele>156.39999389648</ele>
        <time>2019-08-30T10:37:46.000Z</time>
      </trkpt>
      <trkpt lat="50.63635" lon="5.23275">
        <ele>156.39999389648</ele>
        <time>2019-08-30T10:37:52.000Z</time>
      </trkpt>
      <trkpt lat="50.63622" lon="5.23303">
        <ele>156.39999389648</ele>
        <time>2019-08-30T10:37:59.000Z</time>
      </trkpt>
      <trkpt lat="50.6361" lon="5.23327">
        <ele>156.39999389648</ele>
        <time>2019-08-30T10:38:05.000Z</time>
      </trkpt>
      <trkpt lat="50.636" lon="5.23347">
        <ele>156.39999389648</ele>
        <time>2019-08-30T10:38:10.000Z</time>
      </trkpt>
      <trkpt lat="50.63587" lon="5.23375">
        <ele>156.39999389648</ele>
        <time>2019-08-30T10:38:17.000Z</time>
      </trkpt>
      <trkpt lat="50.63572" lon="5.23409">
        <ele>156.39999389648</ele>
        <time>2019-08-30T10:38:25.000Z</time>
      </trkpt>
      <trkpt lat="50.63568" lon="5.23418">
        <ele>156.80000305176</ele>
        <time>2019-08-30T10:38:27.000Z</time>
      </trkpt>
      <trkpt lat="50.63567" lon="5.23423">
        <ele>157.19999694824</ele>
        <time>2019-08-30T10:38:28.000Z</time>
      </trkpt>
      <trkpt lat="50.63565" lon="5.23427">
        <ele>157.80000305176</ele>
        <time>2019-08-30T10:38:29.000Z</time>
      </trkpt>
      <trkpt lat="50.63564" lon="5.23432">
        <ele>158.19999694824</ele>
        <time>2019-08-30T10:38:30.000Z</time>
      </trkpt>
      <trkpt lat="50.63562" lon="5.23437">
        <ele>158.60000610352</ele>
        <time>2019-08-30T10:38:31.000Z</time>
      </trkpt>
      <trkpt lat="50.6356" lon="5.23441">
        <ele>158.60000610352</ele>
        <time>2019-08-30T10:38:32.000Z</time>
      </trkpt>
      <trkpt lat="50.63549" lon="5.2348">
        <ele>158.60000610352</ele>
        <time>2019-08-30T10:38:40.000Z</time>
      </trkpt>
      <trkpt lat="50.63537" lon="5.23518">
        <ele>158.60000610352</ele>
        <time>2019-08-30T10:38:48.000Z</time>
      </trkpt>
      <trkpt lat="50.63527" lon="5.23549">
        <ele>158.60000610352</ele>
        <time>2019-08-30T10:38:55.000Z</time>
      </trkpt>
      <trkpt lat="50.63526" lon="5.23554">
        <ele>159</ele>
        <time>2019-08-30T10:38:56.000Z</time>
      </trkpt>
      <trkpt lat="50.63525" lon="5.23559">
        <ele>159.39999389648</ele>
        <time>2019-08-30T10:38:57.000Z</time>
      </trkpt>
      <trkpt lat="50.63523" lon="5.23563">
        <ele>159.80000305176</ele>
        <time>2019-08-30T10:38:58.000Z</time>
      </trkpt>
      <trkpt lat="50.63522" lon="5.23568">
        <ele>160.19999694824</ele>
        <time>2019-08-30T10:38:59.000Z</time>
      </trkpt>
      <trkpt lat="50.6352" lon="5.23572">
        <ele>160.60000610352</ele>
        <time>2019-08-30T10:39:00.000Z</time>
      </trkpt>
      <trkpt lat="50.63517" lon="5.23583">
        <ele>160.60000610352</ele>
        <time>2019-08-30T10:39:02.000Z</time>
      </trkpt>
      <trkpt lat="50.63508" lon="5.23612">
        <ele>160.60000610352</ele>
        <time>2019-08-30T10:39:07.000Z</time>
      </trkpt>
      <trkpt lat="50.63506" lon="5.23618">
        <ele>160.60000610352</ele>
        <time>2019-08-30T10:39:08.000Z</time>
      </trkpt>
      <trkpt lat="50.6349" lon="5.23671">
        <ele>160.19999694824</ele>
        <time>2019-08-30T10:39:15.000Z</time>
      </trkpt>
      <trkpt lat="50.63487" lon="5.2368">
        <ele>159.80000305176</ele>
        <time>2019-08-30T10:39:16.000Z</time>
      </trkpt>
      <trkpt lat="50.63484" lon="5.23688">
        <ele>159.19999694824</ele>
        <time>2019-08-30T10:39:17.000Z</time>
      </trkpt>
      <trkpt lat="50.63482" lon="5.23697">
        <ele>158.80000305176</ele>
        <time>2019-08-30T10:39:18.000Z</time>
      </trkpt>
      <trkpt lat="50.63479" lon="5.23706">
        <ele>158.39999389648</ele>
        <time>2019-08-30T10:39:19.000Z</time>
      </trkpt>
      <trkpt lat="50.6347" lon="5.23734">
        <ele>158.39999389648</ele>
        <time>2019-08-30T10:39:22.000Z</time>
      </trkpt>
      <trkpt lat="50.63453" lon="5.23792">
        <ele>158.39999389648</ele>
        <time>2019-08-30T10:39:29.000Z</time>
      </trkpt>
      <trkpt lat="50.63437" lon="5.23842">
        <ele>158.39999389648</ele>
        <time>2019-08-30T10:39:36.000Z</time>
      </trkpt>
      <trkpt lat="50.63435" lon="5.23849">
        <ele>158.39999389648</ele>
        <time>2019-08-30T10:39:37.000Z</time>
      </trkpt>
      <trkpt lat="50.63427" lon="5.23876">
        <ele>158.39999389648</ele>
        <time>2019-08-30T10:39:42.000Z</time>
      </trkpt>
      <trkpt lat="50.63417" lon="5.23907">
        <ele>158.39999389648</ele>
        <time>2019-08-30T10:39:48.000Z</time>
      </trkpt>
      <trkpt lat="50.63401" lon="5.23955">
        <ele>158.39999389648</ele>
        <time>2019-08-30T10:39:58.000Z</time>
      </trkpt>
      <trkpt lat="50.63393" lon="5.23983">
        <ele>158.39999389648</ele>
        <time>2019-08-30T10:40:04.000Z</time>
      </trkpt>
      <trkpt lat="50.63382" lon="5.24014">
        <ele>158.39999389648</ele>
        <time>2019-08-30T10:40:11.000Z</time>
      </trkpt>
      <trkpt lat="50.63381" lon="5.24019">
        <ele>158.80000305176</ele>
        <time>2019-08-30T10:40:12.000Z</time>
      </trkpt>
      <trkpt lat="50.6338" lon="5.24023">
        <ele>159.19999694824</ele>
        <time>2019-08-30T10:40:13.000Z</time>
      </trkpt>
      <trkpt lat="50.63379" lon="5.24028">
        <ele>159.60000610352</ele>
        <time>2019-08-30T10:40:14.000Z</time>
      </trkpt>
      <trkpt lat="50.63378" lon="5.24033">
        <ele>160.19999694824</ele>
        <time>2019-08-30T10:40:15.000Z</time>
      </trkpt>
      <trkpt lat="50.63376" lon="5.24037">
        <ele>160.60000610352</ele>
        <time>2019-08-30T10:40:16.000Z</time>
      </trkpt>
      <trkpt lat="50.63375" lon="5.24041">
        <ele>160.60000610352</ele>
        <time>2019-08-30T10:40:17.000Z</time>
      </trkpt>
      <trkpt lat="50.63365" lon="5.24076">
        <ele>160.60000610352</ele>
        <time>2019-08-30T10:40:25.000Z</time>
      </trkpt>
      <trkpt lat="50.63355" lon="5.24109">
        <ele>160.60000610352</ele>
        <time>2019-08-30T10:40:32.000Z</time>
      </trkpt>
      <trkpt lat="50.6335" lon="5.24123">
        <ele>161</ele>
        <time>2019-08-30T10:40:35.000Z</time>
      </trkpt>
      <trkpt lat="50.63348" lon="5.24127">
        <ele>161.39999389648</ele>
        <time>2019-08-30T10:40:36.000Z</time>
      </trkpt>
      <trkpt lat="50.63347" lon="5.24132">
        <ele>161.80000305176</ele>
        <time>2019-08-30T10:40:37.000Z</time>
      </trkpt>
      <trkpt lat="50.63346" lon="5.24137">
        <ele>162.19999694824</ele>
        <time>2019-08-30T10:40:38.000Z</time>
      </trkpt>
      <trkpt lat="50.63344" lon="5.24142">
        <ele>162.60000610352</ele>
        <time>2019-08-30T10:40:39.000Z</time>
      </trkpt>
      <trkpt lat="50.63334" lon="5.24163">
        <ele>162.60000610352</ele>
        <time>2019-08-30T10:40:44.000Z</time>
      </trkpt>
      <trkpt lat="50.63315" lon="5.24191">
        <ele>162.60000610352</ele>
        <time>2019-08-30T10:40:51.000Z</time>
      </trkpt>
      <trkpt lat="50.63296" lon="5.24217">
        <ele>162.60000610352</ele>
        <time>2019-08-30T10:40:58.000Z</time>
      </trkpt>
      <trkpt lat="50.63295" lon="5.24219">
        <ele>162.60000610352</ele>
        <time>2019-08-30T10:41:00.000Z</time>
      </trkpt>
      <trkpt lat="50.63293" lon="5.24223">
        <ele>162.60000610352</ele>
        <time>2019-08-30T10:41:16.000Z</time>
      </trkpt>
      <trkpt lat="50.63288" lon="5.24239">
        <ele>162.60000610352</ele>
        <time>2019-08-30T10:41:21.000Z</time>
      </trkpt>
      <trkpt lat="50.63288" lon="5.24246">
        <ele>162.60000610352</ele>
        <time>2019-08-30T10:41:23.000Z</time>
      </trkpt>
      <trkpt lat="50.63291" lon="5.24258">
        <ele>162.19999694824</ele>
        <time>2019-08-30T10:41:26.000Z</time>
      </trkpt>
      <trkpt lat="50.63292" lon="5.24261">
        <ele>161.80000305176</ele>
        <time>2019-08-30T10:41:27.000Z</time>
      </trkpt>
      <trkpt lat="50.63292" lon="5.24262">
        <ele>161.39999389648</ele>
        <time>2019-08-30T10:41:28.000Z</time>
      </trkpt>
      <trkpt lat="50.63292" lon="5.24262">
        <ele>161</ele>
        <time>2019-08-30T10:41:29.000Z</time>
      </trkpt>
      <trkpt lat="50.63294" lon="5.24263">
        <ele>160.60000610352</ele>
        <time>2019-08-30T10:41:34.000Z</time>
      </trkpt>
      <trkpt lat="50.63296" lon="5.24266">
        <ele>160.60000610352</ele>
        <time>2019-08-30T10:41:36.000Z</time>
      </trkpt>
      <trkpt lat="50.633" lon="5.24283">
        <ele>160.60000610352</ele>
        <time>2019-08-30T10:41:41.000Z</time>
      </trkpt>
      <trkpt lat="50.63308" lon="5.24302">
        <ele>160.60000610352</ele>
        <time>2019-08-30T10:41:46.000Z</time>
      </trkpt>
      <trkpt lat="50.63317" lon="5.24324">
        <ele>160.60000610352</ele>
        <time>2019-08-30T10:41:53.000Z</time>
      </trkpt>
      <trkpt lat="50.63317" lon="5.24323">
        <ele>160.60000610352</ele>
        <time>2019-08-30T10:41:54.000Z</time>
      </trkpt>
      <trkpt lat="50.63318" lon="5.24324">
        <ele>160.60000610352</ele>
        <time>2019-08-30T10:41:58.000Z</time>
      </trkpt>
      <trkpt lat="50.6332" lon="5.24329">
        <ele>160.60000610352</ele>
        <time>2019-08-30T10:42:00.000Z</time>
      </trkpt>
      <trkpt lat="50.63333" lon="5.24342">
        <ele>160.60000610352</ele>
        <time>2019-08-30T10:42:06.000Z</time>
      </trkpt>
      <trkpt lat="50.63346" lon="5.24344">
        <ele>160.60000610352</ele>
        <time>2019-08-30T10:42:11.000Z</time>
      </trkpt>
      <trkpt lat="50.6336" lon="5.24343">
        <ele>160.60000610352</ele>
        <time>2019-08-30T10:42:17.000Z</time>
      </trkpt>
      <trkpt lat="50.6336" lon="5.24343">
        <ele>160.60000610352</ele>
        <time>2019-08-30T10:42:19.000Z</time>
      </trkpt>
      <trkpt lat="50.63361" lon="5.24343">
        <ele>160.60000610352</ele>
        <time>2019-08-30T10:42:24.000Z</time>
      </trkpt>
      <trkpt lat="50.63371" lon="5.24348">
        <ele>160.60000610352</ele>
        <time>2019-08-30T10:42:28.000Z</time>
      </trkpt>
      <trkpt lat="50.63377" lon="5.24351">
        <ele>160.60000610352</ele>
        <time>2019-08-30T10:42:30.000Z</time>
      </trkpt>
      <trkpt lat="50.63389" lon="5.2436">
        <ele>160.60000610352</ele>
        <time>2019-08-30T10:42:34.000Z</time>
      </trkpt>
      <trkpt lat="50.63408" lon="5.24374">
        <ele>160.60000610352</ele>
        <time>2019-08-30T10:42:40.000Z</time>
      </trkpt>
      <trkpt lat="50.63435" lon="5.24405">
        <ele>160.60000610352</ele>
        <time>2019-08-30T10:42:49.000Z</time>
      </trkpt>
      <trkpt lat="50.63456" lon="5.24429">
        <ele>160.60000610352</ele>
        <time>2019-08-30T10:42:56.000Z</time>
      </trkpt>
      <trkpt lat="50.63476" lon="5.24453">
        <ele>160.60000610352</ele>
        <time>2019-08-30T10:43:03.000Z</time>
      </trkpt>
      <trkpt lat="50.63506" lon="5.24487">
        <ele>160.60000610352</ele>
        <time>2019-08-30T10:43:13.000Z</time>
      </trkpt>
      <trkpt lat="50.63521" lon="5.24505">
        <ele>160.60000610352</ele>
        <time>2019-08-30T10:43:18.000Z</time>
      </trkpt>
      <trkpt lat="50.63542" lon="5.24534">
        <ele>160.60000610352</ele>
        <time>2019-08-30T10:43:25.000Z</time>
      </trkpt>
      <trkpt lat="50.63553" lon="5.24554">
        <ele>160.60000610352</ele>
        <time>2019-08-30T10:43:29.000Z</time>
      </trkpt>
      <trkpt lat="50.63557" lon="5.2456">
        <ele>160.19999694824</ele>
        <time>2019-08-30T10:43:30.000Z</time>
      </trkpt>
      <trkpt lat="50.6356" lon="5.24566">
        <ele>159.80000305176</ele>
        <time>2019-08-30T10:43:31.000Z</time>
      </trkpt>
      <trkpt lat="50.63563" lon="5.24573">
        <ele>159.39999389648</ele>
        <time>2019-08-30T10:43:32.000Z</time>
      </trkpt>
      <trkpt lat="50.63565" lon="5.2458">
        <ele>159</ele>
        <time>2019-08-30T10:43:33.000Z</time>
      </trkpt>
      <trkpt lat="50.63569" lon="5.24586">
        <ele>158.60000610352</ele>
        <time>2019-08-30T10:43:34.000Z</time>
      </trkpt>
      <trkpt lat="50.63571" lon="5.24593">
        <ele>158.60000610352</ele>
        <time>2019-08-30T10:43:35.000Z</time>
      </trkpt>
      <trkpt lat="50.63577" lon="5.24608">
        <ele>158.60000610352</ele>
        <time>2019-08-30T10:43:37.000Z</time>
      </trkpt>
      <trkpt lat="50.63599" lon="5.24661">
        <ele>158.19999694824</ele>
        <time>2019-08-30T10:43:44.000Z</time>
      </trkpt>
      <trkpt lat="50.63603" lon="5.24668">
        <ele>157.60000610352</ele>
        <time>2019-08-30T10:43:45.000Z</time>
      </trkpt>
      <trkpt lat="50.63606" lon="5.24676">
        <ele>157.19999694824</ele>
        <time>2019-08-30T10:43:46.000Z</time>
      </trkpt>
      <trkpt lat="50.63609" lon="5.24684">
        <ele>156.80000305176</ele>
        <time>2019-08-30T10:43:47.000Z</time>
      </trkpt>
      <trkpt lat="50.63612" lon="5.24691">
        <ele>156.39999389648</ele>
        <time>2019-08-30T10:43:48.000Z</time>
      </trkpt>
      <trkpt lat="50.63623" lon="5.24721">
        <ele>156.39999389648</ele>
        <time>2019-08-30T10:43:52.000Z</time>
      </trkpt>
      <trkpt lat="50.63643" lon="5.24768">
        <ele>156.39999389648</ele>
        <time>2019-08-30T10:43:59.000Z</time>
      </trkpt>
      <trkpt lat="50.63645" lon="5.24775">
        <ele>156.39999389648</ele>
        <time>2019-08-30T10:44:00.000Z</time>
      </trkpt>
      <trkpt lat="50.63656" lon="5.24801">
        <ele>156</ele>
        <time>2019-08-30T10:44:04.000Z</time>
      </trkpt>
      <trkpt lat="50.63659" lon="5.24808">
        <ele>155.60000610352</ele>
        <time>2019-08-30T10:44:05.000Z</time>
      </trkpt>
      <trkpt lat="50.63661" lon="5.24814">
        <ele>155.19999694824</ele>
        <time>2019-08-30T10:44:06.000Z</time>
      </trkpt>
      <trkpt lat="50.63663" lon="5.2482">
        <ele>154.80000305176</ele>
        <time>2019-08-30T10:44:07.000Z</time>
      </trkpt>
      <trkpt lat="50.63666" lon="5.24826">
        <ele>154.39999389648</ele>
        <time>2019-08-30T10:44:08.000Z</time>
      </trkpt>
      <trkpt lat="50.63682" lon="5.24868">
        <ele>154.39999389648</ele>
        <time>2019-08-30T10:44:15.000Z</time>
      </trkpt>
      <trkpt lat="50.63685" lon="5.24873">
        <ele>154.39999389648</ele>
        <time>2019-08-30T10:44:16.000Z</time>
      </trkpt>
      <trkpt lat="50.63702" lon="5.2492">
        <ele>154.39999389648</ele>
        <time>2019-08-30T10:44:24.000Z</time>
      </trkpt>
      <trkpt lat="50.63708" lon="5.24937">
        <ele>154.39999389648</ele>
        <time>2019-08-30T10:44:29.000Z</time>
      </trkpt>
      <trkpt lat="50.63708" lon="5.24936">
        <ele>154.39999389648</ele>
        <time>2019-08-30T10:44:30.000Z</time>
      </trkpt>
      <trkpt lat="50.63708" lon="5.24938">
        <ele>154.39999389648</ele>
        <time>2019-08-30T10:44:34.000Z</time>
      </trkpt>
      <trkpt lat="50.6371" lon="5.24945">
        <ele>154.39999389648</ele>
        <time>2019-08-30T10:44:36.000Z</time>
      </trkpt>
      <trkpt lat="50.63715" lon="5.24959">
        <ele>154.39999389648</ele>
        <time>2019-08-30T10:44:39.000Z</time>
      </trkpt>
      <trkpt lat="50.63719" lon="5.24974">
        <ele>154.39999389648</ele>
        <time>2019-08-30T10:44:42.000Z</time>
      </trkpt>
      <trkpt lat="50.63728" lon="5.25001">
        <ele>154.39999389648</ele>
        <time>2019-08-30T10:44:48.000Z</time>
      </trkpt>
      <trkpt lat="50.6373" lon="5.25016">
        <ele>154.39999389648</ele>
        <time>2019-08-30T10:44:53.000Z</time>
      </trkpt>
      <trkpt lat="50.63731" lon="5.25019">
        <ele>154.39999389648</ele>
        <time>2019-08-30T10:45:06.000Z</time>
      </trkpt>
      <trkpt lat="50.63733" lon="5.25025">
        <ele>154.39999389648</ele>
        <time>2019-08-30T10:45:08.000Z</time>
      </trkpt>
      <trkpt lat="50.6374" lon="5.25047">
        <ele>154.39999389648</ele>
        <time>2019-08-30T10:45:14.000Z</time>
      </trkpt>
      <trkpt lat="50.6375" lon="5.25071">
        <ele>154.39999389648</ele>
        <time>2019-08-30T10:45:20.000Z</time>
      </trkpt>
      <trkpt lat="50.63755" lon="5.25089">
        <ele>154.39999389648</ele>
        <time>2019-08-30T10:45:24.000Z</time>
      </trkpt>
      <trkpt lat="50.63765" lon="5.25121">
        <ele>154.39999389648</ele>
        <time>2019-08-30T10:45:31.000Z</time>
      </trkpt>
      <trkpt lat="50.63774" lon="5.2515">
        <ele>154.39999389648</ele>
        <time>2019-08-30T10:45:37.000Z</time>
      </trkpt>
      <trkpt lat="50.63784" lon="5.2518">
        <ele>154.39999389648</ele>
        <time>2019-08-30T10:45:43.000Z</time>
      </trkpt>
      <trkpt lat="50.63795" lon="5.25209">
        <ele>154.39999389648</ele>
        <time>2019-08-30T10:45:49.000Z</time>
      </trkpt>
      <trkpt lat="50.63802" lon="5.25234">
        <ele>154.39999389648</ele>
        <time>2019-08-30T10:45:54.000Z</time>
      </trkpt>
      <trkpt lat="50.63811" lon="5.25265">
        <ele>154.39999389648</ele>
        <time>2019-08-30T10:46:00.000Z</time>
      </trkpt>
      <trkpt lat="50.63822" lon="5.25302">
        <ele>154.39999389648</ele>
        <time>2019-08-30T10:46:07.000Z</time>
      </trkpt>
      <trkpt lat="50.63824" lon="5.25307">
        <ele>154.80000305176</ele>
        <time>2019-08-30T10:46:08.000Z</time>
      </trkpt>
      <trkpt lat="50.63825" lon="5.25312">
        <ele>155.19999694824</ele>
        <time>2019-08-30T10:46:09.000Z</time>
      </trkpt>
      <trkpt lat="50.63826" lon="5.25318">
        <ele>155.60000610352</ele>
        <time>2019-08-30T10:46:10.000Z</time>
      </trkpt>
      <trkpt lat="50.63828" lon="5.25323">
        <ele>156</ele>
        <time>2019-08-30T10:46:11.000Z</time>
      </trkpt>
      <trkpt lat="50.6383" lon="5.25328">
        <ele>156.39999389648</ele>
        <time>2019-08-30T10:46:12.000Z</time>
      </trkpt>
      <trkpt lat="50.63834" lon="5.25343">
        <ele>156.39999389648</ele>
        <time>2019-08-30T10:46:15.000Z</time>
      </trkpt>
      <trkpt lat="50.63844" lon="5.25375">
        <ele>156.39999389648</ele>
        <time>2019-08-30T10:46:21.000Z</time>
      </trkpt>
      <trkpt lat="50.6386" lon="5.25424">
        <ele>156.39999389648</ele>
        <time>2019-08-30T10:46:30.000Z</time>
      </trkpt>
      <trkpt lat="50.63873" lon="5.25466">
        <ele>156.39999389648</ele>
        <time>2019-08-30T10:46:38.000Z</time>
      </trkpt>
      <trkpt lat="50.6388" lon="5.25489">
        <ele>156.80000305176</ele>
        <time>2019-08-30T10:46:42.000Z</time>
      </trkpt>
      <trkpt lat="50.63882" lon="5.25494">
        <ele>157.19999694824</ele>
        <time>2019-08-30T10:46:43.000Z</time>
      </trkpt>
      <trkpt lat="50.63884" lon="5.255">
        <ele>157.60000610352</ele>
        <time>2019-08-30T10:46:44.000Z</time>
      </trkpt>
      <trkpt lat="50.63885" lon="5.25505">
        <ele>158</ele>
        <time>2019-08-30T10:46:45.000Z</time>
      </trkpt>
      <trkpt lat="50.63887" lon="5.25511">
        <ele>158.60000610352</ele>
        <time>2019-08-30T10:46:46.000Z</time>
      </trkpt>
      <trkpt lat="50.639" lon="5.2555">
        <ele>158.60000610352</ele>
        <time>2019-08-30T10:46:53.000Z</time>
      </trkpt>
      <trkpt lat="50.63918" lon="5.25607">
        <ele>158.60000610352</ele>
        <time>2019-08-30T10:47:03.000Z</time>
      </trkpt>
      <trkpt lat="50.63933" lon="5.25659">
        <ele>158.60000610352</ele>
        <time>2019-08-30T10:47:12.000Z</time>
      </trkpt>
      <trkpt lat="50.63948" lon="5.25704">
        <ele>158.60000610352</ele>
        <time>2019-08-30T10:47:20.000Z</time>
      </trkpt>
      <trkpt lat="50.6396" lon="5.25744">
        <ele>159</ele>
        <time>2019-08-30T10:47:27.000Z</time>
      </trkpt>
      <trkpt lat="50.63962" lon="5.2575">
        <ele>159.39999389648</ele>
        <time>2019-08-30T10:47:28.000Z</time>
      </trkpt>
      <trkpt lat="50.63964" lon="5.25756">
        <ele>159.80000305176</ele>
        <time>2019-08-30T10:47:29.000Z</time>
      </trkpt>
      <trkpt lat="50.63966" lon="5.25761">
        <ele>160.19999694824</ele>
        <time>2019-08-30T10:47:30.000Z</time>
      </trkpt>
      <trkpt lat="50.63968" lon="5.25767">
        <ele>160.60000610352</ele>
        <time>2019-08-30T10:47:31.000Z</time>
      </trkpt>
      <trkpt lat="50.63973" lon="5.25785">
        <ele>160.60000610352</ele>
        <time>2019-08-30T10:47:34.000Z</time>
      </trkpt>
      <trkpt lat="50.63991" lon="5.25843">
        <ele>160.60000610352</ele>
        <time>2019-08-30T10:47:44.000Z</time>
      </trkpt>
      <trkpt lat="50.64005" lon="5.25888">
        <ele>160.60000610352</ele>
        <time>2019-08-30T10:47:52.000Z</time>
      </trkpt>
      <trkpt lat="50.64018" lon="5.25949">
        <ele>160.60000610352</ele>
        <time>2019-08-30T10:48:02.000Z</time>
      </trkpt>
      <trkpt lat="50.64022" lon="5.25984">
        <ele>160.60000610352</ele>
        <time>2019-08-30T10:48:07.000Z</time>
      </trkpt>
      <trkpt lat="50.64023" lon="5.25999">
        <ele>160.60000610352</ele>
        <time>2019-08-30T10:48:09.000Z</time>
      </trkpt>
      <trkpt lat="50.64027" lon="5.26062">
        <ele>160.60000610352</ele>
        <time>2019-08-30T10:48:16.000Z</time>
      </trkpt>
      <trkpt lat="50.64031" lon="5.26135">
        <ele>160.60000610352</ele>
        <time>2019-08-30T10:48:23.000Z</time>
      </trkpt>
      <trkpt lat="50.64033" lon="5.26145">
        <ele>160.19999694824</ele>
        <time>2019-08-30T10:48:24.000Z</time>
      </trkpt>
      <trkpt lat="50.64034" lon="5.26156">
        <ele>159.80000305176</ele>
        <time>2019-08-30T10:48:25.000Z</time>
      </trkpt>
      <trkpt lat="50.64035" lon="5.26167">
        <ele>159.19999694824</ele>
        <time>2019-08-30T10:48:26.000Z</time>
      </trkpt>
      <trkpt lat="50.64037" lon="5.26178">
        <ele>158.80000305176</ele>
        <time>2019-08-30T10:48:27.000Z</time>
      </trkpt>
      <trkpt lat="50.64039" lon="5.26189">
        <ele>158.39999389648</ele>
        <time>2019-08-30T10:48:28.000Z</time>
      </trkpt>
      <trkpt lat="50.64043" lon="5.2621">
        <ele>158.39999389648</ele>
        <time>2019-08-30T10:48:30.000Z</time>
      </trkpt>
      <trkpt lat="50.64049" lon="5.26243">
        <ele>158</ele>
        <time>2019-08-30T10:48:33.000Z</time>
      </trkpt>
      <trkpt lat="50.64051" lon="5.26254">
        <ele>157.60000610352</ele>
        <time>2019-08-30T10:48:34.000Z</time>
      </trkpt>
      <trkpt lat="50.64053" lon="5.26266">
        <ele>157</ele>
        <time>2019-08-30T10:48:35.000Z</time>
      </trkpt>
      <trkpt lat="50.64056" lon="5.26277">
        <ele>156.60000610352</ele>
        <time>2019-08-30T10:48:36.000Z</time>
      </trkpt>
      <trkpt lat="50.64058" lon="5.26289">
        <ele>156.19999694824</ele>
        <time>2019-08-30T10:48:37.000Z</time>
      </trkpt>
      <trkpt lat="50.6406" lon="5.263">
        <ele>156.19999694824</ele>
        <time>2019-08-30T10:48:38.000Z</time>
      </trkpt>
      <trkpt lat="50.64064" lon="5.26336">
        <ele>156.19999694824</ele>
        <time>2019-08-30T10:48:41.000Z</time>
      </trkpt>
      <trkpt lat="50.64062" lon="5.26359">
        <ele>156.19999694824</ele>
        <time>2019-08-30T10:48:43.000Z</time>
      </trkpt>
      <trkpt lat="50.64057" lon="5.2639">
        <ele>155.80000305176</ele>
        <time>2019-08-30T10:48:46.000Z</time>
      </trkpt>
      <trkpt lat="50.64056" lon="5.264">
        <ele>155.39999389648</ele>
        <time>2019-08-30T10:48:47.000Z</time>
      </trkpt>
      <trkpt lat="50.64055" lon="5.2641">
        <ele>154.80000305176</ele>
        <time>2019-08-30T10:48:48.000Z</time>
      </trkpt>
      <trkpt lat="50.64053" lon="5.26419">
        <ele>154.39999389648</ele>
        <time>2019-08-30T10:48:49.000Z</time>
      </trkpt>
      <trkpt lat="50.64051" lon="5.26429">
        <ele>154</ele>
        <time>2019-08-30T10:48:50.000Z</time>
      </trkpt>
      <trkpt lat="50.64048" lon="5.2645">
        <ele>154</ele>
        <time>2019-08-30T10:48:53.000Z</time>
      </trkpt>
      <trkpt lat="50.64047" lon="5.26456">
        <ele>154</ele>
        <time>2019-08-30T10:48:56.000Z</time>
      </trkpt>
      <trkpt lat="50.64047" lon="5.26459">
        <ele>154</ele>
        <time>2019-08-30T10:49:02.000Z</time>
      </trkpt>
      <trkpt lat="50.64046" lon="5.26468">
        <ele>154</ele>
        <time>2019-08-30T10:49:04.000Z</time>
      </trkpt>
      <trkpt lat="50.64042" lon="5.26488">
        <ele>154</ele>
        <time>2019-08-30T10:49:08.000Z</time>
      </trkpt>
      <trkpt lat="50.64033" lon="5.26513">
        <ele>154</ele>
        <time>2019-08-30T10:49:13.000Z</time>
      </trkpt>
      <trkpt lat="50.64035" lon="5.26534">
        <ele>154</ele>
        <time>2019-08-30T10:49:17.000Z</time>
      </trkpt>
      <trkpt lat="50.64037" lon="5.26539">
        <ele>154</ele>
        <time>2019-08-30T10:49:20.000Z</time>
      </trkpt>
      <trkpt lat="50.64037" lon="5.26539">
        <ele>154</ele>
        <time>2019-08-30T10:49:21.000Z</time>
      </trkpt>
      <trkpt lat="50.64038" lon="5.26541">
        <ele>154</ele>
        <time>2019-08-30T10:49:26.000Z</time>
      </trkpt>
      <trkpt lat="50.64041" lon="5.26546">
        <ele>154</ele>
        <time>2019-08-30T10:49:28.000Z</time>
      </trkpt>
      <trkpt lat="50.64052" lon="5.26565">
        <ele>154</ele>
        <time>2019-08-30T10:49:33.000Z</time>
      </trkpt>
      <trkpt lat="50.64068" lon="5.26589">
        <ele>154</ele>
        <time>2019-08-30T10:49:39.000Z</time>
      </trkpt>
      <trkpt lat="50.64081" lon="5.26611">
        <ele>154</ele>
        <time>2019-08-30T10:49:44.000Z</time>
      </trkpt>
      <trkpt lat="50.64084" lon="5.26616">
        <ele>154</ele>
        <time>2019-08-30T10:49:45.000Z</time>
      </trkpt>
      <trkpt lat="50.64093" lon="5.2663">
        <ele>154</ele>
        <time>2019-08-30T10:49:48.000Z</time>
      </trkpt>
      <trkpt lat="50.64095" lon="5.26637">
        <ele>154</ele>
        <time>2019-08-30T10:49:49.000Z</time>
      </trkpt>
      <trkpt lat="50.641" lon="5.2666">
        <ele>154</ele>
        <time>2019-08-30T10:49:53.000Z</time>
      </trkpt>
      <trkpt lat="50.641" lon="5.26678">
        <ele>154</ele>
        <time>2019-08-30T10:49:56.000Z</time>
      </trkpt>
      <trkpt lat="50.641" lon="5.2669">
        <ele>154</ele>
        <time>2019-08-30T10:49:58.000Z</time>
      </trkpt>
      <trkpt lat="50.64102" lon="5.26738">
        <ele>154</ele>
        <time>2019-08-30T10:50:06.000Z</time>
      </trkpt>
      <trkpt lat="50.64108" lon="5.2677">
        <ele>154</ele>
        <time>2019-08-30T10:50:12.000Z</time>
      </trkpt>
      <trkpt lat="50.64116" lon="5.26811">
        <ele>154</ele>
        <time>2019-08-30T10:50:20.000Z</time>
      </trkpt>
      <trkpt lat="50.64118" lon="5.26816">
        <ele>154.39999389648</ele>
        <time>2019-08-30T10:50:21.000Z</time>
      </trkpt>
      <trkpt lat="50.64119" lon="5.26821">
        <ele>154.80000305176</ele>
        <time>2019-08-30T10:50:22.000Z</time>
      </trkpt>
      <trkpt lat="50.6412" lon="5.26825">
        <ele>155.39999389648</ele>
        <time>2019-08-30T10:50:23.000Z</time>
      </trkpt>
      <trkpt lat="50.6412" lon="5.26828">
        <ele>155.80000305176</ele>
        <time>2019-08-30T10:50:24.000Z</time>
      </trkpt>
      <trkpt lat="50.64121" lon="5.26831">
        <ele>156.19999694824</ele>
        <time>2019-08-30T10:50:25.000Z</time>
      </trkpt>
      <trkpt lat="50.64121" lon="5.26832">
        <ele>156.19999694824</ele>
        <time>2019-08-30T10:50:26.000Z</time>
      </trkpt>
      <trkpt lat="50.64121" lon="5.26832">
        <ele>156.19999694824</ele>
        <time>2019-08-30T10:50:27.000Z</time>
      </trkpt>
      <trkpt lat="50.64123" lon="5.26835">
        <ele>156.19999694824</ele>
        <time>2019-08-30T10:50:33.000Z</time>
      </trkpt>
      <trkpt lat="50.64124" lon="5.26837">
        <ele>156.19999694824</ele>
        <time>2019-08-30T10:50:34.000Z</time>
      </trkpt>
      <trkpt lat="50.64124" lon="5.2684">
        <ele>156.19999694824</ele>
        <time>2019-08-30T10:50:35.000Z</time>
      </trkpt>
      <trkpt lat="50.64127" lon="5.26852">
        <ele>156.19999694824</ele>
        <time>2019-08-30T10:50:39.000Z</time>
      </trkpt>
      <trkpt lat="50.64127" lon="5.2686">
        <ele>156.19999694824</ele>
        <time>2019-08-30T10:50:43.000Z</time>
      </trkpt>
      <trkpt lat="50.64128" lon="5.26865">
        <ele>156.19999694824</ele>
        <time>2019-08-30T10:50:49.000Z</time>
      </trkpt>
      <trkpt lat="50.64128" lon="5.26871">
        <ele>156.19999694824</ele>
        <time>2019-08-30T10:50:51.000Z</time>
      </trkpt>
      <trkpt lat="50.64127" lon="5.26875">
        <ele>156.19999694824</ele>
        <time>2019-08-30T10:50:52.000Z</time>
      </trkpt>
      <trkpt lat="50.64123" lon="5.26886">
        <ele>156.19999694824</ele>
        <time>2019-08-30T10:50:55.000Z</time>
      </trkpt>
      <trkpt lat="50.64122" lon="5.2689">
        <ele>156.60000610352</ele>
        <time>2019-08-30T10:50:56.000Z</time>
      </trkpt>
      <trkpt lat="50.64121" lon="5.26894">
        <ele>157</ele>
        <time>2019-08-30T10:50:57.000Z</time>
      </trkpt>
      <trkpt lat="50.6412" lon="5.26896">
        <ele>157.39999389648</ele>
        <time>2019-08-30T10:50:58.000Z</time>
      </trkpt>
      <trkpt lat="50.64119" lon="5.26898">
        <ele>157.80000305176</ele>
        <time>2019-08-30T10:50:59.000Z</time>
      </trkpt>
      <trkpt lat="50.64119" lon="5.269">
        <ele>158.19999694824</ele>
        <time>2019-08-30T10:51:00.000Z</time>
      </trkpt>
      <trkpt lat="50.64119" lon="5.26902">
        <ele>158.19999694824</ele>
        <time>2019-08-30T10:51:01.000Z</time>
      </trkpt>
      <trkpt lat="50.64119" lon="5.26901">
        <ele>158.19999694824</ele>
        <time>2019-08-30T10:51:02.000Z</time>
      </trkpt>
      <trkpt lat="50.64119" lon="5.26903">
        <ele>158.19999694824</ele>
        <time>2019-08-30T10:51:13.000Z</time>
      </trkpt>
      <trkpt lat="50.64119" lon="5.26906">
        <ele>158.19999694824</ele>
        <time>2019-08-30T10:51:14.000Z</time>
      </trkpt>
      <trkpt lat="50.64125" lon="5.26918">
        <ele>158.19999694824</ele>
        <time>2019-08-30T10:51:18.000Z</time>
      </trkpt>
      <trkpt lat="50.64127" lon="5.2692">
        <ele>158.19999694824</ele>
        <time>2019-08-30T10:51:19.000Z</time>
      </trkpt>
      <trkpt lat="50.64134" lon="5.26932">
        <ele>158.19999694824</ele>
        <time>2019-08-30T10:51:24.000Z</time>
      </trkpt>
      <trkpt lat="50.64134" lon="5.26932">
        <ele>158.19999694824</ele>
        <time>2019-08-30T10:51:25.000Z</time>
      </trkpt>
      <trkpt lat="50.64135" lon="5.26934">
        <ele>158.19999694824</ele>
        <time>2019-08-30T10:51:29.000Z</time>
      </trkpt>
      <trkpt lat="50.64136" lon="5.2694">
        <ele>158.19999694824</ele>
        <time>2019-08-30T10:51:31.000Z</time>
      </trkpt>
      <trkpt lat="50.64138" lon="5.26947">
        <ele>158.19999694824</ele>
        <time>2019-08-30T10:51:33.000Z</time>
      </trkpt>
      <trkpt lat="50.64143" lon="5.26965">
        <ele>158.19999694824</ele>
        <time>2019-08-30T10:51:38.000Z</time>
      </trkpt>
      <trkpt lat="50.64145" lon="5.26971">
        <ele>158.19999694824</ele>
        <time>2019-08-30T10:51:42.000Z</time>
      </trkpt>
      <trkpt lat="50.64146" lon="5.26976">
        <ele>158.19999694824</ele>
        <time>2019-08-30T10:51:49.000Z</time>
      </trkpt>
      <trkpt lat="50.64148" lon="5.26984">
        <ele>158.19999694824</ele>
        <time>2019-08-30T10:51:51.000Z</time>
      </trkpt>
      <trkpt lat="50.64156" lon="5.27017">
        <ele>158.19999694824</ele>
        <time>2019-08-30T10:51:58.000Z</time>
      </trkpt>
      <trkpt lat="50.64164" lon="5.27052">
        <ele>158.19999694824</ele>
        <time>2019-08-30T10:52:05.000Z</time>
      </trkpt>
      <trkpt lat="50.6417" lon="5.27083">
        <ele>158.19999694824</ele>
        <time>2019-08-30T10:52:11.000Z</time>
      </trkpt>
      <trkpt lat="50.64178" lon="5.27117">
        <ele>158.19999694824</ele>
        <time>2019-08-30T10:52:18.000Z</time>
      </trkpt>
      <trkpt lat="50.64188" lon="5.27165">
        <ele>158.60000610352</ele>
        <time>2019-08-30T10:52:28.000Z</time>
      </trkpt>
      <trkpt lat="50.64189" lon="5.2717">
        <ele>159</ele>
        <time>2019-08-30T10:52:29.000Z</time>
      </trkpt>
      <trkpt lat="50.64189" lon="5.27175">
        <ele>159.39999389648</ele>
        <time>2019-08-30T10:52:30.000Z</time>
      </trkpt>
      <trkpt lat="50.6419" lon="5.2718">
        <ele>159.80000305176</ele>
        <time>2019-08-30T10:52:31.000Z</time>
      </trkpt>
      <trkpt lat="50.64191" lon="5.27185">
        <ele>160.19999694824</ele>
        <time>2019-08-30T10:52:32.000Z</time>
      </trkpt>
      <trkpt lat="50.64194" lon="5.27201">
        <ele>160.19999694824</ele>
        <time>2019-08-30T10:52:35.000Z</time>
      </trkpt>
      <trkpt lat="50.642" lon="5.27238">
        <ele>160.19999694824</ele>
        <time>2019-08-30T10:52:42.000Z</time>
      </trkpt>
      <trkpt lat="50.64209" lon="5.27282">
        <ele>160.19999694824</ele>
        <time>2019-08-30T10:52:51.000Z</time>
      </trkpt>
      <trkpt lat="50.64217" lon="5.27308">
        <ele>160.19999694824</ele>
        <time>2019-08-30T10:52:58.000Z</time>
      </trkpt>
      <trkpt lat="50.64217" lon="5.27307">
        <ele>160.19999694824</ele>
        <time>2019-08-30T10:52:59.000Z</time>
      </trkpt>
      <trkpt lat="50.64218" lon="5.2731">
        <ele>160.19999694824</ele>
        <time>2019-08-30T10:53:09.000Z</time>
      </trkpt>
      <trkpt lat="50.64219" lon="5.27314">
        <ele>160.19999694824</ele>
        <time>2019-08-30T10:53:10.000Z</time>
      </trkpt>
      <trkpt lat="50.64223" lon="5.27329">
        <ele>160.19999694824</ele>
        <time>2019-08-30T10:53:13.000Z</time>
      </trkpt>
      <trkpt lat="50.64226" lon="5.27339">
        <ele>160.19999694824</ele>
        <time>2019-08-30T10:53:15.000Z</time>
      </trkpt>
      <trkpt lat="50.64233" lon="5.27355">
        <ele>160.19999694824</ele>
        <time>2019-08-30T10:53:20.000Z</time>
      </trkpt>
      <trkpt lat="50.64235" lon="5.27355">
        <ele>160.19999694824</ele>
        <time>2019-08-30T10:53:21.000Z</time>
      </trkpt>
      <trkpt lat="50.64236" lon="5.2735">
        <ele>160.19999694824</ele>
        <time>2019-08-30T10:53:24.000Z</time>
      </trkpt>
      <trkpt lat="50.64233" lon="5.27343">
        <ele>160.19999694824</ele>
        <time>2019-08-30T10:53:27.000Z</time>
      </trkpt>
      <trkpt lat="50.63882" lon="5.32287">
        <ele>147.39999389648</ele>
        <time>2019-08-30T11:09:25.000Z</time>
      </trkpt>
      <trkpt lat="50.63887" lon="5.32298">
        <ele>147.39999389648</ele>
        <time>2019-08-30T11:09:29.000Z</time>
      </trkpt>
      <trkpt lat="50.63889" lon="5.32318">
        <ele>147.39999389648</ele>
        <time>2019-08-30T11:09:34.000Z</time>
      </trkpt>
      <trkpt lat="50.63889" lon="5.3232">
        <ele>147.39999389648</ele>
        <time>2019-08-30T11:09:36.000Z</time>
      </trkpt>
      <trkpt lat="50.6389" lon="5.32322">
        <ele>147.39999389648</ele>
        <time>2019-08-30T11:09:41.000Z</time>
      </trkpt>
      <trkpt lat="50.63891" lon="5.32328">
        <ele>147.39999389648</ele>
        <time>2019-08-30T11:09:43.000Z</time>
      </trkpt>
      <trkpt lat="50.63889" lon="5.32343">
        <ele>147.39999389648</ele>
        <time>2019-08-30T11:09:47.000Z</time>
      </trkpt>
      <trkpt lat="50.63887" lon="5.32358">
        <ele>147.39999389648</ele>
        <time>2019-08-30T11:09:53.000Z</time>
      </trkpt>
      <trkpt lat="50.63887" lon="5.32359">
        <ele>147.39999389648</ele>
        <time>2019-08-30T11:09:55.000Z</time>
      </trkpt>
      <trkpt lat="50.63887" lon="5.32361">
        <ele>147.39999389648</ele>
        <time>2019-08-30T11:10:11.000Z</time>
      </trkpt>
      <trkpt lat="50.63886" lon="5.32364">
        <ele>147.39999389648</ele>
        <time>2019-08-30T11:10:12.000Z</time>
      </trkpt>
      <trkpt lat="50.63882" lon="5.32383">
        <ele>147.39999389648</ele>
        <time>2019-08-30T11:10:17.000Z</time>
      </trkpt>
      <trkpt lat="50.63876" lon="5.32414">
        <ele>147.39999389648</ele>
        <time>2019-08-30T11:10:24.000Z</time>
      </trkpt>
      <trkpt lat="50.63871" lon="5.32425">
        <ele>147.80000305176</ele>
        <time>2019-08-30T11:10:27.000Z</time>
      </trkpt>
      <trkpt lat="50.6387" lon="5.32429">
        <ele>148.19999694824</ele>
        <time>2019-08-30T11:10:28.000Z</time>
      </trkpt>
      <trkpt lat="50.63868" lon="5.32433">
        <ele>148.80000305176</ele>
        <time>2019-08-30T11:10:29.000Z</time>
      </trkpt>
      <trkpt lat="50.63866" lon="5.32436">
        <ele>149.19999694824</ele>
        <time>2019-08-30T11:10:30.000Z</time>
      </trkpt>
      <trkpt lat="50.63865" lon="5.32439">
        <ele>149.60000610352</ele>
        <time>2019-08-30T11:10:31.000Z</time>
      </trkpt>
      <trkpt lat="50.63865" lon="5.32441">
        <ele>149.60000610352</ele>
        <time>2019-08-30T11:10:33.000Z</time>
      </trkpt>
      <trkpt lat="50.63865" lon="5.32444">
        <ele>149.60000610352</ele>
        <time>2019-08-30T11:10:38.000Z</time>
      </trkpt>
      <trkpt lat="50.63862" lon="5.32453">
        <ele>149.60000610352</ele>
        <time>2019-08-30T11:10:41.000Z</time>
      </trkpt>
      <trkpt lat="50.63855" lon="5.32478">
        <ele>149.60000610352</ele>
        <time>2019-08-30T11:10:48.000Z</time>
      </trkpt>
      <trkpt lat="50.63853" lon="5.32492">
        <ele>150</ele>
        <time>2019-08-30T11:10:52.000Z</time>
      </trkpt>
      <trkpt lat="50.63853" lon="5.32494">
        <ele>150.39999389648</ele>
        <time>2019-08-30T11:10:53.000Z</time>
      </trkpt>
      <trkpt lat="50.63853" lon="5.32495">
        <ele>150.80000305176</ele>
        <time>2019-08-30T11:10:54.000Z</time>
      </trkpt>
      <trkpt lat="50.63852" lon="5.32497">
        <ele>151.60000610352</ele>
        <time>2019-08-30T11:11:00.000Z</time>
      </trkpt>
      <trkpt lat="50.63852" lon="5.325">
        <ele>151.60000610352</ele>
        <time>2019-08-30T11:11:01.000Z</time>
      </trkpt>
      <trkpt lat="50.63852" lon="5.32503">
        <ele>151.60000610352</ele>
        <time>2019-08-30T11:11:02.000Z</time>
      </trkpt>
      <trkpt lat="50.63851" lon="5.32526">
        <ele>151.60000610352</ele>
        <time>2019-08-30T11:11:08.000Z</time>
      </trkpt>
      <trkpt lat="50.63851" lon="5.3253">
        <ele>151.60000610352</ele>
        <time>2019-08-30T11:11:09.000Z</time>
      </trkpt>
      <trkpt lat="50.63853" lon="5.3256">
        <ele>151.60000610352</ele>
        <time>2019-08-30T11:11:16.000Z</time>
      </trkpt>
      <trkpt lat="50.63854" lon="5.32572">
        <ele>152</ele>
        <time>2019-08-30T11:11:19.000Z</time>
      </trkpt>
      <trkpt lat="50.63854" lon="5.32576">
        <ele>152.39999389648</ele>
        <time>2019-08-30T11:11:20.000Z</time>
      </trkpt>
      <trkpt lat="50.63855" lon="5.3258">
        <ele>152.80000305176</ele>
        <time>2019-08-30T11:11:21.000Z</time>
      </trkpt>
      <trkpt lat="50.63855" lon="5.32585">
        <ele>153.19999694824</ele>
        <time>2019-08-30T11:11:22.000Z</time>
      </trkpt>
      <trkpt lat="50.63856" lon="5.32589">
        <ele>153.60000610352</ele>
        <time>2019-08-30T11:11:23.000Z</time>
      </trkpt>
      <trkpt lat="50.6386" lon="5.32616">
        <ele>153.60000610352</ele>
        <time>2019-08-30T11:11:30.000Z</time>
      </trkpt>
      <trkpt lat="50.63864" lon="5.32645">
        <ele>153.60000610352</ele>
        <time>2019-08-30T11:11:37.000Z</time>
      </trkpt>
      <trkpt lat="50.63865" lon="5.32649">
        <ele>154</ele>
        <time>2019-08-30T11:11:38.000Z</time>
      </trkpt>
      <trkpt lat="50.63866" lon="5.32653">
        <ele>154.39999389648</ele>
        <time>2019-08-30T11:11:39.000Z</time>
      </trkpt>
      <trkpt lat="50.63867" lon="5.32658">
        <ele>154.80000305176</ele>
        <time>2019-08-30T11:11:40.000Z</time>
      </trkpt>
      <trkpt lat="50.63867" lon="5.32662">
        <ele>155.19999694824</ele>
        <time>2019-08-30T11:11:41.000Z</time>
      </trkpt>
      <trkpt lat="50.63867" lon="5.32666">
        <ele>155.60000610352</ele>
        <time>2019-08-30T11:11:42.000Z</time>
      </trkpt>
      <trkpt lat="50.63868" lon="5.3267">
        <ele>155.60000610352</ele>
        <time>2019-08-30T11:11:43.000Z</time>
      </trkpt>
      <trkpt lat="50.63873" lon="5.327">
        <ele>155.60000610352</ele>
        <time>2019-08-30T11:11:51.000Z</time>
      </trkpt>
      <trkpt lat="50.63876" lon="5.3272">
        <ele>156</ele>
        <time>2019-08-30T11:11:56.000Z</time>
      </trkpt>
      <trkpt lat="50.63876" lon="5.32725">
        <ele>156.60000610352</ele>
        <time>2019-08-30T11:11:57.000Z</time>
      </trkpt>
      <trkpt lat="50.63876" lon="5.32729">
        <ele>157</ele>
        <time>2019-08-30T11:11:58.000Z</time>
      </trkpt>
      <trkpt lat="50.63877" lon="5.32733">
        <ele>157.39999389648</ele>
        <time>2019-08-30T11:11:59.000Z</time>
      </trkpt>
      <trkpt lat="50.63878" lon="5.32736">
        <ele>157.80000305176</ele>
        <time>2019-08-30T11:12:00.000Z</time>
      </trkpt>
      <trkpt lat="50.63879" lon="5.32748">
        <ele>157.80000305176</ele>
        <time>2019-08-30T11:12:03.000Z</time>
      </trkpt>
      <trkpt lat="50.63884" lon="5.32776">
        <ele>157.80000305176</ele>
        <time>2019-08-30T11:12:10.000Z</time>
      </trkpt>
      <trkpt lat="50.63885" lon="5.32788">
        <ele>158.19999694824</ele>
        <time>2019-08-30T11:12:13.000Z</time>
      </trkpt>
      <trkpt lat="50.63885" lon="5.32792">
        <ele>158.60000610352</ele>
        <time>2019-08-30T11:12:14.000Z</time>
      </trkpt>
      <trkpt lat="50.63886" lon="5.32796">
        <ele>159</ele>
        <time>2019-08-30T11:12:15.000Z</time>
      </trkpt>
      <trkpt lat="50.63886" lon="5.328">
        <ele>159.39999389648</ele>
        <time>2019-08-30T11:12:16.000Z</time>
      </trkpt>
      <trkpt lat="50.63887" lon="5.32805">
        <ele>159.80000305176</ele>
        <time>2019-08-30T11:12:17.000Z</time>
      </trkpt>
      <trkpt lat="50.63889" lon="5.32821">
        <ele>159.80000305176</ele>
        <time>2019-08-30T11:12:21.000Z</time>
      </trkpt>
      <trkpt lat="50.63893" lon="5.32849">
        <ele>159.80000305176</ele>
        <time>2019-08-30T11:12:28.000Z</time>
      </trkpt>
      <trkpt lat="50.63895" lon="5.3287">
        <ele>160.19999694824</ele>
        <time>2019-08-30T11:12:33.000Z</time>
      </trkpt>
      <trkpt lat="50.63895" lon="5.32874">
        <ele>160.80000305176</ele>
        <time>2019-08-30T11:12:34.000Z</time>
      </trkpt>
      <trkpt lat="50.63896" lon="5.32878">
        <ele>161.19999694824</ele>
        <time>2019-08-30T11:12:35.000Z</time>
      </trkpt>
      <trkpt lat="50.63897" lon="5.32881">
        <ele>161.60000610352</ele>
        <time>2019-08-30T11:12:36.000Z</time>
      </trkpt>
      <trkpt lat="50.63897" lon="5.32885">
        <ele>162</ele>
        <time>2019-08-30T11:12:37.000Z</time>
      </trkpt>
      <trkpt lat="50.63901" lon="5.32909">
        <ele>162</ele>
        <time>2019-08-30T11:12:43.000Z</time>
      </trkpt>
      <trkpt lat="50.63908" lon="5.32951">
        <ele>162</ele>
        <time>2019-08-30T11:12:53.000Z</time>
      </trkpt>
      <trkpt lat="50.63909" lon="5.32959">
        <ele>162.39999389648</ele>
        <time>2019-08-30T11:12:55.000Z</time>
      </trkpt>
      <trkpt lat="50.6391" lon="5.32963">
        <ele>162.80000305176</ele>
        <time>2019-08-30T11:12:56.000Z</time>
      </trkpt>
      <trkpt lat="50.6391" lon="5.32967">
        <ele>163.19999694824</ele>
        <time>2019-08-30T11:12:57.000Z</time>
      </trkpt>
      <trkpt lat="50.63911" lon="5.32971">
        <ele>163.60000610352</ele>
        <time>2019-08-30T11:12:58.000Z</time>
      </trkpt>
      <trkpt lat="50.63911" lon="5.32975">
        <ele>164</ele>
        <time>2019-08-30T11:12:59.000Z</time>
      </trkpt>
      <trkpt lat="50.63911" lon="5.32978">
        <ele>164</ele>
        <time>2019-08-30T11:13:00.000Z</time>
      </trkpt>
      <trkpt lat="50.63912" lon="5.32979">
        <ele>164</ele>
        <time>2019-08-30T11:13:01.000Z</time>
      </trkpt>
      <trkpt lat="50.63912" lon="5.32979">
        <ele>164</ele>
        <time>2019-08-30T11:13:07.000Z</time>
      </trkpt>
      <trkpt lat="50.63912" lon="5.32982">
        <ele>164</ele>
        <time>2019-08-30T11:13:08.000Z</time>
      </trkpt>
      <trkpt lat="50.63911" lon="5.33007">
        <ele>164</ele>
        <time>2019-08-30T11:13:14.000Z</time>
      </trkpt>
      <trkpt lat="50.63901" lon="5.33023">
        <ele>164</ele>
        <time>2019-08-30T11:13:19.000Z</time>
      </trkpt>
      <trkpt lat="50.63897" lon="5.33027">
        <ele>164</ele>
        <time>2019-08-30T11:13:22.000Z</time>
      </trkpt>
      <trkpt lat="50.63896" lon="5.33029">
        <ele>164</ele>
        <time>2019-08-30T11:13:27.000Z</time>
      </trkpt>
      <trkpt lat="50.63883" lon="5.33042">
        <ele>164</ele>
        <time>2019-08-30T11:13:33.000Z</time>
      </trkpt>
      <trkpt lat="50.63871" lon="5.33054">
        <ele>164.39999389648</ele>
        <time>2019-08-30T11:13:38.000Z</time>
      </trkpt>
      <trkpt lat="50.63869" lon="5.33057">
        <ele>164.80000305176</ele>
        <time>2019-08-30T11:13:39.000Z</time>
      </trkpt>
      <trkpt lat="50.63866" lon="5.33059">
        <ele>165.80000305176</ele>
        <time>2019-08-30T11:13:40.000Z</time>
      </trkpt>
      <trkpt lat="50.63864" lon="5.33061">
        <ele>166.19999694824</ele>
        <time>2019-08-30T11:13:41.000Z</time>
      </trkpt>
      <trkpt lat="50.63849" lon="5.33076">
        <ele>166.19999694824</ele>
        <time>2019-08-30T11:13:47.000Z</time>
      </trkpt>
      <trkpt lat="50.63846" lon="5.33079">
        <ele>166.19999694824</ele>
        <time>2019-08-30T11:13:48.000Z</time>
      </trkpt>
      <trkpt lat="50.63828" lon="5.33097">
        <ele>166.19999694824</ele>
        <time>2019-08-30T11:13:55.000Z</time>
      </trkpt>
      <trkpt lat="50.63816" lon="5.3311">
        <ele>166.60000610352</ele>
        <time>2019-08-30T11:14:00.000Z</time>
      </trkpt>
      <trkpt lat="50.63813" lon="5.33113">
        <ele>167</ele>
        <time>2019-08-30T11:14:01.000Z</time>
      </trkpt>
      <trkpt lat="50.63811" lon="5.33115">
        <ele>167.39999389648</ele>
        <time>2019-08-30T11:14:02.000Z</time>
      </trkpt>
      <trkpt lat="50.63808" lon="5.33118">
        <ele>167.80000305176</ele>
        <time>2019-08-30T11:14:03.000Z</time>
      </trkpt>
      <trkpt lat="50.63806" lon="5.33121">
        <ele>168.19999694824</ele>
        <time>2019-08-30T11:14:04.000Z</time>
      </trkpt>
      <trkpt lat="50.63791" lon="5.33137">
        <ele>168.19999694824</ele>
        <time>2019-08-30T11:14:10.000Z</time>
      </trkpt>
      <trkpt lat="50.63776" lon="5.33154">
        <ele>168.19999694824</ele>
        <time>2019-08-30T11:14:16.000Z</time>
      </trkpt>
      <trkpt lat="50.63768" lon="5.33161">
        <ele>168.60000610352</ele>
        <time>2019-08-30T11:14:19.000Z</time>
      </trkpt>
      <trkpt lat="50.63765" lon="5.33164">
        <ele>169</ele>
        <time>2019-08-30T11:14:20.000Z</time>
      </trkpt>
      <trkpt lat="50.63763" lon="5.33167">
        <ele>169.39999389648</ele>
        <time>2019-08-30T11:14:21.000Z</time>
      </trkpt>
      <trkpt lat="50.63761" lon="5.3317">
        <ele>170</ele>
        <time>2019-08-30T11:14:22.000Z</time>
      </trkpt>
      <trkpt lat="50.63759" lon="5.33173">
        <ele>170.39999389648</ele>
        <time>2019-08-30T11:14:23.000Z</time>
      </trkpt>
      <trkpt lat="50.63748" lon="5.33183">
        <ele>170.39999389648</ele>
        <time>2019-08-30T11:14:27.000Z</time>
      </trkpt>
      <trkpt lat="50.63725" lon="5.33207">
        <ele>170.39999389648</ele>
        <time>2019-08-30T11:14:36.000Z</time>
      </trkpt>
      <trkpt lat="50.63712" lon="5.33221">
        <ele>170.80000305176</ele>
        <time>2019-08-30T11:14:41.000Z</time>
      </trkpt>
      <trkpt lat="50.6371" lon="5.33224">
        <ele>171.19999694824</ele>
        <time>2019-08-30T11:14:42.000Z</time>
      </trkpt>
      <trkpt lat="50.63707" lon="5.33227">
        <ele>171.60000610352</ele>
        <time>2019-08-30T11:14:43.000Z</time>
      </trkpt>
      <trkpt lat="50.63704" lon="5.33229">
        <ele>172</ele>
        <time>2019-08-30T11:14:44.000Z</time>
      </trkpt>
      <trkpt lat="50.63702" lon="5.33231">
        <ele>172.39999389648</ele>
        <time>2019-08-30T11:14:45.000Z</time>
      </trkpt>
      <trkpt lat="50.63684" lon="5.33251">
        <ele>172.39999389648</ele>
        <time>2019-08-30T11:14:52.000Z</time>
      </trkpt>
      <trkpt lat="50.63659" lon="5.3328">
        <ele>172.39999389648</ele>
        <time>2019-08-30T11:15:02.000Z</time>
      </trkpt>
      <trkpt lat="50.6364" lon="5.33299">
        <ele>172.39999389648</ele>
        <time>2019-08-30T11:15:09.000Z</time>
      </trkpt>
      <trkpt lat="50.63626" lon="5.33316">
        <ele>172.39999389648</ele>
        <time>2019-08-30T11:15:14.000Z</time>
      </trkpt>
      <trkpt lat="50.63599" lon="5.3335">
        <ele>172.39999389648</ele>
        <time>2019-08-30T11:15:23.000Z</time>
      </trkpt>
      <trkpt lat="50.63579" lon="5.33379">
        <ele>172.39999389648</ele>
        <time>2019-08-30T11:15:30.000Z</time>
      </trkpt>
      <trkpt lat="50.63555" lon="5.33414">
        <ele>172.39999389648</ele>
        <time>2019-08-30T11:15:38.000Z</time>
      </trkpt>
      <trkpt lat="50.63539" lon="5.33437">
        <ele>172.39999389648</ele>
        <time>2019-08-30T11:15:44.000Z</time>
      </trkpt>
      <trkpt lat="50.63535" lon="5.33443">
        <ele>172.39999389648</ele>
        <time>2019-08-30T11:15:48.000Z</time>
      </trkpt>
      <trkpt lat="50.63534" lon="5.33446">
        <ele>172.39999389648</ele>
        <time>2019-08-30T11:15:55.000Z</time>
      </trkpt>
      <trkpt lat="50.63533" lon="5.33448">
        <ele>172.39999389648</ele>
        <time>2019-08-30T11:15:56.000Z</time>
      </trkpt>
      <trkpt lat="50.6353" lon="5.33452">
        <ele>172.39999389648</ele>
        <time>2019-08-30T11:15:58.000Z</time>
      </trkpt>
      <trkpt lat="50.63526" lon="5.33457">
        <ele>172.39999389648</ele>
        <time>2019-08-30T11:16:00.000Z</time>
      </trkpt>
      <trkpt lat="50.63521" lon="5.33464">
        <ele>172.39999389648</ele>
        <time>2019-08-30T11:16:02.000Z</time>
      </trkpt>
      <trkpt lat="50.6351" lon="5.33488">
        <ele>172.39999389648</ele>
        <time>2019-08-30T11:16:08.000Z</time>
      </trkpt>
      <trkpt lat="50.6351" lon="5.33492">
        <ele>172.39999389648</ele>
        <time>2019-08-30T11:16:10.000Z</time>
      </trkpt>
      <trkpt lat="50.63509" lon="5.33497">
        <ele>172.39999389648</ele>
        <time>2019-08-30T11:16:16.000Z</time>
      </trkpt>
      <trkpt lat="50.63506" lon="5.33517">
        <ele>172.39999389648</ele>
        <time>2019-08-30T11:16:21.000Z</time>
      </trkpt>
      <trkpt lat="50.63502" lon="5.33541">
        <ele>172.39999389648</ele>
        <time>2019-08-30T11:16:26.000Z</time>
      </trkpt>
      <trkpt lat="50.63496" lon="5.33578">
        <ele>172.39999389648</ele>
        <time>2019-08-30T11:16:34.000Z</time>
      </trkpt>
      <trkpt lat="50.63495" lon="5.33586">
        <ele>172.39999389648</ele>
        <time>2019-08-30T11:16:38.000Z</time>
      </trkpt>
      <trkpt lat="50.63494" lon="5.33589">
        <ele>172.39999389648</ele>
        <time>2019-08-30T11:16:43.000Z</time>
      </trkpt>
      <trkpt lat="50.63492" lon="5.33607">
        <ele>172.39999389648</ele>
        <time>2019-08-30T11:16:48.000Z</time>
      </trkpt>
      <trkpt lat="50.6349" lon="5.33632">
        <ele>172.39999389648</ele>
        <time>2019-08-30T11:16:53.000Z</time>
      </trkpt>
      <trkpt lat="50.63487" lon="5.33658">
        <ele>172.39999389648</ele>
        <time>2019-08-30T11:16:58.000Z</time>
      </trkpt>
      <trkpt lat="50.63484" lon="5.33684">
        <ele>172.39999389648</ele>
        <time>2019-08-30T11:17:03.000Z</time>
      </trkpt>
      <trkpt lat="50.63483" lon="5.33716">
        <ele>172.39999389648</ele>
        <time>2019-08-30T11:17:09.000Z</time>
      </trkpt>
      <trkpt lat="50.63483" lon="5.33757">
        <ele>172.39999389648</ele>
        <time>2019-08-30T11:17:16.000Z</time>
      </trkpt>
      <trkpt lat="50.63482" lon="5.33805">
        <ele>173</ele>
        <time>2019-08-30T11:17:24.000Z</time>
      </trkpt>
      <trkpt lat="50.63482" lon="5.33811">
        <ele>173.39999389648</ele>
        <time>2019-08-30T11:17:25.000Z</time>
      </trkpt>
      <trkpt lat="50.63482" lon="5.33817">
        <ele>173.80000305176</ele>
        <time>2019-08-30T11:17:26.000Z</time>
      </trkpt>
      <trkpt lat="50.63482" lon="5.33823">
        <ele>174.19999694824</ele>
        <time>2019-08-30T11:17:27.000Z</time>
      </trkpt>
      <trkpt lat="50.63482" lon="5.3383">
        <ele>174.60000610352</ele>
        <time>2019-08-30T11:17:28.000Z</time>
      </trkpt>
      <trkpt lat="50.63481" lon="5.33848">
        <ele>174.60000610352</ele>
        <time>2019-08-30T11:17:31.000Z</time>
      </trkpt>
      <trkpt lat="50.63481" lon="5.33909">
        <ele>174.60000610352</ele>
        <time>2019-08-30T11:17:41.000Z</time>
      </trkpt>
      <trkpt lat="50.6348" lon="5.33957">
        <ele>174.60000610352</ele>
        <time>2019-08-30T11:17:49.000Z</time>
      </trkpt>
      <trkpt lat="50.6348" lon="5.33994">
        <ele>175</ele>
        <time>2019-08-30T11:17:55.000Z</time>
      </trkpt>
      <trkpt lat="50.6348" lon="5.34">
        <ele>175.39999389648</ele>
        <time>2019-08-30T11:17:56.000Z</time>
      </trkpt>
      <trkpt lat="50.6348" lon="5.34006">
        <ele>176</ele>
        <time>2019-08-30T11:17:57.000Z</time>
      </trkpt>
      <trkpt lat="50.6348" lon="5.34012">
        <ele>176.39999389648</ele>
        <time>2019-08-30T11:17:58.000Z</time>
      </trkpt>
      <trkpt lat="50.6348" lon="5.34018">
        <ele>176.80000305176</ele>
        <time>2019-08-30T11:17:59.000Z</time>
      </trkpt>
      <trkpt lat="50.6348" lon="5.34069">
        <ele>176.80000305176</ele>
        <time>2019-08-30T11:18:07.000Z</time>
      </trkpt>
      <trkpt lat="50.63478" lon="5.34126">
        <ele>176.80000305176</ele>
        <time>2019-08-30T11:18:16.000Z</time>
      </trkpt>
      <trkpt lat="50.63473" lon="5.34172">
        <ele>176.80000305176</ele>
        <time>2019-08-30T11:18:23.000Z</time>
      </trkpt>
      <trkpt lat="50.63462" lon="5.34232">
        <ele>176.80000305176</ele>
        <time>2019-08-30T11:18:32.000Z</time>
      </trkpt>
      <trkpt lat="50.63453" lon="5.34283">
        <ele>176.80000305176</ele>
        <time>2019-08-30T11:18:39.000Z</time>
      </trkpt>
      <trkpt lat="50.6344" lon="5.34361">
        <ele>176.80000305176</ele>
        <time>2019-08-30T11:18:50.000Z</time>
      </trkpt>
      <trkpt lat="50.63429" lon="5.3442">
        <ele>176.80000305176</ele>
        <time>2019-08-30T11:18:58.000Z</time>
      </trkpt>
      <trkpt lat="50.63417" lon="5.34485">
        <ele>176.80000305176</ele>
        <time>2019-08-30T11:19:07.000Z</time>
      </trkpt>
      <trkpt lat="50.63408" lon="5.34534">
        <ele>176.80000305176</ele>
        <time>2019-08-30T11:19:14.000Z</time>
      </trkpt>
      <trkpt lat="50.63405" lon="5.34554">
        <ele>176.80000305176</ele>
        <time>2019-08-30T11:19:17.000Z</time>
      </trkpt>
      <trkpt lat="50.63401" lon="5.34573">
        <ele>176.80000305176</ele>
        <time>2019-08-30T11:19:20.000Z</time>
      </trkpt>
      <trkpt lat="50.63391" lon="5.34625">
        <ele>176.80000305176</ele>
        <time>2019-08-30T11:19:28.000Z</time>
      </trkpt>
      <trkpt lat="50.63382" lon="5.34678">
        <ele>176.80000305176</ele>
        <time>2019-08-30T11:19:36.000Z</time>
      </trkpt>
      <trkpt lat="50.63371" lon="5.34741">
        <ele>176.80000305176</ele>
        <time>2019-08-30T11:19:46.000Z</time>
      </trkpt>
      <trkpt lat="50.63364" lon="5.34785">
        <ele>177.19999694824</ele>
        <time>2019-08-30T11:19:53.000Z</time>
      </trkpt>
      <trkpt lat="50.63362" lon="5.34791">
        <ele>177.60000610352</ele>
        <time>2019-08-30T11:19:54.000Z</time>
      </trkpt>
      <trkpt lat="50.63361" lon="5.34797">
        <ele>178</ele>
        <time>2019-08-30T11:19:55.000Z</time>
      </trkpt>
      <trkpt lat="50.63361" lon="5.34803">
        <ele>178.39999389648</ele>
        <time>2019-08-30T11:19:56.000Z</time>
      </trkpt>
      <trkpt lat="50.6336" lon="5.3481">
        <ele>178.80000305176</ele>
        <time>2019-08-30T11:19:57.000Z</time>
      </trkpt>
      <trkpt lat="50.63353" lon="5.34852">
        <ele>178.80000305176</ele>
        <time>2019-08-30T11:20:04.000Z</time>
      </trkpt>
      <trkpt lat="50.63349" lon="5.3489">
        <ele>178.80000305176</ele>
        <time>2019-08-30T11:20:10.000Z</time>
      </trkpt>
      <trkpt lat="50.63347" lon="5.3491">
        <ele>178.80000305176</ele>
        <time>2019-08-30T11:20:13.000Z</time>
      </trkpt>
      <trkpt lat="50.63346" lon="5.34924">
        <ele>178.80000305176</ele>
        <time>2019-08-30T11:20:15.000Z</time>
      </trkpt>
      <trkpt lat="50.63345" lon="5.34938">
        <ele>178.80000305176</ele>
        <time>2019-08-30T11:20:17.000Z</time>
      </trkpt>
      <trkpt lat="50.63341" lon="5.34996">
        <ele>178.80000305176</ele>
        <time>2019-08-30T11:20:25.000Z</time>
      </trkpt>
      <trkpt lat="50.63336" lon="5.35063">
        <ele>178.80000305176</ele>
        <time>2019-08-30T11:20:34.000Z</time>
      </trkpt>
      <trkpt lat="50.63333" lon="5.35108">
        <ele>178.39999389648</ele>
        <time>2019-08-30T11:20:40.000Z</time>
      </trkpt>
      <trkpt lat="50.63332" lon="5.35116">
        <ele>178</ele>
        <time>2019-08-30T11:20:41.000Z</time>
      </trkpt>
      <trkpt lat="50.63332" lon="5.35123">
        <ele>177.60000610352</ele>
        <time>2019-08-30T11:20:42.000Z</time>
      </trkpt>
      <trkpt lat="50.63331" lon="5.35131">
        <ele>177.19999694824</ele>
        <time>2019-08-30T11:20:43.000Z</time>
      </trkpt>
      <trkpt lat="50.63331" lon="5.35139">
        <ele>176.80000305176</ele>
        <time>2019-08-30T11:20:44.000Z</time>
      </trkpt>
      <trkpt lat="50.63328" lon="5.35186">
        <ele>176.80000305176</ele>
        <time>2019-08-30T11:20:50.000Z</time>
      </trkpt>
      <trkpt lat="50.63326" lon="5.35248">
        <ele>176.80000305176</ele>
        <time>2019-08-30T11:20:58.000Z</time>
      </trkpt>
      <trkpt lat="50.63326" lon="5.35301">
        <ele>176.80000305176</ele>
        <time>2019-08-30T11:21:05.000Z</time>
      </trkpt>
      <trkpt lat="50.63324" lon="5.35371">
        <ele>176.80000305176</ele>
        <time>2019-08-30T11:21:15.000Z</time>
      </trkpt>
      <trkpt lat="50.63323" lon="5.35426">
        <ele>176.80000305176</ele>
        <time>2019-08-30T11:21:23.000Z</time>
      </trkpt>
      <trkpt lat="50.63321" lon="5.35462">
        <ele>176.80000305176</ele>
        <time>2019-08-30T11:21:29.000Z</time>
      </trkpt>
      <trkpt lat="50.63321" lon="5.35462">
        <ele>176.80000305176</ele>
        <time>2019-08-30T11:21:31.000Z</time>
      </trkpt>
      <trkpt lat="50.63321" lon="5.35465">
        <ele>176.80000305176</ele>
        <time>2019-08-30T11:21:40.000Z</time>
      </trkpt>
      <trkpt lat="50.6332" lon="5.35481">
        <ele>176.80000305176</ele>
        <time>2019-08-30T11:21:44.000Z</time>
      </trkpt>
      <trkpt lat="50.63319" lon="5.35491">
        <ele>176.80000305176</ele>
        <time>2019-08-30T11:21:46.000Z</time>
      </trkpt>
      <trkpt lat="50.63317" lon="5.35512">
        <ele>176.80000305176</ele>
        <time>2019-08-30T11:21:50.000Z</time>
      </trkpt>
      <trkpt lat="50.63311" lon="5.35564">
        <ele>176.80000305176</ele>
        <time>2019-08-30T11:21:59.000Z</time>
      </trkpt>
      <trkpt lat="50.63307" lon="5.35606">
        <ele>176.80000305176</ele>
        <time>2019-08-30T11:22:06.000Z</time>
      </trkpt>
      <trkpt lat="50.63302" lon="5.35654">
        <ele>176.80000305176</ele>
        <time>2019-08-30T11:22:14.000Z</time>
      </trkpt>
      <trkpt lat="50.63297" lon="5.35702">
        <ele>176.80000305176</ele>
        <time>2019-08-30T11:22:22.000Z</time>
      </trkpt>
      <trkpt lat="50.63293" lon="5.35739">
        <ele>176.80000305176</ele>
        <time>2019-08-30T11:22:28.000Z</time>
      </trkpt>
      <trkpt lat="50.63288" lon="5.35779">
        <ele>176.80000305176</ele>
        <time>2019-08-30T11:22:35.000Z</time>
      </trkpt>
      <trkpt lat="50.63284" lon="5.35814">
        <ele>177.19999694824</ele>
        <time>2019-08-30T11:22:41.000Z</time>
      </trkpt>
      <trkpt lat="50.63284" lon="5.35819">
        <ele>177.60000610352</ele>
        <time>2019-08-30T11:22:42.000Z</time>
      </trkpt>
      <trkpt lat="50.63283" lon="5.35825">
        <ele>178</ele>
        <time>2019-08-30T11:22:43.000Z</time>
      </trkpt>
      <trkpt lat="50.63283" lon="5.35831">
        <ele>178.80000305176</ele>
        <time>2019-08-30T11:22:44.000Z</time>
      </trkpt>
      <trkpt lat="50.6328" lon="5.35858">
        <ele>178.80000305176</ele>
        <time>2019-08-30T11:22:49.000Z</time>
      </trkpt>
      <trkpt lat="50.63277" lon="5.35887">
        <ele>178.80000305176</ele>
        <time>2019-08-30T11:22:54.000Z</time>
      </trkpt>
      <trkpt lat="50.63272" lon="5.35932">
        <ele>178.80000305176</ele>
        <time>2019-08-30T11:23:02.000Z</time>
      </trkpt>
      <trkpt lat="50.63268" lon="5.35973">
        <ele>178.80000305176</ele>
        <time>2019-08-30T11:23:09.000Z</time>
      </trkpt>
      <trkpt lat="50.63264" lon="5.36008">
        <ele>178.80000305176</ele>
        <time>2019-08-30T11:23:15.000Z</time>
      </trkpt>
      <trkpt lat="50.63262" lon="5.36036">
        <ele>179.19999694824</ele>
        <time>2019-08-30T11:23:20.000Z</time>
      </trkpt>
      <trkpt lat="50.63261" lon="5.36042">
        <ele>179.60000610352</ele>
        <time>2019-08-30T11:23:21.000Z</time>
      </trkpt>
      <trkpt lat="50.63261" lon="5.36048">
        <ele>180</ele>
        <time>2019-08-30T11:23:22.000Z</time>
      </trkpt>
      <trkpt lat="50.63261" lon="5.36054">
        <ele>180.39999389648</ele>
        <time>2019-08-30T11:23:23.000Z</time>
      </trkpt>
      <trkpt lat="50.63261" lon="5.3606">
        <ele>180.80000305176</ele>
        <time>2019-08-30T11:23:24.000Z</time>
      </trkpt>
      <trkpt lat="50.63263" lon="5.36095">
        <ele>180.80000305176</ele>
        <time>2019-08-30T11:23:30.000Z</time>
      </trkpt>
      <trkpt lat="50.63268" lon="5.36135">
        <ele>180.80000305176</ele>
        <time>2019-08-30T11:23:37.000Z</time>
      </trkpt>
      <trkpt lat="50.63275" lon="5.36187">
        <ele>180.80000305176</ele>
        <time>2019-08-30T11:23:46.000Z</time>
      </trkpt>
      <trkpt lat="50.63279" lon="5.36226">
        <ele>180.80000305176</ele>
        <time>2019-08-30T11:23:53.000Z</time>
      </trkpt>
      <trkpt lat="50.63284" lon="5.36263">
        <ele>180.80000305176</ele>
        <time>2019-08-30T11:24:00.000Z</time>
      </trkpt>
      <trkpt lat="50.63287" lon="5.36289">
        <ele>180.80000305176</ele>
        <time>2019-08-30T11:24:06.000Z</time>
      </trkpt>
      <trkpt lat="50.6329" lon="5.36299">
        <ele>180.80000305176</ele>
        <time>2019-08-30T11:24:10.000Z</time>
      </trkpt>
      <trkpt lat="50.6329" lon="5.36301">
        <ele>180.80000305176</ele>
        <time>2019-08-30T11:24:16.000Z</time>
      </trkpt>
      <trkpt lat="50.63291" lon="5.36319">
        <ele>180.80000305176</ele>
        <time>2019-08-30T11:24:22.000Z</time>
      </trkpt>
      <trkpt lat="50.63291" lon="5.36326">
        <ele>180.80000305176</ele>
        <time>2019-08-30T11:24:25.000Z</time>
      </trkpt>
      <trkpt lat="50.63291" lon="5.36329">
        <ele>180.80000305176</ele>
        <time>2019-08-30T11:24:33.000Z</time>
      </trkpt>
      <trkpt lat="50.63291" lon="5.36332">
        <ele>180.80000305176</ele>
        <time>2019-08-30T11:24:34.000Z</time>
      </trkpt>
      <trkpt lat="50.63292" lon="5.3635">
        <ele>180.80000305176</ele>
        <time>2019-08-30T11:24:38.000Z</time>
      </trkpt>
      <trkpt lat="50.63294" lon="5.36358">
        <ele>180.80000305176</ele>
        <time>2019-08-30T11:24:42.000Z</time>
      </trkpt>
      <trkpt lat="50.63294" lon="5.36358">
        <ele>180.80000305176</ele>
        <time>2019-08-30T11:24:43.000Z</time>
      </trkpt>
      <trkpt lat="50.63294" lon="5.36361">
        <ele>180.80000305176</ele>
        <time>2019-08-30T11:24:48.000Z</time>
      </trkpt>
      <trkpt lat="50.63294" lon="5.36365">
        <ele>180.80000305176</ele>
        <time>2019-08-30T11:24:50.000Z</time>
      </trkpt>
      <trkpt lat="50.63294" lon="5.36367">
        <ele>180.80000305176</ele>
        <time>2019-08-30T11:24:52.000Z</time>
      </trkpt>
      <trkpt lat="50.63294" lon="5.36368">
        <ele>180.80000305176</ele>
        <time>2019-08-30T11:24:56.000Z</time>
      </trkpt>
      <trkpt lat="50.63294" lon="5.36371">
        <ele>180.80000305176</ele>
        <time>2019-08-30T11:24:57.000Z</time>
      </trkpt>
      <trkpt lat="50.63294" lon="5.36392">
        <ele>180.80000305176</ele>
        <time>2019-08-30T11:25:01.000Z</time>
      </trkpt>
      <trkpt lat="50.63293" lon="5.36419">
        <ele>180.80000305176</ele>
        <time>2019-08-30T11:25:06.000Z</time>
      </trkpt>
      <trkpt lat="50.63293" lon="5.36461">
        <ele>180.80000305176</ele>
        <time>2019-08-30T11:25:13.000Z</time>
      </trkpt>
      <trkpt lat="50.63293" lon="5.36509">
        <ele>180.80000305176</ele>
        <time>2019-08-30T11:25:21.000Z</time>
      </trkpt>
      <trkpt lat="50.63294" lon="5.36555">
        <ele>180.80000305176</ele>
        <time>2019-08-30T11:25:29.000Z</time>
      </trkpt>
      <trkpt lat="50.63294" lon="5.36598">
        <ele>180.80000305176</ele>
        <time>2019-08-30T11:25:36.000Z</time>
      </trkpt>
      <trkpt lat="50.63293" lon="5.36656">
        <ele>180.80000305176</ele>
        <time>2019-08-30T11:25:45.000Z</time>
      </trkpt>
      <trkpt lat="50.63294" lon="5.36662">
        <ele>180.80000305176</ele>
        <time>2019-08-30T11:25:46.000Z</time>
      </trkpt>
      <trkpt lat="50.63293" lon="5.36668">
        <ele>180.80000305176</ele>
        <time>2019-08-30T11:25:47.000Z</time>
      </trkpt>
      <trkpt lat="50.63293" lon="5.36687">
        <ele>180.80000305176</ele>
        <time>2019-08-30T11:25:50.000Z</time>
      </trkpt>
      <trkpt lat="50.63294" lon="5.36693">
        <ele>180.80000305176</ele>
        <time>2019-08-30T11:25:51.000Z</time>
      </trkpt>
      <trkpt lat="50.63294" lon="5.367">
        <ele>180.80000305176</ele>
        <time>2019-08-30T11:25:52.000Z</time>
      </trkpt>
      <trkpt lat="50.63293" lon="5.36737">
        <ele>180.80000305176</ele>
        <time>2019-08-30T11:25:58.000Z</time>
      </trkpt>
      <trkpt lat="50.63293" lon="5.36772">
        <ele>180.80000305176</ele>
        <time>2019-08-30T11:26:04.000Z</time>
      </trkpt>
      <trkpt lat="50.63296" lon="5.3682">
        <ele>180.80000305176</ele>
        <time>2019-08-30T11:26:12.000Z</time>
      </trkpt>
      <trkpt lat="50.633" lon="5.3687">
        <ele>180.80000305176</ele>
        <time>2019-08-30T11:26:20.000Z</time>
      </trkpt>
      <trkpt lat="50.63303" lon="5.36915">
        <ele>180.80000305176</ele>
        <time>2019-08-30T11:26:27.000Z</time>
      </trkpt>
      <trkpt lat="50.63308" lon="5.36969">
        <ele>180.80000305176</ele>
        <time>2019-08-30T11:26:36.000Z</time>
      </trkpt>
      <trkpt lat="50.63311" lon="5.37004">
        <ele>180.80000305176</ele>
        <time>2019-08-30T11:26:42.000Z</time>
      </trkpt>
      <trkpt lat="50.63315" lon="5.3706">
        <ele>180.80000305176</ele>
        <time>2019-08-30T11:26:51.000Z</time>
      </trkpt>
      <trkpt lat="50.63317" lon="5.3709">
        <ele>180.80000305176</ele>
        <time>2019-08-30T11:26:56.000Z</time>
      </trkpt>
      <trkpt lat="50.63321" lon="5.37126">
        <ele>180.80000305176</ele>
        <time>2019-08-30T11:27:02.000Z</time>
      </trkpt>
      <trkpt lat="50.63322" lon="5.37132">
        <ele>180.80000305176</ele>
        <time>2019-08-30T11:27:03.000Z</time>
      </trkpt>
      <trkpt lat="50.63322" lon="5.37153">
        <ele>180.80000305176</ele>
        <time>2019-08-30T11:27:06.000Z</time>
      </trkpt>
      <trkpt lat="50.63322" lon="5.37159">
        <ele>180.80000305176</ele>
        <time>2019-08-30T11:27:07.000Z</time>
      </trkpt>
      <trkpt lat="50.63323" lon="5.37165">
        <ele>180.80000305176</ele>
        <time>2019-08-30T11:27:08.000Z</time>
      </trkpt>
      <trkpt lat="50.63325" lon="5.37186">
        <ele>180.80000305176</ele>
        <time>2019-08-30T11:27:13.000Z</time>
      </trkpt>
      <trkpt lat="50.63326" lon="5.3719">
        <ele>180.80000305176</ele>
        <time>2019-08-30T11:27:14.000Z</time>
      </trkpt>
      <trkpt lat="50.63326" lon="5.37202">
        <ele>180.80000305176</ele>
        <time>2019-08-30T11:27:19.000Z</time>
      </trkpt>
      <trkpt lat="50.63327" lon="5.37206">
        <ele>178.80000305176</ele>
        <time>2019-08-30T11:27:25.000Z</time>
      </trkpt>
      <trkpt lat="50.63328" lon="5.37214">
        <ele>178.80000305176</ele>
        <time>2019-08-30T11:27:27.000Z</time>
      </trkpt>
      <trkpt lat="50.63331" lon="5.3724">
        <ele>178.80000305176</ele>
        <time>2019-08-30T11:27:32.000Z</time>
      </trkpt>
      <trkpt lat="50.63333" lon="5.37276">
        <ele>178.80000305176</ele>
        <time>2019-08-30T11:27:38.000Z</time>
      </trkpt>
      <trkpt lat="50.63335" lon="5.37302">
        <ele>178.80000305176</ele>
        <time>2019-08-30T11:27:43.000Z</time>
      </trkpt>
      <trkpt lat="50.63337" lon="5.37329">
        <ele>178.80000305176</ele>
        <time>2019-08-30T11:27:48.000Z</time>
      </trkpt>
      <trkpt lat="50.6334" lon="5.37365">
        <ele>178.80000305176</ele>
        <time>2019-08-30T11:27:54.000Z</time>
      </trkpt>
      <trkpt lat="50.63341" lon="5.37371">
        <ele>178.80000305176</ele>
        <time>2019-08-30T11:27:55.000Z</time>
      </trkpt>
      <trkpt lat="50.63342" lon="5.37385">
        <ele>178.80000305176</ele>
        <time>2019-08-30T11:27:57.000Z</time>
      </trkpt>
      <trkpt lat="50.63343" lon="5.37404">
        <ele>178.80000305176</ele>
        <time>2019-08-30T11:28:00.000Z</time>
      </trkpt>
      <trkpt lat="50.63348" lon="5.3745">
        <ele>178.80000305176</ele>
        <time>2019-08-30T11:28:07.000Z</time>
      </trkpt>
      <trkpt lat="50.63349" lon="5.37464">
        <ele>178.80000305176</ele>
        <time>2019-08-30T11:28:09.000Z</time>
      </trkpt>
      <trkpt lat="50.63349" lon="5.37476">
        <ele>178.80000305176</ele>
        <time>2019-08-30T11:28:11.000Z</time>
      </trkpt>
      <trkpt lat="50.63352" lon="5.37502">
        <ele>178.80000305176</ele>
        <time>2019-08-30T11:28:15.000Z</time>
      </trkpt>
      <trkpt lat="50.63355" lon="5.37554">
        <ele>178.80000305176</ele>
        <time>2019-08-30T11:28:23.000Z</time>
      </trkpt>
      <trkpt lat="50.63356" lon="5.37567">
        <ele>178.80000305176</ele>
        <time>2019-08-30T11:28:25.000Z</time>
      </trkpt>
      <trkpt lat="50.63357" lon="5.37579">
        <ele>178.80000305176</ele>
        <time>2019-08-30T11:28:27.000Z</time>
      </trkpt>
      <trkpt lat="50.63358" lon="5.37586">
        <ele>178.80000305176</ele>
        <time>2019-08-30T11:28:28.000Z</time>
      </trkpt>
      <trkpt lat="50.6336" lon="5.37612">
        <ele>178.39999389648</ele>
        <time>2019-08-30T11:28:32.000Z</time>
      </trkpt>
      <trkpt lat="50.63361" lon="5.37618">
        <ele>178</ele>
        <time>2019-08-30T11:28:33.000Z</time>
      </trkpt>
      <trkpt lat="50.63361" lon="5.37625">
        <ele>177.60000610352</ele>
        <time>2019-08-30T11:28:34.000Z</time>
      </trkpt>
      <trkpt lat="50.63362" lon="5.37632">
        <ele>177.19999694824</ele>
        <time>2019-08-30T11:28:35.000Z</time>
      </trkpt>
      <trkpt lat="50.63362" lon="5.37639">
        <ele>176.60000610352</ele>
        <time>2019-08-30T11:28:36.000Z</time>
      </trkpt>
      <trkpt lat="50.63364" lon="5.37677">
        <ele>176.60000610352</ele>
        <time>2019-08-30T11:28:41.000Z</time>
      </trkpt>
      <trkpt lat="50.63365" lon="5.37685">
        <ele>176.60000610352</ele>
        <time>2019-08-30T11:28:42.000Z</time>
      </trkpt>
      <trkpt lat="50.63369" lon="5.37743">
        <ele>176.60000610352</ele>
        <time>2019-08-30T11:28:49.000Z</time>
      </trkpt>
      <trkpt lat="50.63371" lon="5.37781">
        <ele>176.19999694824</ele>
        <time>2019-08-30T11:28:54.000Z</time>
      </trkpt>
      <trkpt lat="50.63371" lon="5.37782">
        <ele>175.80000305176</ele>
        <time>2019-08-30T11:28:55.000Z</time>
      </trkpt>
      <trkpt lat="50.63371" lon="5.37782">
        <ele>175</ele>
        <time>2019-08-30T11:28:56.000Z</time>
      </trkpt>
      <trkpt lat="50.63372" lon="5.37787">
        <ele>174.60000610352</ele>
        <time>2019-08-30T11:29:05.000Z</time>
      </trkpt>
      <trkpt lat="50.63372" lon="5.37791">
        <ele>174.60000610352</ele>
        <time>2019-08-30T11:29:06.000Z</time>
      </trkpt>
      <trkpt lat="50.63375" lon="5.37818">
        <ele>174.60000610352</ele>
        <time>2019-08-30T11:29:11.000Z</time>
      </trkpt>
      <trkpt lat="50.63376" lon="5.37838">
        <ele>174.19999694824</ele>
        <time>2019-08-30T11:29:14.000Z</time>
      </trkpt>
      <trkpt lat="50.63376" lon="5.37844">
        <ele>173.80000305176</ele>
        <time>2019-08-30T11:29:15.000Z</time>
      </trkpt>
      <trkpt lat="50.63377" lon="5.37851">
        <ele>173.39999389648</ele>
        <time>2019-08-30T11:29:16.000Z</time>
      </trkpt>
      <trkpt lat="50.63377" lon="5.37858">
        <ele>173</ele>
        <time>2019-08-30T11:29:17.000Z</time>
      </trkpt>
      <trkpt lat="50.63378" lon="5.37865">
        <ele>172.60000610352</ele>
        <time>2019-08-30T11:29:18.000Z</time>
      </trkpt>
      <trkpt lat="50.63382" lon="5.37916">
        <ele>172.60000610352</ele>
        <time>2019-08-30T11:29:25.000Z</time>
      </trkpt>
      <trkpt lat="50.63386" lon="5.37969">
        <ele>172.60000610352</ele>
        <time>2019-08-30T11:29:32.000Z</time>
      </trkpt>
      <trkpt lat="50.63392" lon="5.38026">
        <ele>172.60000610352</ele>
        <time>2019-08-30T11:29:40.000Z</time>
      </trkpt>
      <trkpt lat="50.63395" lon="5.38071">
        <ele>172.60000610352</ele>
        <time>2019-08-30T11:29:46.000Z</time>
      </trkpt>
      <trkpt lat="50.63396" lon="5.38096">
        <ele>172.19999694824</ele>
        <time>2019-08-30T11:29:49.000Z</time>
      </trkpt>
      <trkpt lat="50.63397" lon="5.38105">
        <ele>171.80000305176</ele>
        <time>2019-08-30T11:29:50.000Z</time>
      </trkpt>
      <trkpt lat="50.63398" lon="5.38114">
        <ele>171.39999389648</ele>
        <time>2019-08-30T11:29:51.000Z</time>
      </trkpt>
      <trkpt lat="50.63398" lon="5.38123">
        <ele>171</ele>
        <time>2019-08-30T11:29:52.000Z</time>
      </trkpt>
      <trkpt lat="50.63399" lon="5.38132">
        <ele>170.60000610352</ele>
        <time>2019-08-30T11:29:53.000Z</time>
      </trkpt>
      <trkpt lat="50.63404" lon="5.38186">
        <ele>170.60000610352</ele>
        <time>2019-08-30T11:29:59.000Z</time>
      </trkpt>
      <trkpt lat="50.63408" lon="5.38246">
        <ele>170.60000610352</ele>
        <time>2019-08-30T11:30:06.000Z</time>
      </trkpt>
      <trkpt lat="50.63411" lon="5.38286">
        <ele>170.19999694824</ele>
        <time>2019-08-30T11:30:11.000Z</time>
      </trkpt>
      <trkpt lat="50.63412" lon="5.38294">
        <ele>169.80000305176</ele>
        <time>2019-08-30T11:30:12.000Z</time>
      </trkpt>
      <trkpt lat="50.63412" lon="5.38303">
        <ele>169.19999694824</ele>
        <time>2019-08-30T11:30:13.000Z</time>
      </trkpt>
      <trkpt lat="50.63413" lon="5.38311">
        <ele>168.80000305176</ele>
        <time>2019-08-30T11:30:14.000Z</time>
      </trkpt>
      <trkpt lat="50.63413" lon="5.38319">
        <ele>168.39999389648</ele>
        <time>2019-08-30T11:30:15.000Z</time>
      </trkpt>
      <trkpt lat="50.63417" lon="5.38365">
        <ele>168.39999389648</ele>
        <time>2019-08-30T11:30:21.000Z</time>
      </trkpt>
      <trkpt lat="50.63422" lon="5.38426">
        <ele>168.39999389648</ele>
        <time>2019-08-30T11:30:29.000Z</time>
      </trkpt>
      <trkpt lat="50.63426" lon="5.38478">
        <ele>168.39999389648</ele>
        <time>2019-08-30T11:30:36.000Z</time>
      </trkpt>
      <trkpt lat="50.63432" lon="5.38545">
        <ele>168.39999389648</ele>
        <time>2019-08-30T11:30:45.000Z</time>
      </trkpt>
      <trkpt lat="50.63438" lon="5.38613">
        <ele>168.39999389648</ele>
        <time>2019-08-30T11:30:54.000Z</time>
      </trkpt>
      <trkpt lat="50.63439" lon="5.38627">
        <ele>168.39999389648</ele>
        <time>2019-08-30T11:30:56.000Z</time>
      </trkpt>
      <trkpt lat="50.63441" lon="5.38657">
        <ele>168.39999389648</ele>
        <time>2019-08-30T11:31:00.000Z</time>
      </trkpt>
      <trkpt lat="50.63442" lon="5.38671">
        <ele>168</ele>
        <time>2019-08-30T11:31:02.000Z</time>
      </trkpt>
      <trkpt lat="50.63442" lon="5.38679">
        <ele>167.60000610352</ele>
        <time>2019-08-30T11:31:03.000Z</time>
      </trkpt>
      <trkpt lat="50.63443" lon="5.38686">
        <ele>167.19999694824</ele>
        <time>2019-08-30T11:31:04.000Z</time>
      </trkpt>
      <trkpt lat="50.63444" lon="5.38694">
        <ele>166.80000305176</ele>
        <time>2019-08-30T11:31:05.000Z</time>
      </trkpt>
      <trkpt lat="50.63445" lon="5.38701">
        <ele>166.39999389648</ele>
        <time>2019-08-30T11:31:06.000Z</time>
      </trkpt>
      <trkpt lat="50.63446" lon="5.38716">
        <ele>166.39999389648</ele>
        <time>2019-08-30T11:31:08.000Z</time>
      </trkpt>
      <trkpt lat="50.63451" lon="5.38776">
        <ele>166.39999389648</ele>
        <time>2019-08-30T11:31:16.000Z</time>
      </trkpt>
      <trkpt lat="50.63455" lon="5.38829">
        <ele>166.39999389648</ele>
        <time>2019-08-30T11:31:23.000Z</time>
      </trkpt>
      <trkpt lat="50.6346" lon="5.38887">
        <ele>166.39999389648</ele>
        <time>2019-08-30T11:31:31.000Z</time>
      </trkpt>
      <trkpt lat="50.63464" lon="5.38939">
        <ele>166.39999389648</ele>
        <time>2019-08-30T11:31:38.000Z</time>
      </trkpt>
      <trkpt lat="50.63469" lon="5.39004">
        <ele>166.39999389648</ele>
        <time>2019-08-30T11:31:47.000Z</time>
      </trkpt>
      <trkpt lat="50.63471" lon="5.39032">
        <ele>166.39999389648</ele>
        <time>2019-08-30T11:31:51.000Z</time>
      </trkpt>
      <trkpt lat="50.63472" lon="5.39039">
        <ele>166.39999389648</ele>
        <time>2019-08-30T11:31:52.000Z</time>
      </trkpt>
      <trkpt lat="50.63474" lon="5.39068">
        <ele>166.39999389648</ele>
        <time>2019-08-30T11:31:56.000Z</time>
      </trkpt>
      <trkpt lat="50.63475" lon="5.39075">
        <ele>166.39999389648</ele>
        <time>2019-08-30T11:31:57.000Z</time>
      </trkpt>
      <trkpt lat="50.6348" lon="5.39137">
        <ele>166.39999389648</ele>
        <time>2019-08-30T11:32:06.000Z</time>
      </trkpt>
      <trkpt lat="50.63483" lon="5.3919">
        <ele>166.39999389648</ele>
        <time>2019-08-30T11:32:14.000Z</time>
      </trkpt>
      <trkpt lat="50.63488" lon="5.39256">
        <ele>166.39999389648</ele>
        <time>2019-08-30T11:32:24.000Z</time>
      </trkpt>
      <trkpt lat="50.63492" lon="5.39304">
        <ele>166.39999389648</ele>
        <time>2019-08-30T11:32:31.000Z</time>
      </trkpt>
      <trkpt lat="50.63499" lon="5.39384">
        <ele>166.39999389648</ele>
        <time>2019-08-30T11:32:43.000Z</time>
      </trkpt>
      <trkpt lat="50.63504" lon="5.39446">
        <ele>166.39999389648</ele>
        <time>2019-08-30T11:32:53.000Z</time>
      </trkpt>
      <trkpt lat="50.63508" lon="5.39488">
        <ele>166.39999389648</ele>
        <time>2019-08-30T11:33:00.000Z</time>
      </trkpt>
      <trkpt lat="50.63512" lon="5.39545">
        <ele>166.39999389648</ele>
        <time>2019-08-30T11:33:10.000Z</time>
      </trkpt>
      <trkpt lat="50.63515" lon="5.39574">
        <ele>166.39999389648</ele>
        <time>2019-08-30T11:33:16.000Z</time>
      </trkpt>
      <trkpt lat="50.63515" lon="5.39574">
        <ele>166.39999389648</ele>
        <time>2019-08-30T11:33:18.000Z</time>
      </trkpt>
      <trkpt lat="50.63515" lon="5.39575">
        <ele>166.39999389648</ele>
        <time>2019-08-30T11:33:25.000Z</time>
      </trkpt>
      <trkpt lat="50.63515" lon="5.39589">
        <ele>166.39999389648</ele>
        <time>2019-08-30T11:33:29.000Z</time>
      </trkpt>
      <trkpt lat="50.63514" lon="5.39594">
        <ele>166.39999389648</ele>
        <time>2019-08-30T11:33:30.000Z</time>
      </trkpt>
      <trkpt lat="50.63508" lon="5.39607">
        <ele>166.39999389648</ele>
        <time>2019-08-30T11:33:34.000Z</time>
      </trkpt>
      <trkpt lat="50.63507" lon="5.3961">
        <ele>166.39999389648</ele>
        <time>2019-08-30T11:33:37.000Z</time>
      </trkpt>
      <trkpt lat="50.63506" lon="5.39614">
        <ele>166.39999389648</ele>
        <time>2019-08-30T11:33:42.000Z</time>
      </trkpt>
      <trkpt lat="50.63504" lon="5.39622">
        <ele>166.39999389648</ele>
        <time>2019-08-30T11:33:45.000Z</time>
      </trkpt>
      <trkpt lat="50.63502" lon="5.39629">
        <ele>166.39999389648</ele>
        <time>2019-08-30T11:33:49.000Z</time>
      </trkpt>
      <trkpt lat="50.63501" lon="5.39633">
        <ele>166.39999389648</ele>
        <time>2019-08-30T11:33:56.000Z</time>
      </trkpt>
      <trkpt lat="50.63495" lon="5.39645">
        <ele>166.39999389648</ele>
        <time>2019-08-30T11:34:01.000Z</time>
      </trkpt>
      <trkpt lat="50.63495" lon="5.39647">
        <ele>166.39999389648</ele>
        <time>2019-08-30T11:34:02.000Z</time>
      </trkpt>
      <trkpt lat="50.63494" lon="5.39648">
        <ele>166.39999389648</ele>
        <time>2019-08-30T11:34:03.000Z</time>
      </trkpt>
      <trkpt lat="50.63492" lon="5.39651">
        <ele>166.39999389648</ele>
        <time>2019-08-30T11:34:09.000Z</time>
      </trkpt>
      <trkpt lat="50.63489" lon="5.39655">
        <ele>166.39999389648</ele>
        <time>2019-08-30T11:34:11.000Z</time>
      </trkpt>
      <trkpt lat="50.63478" lon="5.39669">
        <ele>166.39999389648</ele>
        <time>2019-08-30T11:34:17.000Z</time>
      </trkpt>
      <trkpt lat="50.63464" lon="5.39686">
        <ele>166.39999389648</ele>
        <time>2019-08-30T11:34:23.000Z</time>
      </trkpt>
      <trkpt lat="50.63436" lon="5.3972">
        <ele>166.39999389648</ele>
        <time>2019-08-30T11:34:32.000Z</time>
      </trkpt>
      <trkpt lat="50.63415" lon="5.39746">
        <ele>166.39999389648</ele>
        <time>2019-08-30T11:34:39.000Z</time>
      </trkpt>
      <trkpt lat="50.63412" lon="5.39751">
        <ele>166</ele>
        <time>2019-08-30T11:34:40.000Z</time>
      </trkpt>
      <trkpt lat="50.63409" lon="5.39754">
        <ele>165.60000610352</ele>
        <time>2019-08-30T11:34:41.000Z</time>
      </trkpt>
      <trkpt lat="50.63405" lon="5.39758">
        <ele>164.80000305176</ele>
        <time>2019-08-30T11:34:42.000Z</time>
      </trkpt>
      <trkpt lat="50.63403" lon="5.39763">
        <ele>164.39999389648</ele>
        <time>2019-08-30T11:34:43.000Z</time>
      </trkpt>
      <trkpt lat="50.63391" lon="5.39779">
        <ele>164.39999389648</ele>
        <time>2019-08-30T11:34:47.000Z</time>
      </trkpt>
      <trkpt lat="50.6337" lon="5.39808">
        <ele>164.39999389648</ele>
        <time>2019-08-30T11:34:54.000Z</time>
      </trkpt>
      <trkpt lat="50.63343" lon="5.39843">
        <ele>164.39999389648</ele>
        <time>2019-08-30T11:35:03.000Z</time>
      </trkpt>
      <trkpt lat="50.63322" lon="5.39869">
        <ele>164.39999389648</ele>
        <time>2019-08-30T11:35:10.000Z</time>
      </trkpt>
      <trkpt lat="50.63309" lon="5.39886">
        <ele>164.39999389648</ele>
        <time>2019-08-30T11:35:14.000Z</time>
      </trkpt>
      <trkpt lat="50.63302" lon="5.39894">
        <ele>164.39999389648</ele>
        <time>2019-08-30T11:35:16.000Z</time>
      </trkpt>
      <trkpt lat="50.63282" lon="5.3992">
        <ele>164.39999389648</ele>
        <time>2019-08-30T11:35:22.000Z</time>
      </trkpt>
      <trkpt lat="50.63272" lon="5.39934">
        <ele>164</ele>
        <time>2019-08-30T11:35:25.000Z</time>
      </trkpt>
      <trkpt lat="50.63269" lon="5.39938">
        <ele>163.60000610352</ele>
        <time>2019-08-30T11:35:26.000Z</time>
      </trkpt>
      <trkpt lat="50.63265" lon="5.39943">
        <ele>163.19999694824</ele>
        <time>2019-08-30T11:35:27.000Z</time>
      </trkpt>
      <trkpt lat="50.63262" lon="5.39947">
        <ele>162.80000305176</ele>
        <time>2019-08-30T11:35:28.000Z</time>
      </trkpt>
      <trkpt lat="50.63258" lon="5.39952">
        <ele>162.39999389648</ele>
        <time>2019-08-30T11:35:29.000Z</time>
      </trkpt>
      <trkpt lat="50.63248" lon="5.39966">
        <ele>162.39999389648</ele>
        <time>2019-08-30T11:35:32.000Z</time>
      </trkpt>
      <trkpt lat="50.63238" lon="5.39979">
        <ele>162.39999389648</ele>
        <time>2019-08-30T11:35:35.000Z</time>
      </trkpt>
      <trkpt lat="50.63218" lon="5.40005">
        <ele>162.39999389648</ele>
        <time>2019-08-30T11:35:41.000Z</time>
      </trkpt>
      <trkpt lat="50.63186" lon="5.40047">
        <ele>162.39999389648</ele>
        <time>2019-08-30T11:35:51.000Z</time>
      </trkpt>
      <trkpt lat="50.63162" lon="5.40077">
        <ele>162.39999389648</ele>
        <time>2019-08-30T11:35:58.000Z</time>
      </trkpt>
      <trkpt lat="50.63134" lon="5.40113">
        <ele>162.39999389648</ele>
        <time>2019-08-30T11:36:06.000Z</time>
      </trkpt>
      <trkpt lat="50.63128" lon="5.40122">
        <ele>162</ele>
        <time>2019-08-30T11:36:08.000Z</time>
      </trkpt>
      <trkpt lat="50.63124" lon="5.40127">
        <ele>161.60000610352</ele>
        <time>2019-08-30T11:36:09.000Z</time>
      </trkpt>
      <trkpt lat="50.63121" lon="5.40131">
        <ele>161.19999694824</ele>
        <time>2019-08-30T11:36:10.000Z</time>
      </trkpt>
      <trkpt lat="50.63118" lon="5.40135">
        <ele>160.80000305176</ele>
        <time>2019-08-30T11:36:11.000Z</time>
      </trkpt>
      <trkpt lat="50.63114" lon="5.4014">
        <ele>160.39999389648</ele>
        <time>2019-08-30T11:36:12.000Z</time>
      </trkpt>
      <trkpt lat="50.63104" lon="5.40153">
        <ele>160.39999389648</ele>
        <time>2019-08-30T11:36:15.000Z</time>
      </trkpt>
      <trkpt lat="50.63097" lon="5.40162">
        <ele>160.39999389648</ele>
        <time>2019-08-30T11:36:17.000Z</time>
      </trkpt>
      <trkpt lat="50.63083" lon="5.4018">
        <ele>160.39999389648</ele>
        <time>2019-08-30T11:36:21.000Z</time>
      </trkpt>
      <trkpt lat="50.63056" lon="5.40214">
        <ele>160.39999389648</ele>
        <time>2019-08-30T11:36:29.000Z</time>
      </trkpt>
      <trkpt lat="50.63025" lon="5.40253">
        <ele>160.39999389648</ele>
        <time>2019-08-30T11:36:38.000Z</time>
      </trkpt>
      <trkpt lat="50.63006" lon="5.40278">
        <ele>160.39999389648</ele>
        <time>2019-08-30T11:36:44.000Z</time>
      </trkpt>
      <trkpt lat="50.62985" lon="5.40305">
        <ele>160.39999389648</ele>
        <time>2019-08-30T11:36:51.000Z</time>
      </trkpt>
      <trkpt lat="50.62972" lon="5.40321">
        <ele>160.39999389648</ele>
        <time>2019-08-30T11:36:55.000Z</time>
      </trkpt>
      <trkpt lat="50.62965" lon="5.4033">
        <ele>160.39999389648</ele>
        <time>2019-08-30T11:36:57.000Z</time>
      </trkpt>
      <trkpt lat="50.62954" lon="5.40345">
        <ele>160</ele>
        <time>2019-08-30T11:37:00.000Z</time>
      </trkpt>
      <trkpt lat="50.62951" lon="5.40349">
        <ele>159.39999389648</ele>
        <time>2019-08-30T11:37:01.000Z</time>
      </trkpt>
      <trkpt lat="50.62947" lon="5.40354">
        <ele>159</ele>
        <time>2019-08-30T11:37:02.000Z</time>
      </trkpt>
      <trkpt lat="50.62944" lon="5.40359">
        <ele>158.60000610352</ele>
        <time>2019-08-30T11:37:03.000Z</time>
      </trkpt>
      <trkpt lat="50.62941" lon="5.40363">
        <ele>158.19999694824</ele>
        <time>2019-08-30T11:37:04.000Z</time>
      </trkpt>
      <trkpt lat="50.62938" lon="5.40368">
        <ele>158.19999694824</ele>
        <time>2019-08-30T11:37:05.000Z</time>
      </trkpt>
      <trkpt lat="50.629" lon="5.40416">
        <ele>158.19999694824</ele>
        <time>2019-08-30T11:37:16.000Z</time>
      </trkpt>
      <trkpt lat="50.62874" lon="5.40451">
        <ele>158.19999694824</ele>
        <time>2019-08-30T11:37:24.000Z</time>
      </trkpt>
      <trkpt lat="50.62851" lon="5.40477">
        <ele>158.19999694824</ele>
        <time>2019-08-30T11:37:31.000Z</time>
      </trkpt>
      <trkpt lat="50.62828" lon="5.40508">
        <ele>158.19999694824</ele>
        <time>2019-08-30T11:37:39.000Z</time>
      </trkpt>
      <trkpt lat="50.6281" lon="5.40531">
        <ele>158.19999694824</ele>
        <time>2019-08-30T11:37:46.000Z</time>
      </trkpt>
      <trkpt lat="50.62788" lon="5.40561">
        <ele>158.19999694824</ele>
        <time>2019-08-30T11:37:56.000Z</time>
      </trkpt>
      <trkpt lat="50.62781" lon="5.40569">
        <ele>158.19999694824</ele>
        <time>2019-08-30T11:38:01.000Z</time>
      </trkpt>
      <trkpt lat="50.6278" lon="5.4057">
        <ele>158.19999694824</ele>
        <time>2019-08-30T11:38:02.000Z</time>
      </trkpt>
      <trkpt lat="50.62778" lon="5.40572">
        <ele>158.19999694824</ele>
        <time>2019-08-30T11:38:13.000Z</time>
      </trkpt>
      <trkpt lat="50.62776" lon="5.40574">
        <ele>158.19999694824</ele>
        <time>2019-08-30T11:38:15.000Z</time>
      </trkpt>
      <trkpt lat="50.62775" lon="5.40576">
        <ele>158.19999694824</ele>
        <time>2019-08-30T11:38:26.000Z</time>
      </trkpt>
      <trkpt lat="50.62771" lon="5.40581">
        <ele>158.19999694824</ele>
        <time>2019-08-30T11:38:29.000Z</time>
      </trkpt>
      <trkpt lat="50.62758" lon="5.40596">
        <ele>158.19999694824</ele>
        <time>2019-08-30T11:38:35.000Z</time>
      </trkpt>
      <trkpt lat="50.6275" lon="5.40609">
        <ele>158.60000610352</ele>
        <time>2019-08-30T11:38:39.000Z</time>
      </trkpt>
      <trkpt lat="50.62747" lon="5.40611">
        <ele>159</ele>
        <time>2019-08-30T11:38:40.000Z</time>
      </trkpt>
      <trkpt lat="50.62745" lon="5.40613">
        <ele>159.39999389648</ele>
        <time>2019-08-30T11:38:41.000Z</time>
      </trkpt>
      <trkpt lat="50.62743" lon="5.40616">
        <ele>159.80000305176</ele>
        <time>2019-08-30T11:38:42.000Z</time>
      </trkpt>
      <trkpt lat="50.62741" lon="5.40619">
        <ele>160.19999694824</ele>
        <time>2019-08-30T11:38:43.000Z</time>
      </trkpt>
      <trkpt lat="50.62731" lon="5.40633">
        <ele>160.19999694824</ele>
        <time>2019-08-30T11:38:48.000Z</time>
      </trkpt>
      <trkpt lat="50.62715" lon="5.40652">
        <ele>160.19999694824</ele>
        <time>2019-08-30T11:38:55.000Z</time>
      </trkpt>
      <trkpt lat="50.62701" lon="5.4067">
        <ele>160.19999694824</ele>
        <time>2019-08-30T11:39:02.000Z</time>
      </trkpt>
      <trkpt lat="50.62699" lon="5.40673">
        <ele>160.60000610352</ele>
        <time>2019-08-30T11:39:03.000Z</time>
      </trkpt>
      <trkpt lat="50.62697" lon="5.40676">
        <ele>161</ele>
        <time>2019-08-30T11:39:04.000Z</time>
      </trkpt>
      <trkpt lat="50.62695" lon="5.40678">
        <ele>161.60000610352</ele>
        <time>2019-08-30T11:39:05.000Z</time>
      </trkpt>
      <trkpt lat="50.62692" lon="5.40681">
        <ele>162</ele>
        <time>2019-08-30T11:39:06.000Z</time>
      </trkpt>
      <trkpt lat="50.6269" lon="5.40683">
        <ele>162.39999389648</ele>
        <time>2019-08-30T11:39:07.000Z</time>
      </trkpt>
      <trkpt lat="50.62684" lon="5.40692">
        <ele>162.39999389648</ele>
        <time>2019-08-30T11:39:10.000Z</time>
      </trkpt>
      <trkpt lat="50.62669" lon="5.40711">
        <ele>162.39999389648</ele>
        <time>2019-08-30T11:39:17.000Z</time>
      </trkpt>
      <trkpt lat="50.62656" lon="5.40729">
        <ele>162.80000305176</ele>
        <time>2019-08-30T11:39:23.000Z</time>
      </trkpt>
      <trkpt lat="50.62654" lon="5.40731">
        <ele>163.19999694824</ele>
        <time>2019-08-30T11:39:24.000Z</time>
      </trkpt>
      <trkpt lat="50.62651" lon="5.40734">
        <ele>163.60000610352</ele>
        <time>2019-08-30T11:39:25.000Z</time>
      </trkpt>
      <trkpt lat="50.62649" lon="5.40737">
        <ele>164</ele>
        <time>2019-08-30T11:39:26.000Z</time>
      </trkpt>
      <trkpt lat="50.62647" lon="5.4074">
        <ele>164.39999389648</ele>
        <time>2019-08-30T11:39:27.000Z</time>
      </trkpt>
      <trkpt lat="50.62639" lon="5.40751">
        <ele>164.39999389648</ele>
        <time>2019-08-30T11:39:31.000Z</time>
      </trkpt>
      <trkpt lat="50.62626" lon="5.40769">
        <ele>164.39999389648</ele>
        <time>2019-08-30T11:39:37.000Z</time>
      </trkpt>
      <trkpt lat="50.6261" lon="5.40789">
        <ele>164.39999389648</ele>
        <time>2019-08-30T11:39:44.000Z</time>
      </trkpt>
      <trkpt lat="50.62606" lon="5.40794">
        <ele>164.80000305176</ele>
        <time>2019-08-30T11:39:46.000Z</time>
      </trkpt>
      <trkpt lat="50.62603" lon="5.40797">
        <ele>165.19999694824</ele>
        <time>2019-08-30T11:39:47.000Z</time>
      </trkpt>
      <trkpt lat="50.62601" lon="5.408">
        <ele>165.60000610352</ele>
        <time>2019-08-30T11:39:48.000Z</time>
      </trkpt>
      <trkpt lat="50.62599" lon="5.40803">
        <ele>166</ele>
        <time>2019-08-30T11:39:49.000Z</time>
      </trkpt>
      <trkpt lat="50.62597" lon="5.40806">
        <ele>166.39999389648</ele>
        <time>2019-08-30T11:39:50.000Z</time>
      </trkpt>
      <trkpt lat="50.62593" lon="5.40812">
        <ele>166.39999389648</ele>
        <time>2019-08-30T11:39:52.000Z</time>
      </trkpt>
      <trkpt lat="50.62571" lon="5.40841">
        <ele>166.39999389648</ele>
        <time>2019-08-30T11:40:02.000Z</time>
      </trkpt>
      <trkpt lat="50.62569" lon="5.40843">
        <ele>166.80000305176</ele>
        <time>2019-08-30T11:40:03.000Z</time>
      </trkpt>
      <trkpt lat="50.62567" lon="5.40846">
        <ele>167.19999694824</ele>
        <time>2019-08-30T11:40:04.000Z</time>
      </trkpt>
      <trkpt lat="50.62565" lon="5.40849">
        <ele>167.60000610352</ele>
        <time>2019-08-30T11:40:05.000Z</time>
      </trkpt>
      <trkpt lat="50.62563" lon="5.40852">
        <ele>168</ele>
        <time>2019-08-30T11:40:06.000Z</time>
      </trkpt>
      <trkpt lat="50.6256" lon="5.40855">
        <ele>168.39999389648</ele>
        <time>2019-08-30T11:40:07.000Z</time>
      </trkpt>
      <trkpt lat="50.62556" lon="5.40861">
        <ele>168.39999389648</ele>
        <time>2019-08-30T11:40:09.000Z</time>
      </trkpt>
      <trkpt lat="50.62542" lon="5.40878">
        <ele>168.39999389648</ele>
        <time>2019-08-30T11:40:15.000Z</time>
      </trkpt>
      <trkpt lat="50.62526" lon="5.40898">
        <ele>168.39999389648</ele>
        <time>2019-08-30T11:40:22.000Z</time>
      </trkpt>
      <trkpt lat="50.62523" lon="5.40903">
        <ele>168.39999389648</ele>
        <time>2019-08-30T11:40:25.000Z</time>
      </trkpt>
      <trkpt lat="50.62522" lon="5.40904">
        <ele>168.39999389648</ele>
        <time>2019-08-30T11:40:33.000Z</time>
      </trkpt>
      <trkpt lat="50.62514" lon="5.40911">
        <ele>168.80000305176</ele>
        <time>2019-08-30T11:40:37.000Z</time>
      </trkpt>
      <trkpt lat="50.62511" lon="5.40913">
        <ele>169.19999694824</ele>
        <time>2019-08-30T11:40:38.000Z</time>
      </trkpt>
      <trkpt lat="50.62509" lon="5.40916">
        <ele>169.80000305176</ele>
        <time>2019-08-30T11:40:39.000Z</time>
      </trkpt>
      <trkpt lat="50.62507" lon="5.40919">
        <ele>170.19999694824</ele>
        <time>2019-08-30T11:40:40.000Z</time>
      </trkpt>
      <trkpt lat="50.62506" lon="5.40922">
        <ele>170.60000610352</ele>
        <time>2019-08-30T11:40:41.000Z</time>
      </trkpt>
      <trkpt lat="50.62497" lon="5.40934">
        <ele>170.60000610352</ele>
        <time>2019-08-30T11:40:45.000Z</time>
      </trkpt>
      <trkpt lat="50.62484" lon="5.40953">
        <ele>170.60000610352</ele>
        <time>2019-08-30T11:40:51.000Z</time>
      </trkpt>
      <trkpt lat="50.62466" lon="5.40978">
        <ele>170.60000610352</ele>
        <time>2019-08-30T11:40:59.000Z</time>
      </trkpt>
      <trkpt lat="50.62464" lon="5.40981">
        <ele>171</ele>
        <time>2019-08-30T11:41:00.000Z</time>
      </trkpt>
      <trkpt lat="50.62461" lon="5.40984">
        <ele>171.39999389648</ele>
        <time>2019-08-30T11:41:01.000Z</time>
      </trkpt>
      <trkpt lat="50.62459" lon="5.40987">
        <ele>171.80000305176</ele>
        <time>2019-08-30T11:41:02.000Z</time>
      </trkpt>
      <trkpt lat="50.62457" lon="5.40989">
        <ele>172.19999694824</ele>
        <time>2019-08-30T11:41:03.000Z</time>
      </trkpt>
      <trkpt lat="50.62454" lon="5.40992">
        <ele>172.60000610352</ele>
        <time>2019-08-30T11:41:04.000Z</time>
      </trkpt>
      <trkpt lat="50.62447" lon="5.41">
        <ele>172.60000610352</ele>
        <time>2019-08-30T11:41:07.000Z</time>
      </trkpt>
      <trkpt lat="50.62426" lon="5.41027">
        <ele>172.60000610352</ele>
        <time>2019-08-30T11:41:16.000Z</time>
      </trkpt>
      <trkpt lat="50.62411" lon="5.41048">
        <ele>173</ele>
        <time>2019-08-30T11:41:23.000Z</time>
      </trkpt>
      <trkpt lat="50.62409" lon="5.41051">
        <ele>173.39999389648</ele>
        <time>2019-08-30T11:41:24.000Z</time>
      </trkpt>
      <trkpt lat="50.62406" lon="5.41054">
        <ele>173.80000305176</ele>
        <time>2019-08-30T11:41:25.000Z</time>
      </trkpt>
      <trkpt lat="50.62404" lon="5.41057">
        <ele>174.19999694824</ele>
        <time>2019-08-30T11:41:26.000Z</time>
      </trkpt>
      <trkpt lat="50.62402" lon="5.4106">
        <ele>174.60000610352</ele>
        <time>2019-08-30T11:41:27.000Z</time>
      </trkpt>
      <trkpt lat="50.6239" lon="5.41074">
        <ele>174.60000610352</ele>
        <time>2019-08-30T11:41:32.000Z</time>
      </trkpt>
      <trkpt lat="50.62367" lon="5.41105">
        <ele>174.60000610352</ele>
        <time>2019-08-30T11:41:42.000Z</time>
      </trkpt>
      <trkpt lat="50.62347" lon="5.4113">
        <ele>174.60000610352</ele>
        <time>2019-08-30T11:41:51.000Z</time>
      </trkpt>
      <trkpt lat="50.6234" lon="5.41139">
        <ele>174.60000610352</ele>
        <time>2019-08-30T11:41:56.000Z</time>
      </trkpt>
      <trkpt lat="50.62338" lon="5.41141">
        <ele>174.60000610352</ele>
        <time>2019-08-30T11:41:58.000Z</time>
      </trkpt>
      <trkpt lat="50.62338" lon="5.41142">
        <ele>174.60000610352</ele>
        <time>2019-08-30T11:42:04.000Z</time>
      </trkpt>
      <trkpt lat="50.62337" lon="5.41143">
        <ele>174.60000610352</ele>
        <time>2019-08-30T11:42:05.000Z</time>
      </trkpt>
      <trkpt lat="50.62328" lon="5.41154">
        <ele>174.60000610352</ele>
        <time>2019-08-30T11:42:09.000Z</time>
      </trkpt>
      <trkpt lat="50.6232" lon="5.41166">
        <ele>175</ele>
        <time>2019-08-30T11:42:13.000Z</time>
      </trkpt>
      <trkpt lat="50.62317" lon="5.41168">
        <ele>175.39999389648</ele>
        <time>2019-08-30T11:42:14.000Z</time>
      </trkpt>
      <trkpt lat="50.62315" lon="5.41171">
        <ele>176</ele>
        <time>2019-08-30T11:42:15.000Z</time>
      </trkpt>
      <trkpt lat="50.62313" lon="5.41174">
        <ele>176.39999389648</ele>
        <time>2019-08-30T11:42:16.000Z</time>
      </trkpt>
      <trkpt lat="50.62311" lon="5.41177">
        <ele>176.80000305176</ele>
        <time>2019-08-30T11:42:17.000Z</time>
      </trkpt>
      <trkpt lat="50.62308" lon="5.4118">
        <ele>176.80000305176</ele>
        <time>2019-08-30T11:42:18.000Z</time>
      </trkpt>
      <trkpt lat="50.62291" lon="5.41203">
        <ele>176.80000305176</ele>
        <time>2019-08-30T11:42:26.000Z</time>
      </trkpt>
      <trkpt lat="50.62273" lon="5.41226">
        <ele>176.80000305176</ele>
        <time>2019-08-30T11:42:34.000Z</time>
      </trkpt>
      <trkpt lat="50.62259" lon="5.41244">
        <ele>177.19999694824</ele>
        <time>2019-08-30T11:42:40.000Z</time>
      </trkpt>
      <trkpt lat="50.62257" lon="5.41247">
        <ele>177.60000610352</ele>
        <time>2019-08-30T11:42:41.000Z</time>
      </trkpt>
      <trkpt lat="50.62255" lon="5.4125">
        <ele>178</ele>
        <time>2019-08-30T11:42:42.000Z</time>
      </trkpt>
      <trkpt lat="50.62253" lon="5.41253">
        <ele>178.39999389648</ele>
        <time>2019-08-30T11:42:43.000Z</time>
      </trkpt>
      <trkpt lat="50.6225" lon="5.41256">
        <ele>178.80000305176</ele>
        <time>2019-08-30T11:42:44.000Z</time>
      </trkpt>
      <trkpt lat="50.62239" lon="5.41269">
        <ele>178.80000305176</ele>
        <time>2019-08-30T11:42:49.000Z</time>
      </trkpt>
      <trkpt lat="50.62222" lon="5.41292">
        <ele>178.80000305176</ele>
        <time>2019-08-30T11:42:57.000Z</time>
      </trkpt>
      <trkpt lat="50.62215" lon="5.41301">
        <ele>179.19999694824</ele>
        <time>2019-08-30T11:43:00.000Z</time>
      </trkpt>
      <trkpt lat="50.62213" lon="5.41304">
        <ele>179.60000610352</ele>
        <time>2019-08-30T11:43:01.000Z</time>
      </trkpt>
      <trkpt lat="50.62211" lon="5.41307">
        <ele>180</ele>
        <time>2019-08-30T11:43:02.000Z</time>
      </trkpt>
      <trkpt lat="50.62209" lon="5.4131">
        <ele>180.39999389648</ele>
        <time>2019-08-30T11:43:03.000Z</time>
      </trkpt>
      <trkpt lat="50.62207" lon="5.41313">
        <ele>180.80000305176</ele>
        <time>2019-08-30T11:43:04.000Z</time>
      </trkpt>
      <trkpt lat="50.62202" lon="5.41319">
        <ele>180.80000305176</ele>
        <time>2019-08-30T11:43:06.000Z</time>
      </trkpt>
      <trkpt lat="50.62188" lon="5.41337">
        <ele>180.80000305176</ele>
        <time>2019-08-30T11:43:12.000Z</time>
      </trkpt>
      <trkpt lat="50.6217" lon="5.41362">
        <ele>180.80000305176</ele>
        <time>2019-08-30T11:43:20.000Z</time>
      </trkpt>
      <trkpt lat="50.62165" lon="5.41367">
        <ele>181.19999694824</ele>
        <time>2019-08-30T11:43:22.000Z</time>
      </trkpt>
      <trkpt lat="50.62163" lon="5.4137">
        <ele>181.60000610352</ele>
        <time>2019-08-30T11:43:23.000Z</time>
      </trkpt>
      <trkpt lat="50.6216" lon="5.41373">
        <ele>182.19999694824</ele>
        <time>2019-08-30T11:43:24.000Z</time>
      </trkpt>
      <trkpt lat="50.62158" lon="5.41376">
        <ele>182.60000610352</ele>
        <time>2019-08-30T11:43:25.000Z</time>
      </trkpt>
      <trkpt lat="50.62156" lon="5.41379">
        <ele>183</ele>
        <time>2019-08-30T11:43:26.000Z</time>
      </trkpt>
      <trkpt lat="50.62152" lon="5.41385">
        <ele>183</ele>
        <time>2019-08-30T11:43:28.000Z</time>
      </trkpt>
      <trkpt lat="50.62131" lon="5.41413">
        <ele>183</ele>
        <time>2019-08-30T11:43:37.000Z</time>
      </trkpt>
      <trkpt lat="50.62114" lon="5.41435">
        <ele>183</ele>
        <time>2019-08-30T11:43:44.000Z</time>
      </trkpt>
      <trkpt lat="50.62112" lon="5.41438">
        <ele>183.39999389648</ele>
        <time>2019-08-30T11:43:45.000Z</time>
      </trkpt>
      <trkpt lat="50.62109" lon="5.4144">
        <ele>184.19999694824</ele>
        <time>2019-08-30T11:43:46.000Z</time>
      </trkpt>
      <trkpt lat="50.62107" lon="5.41443">
        <ele>184.60000610352</ele>
        <time>2019-08-30T11:43:47.000Z</time>
      </trkpt>
      <trkpt lat="50.62104" lon="5.41446">
        <ele>185</ele>
        <time>2019-08-30T11:43:48.000Z</time>
      </trkpt>
      <trkpt lat="50.621" lon="5.41453">
        <ele>185</ele>
        <time>2019-08-30T11:43:50.000Z</time>
      </trkpt>
      <trkpt lat="50.62079" lon="5.41479">
        <ele>185</ele>
        <time>2019-08-30T11:43:58.000Z</time>
      </trkpt>
      <trkpt lat="50.62059" lon="5.41505">
        <ele>185</ele>
        <time>2019-08-30T11:44:05.000Z</time>
      </trkpt>
      <trkpt lat="50.62042" lon="5.41526">
        <ele>185</ele>
        <time>2019-08-30T11:44:11.000Z</time>
      </trkpt>
      <trkpt lat="50.6202" lon="5.41555">
        <ele>185</ele>
        <time>2019-08-30T11:44:19.000Z</time>
      </trkpt>
      <trkpt lat="50.62009" lon="5.4157">
        <ele>185.39999389648</ele>
        <time>2019-08-30T11:44:23.000Z</time>
      </trkpt>
      <trkpt lat="50.62006" lon="5.41573">
        <ele>185.80000305176</ele>
        <time>2019-08-30T11:44:24.000Z</time>
      </trkpt>
      <trkpt lat="50.62003" lon="5.41577">
        <ele>186.19999694824</ele>
        <time>2019-08-30T11:44:25.000Z</time>
      </trkpt>
      <trkpt lat="50.62" lon="5.4158">
        <ele>186.60000610352</ele>
        <time>2019-08-30T11:44:26.000Z</time>
      </trkpt>
      <trkpt lat="50.61997" lon="5.41584">
        <ele>187</ele>
        <time>2019-08-30T11:44:27.000Z</time>
      </trkpt>
      <trkpt lat="50.61995" lon="5.41587">
        <ele>187</ele>
        <time>2019-08-30T11:44:28.000Z</time>
      </trkpt>
      <trkpt lat="50.61979" lon="5.41609">
        <ele>187</ele>
        <time>2019-08-30T11:44:34.000Z</time>
      </trkpt>
      <trkpt lat="50.61958" lon="5.41636">
        <ele>187</ele>
        <time>2019-08-30T11:44:42.000Z</time>
      </trkpt>
      <trkpt lat="50.61939" lon="5.41659">
        <ele>187</ele>
        <time>2019-08-30T11:44:50.000Z</time>
      </trkpt>
      <trkpt lat="50.61933" lon="5.41664">
        <ele>187</ele>
        <time>2019-08-30T11:44:54.000Z</time>
      </trkpt>
      <trkpt lat="50.61931" lon="5.41667">
        <ele>187</ele>
        <time>2019-08-30T11:45:12.000Z</time>
      </trkpt>
      <trkpt lat="50.6192" lon="5.41676">
        <ele>187</ele>
        <time>2019-08-30T11:45:17.000Z</time>
      </trkpt>
      <trkpt lat="50.61911" lon="5.41701">
        <ele>187</ele>
        <time>2019-08-30T11:45:23.000Z</time>
      </trkpt>
      <trkpt lat="50.61901" lon="5.41731">
        <ele>187</ele>
        <time>2019-08-30T11:45:30.000Z</time>
      </trkpt>
      <trkpt lat="50.61899" lon="5.41759">
        <ele>187</ele>
        <time>2019-08-30T11:45:36.000Z</time>
      </trkpt>
      <trkpt lat="50.61896" lon="5.41807">
        <ele>187</ele>
        <time>2019-08-30T11:45:45.000Z</time>
      </trkpt>
      <trkpt lat="50.61894" lon="5.41842">
        <ele>187</ele>
        <time>2019-08-30T11:45:51.000Z</time>
      </trkpt>
      <trkpt lat="50.61891" lon="5.41877">
        <ele>187</ele>
        <time>2019-08-30T11:45:57.000Z</time>
      </trkpt>
      <trkpt lat="50.61887" lon="5.41925">
        <ele>187</ele>
        <time>2019-08-30T11:46:05.000Z</time>
      </trkpt>
      <trkpt lat="50.61887" lon="5.41944">
        <ele>187</ele>
        <time>2019-08-30T11:46:08.000Z</time>
      </trkpt>
      <trkpt lat="50.61887" lon="5.41963">
        <ele>187</ele>
        <time>2019-08-30T11:46:11.000Z</time>
      </trkpt>
      <trkpt lat="50.61887" lon="5.41976">
        <ele>187</ele>
        <time>2019-08-30T11:46:13.000Z</time>
      </trkpt>
      <trkpt lat="50.61888" lon="5.41989">
        <ele>187</ele>
        <time>2019-08-30T11:46:15.000Z</time>
      </trkpt>
      <trkpt lat="50.61888" lon="5.42003">
        <ele>187</ele>
        <time>2019-08-30T11:46:17.000Z</time>
      </trkpt>
      <trkpt lat="50.61893" lon="5.42056">
        <ele>187</ele>
        <time>2019-08-30T11:46:25.000Z</time>
      </trkpt>
      <trkpt lat="50.61898" lon="5.42104">
        <ele>187</ele>
        <time>2019-08-30T11:46:32.000Z</time>
      </trkpt>
      <trkpt lat="50.61898" lon="5.42111">
        <ele>187</ele>
        <time>2019-08-30T11:46:33.000Z</time>
      </trkpt>
      <trkpt lat="50.61901" lon="5.42164">
        <ele>187</ele>
        <time>2019-08-30T11:46:41.000Z</time>
      </trkpt>
      <trkpt lat="50.61901" lon="5.42225">
        <ele>187</ele>
        <time>2019-08-30T11:46:51.000Z</time>
      </trkpt>
      <trkpt lat="50.619" lon="5.42254">
        <ele>187.39999389648</ele>
        <time>2019-08-30T11:46:56.000Z</time>
      </trkpt>
      <trkpt lat="50.61899" lon="5.4226">
        <ele>187.80000305176</ele>
        <time>2019-08-30T11:46:57.000Z</time>
      </trkpt>
      <trkpt lat="50.61898" lon="5.42266">
        <ele>188.19999694824</ele>
        <time>2019-08-30T11:46:58.000Z</time>
      </trkpt>
      <trkpt lat="50.61897" lon="5.42271">
        <ele>188.60000610352</ele>
        <time>2019-08-30T11:46:59.000Z</time>
      </trkpt>
      <trkpt lat="50.61895" lon="5.42276">
        <ele>189</ele>
        <time>2019-08-30T11:47:00.000Z</time>
      </trkpt>
      <trkpt lat="50.6189" lon="5.42292">
        <ele>189</ele>
        <time>2019-08-30T11:47:03.000Z</time>
      </trkpt>
      <trkpt lat="50.61873" lon="5.42334">
        <ele>189</ele>
        <time>2019-08-30T11:47:12.000Z</time>
      </trkpt>
      <trkpt lat="50.61865" lon="5.42353">
        <ele>189.39999389648</ele>
        <time>2019-08-30T11:47:16.000Z</time>
      </trkpt>
      <trkpt lat="50.61863" lon="5.42357">
        <ele>189.80000305176</ele>
        <time>2019-08-30T11:47:17.000Z</time>
      </trkpt>
      <trkpt lat="50.61862" lon="5.42362">
        <ele>190.19999694824</ele>
        <time>2019-08-30T11:47:18.000Z</time>
      </trkpt>
      <trkpt lat="50.6186" lon="5.42366">
        <ele>190.60000610352</ele>
        <time>2019-08-30T11:47:19.000Z</time>
      </trkpt>
      <trkpt lat="50.61858" lon="5.42371">
        <ele>191</ele>
        <time>2019-08-30T11:47:20.000Z</time>
      </trkpt>
      <trkpt lat="50.61844" lon="5.42403">
        <ele>191</ele>
        <time>2019-08-30T11:47:27.000Z</time>
      </trkpt>
      <trkpt lat="50.61833" lon="5.42433">
        <ele>191</ele>
        <time>2019-08-30T11:47:34.000Z</time>
      </trkpt>
      <trkpt lat="50.61831" lon="5.42437">
        <ele>191.39999389648</ele>
        <time>2019-08-30T11:47:35.000Z</time>
      </trkpt>
      <trkpt lat="50.6183" lon="5.4244">
        <ele>192</ele>
        <time>2019-08-30T11:47:36.000Z</time>
      </trkpt>
      <trkpt lat="50.61828" lon="5.42443">
        <ele>192.39999389648</ele>
        <time>2019-08-30T11:47:37.000Z</time>
      </trkpt>
      <trkpt lat="50.61826" lon="5.42446">
        <ele>192.80000305176</ele>
        <time>2019-08-30T11:47:38.000Z</time>
      </trkpt>
      <trkpt lat="50.61825" lon="5.42448">
        <ele>193.19999694824</ele>
        <time>2019-08-30T11:47:39.000Z</time>
      </trkpt>
      <trkpt lat="50.61825" lon="5.42449">
        <ele>193.19999694824</ele>
        <time>2019-08-30T11:47:40.000Z</time>
      </trkpt>
      <trkpt lat="50.61824" lon="5.42452">
        <ele>193.19999694824</ele>
        <time>2019-08-30T11:47:42.000Z</time>
      </trkpt>
      <trkpt lat="50.61821" lon="5.42462">
        <ele>193.19999694824</ele>
        <time>2019-08-30T11:47:45.000Z</time>
      </trkpt>
      <trkpt lat="50.61815" lon="5.42477">
        <ele>193.19999694824</ele>
        <time>2019-08-30T11:47:50.000Z</time>
      </trkpt>
      <trkpt lat="50.61816" lon="5.42478">
        <ele>193.19999694824</ele>
        <time>2019-08-30T11:48:00.000Z</time>
      </trkpt>
      <trkpt lat="50.61814" lon="5.42488">
        <ele>193.19999694824</ele>
        <time>2019-08-30T11:48:03.000Z</time>
      </trkpt>
      <trkpt lat="50.6181" lon="5.42519">
        <ele>193.19999694824</ele>
        <time>2019-08-30T11:48:09.000Z</time>
      </trkpt>
      <trkpt lat="50.61806" lon="5.42551">
        <ele>193.19999694824</ele>
        <time>2019-08-30T11:48:14.000Z</time>
      </trkpt>
      <trkpt lat="50.61806" lon="5.42558">
        <ele>193.19999694824</ele>
        <time>2019-08-30T11:48:15.000Z</time>
      </trkpt>
      <trkpt lat="50.61806" lon="5.42565">
        <ele>192.80000305176</ele>
        <time>2019-08-30T11:48:16.000Z</time>
      </trkpt>
      <trkpt lat="50.61807" lon="5.42574">
        <ele>192</ele>
        <time>2019-08-30T11:48:17.000Z</time>
      </trkpt>
      <trkpt lat="50.61807" lon="5.42582">
        <ele>191.60000610352</ele>
        <time>2019-08-30T11:48:18.000Z</time>
      </trkpt>
      <trkpt lat="50.61809" lon="5.42591">
        <ele>191</ele>
        <time>2019-08-30T11:48:19.000Z</time>
      </trkpt>
      <trkpt lat="50.61815" lon="5.42628">
        <ele>191</ele>
        <time>2019-08-30T11:48:23.000Z</time>
      </trkpt>
      <trkpt lat="50.61817" lon="5.42648">
        <ele>191</ele>
        <time>2019-08-30T11:48:25.000Z</time>
      </trkpt>
      <trkpt lat="50.61815" lon="5.42668">
        <ele>191</ele>
        <time>2019-08-30T11:48:27.000Z</time>
      </trkpt>
      <trkpt lat="50.61814" lon="5.42678">
        <ele>190.60000610352</ele>
        <time>2019-08-30T11:48:28.000Z</time>
      </trkpt>
      <trkpt lat="50.61813" lon="5.42688">
        <ele>190.19999694824</ele>
        <time>2019-08-30T11:48:29.000Z</time>
      </trkpt>
      <trkpt lat="50.61811" lon="5.42699">
        <ele>189.80000305176</ele>
        <time>2019-08-30T11:48:30.000Z</time>
      </trkpt>
      <trkpt lat="50.61809" lon="5.42709">
        <ele>189.39999389648</ele>
        <time>2019-08-30T11:48:31.000Z</time>
      </trkpt>
      <trkpt lat="50.61806" lon="5.4272">
        <ele>189</ele>
        <time>2019-08-30T11:48:32.000Z</time>
      </trkpt>
      <trkpt lat="50.61802" lon="5.42741">
        <ele>189</ele>
        <time>2019-08-30T11:48:34.000Z</time>
      </trkpt>
      <trkpt lat="50.61796" lon="5.42769">
        <ele>189</ele>
        <time>2019-08-30T11:48:37.000Z</time>
      </trkpt>
      <trkpt lat="50.61791" lon="5.42783">
        <ele>189</ele>
        <time>2019-08-30T11:48:39.000Z</time>
      </trkpt>
      <trkpt lat="50.61782" lon="5.42804">
        <ele>189</ele>
        <time>2019-08-30T11:48:43.000Z</time>
      </trkpt>
      <trkpt lat="50.6178" lon="5.42809">
        <ele>189</ele>
        <time>2019-08-30T11:48:44.000Z</time>
      </trkpt>
      <trkpt lat="50.61767" lon="5.42838">
        <ele>189</ele>
        <time>2019-08-30T11:48:51.000Z</time>
      </trkpt>
      <trkpt lat="50.61765" lon="5.42866">
        <ele>189</ele>
        <time>2019-08-30T11:48:57.000Z</time>
      </trkpt>
      <trkpt lat="50.6177" lon="5.4289">
        <ele>189</ele>
        <time>2019-08-30T11:49:02.000Z</time>
      </trkpt>
      <trkpt lat="50.61783" lon="5.42912">
        <ele>189.39999389648</ele>
        <time>2019-08-30T11:49:08.000Z</time>
      </trkpt>
      <trkpt lat="50.61785" lon="5.42915">
        <ele>189.80000305176</ele>
        <time>2019-08-30T11:49:09.000Z</time>
      </trkpt>
      <trkpt lat="50.61788" lon="5.42918">
        <ele>190.19999694824</ele>
        <time>2019-08-30T11:49:10.000Z</time>
      </trkpt>
      <trkpt lat="50.61791" lon="5.42921">
        <ele>190.60000610352</ele>
        <time>2019-08-30T11:49:11.000Z</time>
      </trkpt>
      <trkpt lat="50.61794" lon="5.42923">
        <ele>191</ele>
        <time>2019-08-30T11:49:12.000Z</time>
      </trkpt>
      <trkpt lat="50.61799" lon="5.42928">
        <ele>191</ele>
        <time>2019-08-30T11:49:14.000Z</time>
      </trkpt>
      <trkpt lat="50.61819" lon="5.42946">
        <ele>191</ele>
        <time>2019-08-30T11:49:21.000Z</time>
      </trkpt>
      <trkpt lat="50.61841" lon="5.42969">
        <ele>191</ele>
        <time>2019-08-30T11:49:29.000Z</time>
      </trkpt>
      <trkpt lat="50.61862" lon="5.42998">
        <ele>191</ele>
        <time>2019-08-30T11:49:37.000Z</time>
      </trkpt>
      <trkpt lat="50.61881" lon="5.43023">
        <ele>191</ele>
        <time>2019-08-30T11:49:44.000Z</time>
      </trkpt>
      <trkpt lat="50.619" lon="5.43048">
        <ele>191</ele>
        <time>2019-08-30T11:49:50.000Z</time>
      </trkpt>
      <trkpt lat="50.61923" lon="5.43083">
        <ele>191</ele>
        <time>2019-08-30T11:49:58.000Z</time>
      </trkpt>
      <trkpt lat="50.61934" lon="5.43099">
        <ele>191.39999389648</ele>
        <time>2019-08-30T11:50:02.000Z</time>
      </trkpt>
      <trkpt lat="50.61937" lon="5.43103">
        <ele>191.80000305176</ele>
        <time>2019-08-30T11:50:03.000Z</time>
      </trkpt>
      <trkpt lat="50.6194" lon="5.43107">
        <ele>192.19999694824</ele>
        <time>2019-08-30T11:50:04.000Z</time>
      </trkpt>
      <trkpt lat="50.61943" lon="5.43111">
        <ele>192.60000610352</ele>
        <time>2019-08-30T11:50:05.000Z</time>
      </trkpt>
      <trkpt lat="50.61946" lon="5.43114">
        <ele>193.19999694824</ele>
        <time>2019-08-30T11:50:06.000Z</time>
      </trkpt>
      <trkpt lat="50.61965" lon="5.43139">
        <ele>193.19999694824</ele>
        <time>2019-08-30T11:50:13.000Z</time>
      </trkpt>
      <trkpt lat="50.61986" lon="5.43158">
        <ele>193.19999694824</ele>
        <time>2019-08-30T11:50:20.000Z</time>
      </trkpt>
      <trkpt lat="50.62005" lon="5.4317">
        <ele>193.19999694824</ele>
        <time>2019-08-30T11:50:26.000Z</time>
      </trkpt>
      <trkpt lat="50.62033" lon="5.43187">
        <ele>193.19999694824</ele>
        <time>2019-08-30T11:50:33.000Z</time>
      </trkpt>
      <trkpt lat="50.6206" lon="5.43213">
        <ele>193.19999694824</ele>
        <time>2019-08-30T11:50:40.000Z</time>
      </trkpt>
      <trkpt lat="50.6208" lon="5.43235">
        <ele>193.19999694824</ele>
        <time>2019-08-30T11:50:47.000Z</time>
      </trkpt>
      <trkpt lat="50.62099" lon="5.43255">
        <ele>193.19999694824</ele>
        <time>2019-08-30T11:50:54.000Z</time>
      </trkpt>
      <trkpt lat="50.62116" lon="5.43274">
        <ele>193.19999694824</ele>
        <time>2019-08-30T11:51:01.000Z</time>
      </trkpt>
      <trkpt lat="50.62136" lon="5.43296">
        <ele>193.19999694824</ele>
        <time>2019-08-30T11:51:09.000Z</time>
      </trkpt>
      <trkpt lat="50.62151" lon="5.43322">
        <ele>193.19999694824</ele>
        <time>2019-08-30T11:51:15.000Z</time>
      </trkpt>
      <trkpt lat="50.62167" lon="5.43365">
        <ele>193.19999694824</ele>
        <time>2019-08-30T11:51:22.000Z</time>
      </trkpt>
      <trkpt lat="50.62169" lon="5.43369">
        <ele>193.19999694824</ele>
        <time>2019-08-30T11:51:25.000Z</time>
      </trkpt>
      <trkpt lat="50.6217" lon="5.4337">
        <ele>193.19999694824</ele>
        <time>2019-08-30T11:51:27.000Z</time>
      </trkpt>
      <trkpt lat="50.62171" lon="5.43373">
        <ele>193.19999694824</ele>
        <time>2019-08-30T11:51:32.000Z</time>
      </trkpt>
      <trkpt lat="50.62172" lon="5.43376">
        <ele>193.19999694824</ele>
        <time>2019-08-30T11:51:33.000Z</time>
      </trkpt>
      <trkpt lat="50.62179" lon="5.43398">
        <ele>193.19999694824</ele>
        <time>2019-08-30T11:51:38.000Z</time>
      </trkpt>
      <trkpt lat="50.62193" lon="5.43434">
        <ele>193.19999694824</ele>
        <time>2019-08-30T11:51:45.000Z</time>
      </trkpt>
      <trkpt lat="50.62206" lon="5.4348">
        <ele>193.19999694824</ele>
        <time>2019-08-30T11:51:53.000Z</time>
      </trkpt>
      <trkpt lat="50.62207" lon="5.43493">
        <ele>192.60000610352</ele>
        <time>2019-08-30T11:51:55.000Z</time>
      </trkpt>
      <trkpt lat="50.62209" lon="5.435">
        <ele>192.19999694824</ele>
        <time>2019-08-30T11:51:56.000Z</time>
      </trkpt>
      <trkpt lat="50.62212" lon="5.43505">
        <ele>191.80000305176</ele>
        <time>2019-08-30T11:51:57.000Z</time>
      </trkpt>
      <trkpt lat="50.62216" lon="5.4351">
        <ele>191</ele>
        <time>2019-08-30T11:51:58.000Z</time>
      </trkpt>
      <trkpt lat="50.62227" lon="5.43507">
        <ele>191</ele>
        <time>2019-08-30T11:52:01.000Z</time>
      </trkpt>
      <trkpt lat="50.62231" lon="5.43487">
        <ele>191</ele>
        <time>2019-08-30T11:52:05.000Z</time>
      </trkpt>
      <trkpt lat="50.62222" lon="5.43475">
        <ele>191</ele>
        <time>2019-08-30T11:52:09.000Z</time>
      </trkpt>
      <trkpt lat="50.62211" lon="5.43482">
        <ele>191</ele>
        <time>2019-08-30T11:52:12.000Z</time>
      </trkpt>
      <trkpt lat="50.62209" lon="5.43498">
        <ele>191</ele>
        <time>2019-08-30T11:52:15.000Z</time>
      </trkpt>
      <trkpt lat="50.62211" lon="5.43502">
        <ele>191</ele>
        <time>2019-08-30T11:52:18.000Z</time>
      </trkpt>
      <trkpt lat="50.62213" lon="5.43505">
        <ele>191</ele>
        <time>2019-08-30T11:52:30.000Z</time>
      </trkpt>
      <trkpt lat="50.62217" lon="5.43513">
        <ele>191</ele>
        <time>2019-08-30T11:52:32.000Z</time>
      </trkpt>
      <trkpt lat="50.62226" lon="5.43522">
        <ele>191</ele>
        <time>2019-08-30T11:52:36.000Z</time>
      </trkpt>
      <trkpt lat="50.62226" lon="5.43522">
        <ele>191</ele>
        <time>2019-08-30T11:52:38.000Z</time>
      </trkpt>
      <trkpt lat="50.62228" lon="5.43524">
        <ele>191</ele>
        <time>2019-08-30T11:52:42.000Z</time>
      </trkpt>
      <trkpt lat="50.62234" lon="5.43541">
        <ele>191</ele>
        <time>2019-08-30T11:52:47.000Z</time>
      </trkpt>
      <trkpt lat="50.62236" lon="5.43544">
        <ele>191</ele>
        <time>2019-08-30T11:52:48.000Z</time>
      </trkpt>
      <trkpt lat="50.62247" lon="5.43568">
        <ele>191</ele>
        <time>2019-08-30T11:52:53.000Z</time>
      </trkpt>
      <trkpt lat="50.62259" lon="5.43599">
        <ele>190.60000610352</ele>
        <time>2019-08-30T11:52:58.000Z</time>
      </trkpt>
      <trkpt lat="50.62262" lon="5.43605">
        <ele>190.19999694824</ele>
        <time>2019-08-30T11:52:59.000Z</time>
      </trkpt>
      <trkpt lat="50.62265" lon="5.43613">
        <ele>189.80000305176</ele>
        <time>2019-08-30T11:53:00.000Z</time>
      </trkpt>
      <trkpt lat="50.62268" lon="5.4362">
        <ele>189.39999389648</ele>
        <time>2019-08-30T11:53:01.000Z</time>
      </trkpt>
      <trkpt lat="50.62271" lon="5.43628">
        <ele>189</ele>
        <time>2019-08-30T11:53:02.000Z</time>
      </trkpt>
      <trkpt lat="50.62281" lon="5.43652">
        <ele>189</ele>
        <time>2019-08-30T11:53:05.000Z</time>
      </trkpt>
      <trkpt lat="50.62301" lon="5.43702">
        <ele>188.39999389648</ele>
        <time>2019-08-30T11:53:11.000Z</time>
      </trkpt>
      <trkpt lat="50.62304" lon="5.43712">
        <ele>187.60000610352</ele>
        <time>2019-08-30T11:53:12.000Z</time>
      </trkpt>
      <trkpt lat="50.62307" lon="5.43721">
        <ele>187</ele>
        <time>2019-08-30T11:53:13.000Z</time>
      </trkpt>
      <trkpt lat="50.62311" lon="5.4373">
        <ele>186.60000610352</ele>
        <time>2019-08-30T11:53:14.000Z</time>
      </trkpt>
      <trkpt lat="50.6232" lon="5.43759">
        <ele>186.60000610352</ele>
        <time>2019-08-30T11:53:17.000Z</time>
      </trkpt>
      <trkpt lat="50.62329" lon="5.43788">
        <ele>186.19999694824</ele>
        <time>2019-08-30T11:53:20.000Z</time>
      </trkpt>
      <trkpt lat="50.62331" lon="5.43798">
        <ele>185.80000305176</ele>
        <time>2019-08-30T11:53:21.000Z</time>
      </trkpt>
      <trkpt lat="50.62333" lon="5.43807">
        <ele>185.39999389648</ele>
        <time>2019-08-30T11:53:22.000Z</time>
      </trkpt>
      <trkpt lat="50.62335" lon="5.43815">
        <ele>184.80000305176</ele>
        <time>2019-08-30T11:53:23.000Z</time>
      </trkpt>
      <trkpt lat="50.62337" lon="5.43824">
        <ele>184.39999389648</ele>
        <time>2019-08-30T11:53:24.000Z</time>
      </trkpt>
      <trkpt lat="50.62339" lon="5.43831">
        <ele>184.39999389648</ele>
        <time>2019-08-30T11:53:25.000Z</time>
      </trkpt>
      <trkpt lat="50.62343" lon="5.43851">
        <ele>184.39999389648</ele>
        <time>2019-08-30T11:53:28.000Z</time>
      </trkpt>
      <trkpt lat="50.6235" lon="5.43887">
        <ele>184.39999389648</ele>
        <time>2019-08-30T11:53:34.000Z</time>
      </trkpt>
      <trkpt lat="50.62359" lon="5.4393">
        <ele>184.39999389648</ele>
        <time>2019-08-30T11:53:42.000Z</time>
      </trkpt>
      <trkpt lat="50.62365" lon="5.43957">
        <ele>184.39999389648</ele>
        <time>2019-08-30T11:53:48.000Z</time>
      </trkpt>
      <trkpt lat="50.62365" lon="5.43957">
        <ele>184.39999389648</ele>
        <time>2019-08-30T11:53:49.000Z</time>
      </trkpt>
      <trkpt lat="50.62366" lon="5.43963">
        <ele>184.39999389648</ele>
        <time>2019-08-30T11:53:55.000Z</time>
      </trkpt>
      <trkpt lat="50.62368" lon="5.43971">
        <ele>184.39999389648</ele>
        <time>2019-08-30T11:53:57.000Z</time>
      </trkpt>
      <trkpt lat="50.62369" lon="5.43991">
        <ele>184.39999389648</ele>
        <time>2019-08-30T11:54:01.000Z</time>
      </trkpt>
      <trkpt lat="50.62368" lon="5.44002">
        <ele>184.39999389648</ele>
        <time>2019-08-30T11:54:03.000Z</time>
      </trkpt>
      <trkpt lat="50.6236" lon="5.44024">
        <ele>184.39999389648</ele>
        <time>2019-08-30T11:54:07.000Z</time>
      </trkpt>
      <trkpt lat="50.62357" lon="5.44029">
        <ele>184.39999389648</ele>
        <time>2019-08-30T11:54:08.000Z</time>
      </trkpt>
      <trkpt lat="50.62343" lon="5.44054">
        <ele>184.39999389648</ele>
        <time>2019-08-30T11:54:13.000Z</time>
      </trkpt>
      <trkpt lat="50.62329" lon="5.44081">
        <ele>184.39999389648</ele>
        <time>2019-08-30T11:54:19.000Z</time>
      </trkpt>
      <trkpt lat="50.62313" lon="5.44111">
        <ele>184.39999389648</ele>
        <time>2019-08-30T11:54:26.000Z</time>
      </trkpt>
      <trkpt lat="50.62306" lon="5.44135">
        <ele>184.80000305176</ele>
        <time>2019-08-30T11:54:31.000Z</time>
      </trkpt>
      <trkpt lat="50.62304" lon="5.4414">
        <ele>185.39999389648</ele>
        <time>2019-08-30T11:54:32.000Z</time>
      </trkpt>
      <trkpt lat="50.62303" lon="5.44144">
        <ele>185.80000305176</ele>
        <time>2019-08-30T11:54:33.000Z</time>
      </trkpt>
      <trkpt lat="50.62302" lon="5.44149">
        <ele>186.19999694824</ele>
        <time>2019-08-30T11:54:34.000Z</time>
      </trkpt>
      <trkpt lat="50.62301" lon="5.44155">
        <ele>186.60000610352</ele>
        <time>2019-08-30T11:54:35.000Z</time>
      </trkpt>
      <trkpt lat="50.623" lon="5.44171">
        <ele>186.60000610352</ele>
        <time>2019-08-30T11:54:38.000Z</time>
      </trkpt>
      <trkpt lat="50.62305" lon="5.4421">
        <ele>186.60000610352</ele>
        <time>2019-08-30T11:54:45.000Z</time>
      </trkpt>
      <trkpt lat="50.62315" lon="5.44247">
        <ele>186.60000610352</ele>
        <time>2019-08-30T11:54:52.000Z</time>
      </trkpt>
      <trkpt lat="50.62326" lon="5.44295">
        <ele>186.60000610352</ele>
        <time>2019-08-30T11:55:01.000Z</time>
      </trkpt>
      <trkpt lat="50.62327" lon="5.44301">
        <ele>187</ele>
        <time>2019-08-30T11:55:02.000Z</time>
      </trkpt>
      <trkpt lat="50.62328" lon="5.44307">
        <ele>187.39999389648</ele>
        <time>2019-08-30T11:55:03.000Z</time>
      </trkpt>
      <trkpt lat="50.62329" lon="5.44312">
        <ele>187.80000305176</ele>
        <time>2019-08-30T11:55:04.000Z</time>
      </trkpt>
      <trkpt lat="50.62331" lon="5.44319">
        <ele>188.19999694824</ele>
        <time>2019-08-30T11:55:05.000Z</time>
      </trkpt>
      <trkpt lat="50.62332" lon="5.44324">
        <ele>188.60000610352</ele>
        <time>2019-08-30T11:55:06.000Z</time>
      </trkpt>
      <trkpt lat="50.62336" lon="5.44346">
        <ele>188.60000610352</ele>
        <time>2019-08-30T11:55:10.000Z</time>
      </trkpt>
      <trkpt lat="50.62343" lon="5.44393">
        <ele>188.60000610352</ele>
        <time>2019-08-30T11:55:18.000Z</time>
      </trkpt>
      <trkpt lat="50.62347" lon="5.44439">
        <ele>189</ele>
        <time>2019-08-30T11:55:26.000Z</time>
      </trkpt>
      <trkpt lat="50.62347" lon="5.44445">
        <ele>189.39999389648</ele>
        <time>2019-08-30T11:55:27.000Z</time>
      </trkpt>
      <trkpt lat="50.62348" lon="5.44451">
        <ele>189.80000305176</ele>
        <time>2019-08-30T11:55:28.000Z</time>
      </trkpt>
      <trkpt lat="50.62348" lon="5.44456">
        <ele>190.19999694824</ele>
        <time>2019-08-30T11:55:29.000Z</time>
      </trkpt>
      <trkpt lat="50.62349" lon="5.44462">
        <ele>190.60000610352</ele>
        <time>2019-08-30T11:55:30.000Z</time>
      </trkpt>
      <trkpt lat="50.62349" lon="5.44476">
        <ele>190.60000610352</ele>
        <time>2019-08-30T11:55:33.000Z</time>
      </trkpt>
      <trkpt lat="50.62351" lon="5.44504">
        <ele>190.60000610352</ele>
        <time>2019-08-30T11:55:39.000Z</time>
      </trkpt>
      <trkpt lat="50.62352" lon="5.44549">
        <ele>190.60000610352</ele>
        <time>2019-08-30T11:55:47.000Z</time>
      </trkpt>
      <trkpt lat="50.62351" lon="5.44594">
        <ele>190.60000610352</ele>
        <time>2019-08-30T11:55:55.000Z</time>
      </trkpt>
      <trkpt lat="50.62348" lon="5.44646">
        <ele>190.60000610352</ele>
        <time>2019-08-30T11:56:04.000Z</time>
      </trkpt>
      <trkpt lat="50.62342" lon="5.44699">
        <ele>190.60000610352</ele>
        <time>2019-08-30T11:56:13.000Z</time>
      </trkpt>
      <trkpt lat="50.62336" lon="5.44742">
        <ele>190.60000610352</ele>
        <time>2019-08-30T11:56:20.000Z</time>
      </trkpt>
      <trkpt lat="50.6233" lon="5.44791">
        <ele>190.60000610352</ele>
        <time>2019-08-30T11:56:28.000Z</time>
      </trkpt>
      <trkpt lat="50.62329" lon="5.44809">
        <ele>190.60000610352</ele>
        <time>2019-08-30T11:56:32.000Z</time>
      </trkpt>
      <trkpt lat="50.62325" lon="5.4484">
        <ele>190.60000610352</ele>
        <time>2019-08-30T11:56:37.000Z</time>
      </trkpt>
      <trkpt lat="50.62321" lon="5.44895">
        <ele>190.60000610352</ele>
        <time>2019-08-30T11:56:45.000Z</time>
      </trkpt>
      <trkpt lat="50.62319" lon="5.44956">
        <ele>190.60000610352</ele>
        <time>2019-08-30T11:56:53.000Z</time>
      </trkpt>
      <trkpt lat="50.62318" lon="5.4499">
        <ele>190.60000610352</ele>
        <time>2019-08-30T11:56:57.000Z</time>
      </trkpt>
      <trkpt lat="50.62318" lon="5.44999">
        <ele>190.19999694824</ele>
        <time>2019-08-30T11:56:58.000Z</time>
      </trkpt>
      <trkpt lat="50.62317" lon="5.45006">
        <ele>189.80000305176</ele>
        <time>2019-08-30T11:56:59.000Z</time>
      </trkpt>
      <trkpt lat="50.62317" lon="5.45015">
        <ele>189.39999389648</ele>
        <time>2019-08-30T11:57:00.000Z</time>
      </trkpt>
      <trkpt lat="50.62316" lon="5.45023">
        <ele>189</ele>
        <time>2019-08-30T11:57:01.000Z</time>
      </trkpt>
      <trkpt lat="50.62316" lon="5.45031">
        <ele>188.60000610352</ele>
        <time>2019-08-30T11:57:02.000Z</time>
      </trkpt>
      <trkpt lat="50.62317" lon="5.45079">
        <ele>188.60000610352</ele>
        <time>2019-08-30T11:57:08.000Z</time>
      </trkpt>
      <trkpt lat="50.62319" lon="5.45127">
        <ele>188.60000610352</ele>
        <time>2019-08-30T11:57:14.000Z</time>
      </trkpt>
      <trkpt lat="50.62321" lon="5.45188">
        <ele>188.60000610352</ele>
        <time>2019-08-30T11:57:22.000Z</time>
      </trkpt>
      <trkpt lat="50.62322" lon="5.4521">
        <ele>188.19999694824</ele>
        <time>2019-08-30T11:57:25.000Z</time>
      </trkpt>
      <trkpt lat="50.62322" lon="5.45217">
        <ele>187.80000305176</ele>
        <time>2019-08-30T11:57:26.000Z</time>
      </trkpt>
      <trkpt lat="50.62322" lon="5.45224">
        <ele>187.39999389648</ele>
        <time>2019-08-30T11:57:27.000Z</time>
      </trkpt>
      <trkpt lat="50.62322" lon="5.45231">
        <ele>187</ele>
        <time>2019-08-30T11:57:28.000Z</time>
      </trkpt>
      <trkpt lat="50.62322" lon="5.45238">
        <ele>186.60000610352</ele>
        <time>2019-08-30T11:57:29.000Z</time>
      </trkpt>
      <trkpt lat="50.62324" lon="5.45287">
        <ele>186.60000610352</ele>
        <time>2019-08-30T11:57:36.000Z</time>
      </trkpt>
      <trkpt lat="50.62324" lon="5.45293">
        <ele>186.60000610352</ele>
        <time>2019-08-30T11:57:37.000Z</time>
      </trkpt>
      <trkpt lat="50.62326" lon="5.45356">
        <ele>186.60000610352</ele>
        <time>2019-08-30T11:57:46.000Z</time>
      </trkpt>
      <trkpt lat="50.62327" lon="5.45417">
        <ele>186.60000610352</ele>
        <time>2019-08-30T11:57:55.000Z</time>
      </trkpt>
      <trkpt lat="50.62328" lon="5.45457">
        <ele>186.60000610352</ele>
        <time>2019-08-30T11:58:01.000Z</time>
      </trkpt>
      <trkpt lat="50.62329" lon="5.45476">
        <ele>186.60000610352</ele>
        <time>2019-08-30T11:58:04.000Z</time>
      </trkpt>
      <trkpt lat="50.6233" lon="5.45495">
        <ele>186.60000610352</ele>
        <time>2019-08-30T11:58:07.000Z</time>
      </trkpt>
      <trkpt lat="50.62332" lon="5.45519">
        <ele>186.19999694824</ele>
        <time>2019-08-30T11:58:11.000Z</time>
      </trkpt>
      <trkpt lat="50.62332" lon="5.45524">
        <ele>185.80000305176</ele>
        <time>2019-08-30T11:58:12.000Z</time>
      </trkpt>
      <trkpt lat="50.62332" lon="5.45529">
        <ele>185.39999389648</ele>
        <time>2019-08-30T11:58:13.000Z</time>
      </trkpt>
      <trkpt lat="50.62332" lon="5.45535">
        <ele>185</ele>
        <time>2019-08-30T11:58:14.000Z</time>
      </trkpt>
      <trkpt lat="50.62332" lon="5.45539">
        <ele>184.39999389648</ele>
        <time>2019-08-30T11:58:15.000Z</time>
      </trkpt>
      <trkpt lat="50.62331" lon="5.4554">
        <ele>184.39999389648</ele>
        <time>2019-08-30T11:58:17.000Z</time>
      </trkpt>
      <trkpt lat="50.62331" lon="5.45545">
        <ele>184.39999389648</ele>
        <time>2019-08-30T11:58:25.000Z</time>
      </trkpt>
      <trkpt lat="50.62331" lon="5.45555">
        <ele>184.39999389648</ele>
        <time>2019-08-30T11:58:28.000Z</time>
      </trkpt>
      <trkpt lat="50.6233" lon="5.45564">
        <ele>184.39999389648</ele>
        <time>2019-08-30T11:58:31.000Z</time>
      </trkpt>
      <trkpt lat="50.62326" lon="5.45567">
        <ele>184.39999389648</ele>
        <time>2019-08-30T11:58:33.000Z</time>
      </trkpt>
      <trkpt lat="50.62316" lon="5.45558">
        <ele>184.39999389648</ele>
        <time>2019-08-30T11:58:37.000Z</time>
      </trkpt>
      <trkpt lat="50.62313" lon="5.45554">
        <ele>184.39999389648</ele>
        <time>2019-08-30T11:58:38.000Z</time>
      </trkpt>
      <trkpt lat="50.62294" lon="5.45526">
        <ele>184.39999389648</ele>
        <time>2019-08-30T11:58:45.000Z</time>
      </trkpt>
      <trkpt lat="50.62272" lon="5.45489">
        <ele>184.39999389648</ele>
        <time>2019-08-30T11:58:52.000Z</time>
      </trkpt>
      <trkpt lat="50.6226" lon="5.45464">
        <ele>184.39999389648</ele>
        <time>2019-08-30T11:58:56.000Z</time>
      </trkpt>
      <trkpt lat="50.62253" lon="5.45452">
        <ele>184</ele>
        <time>2019-08-30T11:58:58.000Z</time>
      </trkpt>
      <trkpt lat="50.6225" lon="5.45446">
        <ele>183.19999694824</ele>
        <time>2019-08-30T11:58:59.000Z</time>
      </trkpt>
      <trkpt lat="50.62246" lon="5.45441">
        <ele>182.80000305176</ele>
        <time>2019-08-30T11:59:00.000Z</time>
      </trkpt>
      <trkpt lat="50.62242" lon="5.45435">
        <ele>182.39999389648</ele>
        <time>2019-08-30T11:59:01.000Z</time>
      </trkpt>
      <trkpt lat="50.62218" lon="5.45397">
        <ele>182.39999389648</ele>
        <time>2019-08-30T11:59:08.000Z</time>
      </trkpt>
      <trkpt lat="50.62209" lon="5.4538">
        <ele>182.39999389648</ele>
        <time>2019-08-30T11:59:11.000Z</time>
      </trkpt>
      <trkpt lat="50.62203" lon="5.45368">
        <ele>182.39999389648</ele>
        <time>2019-08-30T11:59:13.000Z</time>
      </trkpt>
      <trkpt lat="50.62182" lon="5.45331">
        <ele>182.39999389648</ele>
        <time>2019-08-30T11:59:20.000Z</time>
      </trkpt>
      <trkpt lat="50.62175" lon="5.45318">
        <ele>182</ele>
        <time>2019-08-30T11:59:24.000Z</time>
      </trkpt>
      <trkpt lat="50.62175" lon="5.45318">
        <ele>181.60000610352</ele>
        <time>2019-08-30T11:59:25.000Z</time>
      </trkpt>
      <trkpt lat="50.62175" lon="5.45317">
        <ele>180.19999694824</ele>
        <time>2019-08-30T11:59:30.000Z</time>
      </trkpt>
      <trkpt lat="50.62172" lon="5.45313">
        <ele>180.19999694824</ele>
        <time>2019-08-30T11:59:32.000Z</time>
      </trkpt>
      <trkpt lat="50.62162" lon="5.45297">
        <ele>180.19999694824</ele>
        <time>2019-08-30T11:59:37.000Z</time>
      </trkpt>
      <trkpt lat="50.62148" lon="5.45279">
        <ele>180.19999694824</ele>
        <time>2019-08-30T11:59:43.000Z</time>
      </trkpt>
      <trkpt lat="50.62146" lon="5.45275">
        <ele>180.19999694824</ele>
        <time>2019-08-30T11:59:46.000Z</time>
      </trkpt>
      <trkpt lat="50.62144" lon="5.45272">
        <ele>180.19999694824</ele>
        <time>2019-08-30T11:59:51.000Z</time>
      </trkpt>
      <trkpt lat="50.62138" lon="5.45256">
        <ele>180.19999694824</ele>
        <time>2019-08-30T11:59:56.000Z</time>
      </trkpt>
      <trkpt lat="50.62125" lon="5.45232">
        <ele>180.19999694824</ele>
        <time>2019-08-30T12:00:03.000Z</time>
      </trkpt>
      <trkpt lat="50.62112" lon="5.4521">
        <ele>180.19999694824</ele>
        <time>2019-08-30T12:00:10.000Z</time>
      </trkpt>
      <trkpt lat="50.62099" lon="5.45185">
        <ele>180.19999694824</ele>
        <time>2019-08-30T12:00:17.000Z</time>
      </trkpt>
      <trkpt lat="50.62087" lon="5.45164">
        <ele>180.60000610352</ele>
        <time>2019-08-30T12:00:23.000Z</time>
      </trkpt>
      <trkpt lat="50.62085" lon="5.4516">
        <ele>181</ele>
        <time>2019-08-30T12:00:24.000Z</time>
      </trkpt>
      <trkpt lat="50.62083" lon="5.45158">
        <ele>181.39999389648</ele>
        <time>2019-08-30T12:00:25.000Z</time>
      </trkpt>
      <trkpt lat="50.62082" lon="5.45156">
        <ele>182</ele>
        <time>2019-08-30T12:00:26.000Z</time>
      </trkpt>
      <trkpt lat="50.62082" lon="5.45156">
        <ele>182.39999389648</ele>
        <time>2019-08-30T12:00:27.000Z</time>
      </trkpt>
      <trkpt lat="50.62082" lon="5.45155">
        <ele>182.39999389648</ele>
        <time>2019-08-30T12:00:55.000Z</time>
      </trkpt>
      <trkpt lat="50.62072" lon="5.45141">
        <ele>182.39999389648</ele>
        <time>2019-08-30T12:01:00.000Z</time>
      </trkpt>
      <trkpt lat="50.62064" lon="5.45143">
        <ele>182.39999389648</ele>
        <time>2019-08-30T12:01:04.000Z</time>
      </trkpt>
      <trkpt lat="50.62069" lon="5.45145">
        <ele>182.39999389648</ele>
        <time>2019-08-30T12:01:07.000Z</time>
      </trkpt>
      <trkpt lat="50.62073" lon="5.45149">
        <ele>182.39999389648</ele>
        <time>2019-08-30T12:01:09.000Z</time>
      </trkpt>
      <trkpt lat="50.62077" lon="5.45157">
        <ele>182.39999389648</ele>
        <time>2019-08-30T12:01:11.000Z</time>
      </trkpt>
      <trkpt lat="50.62082" lon="5.45165">
        <ele>182.39999389648</ele>
        <time>2019-08-30T12:01:13.000Z</time>
      </trkpt>
      <trkpt lat="50.62092" lon="5.45182">
        <ele>182.39999389648</ele>
        <time>2019-08-30T12:01:17.000Z</time>
      </trkpt>
      <trkpt lat="50.62103" lon="5.452">
        <ele>182.39999389648</ele>
        <time>2019-08-30T12:01:21.000Z</time>
      </trkpt>
    </trkseg>
  </trk>
</gpx>